<?xml version="1.0" encoding="UTF-8"?>
<gpx version="1.1" creator="https://www.youtrack.es" xsi:schemaLocation="http://www.topografix.com/GPX/1/1 http://www.topografix.com/GPX/1/1/gpx.xsd http://www.garmin.com/xmlschemas/GpxExtensions/v3 http://www.garmin.com/xmlschemas/GpxExtensionsv3.xsd http://www.garmin.com/xmlschemas/TrackPointExtension/v1 http://www.garmin.com/xmlschemas/TrackPointExtensionv1.xsd" xmlns:gpxtpx="http://www.garmin.com/xmlschemas/TrackPointExtension/v1" xmlns:gpxx="http://www.garmin.com/xmlschemas/GpxExtensions/v3" xmlns:xsi="http://www.w3.org/2001/XMLSchema-instance">
  <metadata>
    <link href="https://www.youtrack.es">
      <text>YouTrack.es</text>
    </link>
    <time>2026-05-08T20:54:06Z</time>
  </metadata>
  <trk>
    <src>https://www.youtrack.es</src>
    <link href="https://www.youtrack.es/ruta/10671-tibidabobesos">
      <text>YouTrack.es</text>
    </link>
    <trkseg>
      <trkpt lat="41.38111500" lon="2.096919000">
        <ele>116.00000</ele>
        <time>2010-01-01T00:00:00Z</time>
      </trkpt>
      <trkpt lat="41.38113700" lon="2.096409000">
        <ele>117.00000</ele>
        <time>2010-01-01T00:00:15Z</time>
      </trkpt>
      <trkpt lat="41.38115900" lon="2.096094000">
        <ele>119.00000</ele>
        <time>2010-01-01T00:00:24Z</time>
      </trkpt>
      <trkpt lat="41.38117300" lon="2.095906000">
        <ele>119.00000</ele>
        <time>2010-01-01T00:00:30Z</time>
      </trkpt>
      <trkpt lat="41.38117550" lon="2.095861670">
        <ele>119.00000</ele>
        <time>2010-01-01T00:00:31Z</time>
      </trkpt>
      <trkpt lat="41.38118800" lon="2.095649000">
        <ele>120.00000</ele>
        <time>2010-01-01T00:00:38Z</time>
      </trkpt>
      <trkpt lat="41.38119800" lon="2.095571000">
        <ele>121.00000</ele>
        <time>2010-01-01T00:00:40Z</time>
      </trkpt>
      <trkpt lat="41.38119900" lon="2.095564000">
        <ele>121.00000</ele>
        <time>2010-01-01T00:00:40Z</time>
      </trkpt>
      <trkpt lat="41.38179500" lon="2.095848000">
        <ele>119.00000</ele>
        <time>2010-01-01T00:01:06Z</time>
      </trkpt>
      <trkpt lat="41.38189900" lon="2.095362000">
        <ele>123.00000</ele>
        <time>2010-01-01T00:01:21Z</time>
      </trkpt>
      <trkpt lat="41.38208700" lon="2.095335000">
        <ele>122.00000</ele>
        <time>2010-01-01T00:01:28Z</time>
      </trkpt>
      <trkpt lat="41.38249300" lon="2.095295000">
        <ele>122.00000</ele>
        <time>2010-01-01T00:01:45Z</time>
      </trkpt>
      <trkpt lat="41.38250400" lon="2.094853000">
        <ele>126.00000</ele>
        <time>2010-01-01T00:01:58Z</time>
      </trkpt>
      <trkpt lat="41.38260800" lon="2.094929000">
        <ele>126.00000</ele>
        <time>2010-01-01T00:02:03Z</time>
      </trkpt>
      <trkpt lat="41.38281700" lon="2.095096000">
        <ele>126.00000</ele>
        <time>2010-01-01T00:02:13Z</time>
      </trkpt>
      <trkpt lat="41.38298300" lon="2.094872000">
        <ele>129.00000</ele>
        <time>2010-01-01T00:02:22Z</time>
      </trkpt>
      <trkpt lat="41.38303700" lon="2.094799000">
        <ele>129.00000</ele>
        <time>2010-01-01T00:02:25Z</time>
      </trkpt>
      <trkpt lat="41.38328000" lon="2.094765000">
        <ele>131.00000</ele>
        <time>2010-01-01T00:02:35Z</time>
      </trkpt>
      <trkpt lat="41.38347200" lon="2.094464000">
        <ele>135.00000</ele>
        <time>2010-01-01T00:02:47Z</time>
      </trkpt>
      <trkpt lat="41.38369000" lon="2.094321000">
        <ele>137.00000</ele>
        <time>2010-01-01T00:02:56Z</time>
      </trkpt>
      <trkpt lat="41.38382500" lon="2.094232000">
        <ele>138.00000</ele>
        <time>2010-01-01T00:03:02Z</time>
      </trkpt>
      <trkpt lat="41.38391500" lon="2.093929000">
        <ele>140.00000</ele>
        <time>2010-01-01T00:03:12Z</time>
      </trkpt>
      <trkpt lat="41.38407900" lon="2.094091000">
        <ele>139.00000</ele>
        <time>2010-01-01T00:03:20Z</time>
      </trkpt>
      <trkpt lat="41.38415600" lon="2.093643000">
        <ele>142.00000</ele>
        <time>2010-01-01T00:03:34Z</time>
      </trkpt>
      <trkpt lat="41.38434300" lon="2.093881000">
        <ele>141.00000</ele>
        <time>2010-01-01T00:03:45Z</time>
      </trkpt>
      <trkpt lat="41.38461900" lon="2.093578000">
        <ele>146.00000</ele>
        <time>2010-01-01T00:03:59Z</time>
      </trkpt>
      <trkpt lat="41.38488500" lon="2.092787000">
        <ele>153.00000</ele>
        <time>2010-01-01T00:04:25Z</time>
      </trkpt>
      <trkpt lat="41.38494900" lon="2.092599000">
        <ele>155.00000</ele>
        <time>2010-01-01T00:04:31Z</time>
      </trkpt>
      <trkpt lat="41.38496200" lon="2.092619000">
        <ele>155.00000</ele>
        <time>2010-01-01T00:04:32Z</time>
      </trkpt>
      <trkpt lat="41.38511100" lon="2.092697000">
        <ele>156.00000</ele>
        <time>2010-01-01T00:04:38Z</time>
      </trkpt>
      <trkpt lat="41.38530300" lon="2.092798000">
        <ele>157.00000</ele>
        <time>2010-01-01T00:04:47Z</time>
      </trkpt>
      <trkpt lat="41.38536600" lon="2.092831000">
        <ele>157.00000</ele>
        <time>2010-01-01T00:04:49Z</time>
      </trkpt>
      <trkpt lat="41.38545300" lon="2.092685000">
        <ele>158.00000</ele>
        <time>2010-01-01T00:04:55Z</time>
      </trkpt>
      <trkpt lat="41.38563500" lon="2.092378000">
        <ele>162.00000</ele>
        <time>2010-01-01T00:05:07Z</time>
      </trkpt>
      <trkpt lat="41.38563800" lon="2.092373000">
        <ele>162.00000</ele>
        <time>2010-01-01T00:05:07Z</time>
      </trkpt>
      <trkpt lat="41.38577300" lon="2.092350000">
        <ele>164.00000</ele>
        <time>2010-01-01T00:05:12Z</time>
      </trkpt>
      <trkpt lat="41.38589100" lon="2.092330000">
        <ele>167.00000</ele>
        <time>2010-01-01T00:05:17Z</time>
      </trkpt>
      <trkpt lat="41.38602200" lon="2.092308000">
        <ele>170.00000</ele>
        <time>2010-01-01T00:05:22Z</time>
      </trkpt>
      <trkpt lat="41.38613400" lon="2.092289000">
        <ele>172.00000</ele>
        <time>2010-01-01T00:05:27Z</time>
      </trkpt>
      <trkpt lat="41.38621500" lon="2.092275000">
        <ele>173.00000</ele>
        <time>2010-01-01T00:05:30Z</time>
      </trkpt>
      <trkpt lat="41.38630000" lon="2.092180000">
        <ele>174.00000</ele>
        <time>2010-01-01T00:05:35Z</time>
      </trkpt>
      <trkpt lat="41.38639700" lon="2.092065000">
        <ele>174.00000</ele>
        <time>2010-01-01T00:05:40Z</time>
      </trkpt>
      <trkpt lat="41.38663700" lon="2.091780000">
        <ele>176.00000</ele>
        <time>2010-01-01T00:05:53Z</time>
      </trkpt>
      <trkpt lat="41.38671700" lon="2.091685000">
        <ele>176.00000</ele>
        <time>2010-01-01T00:05:57Z</time>
      </trkpt>
      <trkpt lat="41.38674000" lon="2.091657000">
        <ele>176.00000</ele>
        <time>2010-01-01T00:05:58Z</time>
      </trkpt>
      <trkpt lat="41.38685900" lon="2.091606000">
        <ele>178.00000</ele>
        <time>2010-01-01T00:06:03Z</time>
      </trkpt>
      <trkpt lat="41.38690600" lon="2.091586000">
        <ele>178.00000</ele>
        <time>2010-01-01T00:06:05Z</time>
      </trkpt>
      <trkpt lat="41.38691900" lon="2.091597000">
        <ele>178.00000</ele>
        <time>2010-01-01T00:06:06Z</time>
      </trkpt>
      <trkpt lat="41.38694400" lon="2.091655000">
        <ele>178.00000</ele>
        <time>2010-01-01T00:06:08Z</time>
      </trkpt>
      <trkpt lat="41.38702400" lon="2.091804000">
        <ele>180.00000</ele>
        <time>2010-01-01T00:06:13Z</time>
      </trkpt>
      <trkpt lat="41.38707000" lon="2.091942000">
        <ele>181.00000</ele>
        <time>2010-01-01T00:06:18Z</time>
      </trkpt>
      <trkpt lat="41.38708100" lon="2.092045000">
        <ele>182.00000</ele>
        <time>2010-01-01T00:06:21Z</time>
      </trkpt>
      <trkpt lat="41.38710700" lon="2.092125000">
        <ele>182.00000</ele>
        <time>2010-01-01T00:06:24Z</time>
      </trkpt>
      <trkpt lat="41.38714800" lon="2.092144000">
        <ele>183.00000</ele>
        <time>2010-01-01T00:06:25Z</time>
      </trkpt>
      <trkpt lat="41.38724400" lon="2.092163000">
        <ele>183.00000</ele>
        <time>2010-01-01T00:06:29Z</time>
      </trkpt>
      <trkpt lat="41.38734100" lon="2.092166000">
        <ele>184.00000</ele>
        <time>2010-01-01T00:06:33Z</time>
      </trkpt>
      <trkpt lat="41.38746000" lon="2.092169000">
        <ele>186.00000</ele>
        <time>2010-01-01T00:06:38Z</time>
      </trkpt>
      <trkpt lat="41.38749600" lon="2.092170000">
        <ele>186.00000</ele>
        <time>2010-01-01T00:06:39Z</time>
      </trkpt>
      <trkpt lat="41.38757100" lon="2.092175000">
        <ele>187.00000</ele>
        <time>2010-01-01T00:06:42Z</time>
      </trkpt>
      <trkpt lat="41.38763100" lon="2.092183000">
        <ele>188.00000</ele>
        <time>2010-01-01T00:06:45Z</time>
      </trkpt>
      <trkpt lat="41.38770200" lon="2.092194000">
        <ele>190.00000</ele>
        <time>2010-01-01T00:06:48Z</time>
      </trkpt>
      <trkpt lat="41.38776500" lon="2.092206000">
        <ele>191.00000</ele>
        <time>2010-01-01T00:06:50Z</time>
      </trkpt>
      <trkpt lat="41.38784400" lon="2.092220000">
        <ele>191.00000</ele>
        <time>2010-01-01T00:06:53Z</time>
      </trkpt>
      <trkpt lat="41.38790200" lon="2.092237000">
        <ele>191.00000</ele>
        <time>2010-01-01T00:06:56Z</time>
      </trkpt>
      <trkpt lat="41.38794500" lon="2.092250000">
        <ele>192.00000</ele>
        <time>2010-01-01T00:06:57Z</time>
      </trkpt>
      <trkpt lat="41.38798400" lon="2.092262000">
        <ele>192.00000</ele>
        <time>2010-01-01T00:06:59Z</time>
      </trkpt>
      <trkpt lat="41.38804000" lon="2.092267000">
        <ele>192.00000</ele>
        <time>2010-01-01T00:07:01Z</time>
      </trkpt>
      <trkpt lat="41.38806500" lon="2.092269000">
        <ele>192.00000</ele>
        <time>2010-01-01T00:07:02Z</time>
      </trkpt>
      <trkpt lat="41.38812800" lon="2.092281000">
        <ele>193.00000</ele>
        <time>2010-01-01T00:07:05Z</time>
      </trkpt>
      <trkpt lat="41.38818900" lon="2.092292000">
        <ele>194.00000</ele>
        <time>2010-01-01T00:07:07Z</time>
      </trkpt>
      <trkpt lat="41.38823300" lon="2.092300000">
        <ele>194.00000</ele>
        <time>2010-01-01T00:07:09Z</time>
      </trkpt>
      <trkpt lat="41.38830100" lon="2.092310000">
        <ele>195.00000</ele>
        <time>2010-01-01T00:07:12Z</time>
      </trkpt>
      <trkpt lat="41.38831700" lon="2.092313000">
        <ele>195.00000</ele>
        <time>2010-01-01T00:07:12Z</time>
      </trkpt>
      <trkpt lat="41.38839500" lon="2.092318000">
        <ele>196.00000</ele>
        <time>2010-01-01T00:07:16Z</time>
      </trkpt>
      <trkpt lat="41.38842700" lon="2.092318000">
        <ele>196.00000</ele>
        <time>2010-01-01T00:07:17Z</time>
      </trkpt>
      <trkpt lat="41.38846000" lon="2.092319000">
        <ele>196.00000</ele>
        <time>2010-01-01T00:07:18Z</time>
      </trkpt>
      <trkpt lat="41.38851100" lon="2.092323000">
        <ele>197.00000</ele>
        <time>2010-01-01T00:07:20Z</time>
      </trkpt>
      <trkpt lat="41.38853500" lon="2.092325000">
        <ele>197.00000</ele>
        <time>2010-01-01T00:07:21Z</time>
      </trkpt>
      <trkpt lat="41.38859600" lon="2.092346000">
        <ele>198.00000</ele>
        <time>2010-01-01T00:07:24Z</time>
      </trkpt>
      <trkpt lat="41.38863500" lon="2.092355000">
        <ele>199.00000</ele>
        <time>2010-01-01T00:07:25Z</time>
      </trkpt>
      <trkpt lat="41.38866500" lon="2.092362000">
        <ele>199.00000</ele>
        <time>2010-01-01T00:07:27Z</time>
      </trkpt>
      <trkpt lat="41.38870100" lon="2.092371000">
        <ele>200.00000</ele>
        <time>2010-01-01T00:07:28Z</time>
      </trkpt>
      <trkpt lat="41.38876000" lon="2.092401000">
        <ele>201.00000</ele>
        <time>2010-01-01T00:07:31Z</time>
      </trkpt>
      <trkpt lat="41.38878700" lon="2.092416000">
        <ele>202.00000</ele>
        <time>2010-01-01T00:07:32Z</time>
      </trkpt>
      <trkpt lat="41.38881600" lon="2.092429000">
        <ele>202.00000</ele>
        <time>2010-01-01T00:07:33Z</time>
      </trkpt>
      <trkpt lat="41.38888800" lon="2.092467000">
        <ele>204.00000</ele>
        <time>2010-01-01T00:07:36Z</time>
      </trkpt>
      <trkpt lat="41.38893400" lon="2.092482000">
        <ele>204.00000</ele>
        <time>2010-01-01T00:07:38Z</time>
      </trkpt>
      <trkpt lat="41.38898900" lon="2.092496000">
        <ele>203.00000</ele>
        <time>2010-01-01T00:07:40Z</time>
      </trkpt>
      <trkpt lat="41.38904300" lon="2.092515000">
        <ele>203.00000</ele>
        <time>2010-01-01T00:07:42Z</time>
      </trkpt>
      <trkpt lat="41.38909100" lon="2.092533000">
        <ele>203.00000</ele>
        <time>2010-01-01T00:07:44Z</time>
      </trkpt>
      <trkpt lat="41.38913900" lon="2.092550000">
        <ele>203.00000</ele>
        <time>2010-01-01T00:07:46Z</time>
      </trkpt>
      <trkpt lat="41.38917700" lon="2.092567000">
        <ele>203.00000</ele>
        <time>2010-01-01T00:07:48Z</time>
      </trkpt>
      <trkpt lat="41.38920100" lon="2.092578000">
        <ele>204.00000</ele>
        <time>2010-01-01T00:07:49Z</time>
      </trkpt>
      <trkpt lat="41.38926600" lon="2.092598000">
        <ele>204.00000</ele>
        <time>2010-01-01T00:07:52Z</time>
      </trkpt>
      <trkpt lat="41.38931500" lon="2.092617000">
        <ele>205.00000</ele>
        <time>2010-01-01T00:07:54Z</time>
      </trkpt>
      <trkpt lat="41.38940300" lon="2.092645000">
        <ele>205.00000</ele>
        <time>2010-01-01T00:07:57Z</time>
      </trkpt>
      <trkpt lat="41.38947800" lon="2.092678000">
        <ele>206.00000</ele>
        <time>2010-01-01T00:08:00Z</time>
      </trkpt>
      <trkpt lat="41.38953000" lon="2.092716000">
        <ele>207.00000</ele>
        <time>2010-01-01T00:08:03Z</time>
      </trkpt>
      <trkpt lat="41.38957900" lon="2.092768000">
        <ele>208.00000</ele>
        <time>2010-01-01T00:08:05Z</time>
      </trkpt>
      <trkpt lat="41.38963900" lon="2.092835000">
        <ele>210.00000</ele>
        <time>2010-01-01T00:08:08Z</time>
      </trkpt>
      <trkpt lat="41.38970300" lon="2.092903000">
        <ele>211.00000</ele>
        <time>2010-01-01T00:08:12Z</time>
      </trkpt>
      <trkpt lat="41.38975700" lon="2.092955000">
        <ele>212.00000</ele>
        <time>2010-01-01T00:08:14Z</time>
      </trkpt>
      <trkpt lat="41.38977700" lon="2.092974000">
        <ele>212.00000</ele>
        <time>2010-01-01T00:08:15Z</time>
      </trkpt>
      <trkpt lat="41.38982100" lon="2.093014000">
        <ele>214.00000</ele>
        <time>2010-01-01T00:08:18Z</time>
      </trkpt>
      <trkpt lat="41.38986500" lon="2.093055000">
        <ele>215.00000</ele>
        <time>2010-01-01T00:08:20Z</time>
      </trkpt>
      <trkpt lat="41.38989400" lon="2.093083000">
        <ele>215.00000</ele>
        <time>2010-01-01T00:08:21Z</time>
      </trkpt>
      <trkpt lat="41.38994800" lon="2.093131000">
        <ele>217.00000</ele>
        <time>2010-01-01T00:08:24Z</time>
      </trkpt>
      <trkpt lat="41.38996600" lon="2.093146000">
        <ele>217.00000</ele>
        <time>2010-01-01T00:08:25Z</time>
      </trkpt>
      <trkpt lat="41.39002600" lon="2.093179000">
        <ele>218.00000</ele>
        <time>2010-01-01T00:08:27Z</time>
      </trkpt>
      <trkpt lat="41.39009200" lon="2.093199000">
        <ele>220.00000</ele>
        <time>2010-01-01T00:08:30Z</time>
      </trkpt>
      <trkpt lat="41.39011700" lon="2.093188000">
        <ele>220.00000</ele>
        <time>2010-01-01T00:08:31Z</time>
      </trkpt>
      <trkpt lat="41.39013900" lon="2.093141000">
        <ele>219.00000</ele>
        <time>2010-01-01T00:08:33Z</time>
      </trkpt>
      <trkpt lat="41.39015400" lon="2.093080000">
        <ele>219.00000</ele>
        <time>2010-01-01T00:08:35Z</time>
      </trkpt>
      <trkpt lat="41.39016100" lon="2.093030000">
        <ele>218.00000</ele>
        <time>2010-01-01T00:08:36Z</time>
      </trkpt>
      <trkpt lat="41.39015700" lon="2.093002000">
        <ele>218.00000</ele>
        <time>2010-01-01T00:08:37Z</time>
      </trkpt>
      <trkpt lat="41.39013000" lon="2.092952000">
        <ele>216.00000</ele>
        <time>2010-01-01T00:08:39Z</time>
      </trkpt>
      <trkpt lat="41.39012500" lon="2.092926000">
        <ele>216.00000</ele>
        <time>2010-01-01T00:08:40Z</time>
      </trkpt>
      <trkpt lat="41.39013000" lon="2.092892000">
        <ele>215.00000</ele>
        <time>2010-01-01T00:08:41Z</time>
      </trkpt>
      <trkpt lat="41.39015500" lon="2.092795000">
        <ele>215.00000</ele>
        <time>2010-01-01T00:08:44Z</time>
      </trkpt>
      <trkpt lat="41.39015600" lon="2.092755000">
        <ele>214.00000</ele>
        <time>2010-01-01T00:08:45Z</time>
      </trkpt>
      <trkpt lat="41.39016400" lon="2.092711000">
        <ele>213.00000</ele>
        <time>2010-01-01T00:08:46Z</time>
      </trkpt>
      <trkpt lat="41.39019700" lon="2.092640000">
        <ele>213.00000</ele>
        <time>2010-01-01T00:08:49Z</time>
      </trkpt>
      <trkpt lat="41.39020900" lon="2.092622000">
        <ele>213.00000</ele>
        <time>2010-01-01T00:08:49Z</time>
      </trkpt>
      <trkpt lat="41.39023400" lon="2.092574000">
        <ele>213.00000</ele>
        <time>2010-01-01T00:08:51Z</time>
      </trkpt>
      <trkpt lat="41.39026800" lon="2.092507000">
        <ele>212.00000</ele>
        <time>2010-01-01T00:08:54Z</time>
      </trkpt>
      <trkpt lat="41.39029700" lon="2.092445000">
        <ele>212.00000</ele>
        <time>2010-01-01T00:08:56Z</time>
      </trkpt>
      <trkpt lat="41.39031100" lon="2.092416000">
        <ele>212.00000</ele>
        <time>2010-01-01T00:08:57Z</time>
      </trkpt>
      <trkpt lat="41.39033800" lon="2.092384000">
        <ele>212.00000</ele>
        <time>2010-01-01T00:08:58Z</time>
      </trkpt>
      <trkpt lat="41.39037800" lon="2.092363000">
        <ele>213.00000</ele>
        <time>2010-01-01T00:09:00Z</time>
      </trkpt>
      <trkpt lat="41.39040100" lon="2.092350000">
        <ele>213.00000</ele>
        <time>2010-01-01T00:09:01Z</time>
      </trkpt>
      <trkpt lat="41.39042100" lon="2.092339000">
        <ele>214.00000</ele>
        <time>2010-01-01T00:09:02Z</time>
      </trkpt>
      <trkpt lat="41.39046400" lon="2.092304000">
        <ele>214.00000</ele>
        <time>2010-01-01T00:09:04Z</time>
      </trkpt>
      <trkpt lat="41.39049400" lon="2.092279000">
        <ele>214.00000</ele>
        <time>2010-01-01T00:09:05Z</time>
      </trkpt>
      <trkpt lat="41.39054600" lon="2.092231000">
        <ele>214.00000</ele>
        <time>2010-01-01T00:09:08Z</time>
      </trkpt>
      <trkpt lat="41.39059500" lon="2.092197000">
        <ele>215.00000</ele>
        <time>2010-01-01T00:09:10Z</time>
      </trkpt>
      <trkpt lat="41.39063200" lon="2.092174000">
        <ele>216.00000</ele>
        <time>2010-01-01T00:09:12Z</time>
      </trkpt>
      <trkpt lat="41.39069500" lon="2.092136000">
        <ele>217.00000</ele>
        <time>2010-01-01T00:09:15Z</time>
      </trkpt>
      <trkpt lat="41.39073500" lon="2.092123000">
        <ele>218.00000</ele>
        <time>2010-01-01T00:09:16Z</time>
      </trkpt>
      <trkpt lat="41.39076800" lon="2.092113000">
        <ele>218.00000</ele>
        <time>2010-01-01T00:09:18Z</time>
      </trkpt>
      <trkpt lat="41.39081600" lon="2.092070000">
        <ele>218.00000</ele>
        <time>2010-01-01T00:09:20Z</time>
      </trkpt>
      <trkpt lat="41.39088300" lon="2.092037000">
        <ele>219.00000</ele>
        <time>2010-01-01T00:09:23Z</time>
      </trkpt>
      <trkpt lat="41.39091200" lon="2.092023000">
        <ele>219.00000</ele>
        <time>2010-01-01T00:09:24Z</time>
      </trkpt>
      <trkpt lat="41.39095600" lon="2.092002000">
        <ele>220.00000</ele>
        <time>2010-01-01T00:09:26Z</time>
      </trkpt>
      <trkpt lat="41.39101400" lon="2.091973000">
        <ele>220.00000</ele>
        <time>2010-01-01T00:09:28Z</time>
      </trkpt>
      <trkpt lat="41.39107000" lon="2.091953000">
        <ele>221.00000</ele>
        <time>2010-01-01T00:09:31Z</time>
      </trkpt>
      <trkpt lat="41.39113900" lon="2.091922000">
        <ele>222.00000</ele>
        <time>2010-01-01T00:09:34Z</time>
      </trkpt>
      <trkpt lat="41.39123300" lon="2.091881000">
        <ele>223.00000</ele>
        <time>2010-01-01T00:09:37Z</time>
      </trkpt>
      <trkpt lat="41.39129600" lon="2.091852000">
        <ele>224.00000</ele>
        <time>2010-01-01T00:09:40Z</time>
      </trkpt>
      <trkpt lat="41.39130900" lon="2.091846000">
        <ele>224.00000</ele>
        <time>2010-01-01T00:09:41Z</time>
      </trkpt>
      <trkpt lat="41.39137900" lon="2.091842000">
        <ele>226.00000</ele>
        <time>2010-01-01T00:09:43Z</time>
      </trkpt>
      <trkpt lat="41.39139500" lon="2.091841000">
        <ele>226.00000</ele>
        <time>2010-01-01T00:09:44Z</time>
      </trkpt>
      <trkpt lat="41.39143900" lon="2.091853000">
        <ele>227.00000</ele>
        <time>2010-01-01T00:09:46Z</time>
      </trkpt>
      <trkpt lat="41.39149200" lon="2.091847000">
        <ele>227.00000</ele>
        <time>2010-01-01T00:09:48Z</time>
      </trkpt>
      <trkpt lat="41.39156900" lon="2.091809000">
        <ele>229.00000</ele>
        <time>2010-01-01T00:09:51Z</time>
      </trkpt>
      <trkpt lat="41.39159800" lon="2.091798000">
        <ele>229.00000</ele>
        <time>2010-01-01T00:09:53Z</time>
      </trkpt>
      <trkpt lat="41.39161000" lon="2.091785000">
        <ele>229.00000</ele>
        <time>2010-01-01T00:09:53Z</time>
      </trkpt>
      <trkpt lat="41.39161500" lon="2.091739000">
        <ele>229.00000</ele>
        <time>2010-01-01T00:09:55Z</time>
      </trkpt>
      <trkpt lat="41.39157700" lon="2.091692000">
        <ele>229.00000</ele>
        <time>2010-01-01T00:09:57Z</time>
      </trkpt>
      <trkpt lat="41.39153500" lon="2.091623000">
        <ele>228.00000</ele>
        <time>2010-01-01T00:09:59Z</time>
      </trkpt>
      <trkpt lat="41.39151600" lon="2.091592000">
        <ele>228.00000</ele>
        <time>2010-01-01T00:10:01Z</time>
      </trkpt>
      <trkpt lat="41.39150600" lon="2.091569000">
        <ele>228.00000</ele>
        <time>2010-01-01T00:10:01Z</time>
      </trkpt>
      <trkpt lat="41.39150100" lon="2.091556000">
        <ele>228.00000</ele>
        <time>2010-01-01T00:10:02Z</time>
      </trkpt>
      <trkpt lat="41.39150600" lon="2.091524000">
        <ele>228.00000</ele>
        <time>2010-01-01T00:10:03Z</time>
      </trkpt>
      <trkpt lat="41.39150700" lon="2.091519000">
        <ele>228.00000</ele>
        <time>2010-01-01T00:10:03Z</time>
      </trkpt>
      <trkpt lat="41.39157300" lon="2.091536000">
        <ele>229.00000</ele>
        <time>2010-01-01T00:10:06Z</time>
      </trkpt>
      <trkpt lat="41.39168900" lon="2.091597000">
        <ele>230.00000</ele>
        <time>2010-01-01T00:10:11Z</time>
      </trkpt>
      <trkpt lat="41.39181600" lon="2.091671000">
        <ele>231.00000</ele>
        <time>2010-01-01T00:10:16Z</time>
      </trkpt>
      <trkpt lat="41.39189900" lon="2.091719000">
        <ele>233.00000</ele>
        <time>2010-01-01T00:10:20Z</time>
      </trkpt>
      <trkpt lat="41.39188700" lon="2.091754000">
        <ele>233.00000</ele>
        <time>2010-01-01T00:10:21Z</time>
      </trkpt>
      <trkpt lat="41.39197300" lon="2.091804000">
        <ele>234.00000</ele>
        <time>2010-01-01T00:10:25Z</time>
      </trkpt>
      <trkpt lat="41.39205700" lon="2.091860000">
        <ele>235.00000</ele>
        <time>2010-01-01T00:10:28Z</time>
      </trkpt>
      <trkpt lat="41.39212400" lon="2.091905000">
        <ele>236.00000</ele>
        <time>2010-01-01T00:10:31Z</time>
      </trkpt>
      <trkpt lat="41.39219800" lon="2.091962000">
        <ele>237.00000</ele>
        <time>2010-01-01T00:10:35Z</time>
      </trkpt>
      <trkpt lat="41.39228000" lon="2.092038000">
        <ele>238.00000</ele>
        <time>2010-01-01T00:10:39Z</time>
      </trkpt>
      <trkpt lat="41.39236300" lon="2.092113000">
        <ele>239.00000</ele>
        <time>2010-01-01T00:10:43Z</time>
      </trkpt>
      <trkpt lat="41.39245900" lon="2.092200000">
        <ele>241.00000</ele>
        <time>2010-01-01T00:10:47Z</time>
      </trkpt>
      <trkpt lat="41.39255400" lon="2.092304000">
        <ele>243.00000</ele>
        <time>2010-01-01T00:10:52Z</time>
      </trkpt>
      <trkpt lat="41.39264300" lon="2.092401000">
        <ele>245.00000</ele>
        <time>2010-01-01T00:10:57Z</time>
      </trkpt>
      <trkpt lat="41.39272100" lon="2.092479000">
        <ele>247.00000</ele>
        <time>2010-01-01T00:11:01Z</time>
      </trkpt>
      <trkpt lat="41.39305600" lon="2.092894000">
        <ele>251.00000</ele>
        <time>2010-01-01T00:11:19Z</time>
      </trkpt>
      <trkpt lat="41.39327700" lon="2.093187000">
        <ele>258.00000</ele>
        <time>2010-01-01T00:11:32Z</time>
      </trkpt>
      <trkpt lat="41.39348700" lon="2.093466000">
        <ele>261.00000</ele>
        <time>2010-01-01T00:11:44Z</time>
      </trkpt>
      <trkpt lat="41.39350000" lon="2.093491000">
        <ele>261.00000</ele>
        <time>2010-01-01T00:11:44Z</time>
      </trkpt>
      <trkpt lat="41.39355240" lon="2.093727080">
        <ele>263.00000</ele>
        <time>2010-01-01T00:11:52Z</time>
      </trkpt>
      <trkpt lat="41.39355400" lon="2.093734000">
        <ele>263.00000</ele>
        <time>2010-01-01T00:11:52Z</time>
      </trkpt>
      <trkpt lat="41.39357900" lon="2.093867000">
        <ele>264.00000</ele>
        <time>2010-01-01T00:11:56Z</time>
      </trkpt>
      <trkpt lat="41.39358800" lon="2.093900000">
        <ele>265.00000</ele>
        <time>2010-01-01T00:11:57Z</time>
      </trkpt>
      <trkpt lat="41.39360900" lon="2.093955000">
        <ele>266.00000</ele>
        <time>2010-01-01T00:11:59Z</time>
      </trkpt>
      <trkpt lat="41.39363300" lon="2.094004000">
        <ele>267.00000</ele>
        <time>2010-01-01T00:12:01Z</time>
      </trkpt>
      <trkpt lat="41.39356900" lon="2.094081000">
        <ele>269.00000</ele>
        <time>2010-01-01T00:12:04Z</time>
      </trkpt>
      <trkpt lat="41.39354100" lon="2.094111000">
        <ele>269.00000</ele>
        <time>2010-01-01T00:12:06Z</time>
      </trkpt>
      <trkpt lat="41.39351800" lon="2.094126000">
        <ele>270.00000</ele>
        <time>2010-01-01T00:12:07Z</time>
      </trkpt>
      <trkpt lat="41.39349700" lon="2.094133000">
        <ele>270.00000</ele>
        <time>2010-01-01T00:12:08Z</time>
      </trkpt>
      <trkpt lat="41.39346700" lon="2.094134000">
        <ele>270.00000</ele>
        <time>2010-01-01T00:12:09Z</time>
      </trkpt>
      <trkpt lat="41.39344000" lon="2.094132000">
        <ele>270.00000</ele>
        <time>2010-01-01T00:12:10Z</time>
      </trkpt>
      <trkpt lat="41.39341900" lon="2.094126000">
        <ele>270.00000</ele>
        <time>2010-01-01T00:12:11Z</time>
      </trkpt>
      <trkpt lat="41.39338200" lon="2.094110000">
        <ele>269.00000</ele>
        <time>2010-01-01T00:12:12Z</time>
      </trkpt>
      <trkpt lat="41.39335000" lon="2.094096000">
        <ele>269.00000</ele>
        <time>2010-01-01T00:12:14Z</time>
      </trkpt>
      <trkpt lat="41.39331100" lon="2.094084000">
        <ele>269.00000</ele>
        <time>2010-01-01T00:12:15Z</time>
      </trkpt>
      <trkpt lat="41.39327600" lon="2.094078000">
        <ele>269.00000</ele>
        <time>2010-01-01T00:12:17Z</time>
      </trkpt>
      <trkpt lat="41.39323900" lon="2.094079000">
        <ele>270.00000</ele>
        <time>2010-01-01T00:12:18Z</time>
      </trkpt>
      <trkpt lat="41.39318800" lon="2.094088000">
        <ele>271.00000</ele>
        <time>2010-01-01T00:12:20Z</time>
      </trkpt>
      <trkpt lat="41.39312500" lon="2.094124000">
        <ele>272.00000</ele>
        <time>2010-01-01T00:12:23Z</time>
      </trkpt>
      <trkpt lat="41.39309600" lon="2.094135000">
        <ele>273.00000</ele>
        <time>2010-01-01T00:12:24Z</time>
      </trkpt>
      <trkpt lat="41.39307200" lon="2.094140000">
        <ele>273.00000</ele>
        <time>2010-01-01T00:12:25Z</time>
      </trkpt>
      <trkpt lat="41.39305200" lon="2.094140000">
        <ele>273.00000</ele>
        <time>2010-01-01T00:12:26Z</time>
      </trkpt>
      <trkpt lat="41.39303400" lon="2.094133000">
        <ele>274.00000</ele>
        <time>2010-01-01T00:12:27Z</time>
      </trkpt>
      <trkpt lat="41.39301000" lon="2.094120000">
        <ele>274.00000</ele>
        <time>2010-01-01T00:12:28Z</time>
      </trkpt>
      <trkpt lat="41.39298900" lon="2.094102000">
        <ele>275.00000</ele>
        <time>2010-01-01T00:12:29Z</time>
      </trkpt>
      <trkpt lat="41.39297400" lon="2.094081000">
        <ele>275.00000</ele>
        <time>2010-01-01T00:12:30Z</time>
      </trkpt>
      <trkpt lat="41.39293700" lon="2.094002000">
        <ele>275.00000</ele>
        <time>2010-01-01T00:12:32Z</time>
      </trkpt>
      <trkpt lat="41.39290400" lon="2.093928000">
        <ele>275.00000</ele>
        <time>2010-01-01T00:12:35Z</time>
      </trkpt>
      <trkpt lat="41.39287600" lon="2.093875000">
        <ele>275.00000</ele>
        <time>2010-01-01T00:12:37Z</time>
      </trkpt>
      <trkpt lat="41.39285200" lon="2.093839000">
        <ele>274.00000</ele>
        <time>2010-01-01T00:12:38Z</time>
      </trkpt>
      <trkpt lat="41.39279800" lon="2.093777000">
        <ele>274.00000</ele>
        <time>2010-01-01T00:12:41Z</time>
      </trkpt>
      <trkpt lat="41.39272800" lon="2.093723000">
        <ele>274.00000</ele>
        <time>2010-01-01T00:12:45Z</time>
      </trkpt>
      <trkpt lat="41.39269800" lon="2.093703000">
        <ele>274.00000</ele>
        <time>2010-01-01T00:12:46Z</time>
      </trkpt>
      <trkpt lat="41.39259900" lon="2.093655000">
        <ele>274.00000</ele>
        <time>2010-01-01T00:12:50Z</time>
      </trkpt>
      <trkpt lat="41.39253700" lon="2.093622000">
        <ele>274.00000</ele>
        <time>2010-01-01T00:12:53Z</time>
      </trkpt>
      <trkpt lat="41.39248300" lon="2.093593000">
        <ele>273.00000</ele>
        <time>2010-01-01T00:12:55Z</time>
      </trkpt>
      <trkpt lat="41.39243800" lon="2.093567000">
        <ele>273.00000</ele>
        <time>2010-01-01T00:12:57Z</time>
      </trkpt>
      <trkpt lat="41.39236700" lon="2.093521000">
        <ele>273.00000</ele>
        <time>2010-01-01T00:13:00Z</time>
      </trkpt>
      <trkpt lat="41.39230800" lon="2.093477000">
        <ele>272.00000</ele>
        <time>2010-01-01T00:13:03Z</time>
      </trkpt>
      <trkpt lat="41.39225500" lon="2.093443000">
        <ele>272.00000</ele>
        <time>2010-01-01T00:13:05Z</time>
      </trkpt>
      <trkpt lat="41.39221100" lon="2.093422000">
        <ele>272.00000</ele>
        <time>2010-01-01T00:13:07Z</time>
      </trkpt>
      <trkpt lat="41.39217500" lon="2.093408000">
        <ele>272.00000</ele>
        <time>2010-01-01T00:13:09Z</time>
      </trkpt>
      <trkpt lat="41.39209300" lon="2.093392000">
        <ele>271.00000</ele>
        <time>2010-01-01T00:13:12Z</time>
      </trkpt>
      <trkpt lat="41.39200300" lon="2.093386000">
        <ele>272.00000</ele>
        <time>2010-01-01T00:13:16Z</time>
      </trkpt>
      <trkpt lat="41.39194600" lon="2.093385000">
        <ele>272.00000</ele>
        <time>2010-01-01T00:13:18Z</time>
      </trkpt>
      <trkpt lat="41.39188700" lon="2.093383000">
        <ele>272.00000</ele>
        <time>2010-01-01T00:13:20Z</time>
      </trkpt>
      <trkpt lat="41.39182700" lon="2.093379000">
        <ele>272.00000</ele>
        <time>2010-01-01T00:13:23Z</time>
      </trkpt>
      <trkpt lat="41.39174800" lon="2.093375000">
        <ele>272.00000</ele>
        <time>2010-01-01T00:13:26Z</time>
      </trkpt>
      <trkpt lat="41.39169200" lon="2.093376000">
        <ele>272.00000</ele>
        <time>2010-01-01T00:13:28Z</time>
      </trkpt>
      <trkpt lat="41.39163400" lon="2.093382000">
        <ele>272.00000</ele>
        <time>2010-01-01T00:13:30Z</time>
      </trkpt>
      <trkpt lat="41.39160000" lon="2.093387000">
        <ele>271.00000</ele>
        <time>2010-01-01T00:13:32Z</time>
      </trkpt>
      <trkpt lat="41.39152500" lon="2.093411000">
        <ele>270.00000</ele>
        <time>2010-01-01T00:13:35Z</time>
      </trkpt>
      <trkpt lat="41.39148800" lon="2.093431000">
        <ele>270.00000</ele>
        <time>2010-01-01T00:13:36Z</time>
      </trkpt>
      <trkpt lat="41.39143400" lon="2.093469000">
        <ele>269.00000</ele>
        <time>2010-01-01T00:13:39Z</time>
      </trkpt>
      <trkpt lat="41.39141100" lon="2.093489000">
        <ele>268.00000</ele>
        <time>2010-01-01T00:13:40Z</time>
      </trkpt>
      <trkpt lat="41.39136100" lon="2.093556000">
        <ele>266.00000</ele>
        <time>2010-01-01T00:13:43Z</time>
      </trkpt>
      <trkpt lat="41.39133000" lon="2.093634000">
        <ele>265.00000</ele>
        <time>2010-01-01T00:13:45Z</time>
      </trkpt>
      <trkpt lat="41.39132200" lon="2.093677000">
        <ele>264.00000</ele>
        <time>2010-01-01T00:13:47Z</time>
      </trkpt>
      <trkpt lat="41.39132000" lon="2.093718000">
        <ele>264.00000</ele>
        <time>2010-01-01T00:13:48Z</time>
      </trkpt>
      <trkpt lat="41.39133300" lon="2.093836000">
        <ele>264.00000</ele>
        <time>2010-01-01T00:13:52Z</time>
      </trkpt>
      <trkpt lat="41.39134900" lon="2.093911000">
        <ele>265.00000</ele>
        <time>2010-01-01T00:13:54Z</time>
      </trkpt>
      <trkpt lat="41.39137300" lon="2.094000000">
        <ele>267.00000</ele>
        <time>2010-01-01T00:13:57Z</time>
      </trkpt>
      <trkpt lat="41.39139900" lon="2.094100000">
        <ele>269.00000</ele>
        <time>2010-01-01T00:14:00Z</time>
      </trkpt>
      <trkpt lat="41.39141300" lon="2.094169000">
        <ele>270.00000</ele>
        <time>2010-01-01T00:14:02Z</time>
      </trkpt>
      <trkpt lat="41.39142300" lon="2.094253000">
        <ele>271.00000</ele>
        <time>2010-01-01T00:14:05Z</time>
      </trkpt>
      <trkpt lat="41.39142600" lon="2.094310000">
        <ele>272.00000</ele>
        <time>2010-01-01T00:14:06Z</time>
      </trkpt>
      <trkpt lat="41.39142500" lon="2.094384000">
        <ele>273.00000</ele>
        <time>2010-01-01T00:14:09Z</time>
      </trkpt>
      <trkpt lat="41.39142000" lon="2.094463000">
        <ele>273.00000</ele>
        <time>2010-01-01T00:14:11Z</time>
      </trkpt>
      <trkpt lat="41.39139900" lon="2.094618000">
        <ele>275.00000</ele>
        <time>2010-01-01T00:14:16Z</time>
      </trkpt>
      <trkpt lat="41.39138000" lon="2.094769000">
        <ele>276.00000</ele>
        <time>2010-01-01T00:14:20Z</time>
      </trkpt>
      <trkpt lat="41.39135100" lon="2.094915000">
        <ele>278.00000</ele>
        <time>2010-01-01T00:14:25Z</time>
      </trkpt>
      <trkpt lat="41.39133900" lon="2.094994000">
        <ele>279.00000</ele>
        <time>2010-01-01T00:14:27Z</time>
      </trkpt>
      <trkpt lat="41.39132200" lon="2.095081000">
        <ele>280.00000</ele>
        <time>2010-01-01T00:14:30Z</time>
      </trkpt>
      <trkpt lat="41.39130600" lon="2.095144000">
        <ele>282.00000</ele>
        <time>2010-01-01T00:14:32Z</time>
      </trkpt>
      <trkpt lat="41.39129100" lon="2.095195000">
        <ele>283.00000</ele>
        <time>2010-01-01T00:14:34Z</time>
      </trkpt>
      <trkpt lat="41.39127300" lon="2.095238000">
        <ele>283.00000</ele>
        <time>2010-01-01T00:14:35Z</time>
      </trkpt>
      <trkpt lat="41.39125200" lon="2.095275000">
        <ele>283.00000</ele>
        <time>2010-01-01T00:14:36Z</time>
      </trkpt>
      <trkpt lat="41.39122900" lon="2.095302000">
        <ele>284.00000</ele>
        <time>2010-01-01T00:14:38Z</time>
      </trkpt>
      <trkpt lat="41.39120000" lon="2.095332000">
        <ele>284.00000</ele>
        <time>2010-01-01T00:14:39Z</time>
      </trkpt>
      <trkpt lat="41.39116300" lon="2.095365000">
        <ele>283.00000</ele>
        <time>2010-01-01T00:14:41Z</time>
      </trkpt>
      <trkpt lat="41.39107300" lon="2.095425000">
        <ele>283.00000</ele>
        <time>2010-01-01T00:14:45Z</time>
      </trkpt>
      <trkpt lat="41.39095300" lon="2.095490000">
        <ele>283.00000</ele>
        <time>2010-01-01T00:14:50Z</time>
      </trkpt>
      <trkpt lat="41.39086700" lon="2.095540000">
        <ele>282.00000</ele>
        <time>2010-01-01T00:14:54Z</time>
      </trkpt>
      <trkpt lat="41.39077200" lon="2.095580000">
        <ele>281.00000</ele>
        <time>2010-01-01T00:14:58Z</time>
      </trkpt>
      <trkpt lat="41.39074000" lon="2.095590000">
        <ele>280.00000</ele>
        <time>2010-01-01T00:14:59Z</time>
      </trkpt>
      <trkpt lat="41.39069900" lon="2.095595000">
        <ele>280.00000</ele>
        <time>2010-01-01T00:15:01Z</time>
      </trkpt>
      <trkpt lat="41.39062200" lon="2.095595000">
        <ele>279.00000</ele>
        <time>2010-01-01T00:15:04Z</time>
      </trkpt>
      <trkpt lat="41.39062100" lon="2.095595000">
        <ele>279.00000</ele>
        <time>2010-01-01T00:15:04Z</time>
      </trkpt>
      <trkpt lat="41.39061800" lon="2.095595000">
        <ele>279.00000</ele>
        <time>2010-01-01T00:15:04Z</time>
      </trkpt>
      <trkpt lat="41.39058000" lon="2.095588000">
        <ele>278.00000</ele>
        <time>2010-01-01T00:15:06Z</time>
      </trkpt>
      <trkpt lat="41.39053900" lon="2.095578000">
        <ele>277.00000</ele>
        <time>2010-01-01T00:15:07Z</time>
      </trkpt>
      <trkpt lat="41.39049300" lon="2.095564000">
        <ele>276.00000</ele>
        <time>2010-01-01T00:15:09Z</time>
      </trkpt>
      <trkpt lat="41.39043600" lon="2.095545000">
        <ele>275.00000</ele>
        <time>2010-01-01T00:15:12Z</time>
      </trkpt>
      <trkpt lat="41.39039600" lon="2.095535000">
        <ele>274.00000</ele>
        <time>2010-01-01T00:15:13Z</time>
      </trkpt>
      <trkpt lat="41.39037910" lon="2.095530790">
        <ele>273.00000</ele>
        <time>2010-01-01T00:15:14Z</time>
      </trkpt>
      <trkpt lat="41.39035600" lon="2.095525000">
        <ele>273.00000</ele>
        <time>2010-01-01T00:15:15Z</time>
      </trkpt>
      <trkpt lat="41.39031800" lon="2.095521000">
        <ele>272.00000</ele>
        <time>2010-01-01T00:15:16Z</time>
      </trkpt>
      <trkpt lat="41.39028600" lon="2.095523000">
        <ele>271.00000</ele>
        <time>2010-01-01T00:15:18Z</time>
      </trkpt>
      <trkpt lat="41.39026100" lon="2.095531000">
        <ele>271.00000</ele>
        <time>2010-01-01T00:15:19Z</time>
      </trkpt>
      <trkpt lat="41.39024100" lon="2.095545000">
        <ele>271.00000</ele>
        <time>2010-01-01T00:15:20Z</time>
      </trkpt>
      <trkpt lat="41.39022900" lon="2.095563000">
        <ele>271.00000</ele>
        <time>2010-01-01T00:15:20Z</time>
      </trkpt>
      <trkpt lat="41.39022200" lon="2.095586000">
        <ele>271.00000</ele>
        <time>2010-01-01T00:15:21Z</time>
      </trkpt>
      <trkpt lat="41.39021600" lon="2.095620000">
        <ele>271.00000</ele>
        <time>2010-01-01T00:15:22Z</time>
      </trkpt>
      <trkpt lat="41.39021200" lon="2.095646000">
        <ele>271.00000</ele>
        <time>2010-01-01T00:15:23Z</time>
      </trkpt>
      <trkpt lat="41.39028300" lon="2.095675000">
        <ele>272.00000</ele>
        <time>2010-01-01T00:15:26Z</time>
      </trkpt>
      <trkpt lat="41.39042500" lon="2.095740000">
        <ele>276.00000</ele>
        <time>2010-01-01T00:15:32Z</time>
      </trkpt>
      <trkpt lat="41.39049400" lon="2.095775000">
        <ele>278.00000</ele>
        <time>2010-01-01T00:15:35Z</time>
      </trkpt>
      <trkpt lat="41.39054100" lon="2.095803000">
        <ele>279.00000</ele>
        <time>2010-01-01T00:15:37Z</time>
      </trkpt>
      <trkpt lat="41.39058600" lon="2.095845000">
        <ele>280.00000</ele>
        <time>2010-01-01T00:15:39Z</time>
      </trkpt>
      <trkpt lat="41.39063300" lon="2.095902000">
        <ele>281.00000</ele>
        <time>2010-01-01T00:15:42Z</time>
      </trkpt>
      <trkpt lat="41.39067100" lon="2.095961000">
        <ele>281.00000</ele>
        <time>2010-01-01T00:15:44Z</time>
      </trkpt>
      <trkpt lat="41.39073500" lon="2.096057000">
        <ele>283.00000</ele>
        <time>2010-01-01T00:15:48Z</time>
      </trkpt>
      <trkpt lat="41.39080100" lon="2.096168000">
        <ele>284.00000</ele>
        <time>2010-01-01T00:15:52Z</time>
      </trkpt>
      <trkpt lat="41.39086900" lon="2.096266000">
        <ele>285.00000</ele>
        <time>2010-01-01T00:15:56Z</time>
      </trkpt>
      <trkpt lat="41.39093700" lon="2.096372000">
        <ele>287.00000</ele>
        <time>2010-01-01T00:16:00Z</time>
      </trkpt>
      <trkpt lat="41.39100500" lon="2.096481000">
        <ele>289.00000</ele>
        <time>2010-01-01T00:16:05Z</time>
      </trkpt>
      <trkpt lat="41.39106200" lon="2.096574000">
        <ele>290.00000</ele>
        <time>2010-01-01T00:16:08Z</time>
      </trkpt>
      <trkpt lat="41.39110200" lon="2.096656000">
        <ele>291.00000</ele>
        <time>2010-01-01T00:16:11Z</time>
      </trkpt>
      <trkpt lat="41.39113700" lon="2.096753000">
        <ele>292.00000</ele>
        <time>2010-01-01T00:16:14Z</time>
      </trkpt>
      <trkpt lat="41.39116700" lon="2.096878000">
        <ele>293.00000</ele>
        <time>2010-01-01T00:16:18Z</time>
      </trkpt>
      <trkpt lat="41.39118600" lon="2.096994000">
        <ele>293.00000</ele>
        <time>2010-01-01T00:16:22Z</time>
      </trkpt>
      <trkpt lat="41.39120400" lon="2.097135000">
        <ele>294.00000</ele>
        <time>2010-01-01T00:16:26Z</time>
      </trkpt>
      <trkpt lat="41.39122300" lon="2.097237000">
        <ele>294.00000</ele>
        <time>2010-01-01T00:16:29Z</time>
      </trkpt>
      <trkpt lat="41.39125600" lon="2.097356000">
        <ele>295.00000</ele>
        <time>2010-01-01T00:16:33Z</time>
      </trkpt>
      <trkpt lat="41.39130800" lon="2.097484000">
        <ele>296.00000</ele>
        <time>2010-01-01T00:16:37Z</time>
      </trkpt>
      <trkpt lat="41.39136600" lon="2.097591000">
        <ele>298.00000</ele>
        <time>2010-01-01T00:16:41Z</time>
      </trkpt>
      <trkpt lat="41.39139600" lon="2.097790000">
        <ele>297.00000</ele>
        <time>2010-01-01T00:16:47Z</time>
      </trkpt>
      <trkpt lat="41.39142000" lon="2.097955000">
        <ele>297.00000</ele>
        <time>2010-01-01T00:16:53Z</time>
      </trkpt>
      <trkpt lat="41.39145800" lon="2.098114000">
        <ele>298.00000</ele>
        <time>2010-01-01T00:16:58Z</time>
      </trkpt>
      <trkpt lat="41.39149900" lon="2.098241000">
        <ele>298.00000</ele>
        <time>2010-01-01T00:17:02Z</time>
      </trkpt>
      <trkpt lat="41.39157600" lon="2.098446000">
        <ele>301.00000</ele>
        <time>2010-01-01T00:17:09Z</time>
      </trkpt>
      <trkpt lat="41.39160300" lon="2.098524000">
        <ele>301.00000</ele>
        <time>2010-01-01T00:17:11Z</time>
      </trkpt>
      <trkpt lat="41.39161700" lon="2.098609000">
        <ele>302.00000</ele>
        <time>2010-01-01T00:17:14Z</time>
      </trkpt>
      <trkpt lat="41.39161500" lon="2.098687000">
        <ele>304.00000</ele>
        <time>2010-01-01T00:17:16Z</time>
      </trkpt>
      <trkpt lat="41.39160200" lon="2.098754000">
        <ele>305.00000</ele>
        <time>2010-01-01T00:17:18Z</time>
      </trkpt>
      <trkpt lat="41.39156600" lon="2.098849000">
        <ele>306.00000</ele>
        <time>2010-01-01T00:17:21Z</time>
      </trkpt>
      <trkpt lat="41.39151500" lon="2.098921000">
        <ele>305.00000</ele>
        <time>2010-01-01T00:17:24Z</time>
      </trkpt>
      <trkpt lat="41.39147300" lon="2.098960000">
        <ele>303.00000</ele>
        <time>2010-01-01T00:17:26Z</time>
      </trkpt>
      <trkpt lat="41.39134800" lon="2.099061000">
        <ele>300.00000</ele>
        <time>2010-01-01T00:17:32Z</time>
      </trkpt>
      <trkpt lat="41.39133400" lon="2.099085000">
        <ele>301.00000</ele>
        <time>2010-01-01T00:17:33Z</time>
      </trkpt>
      <trkpt lat="41.39124300" lon="2.099122000">
        <ele>300.00000</ele>
        <time>2010-01-01T00:17:37Z</time>
      </trkpt>
      <trkpt lat="41.39114800" lon="2.099151000">
        <ele>299.00000</ele>
        <time>2010-01-01T00:17:41Z</time>
      </trkpt>
      <trkpt lat="41.39104700" lon="2.099180000">
        <ele>299.00000</ele>
        <time>2010-01-01T00:17:45Z</time>
      </trkpt>
      <trkpt lat="41.39094800" lon="2.099205000">
        <ele>301.00000</ele>
        <time>2010-01-01T00:17:49Z</time>
      </trkpt>
      <trkpt lat="41.39077700" lon="2.099239000">
        <ele>302.00000</ele>
        <time>2010-01-01T00:17:56Z</time>
      </trkpt>
      <trkpt lat="41.39069400" lon="2.099242000">
        <ele>300.00000</ele>
        <time>2010-01-01T00:17:59Z</time>
      </trkpt>
      <trkpt lat="41.39060800" lon="2.099241000">
        <ele>299.00000</ele>
        <time>2010-01-01T00:18:03Z</time>
      </trkpt>
      <trkpt lat="41.39050700" lon="2.099240000">
        <ele>296.00000</ele>
        <time>2010-01-01T00:18:07Z</time>
      </trkpt>
      <trkpt lat="41.39044200" lon="2.099245000">
        <ele>294.00000</ele>
        <time>2010-01-01T00:18:09Z</time>
      </trkpt>
      <trkpt lat="41.39039100" lon="2.099262000">
        <ele>293.00000</ele>
        <time>2010-01-01T00:18:11Z</time>
      </trkpt>
      <trkpt lat="41.39035000" lon="2.099281000">
        <ele>293.00000</ele>
        <time>2010-01-01T00:18:13Z</time>
      </trkpt>
      <trkpt lat="41.39027400" lon="2.099343000">
        <ele>292.00000</ele>
        <time>2010-01-01T00:18:17Z</time>
      </trkpt>
      <trkpt lat="41.39024200" lon="2.099387000">
        <ele>292.00000</ele>
        <time>2010-01-01T00:18:19Z</time>
      </trkpt>
      <trkpt lat="41.39020900" lon="2.099448000">
        <ele>292.00000</ele>
        <time>2010-01-01T00:18:21Z</time>
      </trkpt>
      <trkpt lat="41.39012900" lon="2.099632000">
        <ele>290.00000</ele>
        <time>2010-01-01T00:18:27Z</time>
      </trkpt>
      <trkpt lat="41.39006300" lon="2.099775000">
        <ele>288.00000</ele>
        <time>2010-01-01T00:18:32Z</time>
      </trkpt>
      <trkpt lat="41.39001200" lon="2.099895000">
        <ele>285.00000</ele>
        <time>2010-01-01T00:18:36Z</time>
      </trkpt>
      <trkpt lat="41.38996600" lon="2.099992000">
        <ele>284.00000</ele>
        <time>2010-01-01T00:18:40Z</time>
      </trkpt>
      <trkpt lat="41.38994600" lon="2.100053000">
        <ele>284.00000</ele>
        <time>2010-01-01T00:18:42Z</time>
      </trkpt>
      <trkpt lat="41.38994700" lon="2.100099000">
        <ele>284.00000</ele>
        <time>2010-01-01T00:18:43Z</time>
      </trkpt>
      <trkpt lat="41.38996500" lon="2.100137000">
        <ele>284.00000</ele>
        <time>2010-01-01T00:18:45Z</time>
      </trkpt>
      <trkpt lat="41.39008600" lon="2.100172000">
        <ele>286.00000</ele>
        <time>2010-01-01T00:18:50Z</time>
      </trkpt>
      <trkpt lat="41.39015600" lon="2.100195000">
        <ele>288.00000</ele>
        <time>2010-01-01T00:18:52Z</time>
      </trkpt>
      <trkpt lat="41.39022100" lon="2.100222000">
        <ele>289.00000</ele>
        <time>2010-01-01T00:18:55Z</time>
      </trkpt>
      <trkpt lat="41.39028800" lon="2.100255000">
        <ele>289.00000</ele>
        <time>2010-01-01T00:18:58Z</time>
      </trkpt>
      <trkpt lat="41.39037900" lon="2.100318000">
        <ele>288.00000</ele>
        <time>2010-01-01T00:19:02Z</time>
      </trkpt>
      <trkpt lat="41.39047700" lon="2.100387000">
        <ele>288.00000</ele>
        <time>2010-01-01T00:19:07Z</time>
      </trkpt>
      <trkpt lat="41.39054700" lon="2.100439000">
        <ele>288.00000</ele>
        <time>2010-01-01T00:19:10Z</time>
      </trkpt>
      <trkpt lat="41.39061400" lon="2.100492000">
        <ele>287.00000</ele>
        <time>2010-01-01T00:19:13Z</time>
      </trkpt>
      <trkpt lat="41.39067300" lon="2.100520000">
        <ele>287.00000</ele>
        <time>2010-01-01T00:19:15Z</time>
      </trkpt>
      <trkpt lat="41.39074300" lon="2.100539000">
        <ele>287.00000</ele>
        <time>2010-01-01T00:19:18Z</time>
      </trkpt>
      <trkpt lat="41.39081800" lon="2.100547000">
        <ele>287.00000</ele>
        <time>2010-01-01T00:19:21Z</time>
      </trkpt>
      <trkpt lat="41.39089900" lon="2.100554000">
        <ele>287.00000</ele>
        <time>2010-01-01T00:19:25Z</time>
      </trkpt>
      <trkpt lat="41.39099100" lon="2.100561000">
        <ele>287.00000</ele>
        <time>2010-01-01T00:19:28Z</time>
      </trkpt>
      <trkpt lat="41.39108400" lon="2.100568000">
        <ele>287.00000</ele>
        <time>2010-01-01T00:19:32Z</time>
      </trkpt>
      <trkpt lat="41.39115800" lon="2.100574000">
        <ele>287.00000</ele>
        <time>2010-01-01T00:19:35Z</time>
      </trkpt>
      <trkpt lat="41.39123200" lon="2.100583000">
        <ele>287.00000</ele>
        <time>2010-01-01T00:19:38Z</time>
      </trkpt>
      <trkpt lat="41.39130700" lon="2.100600000">
        <ele>286.00000</ele>
        <time>2010-01-01T00:19:41Z</time>
      </trkpt>
      <trkpt lat="41.39136300" lon="2.100625000">
        <ele>285.00000</ele>
        <time>2010-01-01T00:19:43Z</time>
      </trkpt>
      <trkpt lat="41.39142700" lon="2.100660000">
        <ele>285.00000</ele>
        <time>2010-01-01T00:19:46Z</time>
      </trkpt>
      <trkpt lat="41.39157200" lon="2.100763000">
        <ele>285.00000</ele>
        <time>2010-01-01T00:19:53Z</time>
      </trkpt>
      <trkpt lat="41.39163300" lon="2.100807000">
        <ele>285.00000</ele>
        <time>2010-01-01T00:19:55Z</time>
      </trkpt>
      <trkpt lat="41.39175900" lon="2.100914000">
        <ele>283.00000</ele>
        <time>2010-01-01T00:20:01Z</time>
      </trkpt>
      <trkpt lat="41.39179900" lon="2.100947000">
        <ele>282.00000</ele>
        <time>2010-01-01T00:20:03Z</time>
      </trkpt>
      <trkpt lat="41.39187800" lon="2.100991000">
        <ele>281.00000</ele>
        <time>2010-01-01T00:20:07Z</time>
      </trkpt>
      <trkpt lat="41.39195800" lon="2.101005000">
        <ele>281.00000</ele>
        <time>2010-01-01T00:20:10Z</time>
      </trkpt>
      <trkpt lat="41.39203300" lon="2.100994000">
        <ele>282.00000</ele>
        <time>2010-01-01T00:20:13Z</time>
      </trkpt>
      <trkpt lat="41.39210500" lon="2.100958000">
        <ele>284.00000</ele>
        <time>2010-01-01T00:20:16Z</time>
      </trkpt>
      <trkpt lat="41.39218800" lon="2.100901000">
        <ele>287.00000</ele>
        <time>2010-01-01T00:20:20Z</time>
      </trkpt>
      <trkpt lat="41.39225100" lon="2.100851000">
        <ele>288.00000</ele>
        <time>2010-01-01T00:20:23Z</time>
      </trkpt>
      <trkpt lat="41.39233700" lon="2.100786000">
        <ele>288.00000</ele>
        <time>2010-01-01T00:20:27Z</time>
      </trkpt>
      <trkpt lat="41.39241700" lon="2.100735000">
        <ele>288.00000</ele>
        <time>2010-01-01T00:20:30Z</time>
      </trkpt>
      <trkpt lat="41.39252700" lon="2.100680000">
        <ele>287.00000</ele>
        <time>2010-01-01T00:20:35Z</time>
      </trkpt>
      <trkpt lat="41.39262600" lon="2.100644000">
        <ele>288.00000</ele>
        <time>2010-01-01T00:20:39Z</time>
      </trkpt>
      <trkpt lat="41.39270100" lon="2.100632000">
        <ele>287.00000</ele>
        <time>2010-01-01T00:20:42Z</time>
      </trkpt>
      <trkpt lat="41.39279900" lon="2.100636000">
        <ele>286.00000</ele>
        <time>2010-01-01T00:20:46Z</time>
      </trkpt>
      <trkpt lat="41.39294300" lon="2.100651000">
        <ele>284.00000</ele>
        <time>2010-01-01T00:20:52Z</time>
      </trkpt>
      <trkpt lat="41.39306400" lon="2.100658000">
        <ele>283.00000</ele>
        <time>2010-01-01T00:20:57Z</time>
      </trkpt>
      <trkpt lat="41.39317500" lon="2.100644000">
        <ele>283.00000</ele>
        <time>2010-01-01T00:21:01Z</time>
      </trkpt>
      <trkpt lat="41.39328900" lon="2.100611000">
        <ele>283.00000</ele>
        <time>2010-01-01T00:21:06Z</time>
      </trkpt>
      <trkpt lat="41.39338700" lon="2.100573000">
        <ele>284.00000</ele>
        <time>2010-01-01T00:21:10Z</time>
      </trkpt>
      <trkpt lat="41.39347200" lon="2.100534000">
        <ele>285.00000</ele>
        <time>2010-01-01T00:21:13Z</time>
      </trkpt>
      <trkpt lat="41.39359100" lon="2.100463000">
        <ele>288.00000</ele>
        <time>2010-01-01T00:21:19Z</time>
      </trkpt>
      <trkpt lat="41.39370600" lon="2.100377000">
        <ele>288.00000</ele>
        <time>2010-01-01T00:21:24Z</time>
      </trkpt>
      <trkpt lat="41.39375500" lon="2.100332000">
        <ele>288.00000</ele>
        <time>2010-01-01T00:21:26Z</time>
      </trkpt>
      <trkpt lat="41.39388300" lon="2.100201000">
        <ele>290.00000</ele>
        <time>2010-01-01T00:21:33Z</time>
      </trkpt>
      <trkpt lat="41.39395500" lon="2.100127000">
        <ele>293.00000</ele>
        <time>2010-01-01T00:21:36Z</time>
      </trkpt>
      <trkpt lat="41.39399100" lon="2.100098000">
        <ele>294.00000</ele>
        <time>2010-01-01T00:21:38Z</time>
      </trkpt>
      <trkpt lat="41.39403400" lon="2.100084000">
        <ele>294.00000</ele>
        <time>2010-01-01T00:21:40Z</time>
      </trkpt>
      <trkpt lat="41.39408100" lon="2.100092000">
        <ele>293.00000</ele>
        <time>2010-01-01T00:21:42Z</time>
      </trkpt>
      <trkpt lat="41.39423300" lon="2.100175000">
        <ele>291.00000</ele>
        <time>2010-01-01T00:21:48Z</time>
      </trkpt>
      <trkpt lat="41.39450100" lon="2.100277000">
        <ele>294.00000</ele>
        <time>2010-01-01T00:22:00Z</time>
      </trkpt>
      <trkpt lat="41.39459300" lon="2.100346000">
        <ele>294.00000</ele>
        <time>2010-01-01T00:22:04Z</time>
      </trkpt>
      <trkpt lat="41.39485200" lon="2.100605000">
        <ele>287.00000</ele>
        <time>2010-01-01T00:22:17Z</time>
      </trkpt>
      <trkpt lat="41.39496600" lon="2.100708000">
        <ele>286.00000</ele>
        <time>2010-01-01T00:22:22Z</time>
      </trkpt>
      <trkpt lat="41.39503900" lon="2.100754000">
        <ele>285.00000</ele>
        <time>2010-01-01T00:22:25Z</time>
      </trkpt>
      <trkpt lat="41.39510000" lon="2.100772000">
        <ele>285.00000</ele>
        <time>2010-01-01T00:22:28Z</time>
      </trkpt>
      <trkpt lat="41.39522900" lon="2.100774000">
        <ele>287.00000</ele>
        <time>2010-01-01T00:22:33Z</time>
      </trkpt>
      <trkpt lat="41.39536700" lon="2.100724000">
        <ele>291.00000</ele>
        <time>2010-01-01T00:22:39Z</time>
      </trkpt>
      <trkpt lat="41.39555000" lon="2.100644000">
        <ele>296.00000</ele>
        <time>2010-01-01T00:22:47Z</time>
      </trkpt>
      <trkpt lat="41.39568100" lon="2.100562000">
        <ele>299.00000</ele>
        <time>2010-01-01T00:22:52Z</time>
      </trkpt>
      <trkpt lat="41.39574100" lon="2.100543000">
        <ele>300.00000</ele>
        <time>2010-01-01T00:22:55Z</time>
      </trkpt>
      <trkpt lat="41.39578600" lon="2.100548000">
        <ele>300.00000</ele>
        <time>2010-01-01T00:22:57Z</time>
      </trkpt>
      <trkpt lat="41.39593600" lon="2.100676000">
        <ele>295.00000</ele>
        <time>2010-01-01T00:23:04Z</time>
      </trkpt>
      <trkpt lat="41.39602700" lon="2.100756000">
        <ele>292.00000</ele>
        <time>2010-01-01T00:23:08Z</time>
      </trkpt>
      <trkpt lat="41.39626900" lon="2.100884000">
        <ele>291.00000</ele>
        <time>2010-01-01T00:23:19Z</time>
      </trkpt>
      <trkpt lat="41.39650200" lon="2.101042000">
        <ele>291.00000</ele>
        <time>2010-01-01T00:23:29Z</time>
      </trkpt>
      <trkpt lat="41.39657400" lon="2.101070000">
        <ele>291.00000</ele>
        <time>2010-01-01T00:23:32Z</time>
      </trkpt>
      <trkpt lat="41.39683600" lon="2.101148000">
        <ele>290.00000</ele>
        <time>2010-01-01T00:23:43Z</time>
      </trkpt>
      <trkpt lat="41.39696400" lon="2.101173000">
        <ele>290.00000</ele>
        <time>2010-01-01T00:23:48Z</time>
      </trkpt>
      <trkpt lat="41.39707000" lon="2.101209000">
        <ele>290.00000</ele>
        <time>2010-01-01T00:23:52Z</time>
      </trkpt>
      <trkpt lat="41.39719400" lon="2.101281000">
        <ele>289.00000</ele>
        <time>2010-01-01T00:23:58Z</time>
      </trkpt>
      <trkpt lat="41.39730500" lon="2.101361000">
        <ele>288.00000</ele>
        <time>2010-01-01T00:24:03Z</time>
      </trkpt>
      <trkpt lat="41.39748500" lon="2.101499000">
        <ele>287.00000</ele>
        <time>2010-01-01T00:24:11Z</time>
      </trkpt>
      <trkpt lat="41.39759700" lon="2.101555000">
        <ele>288.00000</ele>
        <time>2010-01-01T00:24:16Z</time>
      </trkpt>
      <trkpt lat="41.39766500" lon="2.101626000">
        <ele>287.00000</ele>
        <time>2010-01-01T00:24:19Z</time>
      </trkpt>
      <trkpt lat="41.39772700" lon="2.101673000">
        <ele>288.00000</ele>
        <time>2010-01-01T00:24:22Z</time>
      </trkpt>
      <trkpt lat="41.39778200" lon="2.101697000">
        <ele>289.00000</ele>
        <time>2010-01-01T00:24:25Z</time>
      </trkpt>
      <trkpt lat="41.39790300" lon="2.101729000">
        <ele>291.00000</ele>
        <time>2010-01-01T00:24:29Z</time>
      </trkpt>
      <trkpt lat="41.39794700" lon="2.101771000">
        <ele>291.00000</ele>
        <time>2010-01-01T00:24:32Z</time>
      </trkpt>
      <trkpt lat="41.39797100" lon="2.101812000">
        <ele>291.00000</ele>
        <time>2010-01-01T00:24:33Z</time>
      </trkpt>
      <trkpt lat="41.39798600" lon="2.101866000">
        <ele>290.00000</ele>
        <time>2010-01-01T00:24:35Z</time>
      </trkpt>
      <trkpt lat="41.39799600" lon="2.102011000">
        <ele>288.00000</ele>
        <time>2010-01-01T00:24:39Z</time>
      </trkpt>
      <trkpt lat="41.39798600" lon="2.102115000">
        <ele>287.00000</ele>
        <time>2010-01-01T00:24:42Z</time>
      </trkpt>
      <trkpt lat="41.39798000" lon="2.102306000">
        <ele>284.00000</ele>
        <time>2010-01-01T00:24:48Z</time>
      </trkpt>
      <trkpt lat="41.39798400" lon="2.102404000">
        <ele>282.00000</ele>
        <time>2010-01-01T00:24:51Z</time>
      </trkpt>
      <trkpt lat="41.39801300" lon="2.102505000">
        <ele>282.00000</ele>
        <time>2010-01-01T00:24:54Z</time>
      </trkpt>
      <trkpt lat="41.39805500" lon="2.102605000">
        <ele>280.00000</ele>
        <time>2010-01-01T00:24:58Z</time>
      </trkpt>
      <trkpt lat="41.39811000" lon="2.102706000">
        <ele>280.00000</ele>
        <time>2010-01-01T00:25:02Z</time>
      </trkpt>
      <trkpt lat="41.39821900" lon="2.102837000">
        <ele>283.00000</ele>
        <time>2010-01-01T00:25:07Z</time>
      </trkpt>
      <trkpt lat="41.39828000" lon="2.102898000">
        <ele>285.00000</ele>
        <time>2010-01-01T00:25:10Z</time>
      </trkpt>
      <trkpt lat="41.39835200" lon="2.102984000">
        <ele>286.00000</ele>
        <time>2010-01-01T00:25:14Z</time>
      </trkpt>
      <trkpt lat="41.39838700" lon="2.103040000">
        <ele>287.00000</ele>
        <time>2010-01-01T00:25:17Z</time>
      </trkpt>
      <trkpt lat="41.39843000" lon="2.103139000">
        <ele>287.00000</ele>
        <time>2010-01-01T00:25:20Z</time>
      </trkpt>
      <trkpt lat="41.39848600" lon="2.103256000">
        <ele>287.00000</ele>
        <time>2010-01-01T00:25:24Z</time>
      </trkpt>
      <trkpt lat="41.39854900" lon="2.103375000">
        <ele>287.00000</ele>
        <time>2010-01-01T00:25:29Z</time>
      </trkpt>
      <trkpt lat="41.39859500" lon="2.103447000">
        <ele>287.00000</ele>
        <time>2010-01-01T00:25:31Z</time>
      </trkpt>
      <trkpt lat="41.39868800" lon="2.103558000">
        <ele>288.00000</ele>
        <time>2010-01-01T00:25:36Z</time>
      </trkpt>
      <trkpt lat="41.39876200" lon="2.103637000">
        <ele>288.00000</ele>
        <time>2010-01-01T00:25:40Z</time>
      </trkpt>
      <trkpt lat="41.39885300" lon="2.103720000">
        <ele>288.00000</ele>
        <time>2010-01-01T00:25:45Z</time>
      </trkpt>
      <trkpt lat="41.39894100" lon="2.103795000">
        <ele>288.00000</ele>
        <time>2010-01-01T00:25:49Z</time>
      </trkpt>
      <trkpt lat="41.39900000" lon="2.103827000">
        <ele>288.00000</ele>
        <time>2010-01-01T00:25:51Z</time>
      </trkpt>
      <trkpt lat="41.39906800" lon="2.103843000">
        <ele>290.00000</ele>
        <time>2010-01-01T00:25:54Z</time>
      </trkpt>
      <trkpt lat="41.39919400" lon="2.103850000">
        <ele>293.00000</ele>
        <time>2010-01-01T00:25:59Z</time>
      </trkpt>
      <trkpt lat="41.39923300" lon="2.103872000">
        <ele>294.00000</ele>
        <time>2010-01-01T00:26:01Z</time>
      </trkpt>
      <trkpt lat="41.39926300" lon="2.103912000">
        <ele>293.00000</ele>
        <time>2010-01-01T00:26:02Z</time>
      </trkpt>
      <trkpt lat="41.39928600" lon="2.103971000">
        <ele>292.00000</ele>
        <time>2010-01-01T00:26:04Z</time>
      </trkpt>
      <trkpt lat="41.39930300" lon="2.104041000">
        <ele>290.00000</ele>
        <time>2010-01-01T00:26:07Z</time>
      </trkpt>
      <trkpt lat="41.39931900" lon="2.104140000">
        <ele>287.00000</ele>
        <time>2010-01-01T00:26:10Z</time>
      </trkpt>
      <trkpt lat="41.39941700" lon="2.104298000">
        <ele>285.00000</ele>
        <time>2010-01-01T00:26:16Z</time>
      </trkpt>
      <trkpt lat="41.39950200" lon="2.104374000">
        <ele>285.00000</ele>
        <time>2010-01-01T00:26:20Z</time>
      </trkpt>
      <trkpt lat="41.39963300" lon="2.104429000">
        <ele>285.00000</ele>
        <time>2010-01-01T00:26:25Z</time>
      </trkpt>
      <trkpt lat="41.39978100" lon="2.104458000">
        <ele>286.00000</ele>
        <time>2010-01-01T00:26:31Z</time>
      </trkpt>
      <trkpt lat="41.39996600" lon="2.104473000">
        <ele>289.00000</ele>
        <time>2010-01-01T00:26:39Z</time>
      </trkpt>
      <trkpt lat="41.40021800" lon="2.104486000">
        <ele>292.00000</ele>
        <time>2010-01-01T00:26:49Z</time>
      </trkpt>
      <trkpt lat="41.40033900" lon="2.104492000">
        <ele>293.00000</ele>
        <time>2010-01-01T00:26:54Z</time>
      </trkpt>
      <trkpt lat="41.40050200" lon="2.104499000">
        <ele>295.00000</ele>
        <time>2010-01-01T00:27:00Z</time>
      </trkpt>
      <trkpt lat="41.40055300" lon="2.104502000">
        <ele>296.00000</ele>
        <time>2010-01-01T00:27:02Z</time>
      </trkpt>
      <trkpt lat="41.40063600" lon="2.104478000">
        <ele>298.00000</ele>
        <time>2010-01-01T00:27:06Z</time>
      </trkpt>
      <trkpt lat="41.40071600" lon="2.104440000">
        <ele>301.00000</ele>
        <time>2010-01-01T00:27:09Z</time>
      </trkpt>
      <trkpt lat="41.40077500" lon="2.104408000">
        <ele>303.00000</ele>
        <time>2010-01-01T00:27:12Z</time>
      </trkpt>
      <trkpt lat="41.40080600" lon="2.104405000">
        <ele>304.00000</ele>
        <time>2010-01-01T00:27:13Z</time>
      </trkpt>
      <trkpt lat="41.40083500" lon="2.104425000">
        <ele>303.00000</ele>
        <time>2010-01-01T00:27:14Z</time>
      </trkpt>
      <trkpt lat="41.40087200" lon="2.104462000">
        <ele>302.00000</ele>
        <time>2010-01-01T00:27:16Z</time>
      </trkpt>
      <trkpt lat="41.40091500" lon="2.104615000">
        <ele>295.00000</ele>
        <time>2010-01-01T00:27:21Z</time>
      </trkpt>
      <trkpt lat="41.40094300" lon="2.104674000">
        <ele>293.00000</ele>
        <time>2010-01-01T00:27:23Z</time>
      </trkpt>
      <trkpt lat="41.40096700" lon="2.104711000">
        <ele>291.00000</ele>
        <time>2010-01-01T00:27:25Z</time>
      </trkpt>
      <trkpt lat="41.40108700" lon="2.104770000">
        <ele>292.00000</ele>
        <time>2010-01-01T00:27:30Z</time>
      </trkpt>
      <trkpt lat="41.40118000" lon="2.104815000">
        <ele>292.00000</ele>
        <time>2010-01-01T00:27:34Z</time>
      </trkpt>
      <trkpt lat="41.40129500" lon="2.104869000">
        <ele>293.00000</ele>
        <time>2010-01-01T00:27:39Z</time>
      </trkpt>
      <trkpt lat="41.40132600" lon="2.104886000">
        <ele>294.00000</ele>
        <time>2010-01-01T00:27:40Z</time>
      </trkpt>
      <trkpt lat="41.40141900" lon="2.104952000">
        <ele>294.00000</ele>
        <time>2010-01-01T00:27:44Z</time>
      </trkpt>
      <trkpt lat="41.40151600" lon="2.105028000">
        <ele>292.00000</ele>
        <time>2010-01-01T00:27:49Z</time>
      </trkpt>
      <trkpt lat="41.40161300" lon="2.105102000">
        <ele>291.00000</ele>
        <time>2010-01-01T00:27:53Z</time>
      </trkpt>
      <trkpt lat="41.40169900" lon="2.105168000">
        <ele>290.00000</ele>
        <time>2010-01-01T00:27:57Z</time>
      </trkpt>
      <trkpt lat="41.40172700" lon="2.105190000">
        <ele>289.00000</ele>
        <time>2010-01-01T00:27:58Z</time>
      </trkpt>
      <trkpt lat="41.40177100" lon="2.105216000">
        <ele>289.00000</ele>
        <time>2010-01-01T00:28:00Z</time>
      </trkpt>
      <trkpt lat="41.40179200" lon="2.105228000">
        <ele>289.00000</ele>
        <time>2010-01-01T00:28:01Z</time>
      </trkpt>
      <trkpt lat="41.40184100" lon="2.105250000">
        <ele>289.00000</ele>
        <time>2010-01-01T00:28:03Z</time>
      </trkpt>
      <trkpt lat="41.40187700" lon="2.105237000">
        <ele>290.00000</ele>
        <time>2010-01-01T00:28:05Z</time>
      </trkpt>
      <trkpt lat="41.40198300" lon="2.105150000">
        <ele>295.00000</ele>
        <time>2010-01-01T00:28:10Z</time>
      </trkpt>
      <trkpt lat="41.40202000" lon="2.105118000">
        <ele>297.00000</ele>
        <time>2010-01-01T00:28:12Z</time>
      </trkpt>
      <trkpt lat="41.40207400" lon="2.105098000">
        <ele>299.00000</ele>
        <time>2010-01-01T00:28:14Z</time>
      </trkpt>
      <trkpt lat="41.40212100" lon="2.105105000">
        <ele>300.00000</ele>
        <time>2010-01-01T00:28:16Z</time>
      </trkpt>
      <trkpt lat="41.40216300" lon="2.105139000">
        <ele>300.00000</ele>
        <time>2010-01-01T00:28:18Z</time>
      </trkpt>
      <trkpt lat="41.40219400" lon="2.105187000">
        <ele>299.00000</ele>
        <time>2010-01-01T00:28:20Z</time>
      </trkpt>
      <trkpt lat="41.40224600" lon="2.105346000">
        <ele>294.00000</ele>
        <time>2010-01-01T00:28:25Z</time>
      </trkpt>
      <trkpt lat="41.40227500" lon="2.105430000">
        <ele>292.00000</ele>
        <time>2010-01-01T00:28:28Z</time>
      </trkpt>
      <trkpt lat="41.40231700" lon="2.105503000">
        <ele>290.00000</ele>
        <time>2010-01-01T00:28:30Z</time>
      </trkpt>
      <trkpt lat="41.40237200" lon="2.105578000">
        <ele>288.00000</ele>
        <time>2010-01-01T00:28:33Z</time>
      </trkpt>
      <trkpt lat="41.40242200" lon="2.105631000">
        <ele>287.00000</ele>
        <time>2010-01-01T00:28:36Z</time>
      </trkpt>
      <trkpt lat="41.40245800" lon="2.105674000">
        <ele>286.00000</ele>
        <time>2010-01-01T00:28:38Z</time>
      </trkpt>
      <trkpt lat="41.40251800" lon="2.105725000">
        <ele>285.00000</ele>
        <time>2010-01-01T00:28:41Z</time>
      </trkpt>
      <trkpt lat="41.40258300" lon="2.105763000">
        <ele>285.00000</ele>
        <time>2010-01-01T00:28:44Z</time>
      </trkpt>
      <trkpt lat="41.40266000" lon="2.105793000">
        <ele>285.00000</ele>
        <time>2010-01-01T00:28:47Z</time>
      </trkpt>
      <trkpt lat="41.40273900" lon="2.105817000">
        <ele>286.00000</ele>
        <time>2010-01-01T00:28:50Z</time>
      </trkpt>
      <trkpt lat="41.40277500" lon="2.105827000">
        <ele>286.00000</ele>
        <time>2010-01-01T00:28:52Z</time>
      </trkpt>
      <trkpt lat="41.40285300" lon="2.105840000">
        <ele>288.00000</ele>
        <time>2010-01-01T00:28:55Z</time>
      </trkpt>
      <trkpt lat="41.40291200" lon="2.105851000">
        <ele>290.00000</ele>
        <time>2010-01-01T00:28:57Z</time>
      </trkpt>
      <trkpt lat="41.40300100" lon="2.105855000">
        <ele>293.00000</ele>
        <time>2010-01-01T00:29:01Z</time>
      </trkpt>
      <trkpt lat="41.40303600" lon="2.105856000">
        <ele>294.00000</ele>
        <time>2010-01-01T00:29:02Z</time>
      </trkpt>
      <trkpt lat="41.40313500" lon="2.105849000">
        <ele>298.00000</ele>
        <time>2010-01-01T00:29:06Z</time>
      </trkpt>
      <trkpt lat="41.40318900" lon="2.105872000">
        <ele>300.00000</ele>
        <time>2010-01-01T00:29:08Z</time>
      </trkpt>
      <trkpt lat="41.40322600" lon="2.105919000">
        <ele>300.00000</ele>
        <time>2010-01-01T00:29:10Z</time>
      </trkpt>
      <trkpt lat="41.40324200" lon="2.105971000">
        <ele>299.00000</ele>
        <time>2010-01-01T00:29:12Z</time>
      </trkpt>
      <trkpt lat="41.40324700" lon="2.106045000">
        <ele>296.00000</ele>
        <time>2010-01-01T00:29:14Z</time>
      </trkpt>
      <trkpt lat="41.40322900" lon="2.106207000">
        <ele>290.00000</ele>
        <time>2010-01-01T00:29:19Z</time>
      </trkpt>
      <trkpt lat="41.40320800" lon="2.106333000">
        <ele>286.00000</ele>
        <time>2010-01-01T00:29:23Z</time>
      </trkpt>
      <trkpt lat="41.40319600" lon="2.106536000">
        <ele>280.00000</ele>
        <time>2010-01-01T00:29:29Z</time>
      </trkpt>
      <trkpt lat="41.40322000" lon="2.106786000">
        <ele>276.00000</ele>
        <time>2010-01-01T00:29:37Z</time>
      </trkpt>
      <trkpt lat="41.40326000" lon="2.106936000">
        <ele>274.00000</ele>
        <time>2010-01-01T00:29:42Z</time>
      </trkpt>
      <trkpt lat="41.40332100" lon="2.107087000">
        <ele>273.00000</ele>
        <time>2010-01-01T00:29:47Z</time>
      </trkpt>
      <trkpt lat="41.40340300" lon="2.107206000">
        <ele>274.00000</ele>
        <time>2010-01-01T00:29:52Z</time>
      </trkpt>
      <trkpt lat="41.40347100" lon="2.107281000">
        <ele>273.00000</ele>
        <time>2010-01-01T00:29:55Z</time>
      </trkpt>
      <trkpt lat="41.40357300" lon="2.107351000">
        <ele>273.00000</ele>
        <time>2010-01-01T00:30:00Z</time>
      </trkpt>
      <trkpt lat="41.40369600" lon="2.107392000">
        <ele>275.00000</ele>
        <time>2010-01-01T00:30:05Z</time>
      </trkpt>
      <trkpt lat="41.40380000" lon="2.107407000">
        <ele>278.00000</ele>
        <time>2010-01-01T00:30:09Z</time>
      </trkpt>
      <trkpt lat="41.40398700" lon="2.107419000">
        <ele>281.00000</ele>
        <time>2010-01-01T00:30:16Z</time>
      </trkpt>
      <trkpt lat="41.40410600" lon="2.107407000">
        <ele>283.00000</ele>
        <time>2010-01-01T00:30:21Z</time>
      </trkpt>
      <trkpt lat="41.40417900" lon="2.107392000">
        <ele>284.00000</ele>
        <time>2010-01-01T00:30:24Z</time>
      </trkpt>
      <trkpt lat="41.40426600" lon="2.107350000">
        <ele>285.00000</ele>
        <time>2010-01-01T00:30:28Z</time>
      </trkpt>
      <trkpt lat="41.40443900" lon="2.107257000">
        <ele>286.00000</ele>
        <time>2010-01-01T00:30:35Z</time>
      </trkpt>
      <trkpt lat="41.40449900" lon="2.107248000">
        <ele>287.00000</ele>
        <time>2010-01-01T00:30:38Z</time>
      </trkpt>
      <trkpt lat="41.40455900" lon="2.107288000">
        <ele>286.00000</ele>
        <time>2010-01-01T00:30:40Z</time>
      </trkpt>
      <trkpt lat="41.40460800" lon="2.107361000">
        <ele>283.00000</ele>
        <time>2010-01-01T00:30:43Z</time>
      </trkpt>
      <trkpt lat="41.40465800" lon="2.107454000">
        <ele>280.00000</ele>
        <time>2010-01-01T00:30:47Z</time>
      </trkpt>
      <trkpt lat="41.40469700" lon="2.107527000">
        <ele>278.00000</ele>
        <time>2010-01-01T00:30:49Z</time>
      </trkpt>
      <trkpt lat="41.40477200" lon="2.107598000">
        <ele>278.00000</ele>
        <time>2010-01-01T00:30:53Z</time>
      </trkpt>
      <trkpt lat="41.40486200" lon="2.107653000">
        <ele>280.00000</ele>
        <time>2010-01-01T00:30:57Z</time>
      </trkpt>
      <trkpt lat="41.40521000" lon="2.107803000">
        <ele>285.00000</ele>
        <time>2010-01-01T00:31:12Z</time>
      </trkpt>
      <trkpt lat="41.40526900" lon="2.107836000">
        <ele>286.00000</ele>
        <time>2010-01-01T00:31:14Z</time>
      </trkpt>
      <trkpt lat="41.40533800" lon="2.107900000">
        <ele>286.00000</ele>
        <time>2010-01-01T00:31:18Z</time>
      </trkpt>
      <trkpt lat="41.40541000" lon="2.107996000">
        <ele>285.00000</ele>
        <time>2010-01-01T00:31:22Z</time>
      </trkpt>
      <trkpt lat="41.40555600" lon="2.108255000">
        <ele>283.00000</ele>
        <time>2010-01-01T00:31:31Z</time>
      </trkpt>
      <trkpt lat="41.40572000" lon="2.108592000">
        <ele>281.00000</ele>
        <time>2010-01-01T00:31:44Z</time>
      </trkpt>
      <trkpt lat="41.40582100" lon="2.108737000">
        <ele>280.00000</ele>
        <time>2010-01-01T00:31:49Z</time>
      </trkpt>
      <trkpt lat="41.40590800" lon="2.108815000">
        <ele>279.00000</ele>
        <time>2010-01-01T00:31:54Z</time>
      </trkpt>
      <trkpt lat="41.40598000" lon="2.108853000">
        <ele>279.00000</ele>
        <time>2010-01-01T00:31:57Z</time>
      </trkpt>
      <trkpt lat="41.40608000" lon="2.108883000">
        <ele>281.00000</ele>
        <time>2010-01-01T00:32:01Z</time>
      </trkpt>
      <trkpt lat="41.40651800" lon="2.109003000">
        <ele>280.00000</ele>
        <time>2010-01-01T00:32:19Z</time>
      </trkpt>
      <trkpt lat="41.40662400" lon="2.109031000">
        <ele>280.00000</ele>
        <time>2010-01-01T00:32:23Z</time>
      </trkpt>
      <trkpt lat="41.40674500" lon="2.109031000">
        <ele>280.00000</ele>
        <time>2010-01-01T00:32:28Z</time>
      </trkpt>
      <trkpt lat="41.40682800" lon="2.109002000">
        <ele>281.00000</ele>
        <time>2010-01-01T00:32:31Z</time>
      </trkpt>
      <trkpt lat="41.40690000" lon="2.108952000">
        <ele>282.00000</ele>
        <time>2010-01-01T00:32:35Z</time>
      </trkpt>
      <trkpt lat="41.40695000" lon="2.108876000">
        <ele>283.00000</ele>
        <time>2010-01-01T00:32:38Z</time>
      </trkpt>
      <trkpt lat="41.40698700" lon="2.108788000">
        <ele>283.00000</ele>
        <time>2010-01-01T00:32:41Z</time>
      </trkpt>
      <trkpt lat="41.40700600" lon="2.108683000">
        <ele>283.00000</ele>
        <time>2010-01-01T00:32:44Z</time>
      </trkpt>
      <trkpt lat="41.40700200" lon="2.108550000">
        <ele>283.00000</ele>
        <time>2010-01-01T00:32:48Z</time>
      </trkpt>
      <trkpt lat="41.40695100" lon="2.108418000">
        <ele>283.00000</ele>
        <time>2010-01-01T00:32:52Z</time>
      </trkpt>
      <trkpt lat="41.40687800" lon="2.108326000">
        <ele>283.00000</ele>
        <time>2010-01-01T00:32:56Z</time>
      </trkpt>
      <trkpt lat="41.40678300" lon="2.108233000">
        <ele>284.00000</ele>
        <time>2010-01-01T00:33:01Z</time>
      </trkpt>
      <trkpt lat="41.40669100" lon="2.108117000">
        <ele>285.00000</ele>
        <time>2010-01-01T00:33:06Z</time>
      </trkpt>
      <trkpt lat="41.40663200" lon="2.108004000">
        <ele>286.00000</ele>
        <time>2010-01-01T00:33:10Z</time>
      </trkpt>
      <trkpt lat="41.40658800" lon="2.107877000">
        <ele>287.00000</ele>
        <time>2010-01-01T00:33:15Z</time>
      </trkpt>
      <trkpt lat="41.40651200" lon="2.107697000">
        <ele>290.00000</ele>
        <time>2010-01-01T00:33:21Z</time>
      </trkpt>
      <trkpt lat="41.40651300" lon="2.107670000">
        <ele>291.00000</ele>
        <time>2010-01-01T00:33:22Z</time>
      </trkpt>
      <trkpt lat="41.40650600" lon="2.107617000">
        <ele>291.00000</ele>
        <time>2010-01-01T00:33:23Z</time>
      </trkpt>
      <trkpt lat="41.40650500" lon="2.107575000">
        <ele>291.00000</ele>
        <time>2010-01-01T00:33:24Z</time>
      </trkpt>
      <trkpt lat="41.40650900" lon="2.107528000">
        <ele>291.00000</ele>
        <time>2010-01-01T00:33:26Z</time>
      </trkpt>
      <trkpt lat="41.40651700" lon="2.107481000">
        <ele>291.00000</ele>
        <time>2010-01-01T00:33:27Z</time>
      </trkpt>
      <trkpt lat="41.40653900" lon="2.107427000">
        <ele>290.00000</ele>
        <time>2010-01-01T00:33:29Z</time>
      </trkpt>
      <trkpt lat="41.40657400" lon="2.107365000">
        <ele>289.00000</ele>
        <time>2010-01-01T00:33:31Z</time>
      </trkpt>
      <trkpt lat="41.40661800" lon="2.107312000">
        <ele>288.00000</ele>
        <time>2010-01-01T00:33:34Z</time>
      </trkpt>
      <trkpt lat="41.40668500" lon="2.107240000">
        <ele>286.00000</ele>
        <time>2010-01-01T00:33:37Z</time>
      </trkpt>
      <trkpt lat="41.40680500" lon="2.107113000">
        <ele>284.00000</ele>
        <time>2010-01-01T00:33:43Z</time>
      </trkpt>
      <trkpt lat="41.40684200" lon="2.107069000">
        <ele>284.00000</ele>
        <time>2010-01-01T00:33:45Z</time>
      </trkpt>
      <trkpt lat="41.40687800" lon="2.107015000">
        <ele>284.00000</ele>
        <time>2010-01-01T00:33:48Z</time>
      </trkpt>
      <trkpt lat="41.40690000" lon="2.106965000">
        <ele>284.00000</ele>
        <time>2010-01-01T00:33:49Z</time>
      </trkpt>
      <trkpt lat="41.40691000" lon="2.106932000">
        <ele>284.00000</ele>
        <time>2010-01-01T00:33:50Z</time>
      </trkpt>
      <trkpt lat="41.40691700" lon="2.106897000">
        <ele>284.00000</ele>
        <time>2010-01-01T00:33:51Z</time>
      </trkpt>
      <trkpt lat="41.40692000" lon="2.106861000">
        <ele>284.00000</ele>
        <time>2010-01-01T00:33:53Z</time>
      </trkpt>
      <trkpt lat="41.40692100" lon="2.106825000">
        <ele>284.00000</ele>
        <time>2010-01-01T00:33:54Z</time>
      </trkpt>
      <trkpt lat="41.40691800" lon="2.106778000">
        <ele>284.00000</ele>
        <time>2010-01-01T00:33:55Z</time>
      </trkpt>
      <trkpt lat="41.40690800" lon="2.106732000">
        <ele>284.00000</ele>
        <time>2010-01-01T00:33:57Z</time>
      </trkpt>
      <trkpt lat="41.40689900" lon="2.106706000">
        <ele>284.00000</ele>
        <time>2010-01-01T00:33:57Z</time>
      </trkpt>
      <trkpt lat="41.40687200" lon="2.106666000">
        <ele>284.00000</ele>
        <time>2010-01-01T00:33:59Z</time>
      </trkpt>
      <trkpt lat="41.40684300" lon="2.106638000">
        <ele>284.00000</ele>
        <time>2010-01-01T00:34:00Z</time>
      </trkpt>
      <trkpt lat="41.40680500" lon="2.106604000">
        <ele>284.00000</ele>
        <time>2010-01-01T00:34:02Z</time>
      </trkpt>
      <trkpt lat="41.40669900" lon="2.106504000">
        <ele>286.00000</ele>
        <time>2010-01-01T00:34:07Z</time>
      </trkpt>
      <trkpt lat="41.40658800" lon="2.106419000">
        <ele>289.00000</ele>
        <time>2010-01-01T00:34:13Z</time>
      </trkpt>
      <trkpt lat="41.40652700" lon="2.106330000">
        <ele>291.00000</ele>
        <time>2010-01-01T00:34:16Z</time>
      </trkpt>
      <trkpt lat="41.40649400" lon="2.106250000">
        <ele>291.00000</ele>
        <time>2010-01-01T00:34:19Z</time>
      </trkpt>
      <trkpt lat="41.40647000" lon="2.106150000">
        <ele>292.00000</ele>
        <time>2010-01-01T00:34:22Z</time>
      </trkpt>
      <trkpt lat="41.40646300" lon="2.106048000">
        <ele>292.00000</ele>
        <time>2010-01-01T00:34:25Z</time>
      </trkpt>
      <trkpt lat="41.40647000" lon="2.105948000">
        <ele>290.00000</ele>
        <time>2010-01-01T00:34:28Z</time>
      </trkpt>
      <trkpt lat="41.40650100" lon="2.105834000">
        <ele>288.00000</ele>
        <time>2010-01-01T00:34:32Z</time>
      </trkpt>
      <trkpt lat="41.40652000" lon="2.105692000">
        <ele>287.00000</ele>
        <time>2010-01-01T00:34:36Z</time>
      </trkpt>
      <trkpt lat="41.40650700" lon="2.105526000">
        <ele>286.00000</ele>
        <time>2010-01-01T00:34:41Z</time>
      </trkpt>
      <trkpt lat="41.40646400" lon="2.105395000">
        <ele>288.00000</ele>
        <time>2010-01-01T00:34:45Z</time>
      </trkpt>
      <trkpt lat="41.40634700" lon="2.105229000">
        <ele>291.00000</ele>
        <time>2010-01-01T00:34:52Z</time>
      </trkpt>
      <trkpt lat="41.40622100" lon="2.105077000">
        <ele>295.00000</ele>
        <time>2010-01-01T00:34:59Z</time>
      </trkpt>
      <trkpt lat="41.40613100" lon="2.104968000">
        <ele>297.00000</ele>
        <time>2010-01-01T00:35:04Z</time>
      </trkpt>
      <trkpt lat="41.40612500" lon="2.104954040">
        <ele>297.00000</ele>
        <time>2010-01-01T00:35:04Z</time>
      </trkpt>
      <trkpt lat="41.40608300" lon="2.104856000">
        <ele>297.00000</ele>
        <time>2010-01-01T00:35:08Z</time>
      </trkpt>
      <trkpt lat="41.40607000" lon="2.104772000">
        <ele>297.00000</ele>
        <time>2010-01-01T00:35:10Z</time>
      </trkpt>
      <trkpt lat="41.40608100" lon="2.104672000">
        <ele>297.00000</ele>
        <time>2010-01-01T00:35:13Z</time>
      </trkpt>
      <trkpt lat="41.40611500" lon="2.104614000">
        <ele>296.00000</ele>
        <time>2010-01-01T00:35:16Z</time>
      </trkpt>
      <trkpt lat="41.40612100" lon="2.104580000">
        <ele>296.00000</ele>
        <time>2010-01-01T00:35:17Z</time>
      </trkpt>
      <trkpt lat="41.40616800" lon="2.104524000">
        <ele>294.00000</ele>
        <time>2010-01-01T00:35:19Z</time>
      </trkpt>
      <trkpt lat="41.40632900" lon="2.104399000">
        <ele>291.00000</ele>
        <time>2010-01-01T00:35:27Z</time>
      </trkpt>
      <trkpt lat="41.40640100" lon="2.104403000">
        <ele>290.00000</ele>
        <time>2010-01-01T00:35:30Z</time>
      </trkpt>
      <trkpt lat="41.40652300" lon="2.104448000">
        <ele>288.00000</ele>
        <time>2010-01-01T00:35:35Z</time>
      </trkpt>
      <trkpt lat="41.40676800" lon="2.104512000">
        <ele>287.00000</ele>
        <time>2010-01-01T00:35:45Z</time>
      </trkpt>
      <trkpt lat="41.40708200" lon="2.104661000">
        <ele>285.00000</ele>
        <time>2010-01-01T00:35:58Z</time>
      </trkpt>
      <trkpt lat="41.40718500" lon="2.104690000">
        <ele>284.00000</ele>
        <time>2010-01-01T00:36:02Z</time>
      </trkpt>
      <trkpt lat="41.40727500" lon="2.104651000">
        <ele>283.00000</ele>
        <time>2010-01-01T00:36:06Z</time>
      </trkpt>
      <trkpt lat="41.40735300" lon="2.104553000">
        <ele>284.00000</ele>
        <time>2010-01-01T00:36:10Z</time>
      </trkpt>
      <trkpt lat="41.40750000" lon="2.104213000">
        <ele>290.00000</ele>
        <time>2010-01-01T00:36:22Z</time>
      </trkpt>
      <trkpt lat="41.40752100" lon="2.104140000">
        <ele>291.00000</ele>
        <time>2010-01-01T00:36:24Z</time>
      </trkpt>
      <trkpt lat="41.40753600" lon="2.104071000">
        <ele>292.00000</ele>
        <time>2010-01-01T00:36:27Z</time>
      </trkpt>
      <trkpt lat="41.40756000" lon="2.103905000">
        <ele>294.00000</ele>
        <time>2010-01-01T00:36:32Z</time>
      </trkpt>
      <trkpt lat="41.40758000" lon="2.103814000">
        <ele>295.00000</ele>
        <time>2010-01-01T00:36:34Z</time>
      </trkpt>
      <trkpt lat="41.40760300" lon="2.103738000">
        <ele>296.00000</ele>
        <time>2010-01-01T00:36:37Z</time>
      </trkpt>
      <trkpt lat="41.40765200" lon="2.103691000">
        <ele>295.00000</ele>
        <time>2010-01-01T00:36:39Z</time>
      </trkpt>
      <trkpt lat="41.40776300" lon="2.103642000">
        <ele>292.00000</ele>
        <time>2010-01-01T00:36:44Z</time>
      </trkpt>
      <trkpt lat="41.40780100" lon="2.103640000">
        <ele>291.00000</ele>
        <time>2010-01-01T00:36:46Z</time>
      </trkpt>
      <trkpt lat="41.40787900" lon="2.103652000">
        <ele>290.00000</ele>
        <time>2010-01-01T00:36:49Z</time>
      </trkpt>
      <trkpt lat="41.40792400" lon="2.103681000">
        <ele>289.00000</ele>
        <time>2010-01-01T00:36:51Z</time>
      </trkpt>
      <trkpt lat="41.40796200" lon="2.103717000">
        <ele>289.00000</ele>
        <time>2010-01-01T00:36:53Z</time>
      </trkpt>
      <trkpt lat="41.40802300" lon="2.103801000">
        <ele>287.00000</ele>
        <time>2010-01-01T00:36:56Z</time>
      </trkpt>
      <trkpt lat="41.40810100" lon="2.103935000">
        <ele>285.00000</ele>
        <time>2010-01-01T00:37:01Z</time>
      </trkpt>
      <trkpt lat="41.40814100" lon="2.103999000">
        <ele>284.00000</ele>
        <time>2010-01-01T00:37:04Z</time>
      </trkpt>
      <trkpt lat="41.40817400" lon="2.104047000">
        <ele>284.00000</ele>
        <time>2010-01-01T00:37:06Z</time>
      </trkpt>
      <trkpt lat="41.40826900" lon="2.104140000">
        <ele>282.00000</ele>
        <time>2010-01-01T00:37:10Z</time>
      </trkpt>
      <trkpt lat="41.40830700" lon="2.104160000">
        <ele>282.00000</ele>
        <time>2010-01-01T00:37:12Z</time>
      </trkpt>
      <trkpt lat="41.40836400" lon="2.104177000">
        <ele>281.00000</ele>
        <time>2010-01-01T00:37:14Z</time>
      </trkpt>
      <trkpt lat="41.40841300" lon="2.104180000">
        <ele>282.00000</ele>
        <time>2010-01-01T00:37:16Z</time>
      </trkpt>
      <trkpt lat="41.40847100" lon="2.104170000">
        <ele>282.00000</ele>
        <time>2010-01-01T00:37:19Z</time>
      </trkpt>
      <trkpt lat="41.40849300" lon="2.104162000">
        <ele>283.00000</ele>
        <time>2010-01-01T00:37:20Z</time>
      </trkpt>
      <trkpt lat="41.40853100" lon="2.104143000">
        <ele>284.00000</ele>
        <time>2010-01-01T00:37:21Z</time>
      </trkpt>
      <trkpt lat="41.40856300" lon="2.104127000">
        <ele>284.00000</ele>
        <time>2010-01-01T00:37:23Z</time>
      </trkpt>
      <trkpt lat="41.40865500" lon="2.104105000">
        <ele>286.00000</ele>
        <time>2010-01-01T00:37:26Z</time>
      </trkpt>
      <trkpt lat="41.40871600" lon="2.104112000">
        <ele>288.00000</ele>
        <time>2010-01-01T00:37:29Z</time>
      </trkpt>
      <trkpt lat="41.40875900" lon="2.104143000">
        <ele>288.00000</ele>
        <time>2010-01-01T00:37:31Z</time>
      </trkpt>
      <trkpt lat="41.40878600" lon="2.104175000">
        <ele>288.00000</ele>
        <time>2010-01-01T00:37:32Z</time>
      </trkpt>
      <trkpt lat="41.40880200" lon="2.104211000">
        <ele>287.00000</ele>
        <time>2010-01-01T00:37:33Z</time>
      </trkpt>
      <trkpt lat="41.40881300" lon="2.104248000">
        <ele>287.00000</ele>
        <time>2010-01-01T00:37:35Z</time>
      </trkpt>
      <trkpt lat="41.40882700" lon="2.104299000">
        <ele>286.00000</ele>
        <time>2010-01-01T00:37:36Z</time>
      </trkpt>
      <trkpt lat="41.40883800" lon="2.104358000">
        <ele>285.00000</ele>
        <time>2010-01-01T00:37:38Z</time>
      </trkpt>
      <trkpt lat="41.40885600" lon="2.104459000">
        <ele>283.00000</ele>
        <time>2010-01-01T00:37:41Z</time>
      </trkpt>
      <trkpt lat="41.40886900" lon="2.104502000">
        <ele>284.00000</ele>
        <time>2010-01-01T00:37:43Z</time>
      </trkpt>
      <trkpt lat="41.40889800" lon="2.104553000">
        <ele>284.00000</ele>
        <time>2010-01-01T00:37:44Z</time>
      </trkpt>
      <trkpt lat="41.40892500" lon="2.104591000">
        <ele>285.00000</ele>
        <time>2010-01-01T00:37:46Z</time>
      </trkpt>
      <trkpt lat="41.40893500" lon="2.104607000">
        <ele>286.00000</ele>
        <time>2010-01-01T00:37:47Z</time>
      </trkpt>
      <trkpt lat="41.40895000" lon="2.104634000">
        <ele>286.00000</ele>
        <time>2010-01-01T00:37:48Z</time>
      </trkpt>
      <trkpt lat="41.40895900" lon="2.104658000">
        <ele>286.00000</ele>
        <time>2010-01-01T00:37:48Z</time>
      </trkpt>
      <trkpt lat="41.40896200" lon="2.104695000">
        <ele>286.00000</ele>
        <time>2010-01-01T00:37:50Z</time>
      </trkpt>
      <trkpt lat="41.40895600" lon="2.104726000">
        <ele>286.00000</ele>
        <time>2010-01-01T00:37:51Z</time>
      </trkpt>
      <trkpt lat="41.40894300" lon="2.104744000">
        <ele>285.00000</ele>
        <time>2010-01-01T00:37:51Z</time>
      </trkpt>
      <trkpt lat="41.40885000" lon="2.104848000">
        <ele>282.00000</ele>
        <time>2010-01-01T00:37:56Z</time>
      </trkpt>
      <trkpt lat="41.40882500" lon="2.104875000">
        <ele>281.00000</ele>
        <time>2010-01-01T00:37:57Z</time>
      </trkpt>
      <trkpt lat="41.40880700" lon="2.104901000">
        <ele>281.00000</ele>
        <time>2010-01-01T00:37:58Z</time>
      </trkpt>
      <trkpt lat="41.40879500" lon="2.104919000">
        <ele>280.00000</ele>
        <time>2010-01-01T00:37:59Z</time>
      </trkpt>
      <trkpt lat="41.40878300" lon="2.104944000">
        <ele>280.00000</ele>
        <time>2010-01-01T00:38:00Z</time>
      </trkpt>
      <trkpt lat="41.40877600" lon="2.104959000">
        <ele>280.00000</ele>
        <time>2010-01-01T00:38:01Z</time>
      </trkpt>
      <trkpt lat="41.40876600" lon="2.104986000">
        <ele>279.00000</ele>
        <time>2010-01-01T00:38:02Z</time>
      </trkpt>
      <trkpt lat="41.40875800" lon="2.105014000">
        <ele>279.00000</ele>
        <time>2010-01-01T00:38:02Z</time>
      </trkpt>
      <trkpt lat="41.40874900" lon="2.105052000">
        <ele>279.00000</ele>
        <time>2010-01-01T00:38:04Z</time>
      </trkpt>
      <trkpt lat="41.40873600" lon="2.105109000">
        <ele>278.00000</ele>
        <time>2010-01-01T00:38:05Z</time>
      </trkpt>
      <trkpt lat="41.40871800" lon="2.105189000">
        <ele>278.00000</ele>
        <time>2010-01-01T00:38:08Z</time>
      </trkpt>
      <trkpt lat="41.40868700" lon="2.105323000">
        <ele>277.00000</ele>
        <time>2010-01-01T00:38:12Z</time>
      </trkpt>
      <trkpt lat="41.40868000" lon="2.105351000">
        <ele>277.00000</ele>
        <time>2010-01-01T00:38:13Z</time>
      </trkpt>
      <trkpt lat="41.40867100" lon="2.105398000">
        <ele>276.00000</ele>
        <time>2010-01-01T00:38:14Z</time>
      </trkpt>
      <trkpt lat="41.40866700" lon="2.105439000">
        <ele>276.00000</ele>
        <time>2010-01-01T00:38:16Z</time>
      </trkpt>
      <trkpt lat="41.40866500" lon="2.105475000">
        <ele>276.00000</ele>
        <time>2010-01-01T00:38:17Z</time>
      </trkpt>
      <trkpt lat="41.40866600" lon="2.105523000">
        <ele>276.00000</ele>
        <time>2010-01-01T00:38:18Z</time>
      </trkpt>
      <trkpt lat="41.40867300" lon="2.105582000">
        <ele>276.00000</ele>
        <time>2010-01-01T00:38:20Z</time>
      </trkpt>
      <trkpt lat="41.40868600" lon="2.105645000">
        <ele>276.00000</ele>
        <time>2010-01-01T00:38:22Z</time>
      </trkpt>
      <trkpt lat="41.40871600" lon="2.105707000">
        <ele>277.00000</ele>
        <time>2010-01-01T00:38:24Z</time>
      </trkpt>
      <trkpt lat="41.40873800" lon="2.105759000">
        <ele>278.00000</ele>
        <time>2010-01-01T00:38:26Z</time>
      </trkpt>
      <trkpt lat="41.40874600" lon="2.105780000">
        <ele>278.00000</ele>
        <time>2010-01-01T00:38:27Z</time>
      </trkpt>
      <trkpt lat="41.40876400" lon="2.105823000">
        <ele>278.00000</ele>
        <time>2010-01-01T00:38:28Z</time>
      </trkpt>
      <trkpt lat="41.40879800" lon="2.105900000">
        <ele>279.00000</ele>
        <time>2010-01-01T00:38:31Z</time>
      </trkpt>
      <trkpt lat="41.40883100" lon="2.105975000">
        <ele>279.00000</ele>
        <time>2010-01-01T00:38:34Z</time>
      </trkpt>
      <trkpt lat="41.40885400" lon="2.106041000">
        <ele>279.00000</ele>
        <time>2010-01-01T00:38:36Z</time>
      </trkpt>
      <trkpt lat="41.40889000" lon="2.106147000">
        <ele>279.00000</ele>
        <time>2010-01-01T00:38:39Z</time>
      </trkpt>
      <trkpt lat="41.40890500" lon="2.106192000">
        <ele>279.00000</ele>
        <time>2010-01-01T00:38:41Z</time>
      </trkpt>
      <trkpt lat="41.40897200" lon="2.106331000">
        <ele>279.00000</ele>
        <time>2010-01-01T00:38:46Z</time>
      </trkpt>
      <trkpt lat="41.40899900" lon="2.106388000">
        <ele>279.00000</ele>
        <time>2010-01-01T00:38:48Z</time>
      </trkpt>
      <trkpt lat="41.40903400" lon="2.106460000">
        <ele>279.00000</ele>
        <time>2010-01-01T00:38:50Z</time>
      </trkpt>
      <trkpt lat="41.40906800" lon="2.106528000">
        <ele>279.00000</ele>
        <time>2010-01-01T00:38:53Z</time>
      </trkpt>
      <trkpt lat="41.40909000" lon="2.106561000">
        <ele>279.00000</ele>
        <time>2010-01-01T00:38:54Z</time>
      </trkpt>
      <trkpt lat="41.40911000" lon="2.106584000">
        <ele>279.00000</ele>
        <time>2010-01-01T00:38:55Z</time>
      </trkpt>
      <trkpt lat="41.40913100" lon="2.106600000">
        <ele>279.00000</ele>
        <time>2010-01-01T00:38:56Z</time>
      </trkpt>
      <trkpt lat="41.40916600" lon="2.106610000">
        <ele>280.00000</ele>
        <time>2010-01-01T00:38:57Z</time>
      </trkpt>
      <trkpt lat="41.40920100" lon="2.106612000">
        <ele>280.00000</ele>
        <time>2010-01-01T00:38:59Z</time>
      </trkpt>
      <trkpt lat="41.40923300" lon="2.106612000">
        <ele>281.00000</ele>
        <time>2010-01-01T00:39:00Z</time>
      </trkpt>
      <trkpt lat="41.40929000" lon="2.106597000">
        <ele>282.00000</ele>
        <time>2010-01-01T00:39:02Z</time>
      </trkpt>
      <trkpt lat="41.40932800" lon="2.106584000">
        <ele>283.00000</ele>
        <time>2010-01-01T00:39:04Z</time>
      </trkpt>
      <trkpt lat="41.40937800" lon="2.106571000">
        <ele>284.00000</ele>
        <time>2010-01-01T00:39:06Z</time>
      </trkpt>
      <trkpt lat="41.40943500" lon="2.106554000">
        <ele>285.00000</ele>
        <time>2010-01-01T00:39:08Z</time>
      </trkpt>
      <trkpt lat="41.40947500" lon="2.106543000">
        <ele>286.00000</ele>
        <time>2010-01-01T00:39:10Z</time>
      </trkpt>
      <trkpt lat="41.40955300" lon="2.106531000">
        <ele>288.00000</ele>
        <time>2010-01-01T00:39:13Z</time>
      </trkpt>
      <trkpt lat="41.40959400" lon="2.106539000">
        <ele>288.00000</ele>
        <time>2010-01-01T00:39:15Z</time>
      </trkpt>
      <trkpt lat="41.40960800" lon="2.106542000">
        <ele>288.00000</ele>
        <time>2010-01-01T00:39:15Z</time>
      </trkpt>
      <trkpt lat="41.40963800" lon="2.106554000">
        <ele>288.00000</ele>
        <time>2010-01-01T00:39:17Z</time>
      </trkpt>
      <trkpt lat="41.40966800" lon="2.106574000">
        <ele>288.00000</ele>
        <time>2010-01-01T00:39:18Z</time>
      </trkpt>
      <trkpt lat="41.40969900" lon="2.106604000">
        <ele>287.00000</ele>
        <time>2010-01-01T00:39:20Z</time>
      </trkpt>
      <trkpt lat="41.40972600" lon="2.106639000">
        <ele>286.00000</ele>
        <time>2010-01-01T00:39:21Z</time>
      </trkpt>
      <trkpt lat="41.40977400" lon="2.106707000">
        <ele>285.00000</ele>
        <time>2010-01-01T00:39:24Z</time>
      </trkpt>
      <trkpt lat="41.40980500" lon="2.106756000">
        <ele>284.00000</ele>
        <time>2010-01-01T00:39:26Z</time>
      </trkpt>
      <trkpt lat="41.40985000" lon="2.106833000">
        <ele>283.00000</ele>
        <time>2010-01-01T00:39:29Z</time>
      </trkpt>
      <trkpt lat="41.40989000" lon="2.106898000">
        <ele>281.00000</ele>
        <time>2010-01-01T00:39:31Z</time>
      </trkpt>
      <trkpt lat="41.40991800" lon="2.106926000">
        <ele>281.00000</ele>
        <time>2010-01-01T00:39:33Z</time>
      </trkpt>
      <trkpt lat="41.40994900" lon="2.106943000">
        <ele>281.00000</ele>
        <time>2010-01-01T00:39:34Z</time>
      </trkpt>
      <trkpt lat="41.40997500" lon="2.106953000">
        <ele>281.00000</ele>
        <time>2010-01-01T00:39:35Z</time>
      </trkpt>
      <trkpt lat="41.41000200" lon="2.106959000">
        <ele>281.00000</ele>
        <time>2010-01-01T00:39:36Z</time>
      </trkpt>
      <trkpt lat="41.41004000" lon="2.106957000">
        <ele>282.00000</ele>
        <time>2010-01-01T00:39:38Z</time>
      </trkpt>
      <trkpt lat="41.41005900" lon="2.106953000">
        <ele>282.00000</ele>
        <time>2010-01-01T00:39:38Z</time>
      </trkpt>
      <trkpt lat="41.41010800" lon="2.106929000">
        <ele>283.00000</ele>
        <time>2010-01-01T00:39:41Z</time>
      </trkpt>
      <trkpt lat="41.41015700" lon="2.106899000">
        <ele>285.00000</ele>
        <time>2010-01-01T00:39:43Z</time>
      </trkpt>
      <trkpt lat="41.41021900" lon="2.106846000">
        <ele>287.00000</ele>
        <time>2010-01-01T00:39:46Z</time>
      </trkpt>
      <trkpt lat="41.41028500" lon="2.106791000">
        <ele>290.00000</ele>
        <time>2010-01-01T00:39:49Z</time>
      </trkpt>
      <trkpt lat="41.41030900" lon="2.106770000">
        <ele>290.00000</ele>
        <time>2010-01-01T00:39:50Z</time>
      </trkpt>
      <trkpt lat="41.41038800" lon="2.106684000">
        <ele>290.00000</ele>
        <time>2010-01-01T00:39:54Z</time>
      </trkpt>
      <trkpt lat="41.41045300" lon="2.106577000">
        <ele>291.00000</ele>
        <time>2010-01-01T00:39:58Z</time>
      </trkpt>
      <trkpt lat="41.41048200" lon="2.106530000">
        <ele>292.00000</ele>
        <time>2010-01-01T00:40:00Z</time>
      </trkpt>
      <trkpt lat="41.41054400" lon="2.106435000">
        <ele>293.00000</ele>
        <time>2010-01-01T00:40:04Z</time>
      </trkpt>
      <trkpt lat="41.41057900" lon="2.106380000">
        <ele>292.00000</ele>
        <time>2010-01-01T00:40:06Z</time>
      </trkpt>
      <trkpt lat="41.41066300" lon="2.106264000">
        <ele>291.00000</ele>
        <time>2010-01-01T00:40:11Z</time>
      </trkpt>
      <trkpt lat="41.41073500" lon="2.106152000">
        <ele>291.00000</ele>
        <time>2010-01-01T00:40:15Z</time>
      </trkpt>
      <trkpt lat="41.41081800" lon="2.106025000">
        <ele>292.00000</ele>
        <time>2010-01-01T00:40:20Z</time>
      </trkpt>
      <trkpt lat="41.41092000" lon="2.105902000">
        <ele>295.00000</ele>
        <time>2010-01-01T00:40:26Z</time>
      </trkpt>
      <trkpt lat="41.41095800" lon="2.105856000">
        <ele>296.00000</ele>
        <time>2010-01-01T00:40:28Z</time>
      </trkpt>
      <trkpt lat="41.41109400" lon="2.105762000">
        <ele>297.00000</ele>
        <time>2010-01-01T00:40:34Z</time>
      </trkpt>
      <trkpt lat="41.41114300" lon="2.105757000">
        <ele>297.00000</ele>
        <time>2010-01-01T00:40:36Z</time>
      </trkpt>
      <trkpt lat="41.41119800" lon="2.105782000">
        <ele>297.00000</ele>
        <time>2010-01-01T00:40:38Z</time>
      </trkpt>
      <trkpt lat="41.41125700" lon="2.105843000">
        <ele>295.00000</ele>
        <time>2010-01-01T00:40:41Z</time>
      </trkpt>
      <trkpt lat="41.41129500" lon="2.105927000">
        <ele>292.00000</ele>
        <time>2010-01-01T00:40:44Z</time>
      </trkpt>
      <trkpt lat="41.41134300" lon="2.106101000">
        <ele>285.00000</ele>
        <time>2010-01-01T00:40:50Z</time>
      </trkpt>
      <trkpt lat="41.41138400" lon="2.106162000">
        <ele>283.00000</ele>
        <time>2010-01-01T00:40:52Z</time>
      </trkpt>
      <trkpt lat="41.41144800" lon="2.106213000">
        <ele>284.00000</ele>
        <time>2010-01-01T00:40:55Z</time>
      </trkpt>
      <trkpt lat="41.41152000" lon="2.106230000">
        <ele>286.00000</ele>
        <time>2010-01-01T00:40:58Z</time>
      </trkpt>
      <trkpt lat="41.41158200" lon="2.106225000">
        <ele>288.00000</ele>
        <time>2010-01-01T00:41:01Z</time>
      </trkpt>
      <trkpt lat="41.41163800" lon="2.106234000">
        <ele>290.00000</ele>
        <time>2010-01-01T00:41:03Z</time>
      </trkpt>
      <trkpt lat="41.41169500" lon="2.106277000">
        <ele>291.00000</ele>
        <time>2010-01-01T00:41:05Z</time>
      </trkpt>
      <trkpt lat="41.41173600" lon="2.106342000">
        <ele>291.00000</ele>
        <time>2010-01-01T00:41:08Z</time>
      </trkpt>
      <trkpt lat="41.41176200" lon="2.106373000">
        <ele>291.00000</ele>
        <time>2010-01-01T00:41:09Z</time>
      </trkpt>
      <trkpt lat="41.41177900" lon="2.106448000">
        <ele>291.00000</ele>
        <time>2010-01-01T00:41:12Z</time>
      </trkpt>
      <trkpt lat="41.41165000" lon="2.106688000">
        <ele>287.00000</ele>
        <time>2010-01-01T00:41:21Z</time>
      </trkpt>
      <trkpt lat="41.41152400" lon="2.106894000">
        <ele>281.00000</ele>
        <time>2010-01-01T00:41:29Z</time>
      </trkpt>
      <trkpt lat="41.41146400" lon="2.107031000">
        <ele>278.00000</ele>
        <time>2010-01-01T00:41:33Z</time>
      </trkpt>
      <trkpt lat="41.41141700" lon="2.107216000">
        <ele>276.00000</ele>
        <time>2010-01-01T00:41:39Z</time>
      </trkpt>
      <trkpt lat="41.41139400" lon="2.107350000">
        <ele>275.00000</ele>
        <time>2010-01-01T00:41:43Z</time>
      </trkpt>
      <trkpt lat="41.41137400" lon="2.107516000">
        <ele>275.00000</ele>
        <time>2010-01-01T00:41:48Z</time>
      </trkpt>
      <trkpt lat="41.41137870" lon="2.107803460">
        <ele>276.00000</ele>
        <time>2010-01-01T00:41:57Z</time>
      </trkpt>
      <trkpt lat="41.41138200" lon="2.107999000">
        <ele>276.00000</ele>
        <time>2010-01-01T00:42:03Z</time>
      </trkpt>
      <trkpt lat="41.41139800" lon="2.108101000">
        <ele>277.00000</ele>
        <time>2010-01-01T00:42:06Z</time>
      </trkpt>
      <trkpt lat="41.41144300" lon="2.108190000">
        <ele>277.00000</ele>
        <time>2010-01-01T00:42:09Z</time>
      </trkpt>
      <trkpt lat="41.41147900" lon="2.108226000">
        <ele>277.00000</ele>
        <time>2010-01-01T00:42:11Z</time>
      </trkpt>
      <trkpt lat="41.41153100" lon="2.108230000">
        <ele>278.00000</ele>
        <time>2010-01-01T00:42:13Z</time>
      </trkpt>
      <trkpt lat="41.41160200" lon="2.108220000">
        <ele>279.00000</ele>
        <time>2010-01-01T00:42:16Z</time>
      </trkpt>
      <trkpt lat="41.41181100" lon="2.108169000">
        <ele>284.00000</ele>
        <time>2010-01-01T00:42:24Z</time>
      </trkpt>
      <trkpt lat="41.41188700" lon="2.108171000">
        <ele>285.00000</ele>
        <time>2010-01-01T00:42:28Z</time>
      </trkpt>
      <trkpt lat="41.41203300" lon="2.108201000">
        <ele>286.00000</ele>
        <time>2010-01-01T00:42:33Z</time>
      </trkpt>
      <trkpt lat="41.41218500" lon="2.108223000">
        <ele>286.00000</ele>
        <time>2010-01-01T00:42:40Z</time>
      </trkpt>
      <trkpt lat="41.41234000" lon="2.108181000">
        <ele>287.00000</ele>
        <time>2010-01-01T00:42:46Z</time>
      </trkpt>
      <trkpt lat="41.41242300" lon="2.108178000">
        <ele>287.00000</ele>
        <time>2010-01-01T00:42:49Z</time>
      </trkpt>
      <trkpt lat="41.41246700" lon="2.108198000">
        <ele>287.00000</ele>
        <time>2010-01-01T00:42:51Z</time>
      </trkpt>
      <trkpt lat="41.41254900" lon="2.108253000">
        <ele>286.00000</ele>
        <time>2010-01-01T00:42:55Z</time>
      </trkpt>
      <trkpt lat="41.41259900" lon="2.108323000">
        <ele>284.00000</ele>
        <time>2010-01-01T00:42:58Z</time>
      </trkpt>
      <trkpt lat="41.41266100" lon="2.108485000">
        <ele>283.00000</ele>
        <time>2010-01-01T00:43:03Z</time>
      </trkpt>
      <trkpt lat="41.41270800" lon="2.108608000">
        <ele>282.00000</ele>
        <time>2010-01-01T00:43:07Z</time>
      </trkpt>
      <trkpt lat="41.41276600" lon="2.108744000">
        <ele>281.00000</ele>
        <time>2010-01-01T00:43:12Z</time>
      </trkpt>
      <trkpt lat="41.41282500" lon="2.108854000">
        <ele>283.00000</ele>
        <time>2010-01-01T00:43:16Z</time>
      </trkpt>
      <trkpt lat="41.41283700" lon="2.108883000">
        <ele>283.00000</ele>
        <time>2010-01-01T00:43:17Z</time>
      </trkpt>
      <trkpt lat="41.41283000" lon="2.108943000">
        <ele>282.00000</ele>
        <time>2010-01-01T00:43:19Z</time>
      </trkpt>
      <trkpt lat="41.41282700" lon="2.109028000">
        <ele>282.00000</ele>
        <time>2010-01-01T00:43:21Z</time>
      </trkpt>
      <trkpt lat="41.41280100" lon="2.109108000">
        <ele>281.00000</ele>
        <time>2010-01-01T00:43:24Z</time>
      </trkpt>
      <trkpt lat="41.41274000" lon="2.109174000">
        <ele>279.00000</ele>
        <time>2010-01-01T00:43:27Z</time>
      </trkpt>
      <trkpt lat="41.41246700" lon="2.109346000">
        <ele>276.00000</ele>
        <time>2010-01-01T00:43:39Z</time>
      </trkpt>
      <trkpt lat="41.41240400" lon="2.109396000">
        <ele>275.00000</ele>
        <time>2010-01-01T00:43:42Z</time>
      </trkpt>
      <trkpt lat="41.41234100" lon="2.109471000">
        <ele>274.00000</ele>
        <time>2010-01-01T00:43:46Z</time>
      </trkpt>
      <trkpt lat="41.41228300" lon="2.109552000">
        <ele>274.00000</ele>
        <time>2010-01-01T00:43:49Z</time>
      </trkpt>
      <trkpt lat="41.41222400" lon="2.109676000">
        <ele>275.00000</ele>
        <time>2010-01-01T00:43:53Z</time>
      </trkpt>
      <trkpt lat="41.41220990" lon="2.109723180">
        <ele>275.00000</ele>
        <time>2010-01-01T00:43:55Z</time>
      </trkpt>
      <trkpt lat="41.41219600" lon="2.109770000">
        <ele>275.00000</ele>
        <time>2010-01-01T00:43:56Z</time>
      </trkpt>
      <trkpt lat="41.41217800" lon="2.109910000">
        <ele>276.00000</ele>
        <time>2010-01-01T00:44:01Z</time>
      </trkpt>
      <trkpt lat="41.41219800" lon="2.110014000">
        <ele>278.00000</ele>
        <time>2010-01-01T00:44:04Z</time>
      </trkpt>
      <trkpt lat="41.41221600" lon="2.110057000">
        <ele>278.00000</ele>
        <time>2010-01-01T00:44:05Z</time>
      </trkpt>
      <trkpt lat="41.41232100" lon="2.110152000">
        <ele>279.00000</ele>
        <time>2010-01-01T00:44:10Z</time>
      </trkpt>
      <trkpt lat="41.41246700" lon="2.110178000">
        <ele>282.00000</ele>
        <time>2010-01-01T00:44:16Z</time>
      </trkpt>
      <trkpt lat="41.41260000" lon="2.110201000">
        <ele>284.00000</ele>
        <time>2010-01-01T00:44:22Z</time>
      </trkpt>
      <trkpt lat="41.41277400" lon="2.110232000">
        <ele>285.00000</ele>
        <time>2010-01-01T00:44:29Z</time>
      </trkpt>
      <trkpt lat="41.41293200" lon="2.110299000">
        <ele>286.00000</ele>
        <time>2010-01-01T00:44:35Z</time>
      </trkpt>
      <trkpt lat="41.41304000" lon="2.110344000">
        <ele>286.00000</ele>
        <time>2010-01-01T00:44:40Z</time>
      </trkpt>
      <trkpt lat="41.41312100" lon="2.110406000">
        <ele>287.00000</ele>
        <time>2010-01-01T00:44:44Z</time>
      </trkpt>
      <trkpt lat="41.41322600" lon="2.110509000">
        <ele>287.00000</ele>
        <time>2010-01-01T00:44:49Z</time>
      </trkpt>
      <trkpt lat="41.41340300" lon="2.110683000">
        <ele>289.00000</ele>
        <time>2010-01-01T00:44:58Z</time>
      </trkpt>
      <trkpt lat="41.41346280" lon="2.110742070">
        <ele>290.00000</ele>
        <time>2010-01-01T00:45:01Z</time>
      </trkpt>
      <trkpt lat="41.41348400" lon="2.110763000">
        <ele>291.00000</ele>
        <time>2010-01-01T00:45:02Z</time>
      </trkpt>
      <trkpt lat="41.41354600" lon="2.110893000">
        <ele>292.00000</ele>
        <time>2010-01-01T00:45:06Z</time>
      </trkpt>
      <trkpt lat="41.41356000" lon="2.111002000">
        <ele>292.00000</ele>
        <time>2010-01-01T00:45:10Z</time>
      </trkpt>
      <trkpt lat="41.41352200" lon="2.111088000">
        <ele>291.00000</ele>
        <time>2010-01-01T00:45:13Z</time>
      </trkpt>
      <trkpt lat="41.41344200" lon="2.111139000">
        <ele>290.00000</ele>
        <time>2010-01-01T00:45:16Z</time>
      </trkpt>
      <trkpt lat="41.41330300" lon="2.111179000">
        <ele>288.00000</ele>
        <time>2010-01-01T00:45:22Z</time>
      </trkpt>
      <trkpt lat="41.41313900" lon="2.111218000">
        <ele>287.00000</ele>
        <time>2010-01-01T00:45:29Z</time>
      </trkpt>
      <trkpt lat="41.41305100" lon="2.111244000">
        <ele>287.00000</ele>
        <time>2010-01-01T00:45:32Z</time>
      </trkpt>
      <trkpt lat="41.41301500" lon="2.111255000">
        <ele>286.00000</ele>
        <time>2010-01-01T00:45:34Z</time>
      </trkpt>
      <trkpt lat="41.41293500" lon="2.111290000">
        <ele>285.00000</ele>
        <time>2010-01-01T00:45:37Z</time>
      </trkpt>
      <trkpt lat="41.41285700" lon="2.111335000">
        <ele>284.00000</ele>
        <time>2010-01-01T00:45:40Z</time>
      </trkpt>
      <trkpt lat="41.41279800" lon="2.111376000">
        <ele>284.00000</ele>
        <time>2010-01-01T00:45:43Z</time>
      </trkpt>
      <trkpt lat="41.41269800" lon="2.111463000">
        <ele>283.00000</ele>
        <time>2010-01-01T00:45:48Z</time>
      </trkpt>
      <trkpt lat="41.41261600" lon="2.111559000">
        <ele>284.00000</ele>
        <time>2010-01-01T00:45:52Z</time>
      </trkpt>
      <trkpt lat="41.41249400" lon="2.111721000">
        <ele>285.00000</ele>
        <time>2010-01-01T00:45:59Z</time>
      </trkpt>
      <trkpt lat="41.41246700" lon="2.111754000">
        <ele>284.00000</ele>
        <time>2010-01-01T00:46:01Z</time>
      </trkpt>
      <trkpt lat="41.41241300" lon="2.111863000">
        <ele>283.00000</ele>
        <time>2010-01-01T00:46:04Z</time>
      </trkpt>
      <trkpt lat="41.41235100" lon="2.112000000">
        <ele>282.00000</ele>
        <time>2010-01-01T00:46:09Z</time>
      </trkpt>
      <trkpt lat="41.41232300" lon="2.112062000">
        <ele>282.00000</ele>
        <time>2010-01-01T00:46:11Z</time>
      </trkpt>
      <trkpt lat="41.41231300" lon="2.112166000">
        <ele>281.00000</ele>
        <time>2010-01-01T00:46:15Z</time>
      </trkpt>
      <trkpt lat="41.41232500" lon="2.112306000">
        <ele>281.00000</ele>
        <time>2010-01-01T00:46:19Z</time>
      </trkpt>
      <trkpt lat="41.41246700" lon="2.112448000">
        <ele>285.00000</ele>
        <time>2010-01-01T00:46:26Z</time>
      </trkpt>
      <trkpt lat="41.41261300" lon="2.112605000">
        <ele>288.00000</ele>
        <time>2010-01-01T00:46:33Z</time>
      </trkpt>
      <trkpt lat="41.41269600" lon="2.112726000">
        <ele>290.00000</ele>
        <time>2010-01-01T00:46:38Z</time>
      </trkpt>
      <trkpt lat="41.41271500" lon="2.112777000">
        <ele>290.00000</ele>
        <time>2010-01-01T00:46:40Z</time>
      </trkpt>
      <trkpt lat="41.41272700" lon="2.112825000">
        <ele>290.00000</ele>
        <time>2010-01-01T00:46:42Z</time>
      </trkpt>
      <trkpt lat="41.41273300" lon="2.112919000">
        <ele>291.00000</ele>
        <time>2010-01-01T00:46:44Z</time>
      </trkpt>
      <trkpt lat="41.41271800" lon="2.112971000">
        <ele>291.00000</ele>
        <time>2010-01-01T00:46:46Z</time>
      </trkpt>
      <trkpt lat="41.41268300" lon="2.113042000">
        <ele>290.00000</ele>
        <time>2010-01-01T00:46:49Z</time>
      </trkpt>
      <trkpt lat="41.41264900" lon="2.113095000">
        <ele>290.00000</ele>
        <time>2010-01-01T00:46:51Z</time>
      </trkpt>
      <trkpt lat="41.41246700" lon="2.113287000">
        <ele>285.00000</ele>
        <time>2010-01-01T00:47:00Z</time>
      </trkpt>
      <trkpt lat="41.41233500" lon="2.113448000">
        <ele>282.00000</ele>
        <time>2010-01-01T00:47:07Z</time>
      </trkpt>
      <trkpt lat="41.41223800" lon="2.113581000">
        <ele>281.00000</ele>
        <time>2010-01-01T00:47:13Z</time>
      </trkpt>
      <trkpt lat="41.41218600" lon="2.113678000">
        <ele>279.00000</ele>
        <time>2010-01-01T00:47:16Z</time>
      </trkpt>
      <trkpt lat="41.41213600" lon="2.113812000">
        <ele>278.00000</ele>
        <time>2010-01-01T00:47:21Z</time>
      </trkpt>
      <trkpt lat="41.41211200" lon="2.113934000">
        <ele>277.00000</ele>
        <time>2010-01-01T00:47:25Z</time>
      </trkpt>
      <trkpt lat="41.41211300" lon="2.114048000">
        <ele>277.00000</ele>
        <time>2010-01-01T00:47:28Z</time>
      </trkpt>
      <trkpt lat="41.41215700" lon="2.114191000">
        <ele>278.00000</ele>
        <time>2010-01-01T00:47:33Z</time>
      </trkpt>
      <trkpt lat="41.41219000" lon="2.114266000">
        <ele>278.00000</ele>
        <time>2010-01-01T00:47:35Z</time>
      </trkpt>
      <trkpt lat="41.41224400" lon="2.114292000">
        <ele>279.00000</ele>
        <time>2010-01-01T00:47:38Z</time>
      </trkpt>
      <trkpt lat="41.41234500" lon="2.114322000">
        <ele>281.00000</ele>
        <time>2010-01-01T00:47:42Z</time>
      </trkpt>
      <trkpt lat="41.41246700" lon="2.114350000">
        <ele>284.00000</ele>
        <time>2010-01-01T00:47:47Z</time>
      </trkpt>
      <trkpt lat="41.41258700" lon="2.114380000">
        <ele>285.00000</ele>
        <time>2010-01-01T00:47:52Z</time>
      </trkpt>
      <trkpt lat="41.41272200" lon="2.114412000">
        <ele>285.00000</ele>
        <time>2010-01-01T00:47:57Z</time>
      </trkpt>
      <trkpt lat="41.41284100" lon="2.114446000">
        <ele>286.00000</ele>
        <time>2010-01-01T00:48:02Z</time>
      </trkpt>
      <trkpt lat="41.41287300" lon="2.114462000">
        <ele>286.00000</ele>
        <time>2010-01-01T00:48:03Z</time>
      </trkpt>
      <trkpt lat="41.41293000" lon="2.114507000">
        <ele>287.00000</ele>
        <time>2010-01-01T00:48:06Z</time>
      </trkpt>
      <trkpt lat="41.41299200" lon="2.114576000">
        <ele>286.00000</ele>
        <time>2010-01-01T00:48:09Z</time>
      </trkpt>
      <trkpt lat="41.41304600" lon="2.114673000">
        <ele>285.00000</ele>
        <time>2010-01-01T00:48:13Z</time>
      </trkpt>
      <trkpt lat="41.41307500" lon="2.114792000">
        <ele>283.00000</ele>
        <time>2010-01-01T00:48:17Z</time>
      </trkpt>
      <trkpt lat="41.41307600" lon="2.114880000">
        <ele>281.00000</ele>
        <time>2010-01-01T00:48:19Z</time>
      </trkpt>
      <trkpt lat="41.41308000" lon="2.114976000">
        <ele>279.00000</ele>
        <time>2010-01-01T00:48:22Z</time>
      </trkpt>
      <trkpt lat="41.41308500" lon="2.115047000">
        <ele>277.00000</ele>
        <time>2010-01-01T00:48:24Z</time>
      </trkpt>
      <trkpt lat="41.41309500" lon="2.115090000">
        <ele>277.00000</ele>
        <time>2010-01-01T00:48:26Z</time>
      </trkpt>
      <trkpt lat="41.41309600" lon="2.115105000">
        <ele>276.00000</ele>
        <time>2010-01-01T00:48:26Z</time>
      </trkpt>
      <trkpt lat="41.41311200" lon="2.115170000">
        <ele>275.00000</ele>
        <time>2010-01-01T00:48:28Z</time>
      </trkpt>
      <trkpt lat="41.41314100" lon="2.115221000">
        <ele>275.00000</ele>
        <time>2010-01-01T00:48:30Z</time>
      </trkpt>
      <trkpt lat="41.41318400" lon="2.115269000">
        <ele>275.00000</ele>
        <time>2010-01-01T00:48:32Z</time>
      </trkpt>
      <trkpt lat="41.41329400" lon="2.115332000">
        <ele>276.00000</ele>
        <time>2010-01-01T00:48:37Z</time>
      </trkpt>
      <trkpt lat="41.41345700" lon="2.115426000">
        <ele>278.00000</ele>
        <time>2010-01-01T00:48:44Z</time>
      </trkpt>
      <trkpt lat="41.41354300" lon="2.115491000">
        <ele>278.00000</ele>
        <time>2010-01-01T00:48:48Z</time>
      </trkpt>
      <trkpt lat="41.41362900" lon="2.115556000">
        <ele>279.00000</ele>
        <time>2010-01-01T00:48:52Z</time>
      </trkpt>
      <trkpt lat="41.41373000" lon="2.115634000">
        <ele>284.00000</ele>
        <time>2010-01-01T00:48:57Z</time>
      </trkpt>
      <trkpt lat="41.41387400" lon="2.115744000">
        <ele>289.00000</ele>
        <time>2010-01-01T00:49:03Z</time>
      </trkpt>
      <trkpt lat="41.41390800" lon="2.115771000">
        <ele>290.00000</ele>
        <time>2010-01-01T00:49:05Z</time>
      </trkpt>
      <trkpt lat="41.41397000" lon="2.115823000">
        <ele>292.00000</ele>
        <time>2010-01-01T00:49:08Z</time>
      </trkpt>
      <trkpt lat="41.41403600" lon="2.115878000">
        <ele>294.00000</ele>
        <time>2010-01-01T00:49:11Z</time>
      </trkpt>
      <trkpt lat="41.41408600" lon="2.115934000">
        <ele>295.00000</ele>
        <time>2010-01-01T00:49:14Z</time>
      </trkpt>
      <trkpt lat="41.41411000" lon="2.116011000">
        <ele>295.00000</ele>
        <time>2010-01-01T00:49:16Z</time>
      </trkpt>
      <trkpt lat="41.41411000" lon="2.116084000">
        <ele>294.00000</ele>
        <time>2010-01-01T00:49:18Z</time>
      </trkpt>
      <trkpt lat="41.41408300" lon="2.116193000">
        <ele>293.00000</ele>
        <time>2010-01-01T00:49:22Z</time>
      </trkpt>
      <trkpt lat="41.41405000" lon="2.116246000">
        <ele>292.00000</ele>
        <time>2010-01-01T00:49:24Z</time>
      </trkpt>
      <trkpt lat="41.41400800" lon="2.116290000">
        <ele>290.00000</ele>
        <time>2010-01-01T00:49:26Z</time>
      </trkpt>
      <trkpt lat="41.41372100" lon="2.116495000">
        <ele>278.00000</ele>
        <time>2010-01-01T00:49:39Z</time>
      </trkpt>
      <trkpt lat="41.41364800" lon="2.116558000">
        <ele>275.00000</ele>
        <time>2010-01-01T00:49:43Z</time>
      </trkpt>
      <trkpt lat="41.41355300" lon="2.116681000">
        <ele>272.00000</ele>
        <time>2010-01-01T00:49:48Z</time>
      </trkpt>
      <trkpt lat="41.41348600" lon="2.116822000">
        <ele>271.00000</ele>
        <time>2010-01-01T00:49:53Z</time>
      </trkpt>
      <trkpt lat="41.41343100" lon="2.117029000">
        <ele>271.00000</ele>
        <time>2010-01-01T00:49:59Z</time>
      </trkpt>
      <trkpt lat="41.41343900" lon="2.117190000">
        <ele>273.00000</ele>
        <time>2010-01-01T00:50:04Z</time>
      </trkpt>
      <trkpt lat="41.41350800" lon="2.117491000">
        <ele>275.00000</ele>
        <time>2010-01-01T00:50:14Z</time>
      </trkpt>
      <trkpt lat="41.41359800" lon="2.117869000">
        <ele>276.00000</ele>
        <time>2010-01-01T00:50:26Z</time>
      </trkpt>
      <trkpt lat="41.41360700" lon="2.118048000">
        <ele>277.00000</ele>
        <time>2010-01-01T00:50:31Z</time>
      </trkpt>
      <trkpt lat="41.41359200" lon="2.118270000">
        <ele>280.00000</ele>
        <time>2010-01-01T00:50:38Z</time>
      </trkpt>
      <trkpt lat="41.41354700" lon="2.118446000">
        <ele>281.00000</ele>
        <time>2010-01-01T00:50:43Z</time>
      </trkpt>
      <trkpt lat="41.41347600" lon="2.118654000">
        <ele>281.00000</ele>
        <time>2010-01-01T00:50:50Z</time>
      </trkpt>
      <trkpt lat="41.41344200" lon="2.118720000">
        <ele>281.00000</ele>
        <time>2010-01-01T00:50:53Z</time>
      </trkpt>
      <trkpt lat="41.41336600" lon="2.118765000">
        <ele>281.00000</ele>
        <time>2010-01-01T00:50:56Z</time>
      </trkpt>
      <trkpt lat="41.41292400" lon="2.118746000">
        <ele>276.00000</ele>
        <time>2010-01-01T00:51:14Z</time>
      </trkpt>
      <trkpt lat="41.41280500" lon="2.118765000">
        <ele>274.00000</ele>
        <time>2010-01-01T00:51:18Z</time>
      </trkpt>
      <trkpt lat="41.41270400" lon="2.118793000">
        <ele>273.00000</ele>
        <time>2010-01-01T00:51:22Z</time>
      </trkpt>
      <trkpt lat="41.41261900" lon="2.118841000">
        <ele>273.00000</ele>
        <time>2010-01-01T00:51:26Z</time>
      </trkpt>
      <trkpt lat="41.41255200" lon="2.118914000">
        <ele>274.00000</ele>
        <time>2010-01-01T00:51:30Z</time>
      </trkpt>
      <trkpt lat="41.41246800" lon="2.119092000">
        <ele>274.00000</ele>
        <time>2010-01-01T00:51:36Z</time>
      </trkpt>
      <trkpt lat="41.41245500" lon="2.119144720">
        <ele>274.00000</ele>
        <time>2010-01-01T00:51:38Z</time>
      </trkpt>
      <trkpt lat="41.41245100" lon="2.119161000">
        <ele>274.00000</ele>
        <time>2010-01-01T00:51:38Z</time>
      </trkpt>
      <trkpt lat="41.41241500" lon="2.119274000">
        <ele>272.00000</ele>
        <time>2010-01-01T00:51:42Z</time>
      </trkpt>
      <trkpt lat="41.41239200" lon="2.119368000">
        <ele>272.00000</ele>
        <time>2010-01-01T00:51:45Z</time>
      </trkpt>
      <trkpt lat="41.41239100" lon="2.119429000">
        <ele>272.00000</ele>
        <time>2010-01-01T00:51:47Z</time>
      </trkpt>
      <trkpt lat="41.41240700" lon="2.119478000">
        <ele>272.00000</ele>
        <time>2010-01-01T00:51:48Z</time>
      </trkpt>
      <trkpt lat="41.41244300" lon="2.119516000">
        <ele>272.00000</ele>
        <time>2010-01-01T00:51:50Z</time>
      </trkpt>
      <trkpt lat="41.41251200" lon="2.119540000">
        <ele>275.00000</ele>
        <time>2010-01-01T00:51:53Z</time>
      </trkpt>
      <trkpt lat="41.41259000" lon="2.119556000">
        <ele>276.00000</ele>
        <time>2010-01-01T00:51:56Z</time>
      </trkpt>
      <trkpt lat="41.41265700" lon="2.119564000">
        <ele>278.00000</ele>
        <time>2010-01-01T00:51:59Z</time>
      </trkpt>
      <trkpt lat="41.41274100" lon="2.119574000">
        <ele>280.00000</ele>
        <time>2010-01-01T00:52:02Z</time>
      </trkpt>
      <trkpt lat="41.41281500" lon="2.119583000">
        <ele>281.00000</ele>
        <time>2010-01-01T00:52:05Z</time>
      </trkpt>
      <trkpt lat="41.41290600" lon="2.119594000">
        <ele>281.00000</ele>
        <time>2010-01-01T00:52:09Z</time>
      </trkpt>
      <trkpt lat="41.41293300" lon="2.119596000">
        <ele>281.00000</ele>
        <time>2010-01-01T00:52:10Z</time>
      </trkpt>
      <trkpt lat="41.41301800" lon="2.119598000">
        <ele>281.00000</ele>
        <time>2010-01-01T00:52:13Z</time>
      </trkpt>
      <trkpt lat="41.41304500" lon="2.119597000">
        <ele>281.00000</ele>
        <time>2010-01-01T00:52:14Z</time>
      </trkpt>
      <trkpt lat="41.41312000" lon="2.119573000">
        <ele>282.00000</ele>
        <time>2010-01-01T00:52:17Z</time>
      </trkpt>
      <trkpt lat="41.41320500" lon="2.119513000">
        <ele>282.00000</ele>
        <time>2010-01-01T00:52:21Z</time>
      </trkpt>
      <trkpt lat="41.41327800" lon="2.119450000">
        <ele>283.00000</ele>
        <time>2010-01-01T00:52:25Z</time>
      </trkpt>
      <trkpt lat="41.41332400" lon="2.119410000">
        <ele>283.00000</ele>
        <time>2010-01-01T00:52:27Z</time>
      </trkpt>
      <trkpt lat="41.41338800" lon="2.119354000">
        <ele>282.00000</ele>
        <time>2010-01-01T00:52:30Z</time>
      </trkpt>
      <trkpt lat="41.41345700" lon="2.119310000">
        <ele>281.00000</ele>
        <time>2010-01-01T00:52:33Z</time>
      </trkpt>
      <trkpt lat="41.41350600" lon="2.119279000">
        <ele>281.00000</ele>
        <time>2010-01-01T00:52:35Z</time>
      </trkpt>
      <trkpt lat="41.41357000" lon="2.119260000">
        <ele>280.00000</ele>
        <time>2010-01-01T00:52:38Z</time>
      </trkpt>
      <trkpt lat="41.41371600" lon="2.119211000">
        <ele>279.00000</ele>
        <time>2010-01-01T00:52:44Z</time>
      </trkpt>
      <trkpt lat="41.41376100" lon="2.119196000">
        <ele>280.00000</ele>
        <time>2010-01-01T00:52:46Z</time>
      </trkpt>
      <trkpt lat="41.41383300" lon="2.119173000">
        <ele>280.00000</ele>
        <time>2010-01-01T00:52:49Z</time>
      </trkpt>
      <trkpt lat="41.41386800" lon="2.119162000">
        <ele>281.00000</ele>
        <time>2010-01-01T00:52:50Z</time>
      </trkpt>
      <trkpt lat="41.41390000" lon="2.119152000">
        <ele>281.00000</ele>
        <time>2010-01-01T00:52:51Z</time>
      </trkpt>
      <trkpt lat="41.41393200" lon="2.119142000">
        <ele>281.00000</ele>
        <time>2010-01-01T00:52:53Z</time>
      </trkpt>
      <trkpt lat="41.41397400" lon="2.119129000">
        <ele>282.00000</ele>
        <time>2010-01-01T00:52:55Z</time>
      </trkpt>
      <trkpt lat="41.41399400" lon="2.119122000">
        <ele>282.00000</ele>
        <time>2010-01-01T00:52:55Z</time>
      </trkpt>
      <trkpt lat="41.41404100" lon="2.119094000">
        <ele>283.00000</ele>
        <time>2010-01-01T00:52:57Z</time>
      </trkpt>
      <trkpt lat="41.41406900" lon="2.119077000">
        <ele>283.00000</ele>
        <time>2010-01-01T00:52:59Z</time>
      </trkpt>
      <trkpt lat="41.41409600" lon="2.119059000">
        <ele>284.00000</ele>
        <time>2010-01-01T00:53:00Z</time>
      </trkpt>
      <trkpt lat="41.41413800" lon="2.119032000">
        <ele>285.00000</ele>
        <time>2010-01-01T00:53:02Z</time>
      </trkpt>
      <trkpt lat="41.41425600" lon="2.118956000">
        <ele>286.00000</ele>
        <time>2010-01-01T00:53:07Z</time>
      </trkpt>
      <trkpt lat="41.41429100" lon="2.118933000">
        <ele>287.00000</ele>
        <time>2010-01-01T00:53:09Z</time>
      </trkpt>
      <trkpt lat="41.41431600" lon="2.118917000">
        <ele>287.00000</ele>
        <time>2010-01-01T00:53:10Z</time>
      </trkpt>
      <trkpt lat="41.41436500" lon="2.118894000">
        <ele>287.00000</ele>
        <time>2010-01-01T00:53:12Z</time>
      </trkpt>
      <trkpt lat="41.41445700" lon="2.118852000">
        <ele>288.00000</ele>
        <time>2010-01-01T00:53:16Z</time>
      </trkpt>
      <trkpt lat="41.41449700" lon="2.118836000">
        <ele>288.00000</ele>
        <time>2010-01-01T00:53:17Z</time>
      </trkpt>
      <trkpt lat="41.41459700" lon="2.118815000">
        <ele>289.00000</ele>
        <time>2010-01-01T00:53:21Z</time>
      </trkpt>
      <trkpt lat="41.41466400" lon="2.118799000">
        <ele>290.00000</ele>
        <time>2010-01-01T00:53:24Z</time>
      </trkpt>
      <trkpt lat="41.41476100" lon="2.118803000">
        <ele>291.00000</ele>
        <time>2010-01-01T00:53:28Z</time>
      </trkpt>
      <trkpt lat="41.41481300" lon="2.118856000">
        <ele>290.00000</ele>
        <time>2010-01-01T00:53:31Z</time>
      </trkpt>
      <trkpt lat="41.41485300" lon="2.118955000">
        <ele>289.00000</ele>
        <time>2010-01-01T00:53:34Z</time>
      </trkpt>
      <trkpt lat="41.41488300" lon="2.119132000">
        <ele>285.00000</ele>
        <time>2010-01-01T00:53:39Z</time>
      </trkpt>
      <trkpt lat="41.41492200" lon="2.119389000">
        <ele>282.00000</ele>
        <time>2010-01-01T00:53:47Z</time>
      </trkpt>
      <trkpt lat="41.41492600" lon="2.119457000">
        <ele>281.00000</ele>
        <time>2010-01-01T00:53:49Z</time>
      </trkpt>
      <trkpt lat="41.41492200" lon="2.119585000">
        <ele>279.00000</ele>
        <time>2010-01-01T00:53:53Z</time>
      </trkpt>
      <trkpt lat="41.41488700" lon="2.119841000">
        <ele>273.00000</ele>
        <time>2010-01-01T00:54:01Z</time>
      </trkpt>
      <trkpt lat="41.41485900" lon="2.120007000">
        <ele>269.00000</ele>
        <time>2010-01-01T00:54:06Z</time>
      </trkpt>
      <trkpt lat="41.41485700" lon="2.120081000">
        <ele>267.00000</ele>
        <time>2010-01-01T00:54:08Z</time>
      </trkpt>
      <trkpt lat="41.41488200" lon="2.120178000">
        <ele>266.00000</ele>
        <time>2010-01-01T00:54:11Z</time>
      </trkpt>
      <trkpt lat="41.41492100" lon="2.120242000">
        <ele>266.00000</ele>
        <time>2010-01-01T00:54:14Z</time>
      </trkpt>
      <trkpt lat="41.41498300" lon="2.120273000">
        <ele>268.00000</ele>
        <time>2010-01-01T00:54:17Z</time>
      </trkpt>
      <trkpt lat="41.41503500" lon="2.120273000">
        <ele>269.00000</ele>
        <time>2010-01-01T00:54:19Z</time>
      </trkpt>
      <trkpt lat="41.41508900" lon="2.120253000">
        <ele>271.00000</ele>
        <time>2010-01-01T00:54:21Z</time>
      </trkpt>
      <trkpt lat="41.41521900" lon="2.120157000">
        <ele>277.00000</ele>
        <time>2010-01-01T00:54:27Z</time>
      </trkpt>
      <trkpt lat="41.41533700" lon="2.120086000">
        <ele>282.00000</ele>
        <time>2010-01-01T00:54:32Z</time>
      </trkpt>
      <trkpt lat="41.41538300" lon="2.120057000">
        <ele>283.00000</ele>
        <time>2010-01-01T00:54:34Z</time>
      </trkpt>
      <trkpt lat="41.41549700" lon="2.120021000">
        <ele>285.00000</ele>
        <time>2010-01-01T00:54:39Z</time>
      </trkpt>
      <trkpt lat="41.41559100" lon="2.120001000">
        <ele>288.00000</ele>
        <time>2010-01-01T00:54:43Z</time>
      </trkpt>
      <trkpt lat="41.41570200" lon="2.119998000">
        <ele>291.00000</ele>
        <time>2010-01-01T00:54:47Z</time>
      </trkpt>
      <trkpt lat="41.41575500" lon="2.119996000">
        <ele>292.00000</ele>
        <time>2010-01-01T00:54:49Z</time>
      </trkpt>
      <trkpt lat="41.41581550" lon="2.119993320">
        <ele>294.00000</ele>
        <time>2010-01-01T00:54:51Z</time>
      </trkpt>
      <trkpt lat="41.41589100" lon="2.119990000">
        <ele>296.00000</ele>
        <time>2010-01-01T00:54:55Z</time>
      </trkpt>
      <trkpt lat="41.41598300" lon="2.120015000">
        <ele>298.00000</ele>
        <time>2010-01-01T00:54:58Z</time>
      </trkpt>
      <trkpt lat="41.41603400" lon="2.120044000">
        <ele>299.00000</ele>
        <time>2010-01-01T00:55:00Z</time>
      </trkpt>
      <trkpt lat="41.41607700" lon="2.120086000">
        <ele>298.00000</ele>
        <time>2010-01-01T00:55:03Z</time>
      </trkpt>
      <trkpt lat="41.41609500" lon="2.120133000">
        <ele>297.00000</ele>
        <time>2010-01-01T00:55:04Z</time>
      </trkpt>
      <trkpt lat="41.41609100" lon="2.120172000">
        <ele>296.00000</ele>
        <time>2010-01-01T00:55:05Z</time>
      </trkpt>
      <trkpt lat="41.41606800" lon="2.120259000">
        <ele>292.00000</ele>
        <time>2010-01-01T00:55:08Z</time>
      </trkpt>
      <trkpt lat="41.41595900" lon="2.120490000">
        <ele>281.00000</ele>
        <time>2010-01-01T00:55:16Z</time>
      </trkpt>
      <trkpt lat="41.41589600" lon="2.120656000">
        <ele>276.00000</ele>
        <time>2010-01-01T00:55:22Z</time>
      </trkpt>
      <trkpt lat="41.41589100" lon="2.120704000">
        <ele>276.00000</ele>
        <time>2010-01-01T00:55:23Z</time>
      </trkpt>
      <trkpt lat="41.41589100" lon="2.120751000">
        <ele>275.00000</ele>
        <time>2010-01-01T00:55:25Z</time>
      </trkpt>
      <trkpt lat="41.41591700" lon="2.120844000">
        <ele>275.00000</ele>
        <time>2010-01-01T00:55:28Z</time>
      </trkpt>
      <trkpt lat="41.41595900" lon="2.120893000">
        <ele>275.00000</ele>
        <time>2010-01-01T00:55:30Z</time>
      </trkpt>
      <trkpt lat="41.41603300" lon="2.120957000">
        <ele>276.00000</ele>
        <time>2010-01-01T00:55:34Z</time>
      </trkpt>
      <trkpt lat="41.41622100" lon="2.121029000">
        <ele>282.00000</ele>
        <time>2010-01-01T00:55:41Z</time>
      </trkpt>
      <trkpt lat="41.41631900" lon="2.121055000">
        <ele>285.00000</ele>
        <time>2010-01-01T00:55:45Z</time>
      </trkpt>
      <trkpt lat="41.41637200" lon="2.121079000">
        <ele>287.00000</ele>
        <time>2010-01-01T00:55:48Z</time>
      </trkpt>
      <trkpt lat="41.41646200" lon="2.121136000">
        <ele>288.00000</ele>
        <time>2010-01-01T00:55:52Z</time>
      </trkpt>
      <trkpt lat="41.41660700" lon="2.121240000">
        <ele>290.00000</ele>
        <time>2010-01-01T00:55:58Z</time>
      </trkpt>
      <trkpt lat="41.41665400" lon="2.121275000">
        <ele>291.00000</ele>
        <time>2010-01-01T00:56:00Z</time>
      </trkpt>
      <trkpt lat="41.41670300" lon="2.121317590">
        <ele>292.00000</ele>
        <time>2010-01-01T00:56:03Z</time>
      </trkpt>
      <trkpt lat="41.41676800" lon="2.121374000">
        <ele>293.00000</ele>
        <time>2010-01-01T00:56:06Z</time>
      </trkpt>
      <trkpt lat="41.41686100" lon="2.121457000">
        <ele>296.00000</ele>
        <time>2010-01-01T00:56:10Z</time>
      </trkpt>
      <trkpt lat="41.41688300" lon="2.121494000">
        <ele>297.00000</ele>
        <time>2010-01-01T00:56:12Z</time>
      </trkpt>
      <trkpt lat="41.41689500" lon="2.121537000">
        <ele>298.00000</ele>
        <time>2010-01-01T00:56:13Z</time>
      </trkpt>
      <trkpt lat="41.41689300" lon="2.121570000">
        <ele>298.00000</ele>
        <time>2010-01-01T00:56:14Z</time>
      </trkpt>
      <trkpt lat="41.41687700" lon="2.121619000">
        <ele>297.00000</ele>
        <time>2010-01-01T00:56:16Z</time>
      </trkpt>
      <trkpt lat="41.41683500" lon="2.121659000">
        <ele>295.00000</ele>
        <time>2010-01-01T00:56:18Z</time>
      </trkpt>
      <trkpt lat="41.41677900" lon="2.121697000">
        <ele>292.00000</ele>
        <time>2010-01-01T00:56:20Z</time>
      </trkpt>
      <trkpt lat="41.41674200" lon="2.121716000">
        <ele>291.00000</ele>
        <time>2010-01-01T00:56:22Z</time>
      </trkpt>
      <trkpt lat="41.41665800" lon="2.121718000">
        <ele>286.00000</ele>
        <time>2010-01-01T00:56:25Z</time>
      </trkpt>
      <trkpt lat="41.41663400" lon="2.121715000">
        <ele>285.00000</ele>
        <time>2010-01-01T00:56:26Z</time>
      </trkpt>
      <trkpt lat="41.41654400" lon="2.121676000">
        <ele>281.00000</ele>
        <time>2010-01-01T00:56:30Z</time>
      </trkpt>
      <trkpt lat="41.41647100" lon="2.121673000">
        <ele>278.00000</ele>
        <time>2010-01-01T00:56:33Z</time>
      </trkpt>
      <trkpt lat="41.41635800" lon="2.121689000">
        <ele>275.00000</ele>
        <time>2010-01-01T00:56:37Z</time>
      </trkpt>
      <trkpt lat="41.41630900" lon="2.121708000">
        <ele>273.00000</ele>
        <time>2010-01-01T00:56:39Z</time>
      </trkpt>
      <trkpt lat="41.41626000" lon="2.121741000">
        <ele>272.00000</ele>
        <time>2010-01-01T00:56:42Z</time>
      </trkpt>
      <trkpt lat="41.41621500" lon="2.121786000">
        <ele>271.00000</ele>
        <time>2010-01-01T00:56:44Z</time>
      </trkpt>
      <trkpt lat="41.41615900" lon="2.121871000">
        <ele>272.00000</ele>
        <time>2010-01-01T00:56:47Z</time>
      </trkpt>
      <trkpt lat="41.41612200" lon="2.121945000">
        <ele>273.00000</ele>
        <time>2010-01-01T00:56:50Z</time>
      </trkpt>
      <trkpt lat="41.41606200" lon="2.122146000">
        <ele>281.00000</ele>
        <time>2010-01-01T00:56:56Z</time>
      </trkpt>
      <trkpt lat="41.41602400" lon="2.122184000">
        <ele>281.00000</ele>
        <time>2010-01-01T00:56:58Z</time>
      </trkpt>
      <trkpt lat="41.41595200" lon="2.122188000">
        <ele>280.00000</ele>
        <time>2010-01-01T00:57:01Z</time>
      </trkpt>
      <trkpt lat="41.41580500" lon="2.122169000">
        <ele>276.00000</ele>
        <time>2010-01-01T00:57:07Z</time>
      </trkpt>
      <trkpt lat="41.41570800" lon="2.122183000">
        <ele>277.00000</ele>
        <time>2010-01-01T00:57:11Z</time>
      </trkpt>
      <trkpt lat="41.41561500" lon="2.122220000">
        <ele>278.00000</ele>
        <time>2010-01-01T00:57:15Z</time>
      </trkpt>
      <trkpt lat="41.41555100" lon="2.122291000">
        <ele>282.00000</ele>
        <time>2010-01-01T00:57:18Z</time>
      </trkpt>
      <trkpt lat="41.41545500" lon="2.122351000">
        <ele>283.00000</ele>
        <time>2010-01-01T00:57:23Z</time>
      </trkpt>
      <trkpt lat="41.41528100" lon="2.122366000">
        <ele>280.00000</ele>
        <time>2010-01-01T00:57:30Z</time>
      </trkpt>
      <trkpt lat="41.41518700" lon="2.122373000">
        <ele>278.00000</ele>
        <time>2010-01-01T00:57:33Z</time>
      </trkpt>
      <trkpt lat="41.41515000" lon="2.122378000">
        <ele>277.00000</ele>
        <time>2010-01-01T00:57:35Z</time>
      </trkpt>
      <trkpt lat="41.41509500" lon="2.122388000">
        <ele>275.00000</ele>
        <time>2010-01-01T00:57:37Z</time>
      </trkpt>
      <trkpt lat="41.41504700" lon="2.122406000">
        <ele>274.00000</ele>
        <time>2010-01-01T00:57:39Z</time>
      </trkpt>
      <trkpt lat="41.41502200" lon="2.122442000">
        <ele>273.00000</ele>
        <time>2010-01-01T00:57:40Z</time>
      </trkpt>
      <trkpt lat="41.41499900" lon="2.122501000">
        <ele>272.00000</ele>
        <time>2010-01-01T00:57:42Z</time>
      </trkpt>
      <trkpt lat="41.41501400" lon="2.122600000">
        <ele>272.00000</ele>
        <time>2010-01-01T00:57:46Z</time>
      </trkpt>
      <trkpt lat="41.41507400" lon="2.122690000">
        <ele>274.00000</ele>
        <time>2010-01-01T00:57:49Z</time>
      </trkpt>
      <trkpt lat="41.41516800" lon="2.122810000">
        <ele>278.00000</ele>
        <time>2010-01-01T00:57:54Z</time>
      </trkpt>
      <trkpt lat="41.41523700" lon="2.122899000">
        <ele>280.00000</ele>
        <time>2010-01-01T00:57:58Z</time>
      </trkpt>
      <trkpt lat="41.41525780" lon="2.122926500">
        <ele>281.00000</ele>
        <time>2010-01-01T00:57:59Z</time>
      </trkpt>
      <trkpt lat="41.41529700" lon="2.122978000">
        <ele>283.00000</ele>
        <time>2010-01-01T00:58:02Z</time>
      </trkpt>
      <trkpt lat="41.41533000" lon="2.123068000">
        <ele>285.00000</ele>
        <time>2010-01-01T00:58:05Z</time>
      </trkpt>
      <trkpt lat="41.41532200" lon="2.123144000">
        <ele>285.00000</ele>
        <time>2010-01-01T00:58:07Z</time>
      </trkpt>
      <trkpt lat="41.41530000" lon="2.123184000">
        <ele>285.00000</ele>
        <time>2010-01-01T00:58:08Z</time>
      </trkpt>
      <trkpt lat="41.41512300" lon="2.123243000">
        <ele>279.00000</ele>
        <time>2010-01-01T00:58:16Z</time>
      </trkpt>
      <trkpt lat="41.41495200" lon="2.123350000">
        <ele>277.00000</ele>
        <time>2010-01-01T00:58:23Z</time>
      </trkpt>
      <trkpt lat="41.41487500" lon="2.123385000">
        <ele>279.00000</ele>
        <time>2010-01-01T00:58:26Z</time>
      </trkpt>
      <trkpt lat="41.41481100" lon="2.123381000">
        <ele>280.00000</ele>
        <time>2010-01-01T00:58:29Z</time>
      </trkpt>
      <trkpt lat="41.41456100" lon="2.123313000">
        <ele>283.00000</ele>
        <time>2010-01-01T00:58:39Z</time>
      </trkpt>
      <trkpt lat="41.41446900" lon="2.123288000">
        <ele>285.00000</ele>
        <time>2010-01-01T00:58:43Z</time>
      </trkpt>
      <trkpt lat="41.41415700" lon="2.123188000">
        <ele>277.00000</ele>
        <time>2010-01-01T00:58:56Z</time>
      </trkpt>
      <trkpt lat="41.41406700" lon="2.123170000">
        <ele>274.00000</ele>
        <time>2010-01-01T00:58:59Z</time>
      </trkpt>
      <trkpt lat="41.41399400" lon="2.123173000">
        <ele>272.00000</ele>
        <time>2010-01-01T00:59:02Z</time>
      </trkpt>
      <trkpt lat="41.41392100" lon="2.123197000">
        <ele>271.00000</ele>
        <time>2010-01-01T00:59:05Z</time>
      </trkpt>
      <trkpt lat="41.41387200" lon="2.123230000">
        <ele>271.00000</ele>
        <time>2010-01-01T00:59:08Z</time>
      </trkpt>
      <trkpt lat="41.41382100" lon="2.123282000">
        <ele>272.00000</ele>
        <time>2010-01-01T00:59:10Z</time>
      </trkpt>
      <trkpt lat="41.41374900" lon="2.123368000">
        <ele>273.00000</ele>
        <time>2010-01-01T00:59:14Z</time>
      </trkpt>
      <trkpt lat="41.41369100" lon="2.123456000">
        <ele>274.00000</ele>
        <time>2010-01-01T00:59:18Z</time>
      </trkpt>
      <trkpt lat="41.41362300" lon="2.123666000">
        <ele>277.00000</ele>
        <time>2010-01-01T00:59:24Z</time>
      </trkpt>
      <trkpt lat="41.41359100" lon="2.123851000">
        <ele>277.00000</ele>
        <time>2010-01-01T00:59:30Z</time>
      </trkpt>
      <trkpt lat="41.41357400" lon="2.124044000">
        <ele>276.00000</ele>
        <time>2010-01-01T00:59:36Z</time>
      </trkpt>
      <trkpt lat="41.41359800" lon="2.124156000">
        <ele>276.00000</ele>
        <time>2010-01-01T00:59:39Z</time>
      </trkpt>
      <trkpt lat="41.41364900" lon="2.124279000">
        <ele>275.00000</ele>
        <time>2010-01-01T00:59:44Z</time>
      </trkpt>
      <trkpt lat="41.41373400" lon="2.124427000">
        <ele>275.00000</ele>
        <time>2010-01-01T00:59:49Z</time>
      </trkpt>
      <trkpt lat="41.41377500" lon="2.124517000">
        <ele>275.00000</ele>
        <time>2010-01-01T00:59:52Z</time>
      </trkpt>
      <trkpt lat="41.41385300" lon="2.124746000">
        <ele>272.00000</ele>
        <time>2010-01-01T01:00:00Z</time>
      </trkpt>
      <trkpt lat="41.41388800" lon="2.124886000">
        <ele>273.00000</ele>
        <time>2010-01-01T01:00:04Z</time>
      </trkpt>
      <trkpt lat="41.41392300" lon="2.125192000">
        <ele>274.00000</ele>
        <time>2010-01-01T01:00:14Z</time>
      </trkpt>
      <trkpt lat="41.41397200" lon="2.125498000">
        <ele>272.00000</ele>
        <time>2010-01-01T01:00:23Z</time>
      </trkpt>
      <trkpt lat="41.41410200" lon="2.125485000">
        <ele>275.00000</ele>
        <time>2010-01-01T01:00:28Z</time>
      </trkpt>
      <trkpt lat="41.41425700" lon="2.125309000">
        <ele>280.00000</ele>
        <time>2010-01-01T01:00:36Z</time>
      </trkpt>
      <trkpt lat="41.41434300" lon="2.125251000">
        <ele>282.00000</ele>
        <time>2010-01-01T01:00:40Z</time>
      </trkpt>
      <trkpt lat="41.41448100" lon="2.125201000">
        <ele>284.00000</ele>
        <time>2010-01-01T01:00:46Z</time>
      </trkpt>
      <trkpt lat="41.41461900" lon="2.125151000">
        <ele>287.00000</ele>
        <time>2010-01-01T01:00:52Z</time>
      </trkpt>
      <trkpt lat="41.41468200" lon="2.125125000">
        <ele>288.00000</ele>
        <time>2010-01-01T01:00:54Z</time>
      </trkpt>
      <trkpt lat="41.41474500" lon="2.125106000">
        <ele>290.00000</ele>
        <time>2010-01-01T01:00:57Z</time>
      </trkpt>
      <trkpt lat="41.41482200" lon="2.125084000">
        <ele>292.00000</ele>
        <time>2010-01-01T01:01:00Z</time>
      </trkpt>
      <trkpt lat="41.41491500" lon="2.125101000">
        <ele>292.00000</ele>
        <time>2010-01-01T01:01:04Z</time>
      </trkpt>
      <trkpt lat="41.41500200" lon="2.125152000">
        <ele>290.00000</ele>
        <time>2010-01-01T01:01:08Z</time>
      </trkpt>
      <trkpt lat="41.41507500" lon="2.125192000">
        <ele>288.00000</ele>
        <time>2010-01-01T01:01:11Z</time>
      </trkpt>
      <trkpt lat="41.41515700" lon="2.125238000">
        <ele>286.00000</ele>
        <time>2010-01-01T01:01:14Z</time>
      </trkpt>
      <trkpt lat="41.41523200" lon="2.125278000">
        <ele>284.00000</ele>
        <time>2010-01-01T01:01:18Z</time>
      </trkpt>
      <trkpt lat="41.41538900" lon="2.125364000">
        <ele>282.00000</ele>
        <time>2010-01-01T01:01:24Z</time>
      </trkpt>
      <trkpt lat="41.41543300" lon="2.125388000">
        <ele>282.00000</ele>
        <time>2010-01-01T01:01:26Z</time>
      </trkpt>
      <trkpt lat="41.41551100" lon="2.125442000">
        <ele>283.00000</ele>
        <time>2010-01-01T01:01:30Z</time>
      </trkpt>
      <trkpt lat="41.41555200" lon="2.125469000">
        <ele>283.00000</ele>
        <time>2010-01-01T01:01:32Z</time>
      </trkpt>
      <trkpt lat="41.41562900" lon="2.125549000">
        <ele>284.00000</ele>
        <time>2010-01-01T01:01:36Z</time>
      </trkpt>
      <trkpt lat="41.41566800" lon="2.125623000">
        <ele>283.00000</ele>
        <time>2010-01-01T01:01:38Z</time>
      </trkpt>
      <trkpt lat="41.41569000" lon="2.125689000">
        <ele>283.00000</ele>
        <time>2010-01-01T01:01:41Z</time>
      </trkpt>
      <trkpt lat="41.41573400" lon="2.125819000">
        <ele>281.00000</ele>
        <time>2010-01-01T01:01:45Z</time>
      </trkpt>
      <trkpt lat="41.41579100" lon="2.125979000">
        <ele>277.00000</ele>
        <time>2010-01-01T01:01:50Z</time>
      </trkpt>
      <trkpt lat="41.41580800" lon="2.126028000">
        <ele>276.00000</ele>
        <time>2010-01-01T01:01:52Z</time>
      </trkpt>
      <trkpt lat="41.41583500" lon="2.126092000">
        <ele>275.00000</ele>
        <time>2010-01-01T01:01:54Z</time>
      </trkpt>
      <trkpt lat="41.41585400" lon="2.126139000">
        <ele>274.00000</ele>
        <time>2010-01-01T01:01:56Z</time>
      </trkpt>
      <trkpt lat="41.41589200" lon="2.126191000">
        <ele>274.00000</ele>
        <time>2010-01-01T01:01:58Z</time>
      </trkpt>
      <trkpt lat="41.41593500" lon="2.126246000">
        <ele>273.00000</ele>
        <time>2010-01-01T01:02:00Z</time>
      </trkpt>
      <trkpt lat="41.41600700" lon="2.126295000">
        <ele>273.00000</ele>
        <time>2010-01-01T01:02:03Z</time>
      </trkpt>
      <trkpt lat="41.41609200" lon="2.126332000">
        <ele>272.00000</ele>
        <time>2010-01-01T01:02:07Z</time>
      </trkpt>
      <trkpt lat="41.41614400" lon="2.126355000">
        <ele>272.00000</ele>
        <time>2010-01-01T01:02:09Z</time>
      </trkpt>
      <trkpt lat="41.41622000" lon="2.126386000">
        <ele>272.00000</ele>
        <time>2010-01-01T01:02:12Z</time>
      </trkpt>
      <trkpt lat="41.41631700" lon="2.126425000">
        <ele>273.00000</ele>
        <time>2010-01-01T01:02:16Z</time>
      </trkpt>
      <trkpt lat="41.41647900" lon="2.126491000">
        <ele>276.00000</ele>
        <time>2010-01-01T01:02:23Z</time>
      </trkpt>
      <trkpt lat="41.41658900" lon="2.126535000">
        <ele>278.00000</ele>
        <time>2010-01-01T01:02:28Z</time>
      </trkpt>
      <trkpt lat="41.41663400" lon="2.126551000">
        <ele>280.00000</ele>
        <time>2010-01-01T01:02:30Z</time>
      </trkpt>
      <trkpt lat="41.41666600" lon="2.126576000">
        <ele>280.00000</ele>
        <time>2010-01-01T01:02:31Z</time>
      </trkpt>
      <trkpt lat="41.41669000" lon="2.126615000">
        <ele>280.00000</ele>
        <time>2010-01-01T01:02:33Z</time>
      </trkpt>
      <trkpt lat="41.41670800" lon="2.126662000">
        <ele>280.00000</ele>
        <time>2010-01-01T01:02:34Z</time>
      </trkpt>
      <trkpt lat="41.41672200" lon="2.126765000">
        <ele>281.00000</ele>
        <time>2010-01-01T01:02:37Z</time>
      </trkpt>
      <trkpt lat="41.41672500" lon="2.126862000">
        <ele>281.00000</ele>
        <time>2010-01-01T01:02:40Z</time>
      </trkpt>
      <trkpt lat="41.41671600" lon="2.126982000">
        <ele>280.00000</ele>
        <time>2010-01-01T01:02:44Z</time>
      </trkpt>
      <trkpt lat="41.41668500" lon="2.127134000">
        <ele>278.00000</ele>
        <time>2010-01-01T01:02:49Z</time>
      </trkpt>
      <trkpt lat="41.41663400" lon="2.127321000">
        <ele>275.00000</ele>
        <time>2010-01-01T01:02:55Z</time>
      </trkpt>
      <trkpt lat="41.41658500" lon="2.127589000">
        <ele>275.00000</ele>
        <time>2010-01-01T01:03:03Z</time>
      </trkpt>
      <trkpt lat="41.41656400" lon="2.127822000">
        <ele>276.00000</ele>
        <time>2010-01-01T01:03:10Z</time>
      </trkpt>
      <trkpt lat="41.41655700" lon="2.127992000">
        <ele>275.00000</ele>
        <time>2010-01-01T01:03:15Z</time>
      </trkpt>
      <trkpt lat="41.41656600" lon="2.128247000">
        <ele>271.00000</ele>
        <time>2010-01-01T01:03:23Z</time>
      </trkpt>
      <trkpt lat="41.41657400" lon="2.128308000">
        <ele>270.00000</ele>
        <time>2010-01-01T01:03:25Z</time>
      </trkpt>
      <trkpt lat="41.41660700" lon="2.128396000">
        <ele>269.00000</ele>
        <time>2010-01-01T01:03:27Z</time>
      </trkpt>
      <trkpt lat="41.41663400" lon="2.128450000">
        <ele>269.00000</ele>
        <time>2010-01-01T01:03:29Z</time>
      </trkpt>
      <trkpt lat="41.41671000" lon="2.128536000">
        <ele>269.00000</ele>
        <time>2010-01-01T01:03:33Z</time>
      </trkpt>
      <trkpt lat="41.41695710" lon="2.128681530">
        <ele>275.00000</ele>
        <time>2010-01-01T01:03:44Z</time>
      </trkpt>
      <trkpt lat="41.41704800" lon="2.128735000">
        <ele>276.00000</ele>
        <time>2010-01-01T01:03:48Z</time>
      </trkpt>
      <trkpt lat="41.41716100" lon="2.128808000">
        <ele>277.00000</ele>
        <time>2010-01-01T01:03:53Z</time>
      </trkpt>
      <trkpt lat="41.41714900" lon="2.128751000">
        <ele>279.00000</ele>
        <time>2010-01-01T01:03:55Z</time>
      </trkpt>
      <trkpt lat="41.41684800" lon="2.128494000">
        <ele>276.00000</ele>
        <time>2010-01-01T01:04:09Z</time>
      </trkpt>
      <trkpt lat="41.41680500" lon="2.128129000">
        <ele>283.00000</ele>
        <time>2010-01-01T01:04:20Z</time>
      </trkpt>
      <trkpt lat="41.41689100" lon="2.127743000">
        <ele>290.00000</ele>
        <time>2010-01-01T01:04:32Z</time>
      </trkpt>
      <trkpt lat="41.41702000" lon="2.127357000">
        <ele>301.00000</ele>
        <time>2010-01-01T01:04:45Z</time>
      </trkpt>
      <trkpt lat="41.41706300" lon="2.127249000">
        <ele>304.00000</ele>
        <time>2010-01-01T01:04:49Z</time>
      </trkpt>
      <trkpt lat="41.41710600" lon="2.127099000">
        <ele>306.00000</ele>
        <time>2010-01-01T01:04:54Z</time>
      </trkpt>
      <trkpt lat="41.41712700" lon="2.127035000">
        <ele>307.00000</ele>
        <time>2010-01-01T01:04:56Z</time>
      </trkpt>
      <trkpt lat="41.41714900" lon="2.126799000">
        <ele>308.00000</ele>
        <time>2010-01-01T01:05:03Z</time>
      </trkpt>
      <trkpt lat="41.41714900" lon="2.126627000">
        <ele>309.00000</ele>
        <time>2010-01-01T01:05:08Z</time>
      </trkpt>
      <trkpt lat="41.41706300" lon="2.126327000">
        <ele>307.00000</ele>
        <time>2010-01-01T01:05:18Z</time>
      </trkpt>
      <trkpt lat="41.41693400" lon="2.126198000">
        <ele>304.00000</ele>
        <time>2010-01-01T01:05:24Z</time>
      </trkpt>
      <trkpt lat="41.41665500" lon="2.126026000">
        <ele>303.00000</ele>
        <time>2010-01-01T01:05:36Z</time>
      </trkpt>
      <trkpt lat="41.41663400" lon="2.126005000">
        <ele>303.00000</ele>
        <time>2010-01-01T01:05:38Z</time>
      </trkpt>
      <trkpt lat="41.41656900" lon="2.125983000">
        <ele>303.00000</ele>
        <time>2010-01-01T01:05:40Z</time>
      </trkpt>
      <trkpt lat="41.41637600" lon="2.125726000">
        <ele>312.00000</ele>
        <time>2010-01-01T01:05:51Z</time>
      </trkpt>
      <trkpt lat="41.41629000" lon="2.125468000">
        <ele>314.00000</ele>
        <time>2010-01-01T01:06:00Z</time>
      </trkpt>
      <trkpt lat="41.41622600" lon="2.125275000">
        <ele>314.00000</ele>
        <time>2010-01-01T01:06:06Z</time>
      </trkpt>
      <trkpt lat="41.41622600" lon="2.125232000">
        <ele>315.00000</ele>
        <time>2010-01-01T01:06:07Z</time>
      </trkpt>
      <trkpt lat="41.41611900" lon="2.124953000">
        <ele>314.00000</ele>
        <time>2010-01-01T01:06:17Z</time>
      </trkpt>
      <trkpt lat="41.41607860" lon="2.124740210">
        <ele>316.00000</ele>
        <time>2010-01-01T01:06:23Z</time>
      </trkpt>
      <trkpt lat="41.41605400" lon="2.124610000">
        <ele>317.00000</ele>
        <time>2010-01-01T01:06:27Z</time>
      </trkpt>
      <trkpt lat="41.41605400" lon="2.124567000">
        <ele>317.00000</ele>
        <time>2010-01-01T01:06:29Z</time>
      </trkpt>
      <trkpt lat="41.41596800" lon="2.124610000">
        <ele>317.00000</ele>
        <time>2010-01-01T01:06:32Z</time>
      </trkpt>
      <trkpt lat="41.41603300" lon="2.124631000">
        <ele>317.00000</ele>
        <time>2010-01-01T01:06:35Z</time>
      </trkpt>
      <trkpt lat="41.41620400" lon="2.124589000">
        <ele>320.00000</ele>
        <time>2010-01-01T01:06:42Z</time>
      </trkpt>
      <trkpt lat="41.41626900" lon="2.124610000">
        <ele>322.00000</ele>
        <time>2010-01-01T01:06:45Z</time>
      </trkpt>
      <trkpt lat="41.41635500" lon="2.124674000">
        <ele>325.00000</ele>
        <time>2010-01-01T01:06:48Z</time>
      </trkpt>
      <trkpt lat="41.41637600" lon="2.124782000">
        <ele>326.00000</ele>
        <time>2010-01-01T01:06:52Z</time>
      </trkpt>
      <trkpt lat="41.41637600" lon="2.125082000">
        <ele>323.00000</ele>
        <time>2010-01-01T01:07:01Z</time>
      </trkpt>
      <trkpt lat="41.41650500" lon="2.125361000">
        <ele>323.00000</ele>
        <time>2010-01-01T01:07:11Z</time>
      </trkpt>
      <trkpt lat="41.41671900" lon="2.125576000">
        <ele>324.00000</ele>
        <time>2010-01-01T01:07:21Z</time>
      </trkpt>
      <trkpt lat="41.41680500" lon="2.125618000">
        <ele>324.00000</ele>
        <time>2010-01-01T01:07:25Z</time>
      </trkpt>
      <trkpt lat="41.41699800" lon="2.125661000">
        <ele>326.00000</ele>
        <time>2010-01-01T01:07:33Z</time>
      </trkpt>
      <trkpt lat="41.41727700" lon="2.125790000">
        <ele>331.00000</ele>
        <time>2010-01-01T01:07:45Z</time>
      </trkpt>
      <trkpt lat="41.41747000" lon="2.126005000">
        <ele>335.00000</ele>
        <time>2010-01-01T01:07:55Z</time>
      </trkpt>
      <trkpt lat="41.41762100" lon="2.126327000">
        <ele>338.00000</ele>
        <time>2010-01-01T01:08:06Z</time>
      </trkpt>
      <trkpt lat="41.41790000" lon="2.126391000">
        <ele>341.00000</ele>
        <time>2010-01-01T01:08:18Z</time>
      </trkpt>
      <trkpt lat="41.41811400" lon="2.126241000">
        <ele>340.00000</ele>
        <time>2010-01-01T01:08:27Z</time>
      </trkpt>
      <trkpt lat="41.41832900" lon="2.125962000">
        <ele>346.00000</ele>
        <time>2010-01-01T01:08:39Z</time>
      </trkpt>
      <trkpt lat="41.41841500" lon="2.125726000">
        <ele>355.00000</ele>
        <time>2010-01-01T01:08:47Z</time>
      </trkpt>
      <trkpt lat="41.41860800" lon="2.125404000">
        <ele>365.00000</ele>
        <time>2010-01-01T01:08:59Z</time>
      </trkpt>
      <trkpt lat="41.41886500" lon="2.125404000">
        <ele>362.00000</ele>
        <time>2010-01-01T01:09:10Z</time>
      </trkpt>
      <trkpt lat="41.41899400" lon="2.125361000">
        <ele>359.00000</ele>
        <time>2010-01-01T01:09:15Z</time>
      </trkpt>
      <trkpt lat="41.41918700" lon="2.124975000">
        <ele>365.00000</ele>
        <time>2010-01-01T01:09:29Z</time>
      </trkpt>
      <trkpt lat="41.41935900" lon="2.124546000">
        <ele>377.00000</ele>
        <time>2010-01-01T01:09:44Z</time>
      </trkpt>
      <trkpt lat="41.41955200" lon="2.124438000">
        <ele>375.00000</ele>
        <time>2010-01-01T01:09:52Z</time>
      </trkpt>
      <trkpt lat="41.41993800" lon="2.124503000">
        <ele>368.00000</ele>
        <time>2010-01-01T01:10:08Z</time>
      </trkpt>
      <trkpt lat="41.42015300" lon="2.124503000">
        <ele>372.00000</ele>
        <time>2010-01-01T01:10:16Z</time>
      </trkpt>
      <trkpt lat="41.42023900" lon="2.124503000">
        <ele>374.00000</ele>
        <time>2010-01-01T01:10:20Z</time>
      </trkpt>
      <trkpt lat="41.42047500" lon="2.124803000">
        <ele>370.00000</ele>
        <time>2010-01-01T01:10:33Z</time>
      </trkpt>
      <trkpt lat="41.42071100" lon="2.125318000">
        <ele>370.00000</ele>
        <time>2010-01-01T01:10:51Z</time>
      </trkpt>
      <trkpt lat="41.42073200" lon="2.125769000">
        <ele>371.00000</ele>
        <time>2010-01-01T01:11:04Z</time>
      </trkpt>
      <trkpt lat="41.42081800" lon="2.126262000">
        <ele>373.00000</ele>
        <time>2010-01-01T01:11:20Z</time>
      </trkpt>
      <trkpt lat="41.42107000" lon="2.126640590">
        <ele>371.00000</ele>
        <time>2010-01-01T01:11:35Z</time>
      </trkpt>
      <trkpt lat="41.42107500" lon="2.126648000">
        <ele>371.00000</ele>
        <time>2010-01-01T01:11:35Z</time>
      </trkpt>
      <trkpt lat="41.42129000" lon="2.126691000">
        <ele>371.00000</ele>
        <time>2010-01-01T01:11:44Z</time>
      </trkpt>
      <trkpt lat="41.42146200" lon="2.126348000">
        <ele>371.00000</ele>
        <time>2010-01-01T01:11:56Z</time>
      </trkpt>
      <trkpt lat="41.42139700" lon="2.125855000">
        <ele>378.00000</ele>
        <time>2010-01-01T01:12:11Z</time>
      </trkpt>
      <trkpt lat="41.42124700" lon="2.125447000">
        <ele>379.00000</ele>
        <time>2010-01-01T01:12:25Z</time>
      </trkpt>
      <trkpt lat="41.42139700" lon="2.124996000">
        <ele>381.00000</ele>
        <time>2010-01-01T01:12:40Z</time>
      </trkpt>
      <trkpt lat="41.42169800" lon="2.124717000">
        <ele>380.00000</ele>
        <time>2010-01-01T01:12:54Z</time>
      </trkpt>
      <trkpt lat="41.42182600" lon="2.124267000">
        <ele>381.00000</ele>
        <time>2010-01-01T01:13:09Z</time>
      </trkpt>
      <trkpt lat="41.42182600" lon="2.124202000">
        <ele>382.00000</ele>
        <time>2010-01-01T01:13:11Z</time>
      </trkpt>
      <trkpt lat="41.42182600" lon="2.123837000">
        <ele>390.00000</ele>
        <time>2010-01-01T01:13:22Z</time>
      </trkpt>
      <trkpt lat="41.42182600" lon="2.123816000">
        <ele>390.00000</ele>
        <time>2010-01-01T01:13:22Z</time>
      </trkpt>
      <trkpt lat="41.42206200" lon="2.123687000">
        <ele>386.00000</ele>
        <time>2010-01-01T01:13:32Z</time>
      </trkpt>
      <trkpt lat="41.42223400" lon="2.123580000">
        <ele>385.00000</ele>
        <time>2010-01-01T01:13:40Z</time>
      </trkpt>
      <trkpt lat="41.42244900" lon="2.123323000">
        <ele>391.00000</ele>
        <time>2010-01-01T01:13:52Z</time>
      </trkpt>
      <trkpt lat="41.42262000" lon="2.123022000">
        <ele>399.00000</ele>
        <time>2010-01-01T01:14:03Z</time>
      </trkpt>
      <trkpt lat="41.42272800" lon="2.122786000">
        <ele>403.00000</ele>
        <time>2010-01-01T01:14:11Z</time>
      </trkpt>
      <trkpt lat="41.42287800" lon="2.122636000">
        <ele>404.00000</ele>
        <time>2010-01-01T01:14:19Z</time>
      </trkpt>
      <trkpt lat="41.42292100" lon="2.122636000">
        <ele>404.00000</ele>
        <time>2010-01-01T01:14:20Z</time>
      </trkpt>
      <trkpt lat="41.42317800" lon="2.122614000">
        <ele>403.00000</ele>
        <time>2010-01-01T01:14:31Z</time>
      </trkpt>
      <trkpt lat="41.42341400" lon="2.122614000">
        <ele>406.00000</ele>
        <time>2010-01-01T01:14:40Z</time>
      </trkpt>
      <trkpt lat="41.42345700" lon="2.122657000">
        <ele>406.00000</ele>
        <time>2010-01-01T01:14:42Z</time>
      </trkpt>
      <trkpt lat="41.42345700" lon="2.122679000">
        <ele>406.00000</ele>
        <time>2010-01-01T01:14:43Z</time>
      </trkpt>
      <trkpt lat="41.42356400" lon="2.122958000">
        <ele>405.00000</ele>
        <time>2010-01-01T01:14:52Z</time>
      </trkpt>
      <trkpt lat="41.42358600" lon="2.123323000">
        <ele>402.00000</ele>
        <time>2010-01-01T01:15:03Z</time>
      </trkpt>
      <trkpt lat="41.42377900" lon="2.123666000">
        <ele>404.00000</ele>
        <time>2010-01-01T01:15:16Z</time>
      </trkpt>
      <trkpt lat="41.42401500" lon="2.123752000">
        <ele>407.00000</ele>
        <time>2010-01-01T01:15:26Z</time>
      </trkpt>
      <trkpt lat="41.42431500" lon="2.123623000">
        <ele>412.00000</ele>
        <time>2010-01-01T01:15:39Z</time>
      </trkpt>
      <trkpt lat="41.42450900" lon="2.123537000">
        <ele>416.00000</ele>
        <time>2010-01-01T01:15:47Z</time>
      </trkpt>
      <trkpt lat="41.42457300" lon="2.123516000">
        <ele>416.00000</ele>
        <time>2010-01-01T01:15:50Z</time>
      </trkpt>
      <trkpt lat="41.42474500" lon="2.123408000">
        <ele>420.00000</ele>
        <time>2010-01-01T01:15:57Z</time>
      </trkpt>
      <trkpt lat="41.42493800" lon="2.123323000">
        <ele>420.00000</ele>
        <time>2010-01-01T01:16:05Z</time>
      </trkpt>
      <trkpt lat="41.42515200" lon="2.123258000">
        <ele>423.00000</ele>
        <time>2010-01-01T01:16:14Z</time>
      </trkpt>
      <trkpt lat="41.42538800" lon="2.123237000">
        <ele>426.00000</ele>
        <time>2010-01-01T01:16:24Z</time>
      </trkpt>
      <trkpt lat="41.42543100" lon="2.123237000">
        <ele>427.00000</ele>
        <time>2010-01-01T01:16:25Z</time>
      </trkpt>
      <trkpt lat="41.42564600" lon="2.123408000">
        <ele>425.00000</ele>
        <time>2010-01-01T01:16:35Z</time>
      </trkpt>
      <trkpt lat="41.42586000" lon="2.123408000">
        <ele>428.00000</ele>
        <time>2010-01-01T01:16:44Z</time>
      </trkpt>
      <trkpt lat="41.42607500" lon="2.123387000">
        <ele>430.00000</ele>
        <time>2010-01-01T01:16:52Z</time>
      </trkpt>
      <trkpt lat="41.42626800" lon="2.123430000">
        <ele>431.00000</ele>
        <time>2010-01-01T01:17:00Z</time>
      </trkpt>
      <trkpt lat="41.42639700" lon="2.123601000">
        <ele>430.00000</ele>
        <time>2010-01-01T01:17:08Z</time>
      </trkpt>
      <trkpt lat="41.42648300" lon="2.123666000">
        <ele>431.00000</ele>
        <time>2010-01-01T01:17:12Z</time>
      </trkpt>
      <trkpt lat="41.42659000" lon="2.123773000">
        <ele>432.00000</ele>
        <time>2010-01-01T01:17:17Z</time>
      </trkpt>
      <trkpt lat="41.42693300" lon="2.123773000">
        <ele>429.00000</ele>
        <time>2010-01-01T01:17:31Z</time>
      </trkpt>
      <trkpt lat="41.42721200" lon="2.123280000">
        <ele>433.00000</ele>
        <time>2010-01-01T01:17:49Z</time>
      </trkpt>
      <trkpt lat="41.42721200" lon="2.123258000">
        <ele>434.00000</ele>
        <time>2010-01-01T01:17:50Z</time>
      </trkpt>
      <trkpt lat="41.42749100" lon="2.123258000">
        <ele>430.00000</ele>
        <time>2010-01-01T01:18:01Z</time>
      </trkpt>
      <trkpt lat="41.42766300" lon="2.123280000">
        <ele>428.00000</ele>
        <time>2010-01-01T01:18:08Z</time>
      </trkpt>
      <trkpt lat="41.42852100" lon="2.123344000">
        <ele>422.00000</ele>
        <time>2010-01-01T01:18:42Z</time>
      </trkpt>
      <trkpt lat="41.42914300" lon="2.123730000">
        <ele>413.00000</ele>
        <time>2010-01-01T01:19:10Z</time>
      </trkpt>
      <trkpt lat="41.42955100" lon="2.124138000">
        <ele>411.00000</ele>
        <time>2010-01-01T01:19:30Z</time>
      </trkpt>
      <trkpt lat="41.42959400" lon="2.124202000">
        <ele>411.00000</ele>
        <time>2010-01-01T01:19:33Z</time>
      </trkpt>
      <trkpt lat="41.43008800" lon="2.124803000">
        <ele>406.00000</ele>
        <time>2010-01-01T01:20:00Z</time>
      </trkpt>
      <trkpt lat="41.43060300" lon="2.125425000">
        <ele>403.00000</ele>
        <time>2010-01-01T01:20:27Z</time>
      </trkpt>
      <trkpt lat="41.43081700" lon="2.125704000">
        <ele>404.00000</ele>
        <time>2010-01-01T01:20:39Z</time>
      </trkpt>
      <trkpt lat="41.43096700" lon="2.125919000">
        <ele>405.00000</ele>
        <time>2010-01-01T01:20:48Z</time>
      </trkpt>
      <trkpt lat="41.43107500" lon="2.126048000">
        <ele>406.00000</ele>
        <time>2010-01-01T01:20:54Z</time>
      </trkpt>
      <trkpt lat="41.43111800" lon="2.126069000">
        <ele>406.00000</ele>
        <time>2010-01-01T01:20:56Z</time>
      </trkpt>
      <trkpt lat="41.43126800" lon="2.125919000">
        <ele>403.00000</ele>
        <time>2010-01-01T01:21:03Z</time>
      </trkpt>
      <trkpt lat="41.43126400" lon="2.125929000">
        <ele>403.00000</ele>
        <time>2010-01-01T01:21:04Z</time>
      </trkpt>
      <trkpt lat="41.43126400" lon="2.125930000">
        <ele>403.00000</ele>
        <time>2010-01-01T01:21:04Z</time>
      </trkpt>
      <trkpt lat="41.43130900" lon="2.125926000">
        <ele>403.00000</ele>
        <time>2010-01-01T01:21:05Z</time>
      </trkpt>
      <trkpt lat="41.43158400" lon="2.126100000">
        <ele>400.00000</ele>
        <time>2010-01-01T01:21:18Z</time>
      </trkpt>
      <trkpt lat="41.43175200" lon="2.126250000">
        <ele>400.00000</ele>
        <time>2010-01-01T01:21:26Z</time>
      </trkpt>
      <trkpt lat="41.43187200" lon="2.126253000">
        <ele>400.00000</ele>
        <time>2010-01-01T01:21:31Z</time>
      </trkpt>
      <trkpt lat="41.43208500" lon="2.125993000">
        <ele>400.00000</ele>
        <time>2010-01-01T01:21:42Z</time>
      </trkpt>
      <trkpt lat="41.43244400" lon="2.125976000">
        <ele>399.00000</ele>
        <time>2010-01-01T01:21:56Z</time>
      </trkpt>
      <trkpt lat="41.43268100" lon="2.126142000">
        <ele>402.00000</ele>
        <time>2010-01-01T01:22:07Z</time>
      </trkpt>
      <trkpt lat="41.43301700" lon="2.126079000">
        <ele>405.00000</ele>
        <time>2010-01-01T01:22:21Z</time>
      </trkpt>
      <trkpt lat="41.43305000" lon="2.126043000">
        <ele>405.00000</ele>
        <time>2010-01-01T01:22:22Z</time>
      </trkpt>
      <trkpt lat="41.43307200" lon="2.126031000">
        <ele>405.00000</ele>
        <time>2010-01-01T01:22:23Z</time>
      </trkpt>
      <trkpt lat="41.43313300" lon="2.125927000">
        <ele>404.00000</ele>
        <time>2010-01-01T01:22:27Z</time>
      </trkpt>
      <trkpt lat="41.43345600" lon="2.124981000">
        <ele>389.00000</ele>
        <time>2010-01-01T01:22:59Z</time>
      </trkpt>
      <trkpt lat="41.43363800" lon="2.124377000">
        <ele>386.00000</ele>
        <time>2010-01-01T01:23:18Z</time>
      </trkpt>
      <trkpt lat="41.43371270" lon="2.124392090">
        <ele>387.00000</ele>
        <time>2010-01-01T01:23:21Z</time>
      </trkpt>
      <trkpt lat="41.43393500" lon="2.124437000">
        <ele>387.00000</ele>
        <time>2010-01-01T01:23:30Z</time>
      </trkpt>
      <trkpt lat="41.43397100" lon="2.124506000">
        <ele>387.00000</ele>
        <time>2010-01-01T01:23:33Z</time>
      </trkpt>
      <trkpt lat="41.43409400" lon="2.124793000">
        <ele>390.00000</ele>
        <time>2010-01-01T01:23:43Z</time>
      </trkpt>
      <trkpt lat="41.43428600" lon="2.125009000">
        <ele>390.00000</ele>
        <time>2010-01-01T01:23:53Z</time>
      </trkpt>
      <trkpt lat="41.43446600" lon="2.125105000">
        <ele>384.00000</ele>
        <time>2010-01-01T01:24:00Z</time>
      </trkpt>
      <trkpt lat="41.43467000" lon="2.125562000">
        <ele>376.00000</ele>
        <time>2010-01-01T01:24:16Z</time>
      </trkpt>
      <trkpt lat="41.43456400" lon="2.125845000">
        <ele>387.00000</ele>
        <time>2010-01-01T01:24:26Z</time>
      </trkpt>
      <trkpt lat="41.43454700" lon="2.126105000">
        <ele>393.00000</ele>
        <time>2010-01-01T01:24:34Z</time>
      </trkpt>
      <trkpt lat="41.43470800" lon="2.126439000">
        <ele>390.00000</ele>
        <time>2010-01-01T01:24:46Z</time>
      </trkpt>
      <trkpt lat="41.43480700" lon="2.126459000">
        <ele>386.00000</ele>
        <time>2010-01-01T01:24:50Z</time>
      </trkpt>
      <trkpt lat="41.43501500" lon="2.126606000">
        <ele>382.00000</ele>
        <time>2010-01-01T01:24:59Z</time>
      </trkpt>
      <trkpt lat="41.43512300" lon="2.126887000">
        <ele>389.00000</ele>
        <time>2010-01-01T01:25:08Z</time>
      </trkpt>
      <trkpt lat="41.43535400" lon="2.127066000">
        <ele>390.00000</ele>
        <time>2010-01-01T01:25:19Z</time>
      </trkpt>
      <trkpt lat="41.43538600" lon="2.127039000">
        <ele>389.00000</ele>
        <time>2010-01-01T01:25:21Z</time>
      </trkpt>
      <trkpt lat="41.43551800" lon="2.126984000">
        <ele>388.00000</ele>
        <time>2010-01-01T01:25:26Z</time>
      </trkpt>
      <trkpt lat="41.43564300" lon="2.126824000">
        <ele>387.00000</ele>
        <time>2010-01-01T01:25:33Z</time>
      </trkpt>
      <trkpt lat="41.43566700" lon="2.126431000">
        <ele>379.00000</ele>
        <time>2010-01-01T01:25:45Z</time>
      </trkpt>
      <trkpt lat="41.43586500" lon="2.126147000">
        <ele>378.00000</ele>
        <time>2010-01-01T01:25:57Z</time>
      </trkpt>
      <trkpt lat="41.43627100" lon="2.125973000">
        <ele>378.00000</ele>
        <time>2010-01-01T01:26:14Z</time>
      </trkpt>
      <trkpt lat="41.43629800" lon="2.126021000">
        <ele>379.00000</ele>
        <time>2010-01-01T01:26:16Z</time>
      </trkpt>
      <trkpt lat="41.43637800" lon="2.126166000">
        <ele>382.00000</ele>
        <time>2010-01-01T01:26:21Z</time>
      </trkpt>
      <trkpt lat="41.43664400" lon="2.126472000">
        <ele>383.00000</ele>
        <time>2010-01-01T01:26:35Z</time>
      </trkpt>
      <trkpt lat="41.43692800" lon="2.126691000">
        <ele>383.00000</ele>
        <time>2010-01-01T01:26:48Z</time>
      </trkpt>
      <trkpt lat="41.43723200" lon="2.126717000">
        <ele>379.00000</ele>
        <time>2010-01-01T01:27:00Z</time>
      </trkpt>
      <trkpt lat="41.43742300" lon="2.126794000">
        <ele>378.00000</ele>
        <time>2010-01-01T01:27:08Z</time>
      </trkpt>
      <trkpt lat="41.43753600" lon="2.127382000">
        <ele>383.00000</ele>
        <time>2010-01-01T01:27:27Z</time>
      </trkpt>
      <trkpt lat="41.43761700" lon="2.127642000">
        <ele>384.00000</ele>
        <time>2010-01-01T01:27:35Z</time>
      </trkpt>
      <trkpt lat="41.43782200" lon="2.128066000">
        <ele>384.00000</ele>
        <time>2010-01-01T01:27:50Z</time>
      </trkpt>
      <trkpt lat="41.43787800" lon="2.128250000">
        <ele>389.00000</ele>
        <time>2010-01-01T01:27:56Z</time>
      </trkpt>
      <trkpt lat="41.43805700" lon="2.128464000">
        <ele>391.00000</ele>
        <time>2010-01-01T01:28:06Z</time>
      </trkpt>
      <trkpt lat="41.43820800" lon="2.128409000">
        <ele>386.00000</ele>
        <time>2010-01-01T01:28:12Z</time>
      </trkpt>
      <trkpt lat="41.43836000" lon="2.128617000">
        <ele>391.00000</ele>
        <time>2010-01-01T01:28:21Z</time>
      </trkpt>
      <trkpt lat="41.43846800" lon="2.128800000">
        <ele>396.00000</ele>
        <time>2010-01-01T01:28:28Z</time>
      </trkpt>
      <trkpt lat="41.43860500" lon="2.128936000">
        <ele>398.00000</ele>
        <time>2010-01-01T01:28:34Z</time>
      </trkpt>
      <trkpt lat="41.43874400" lon="2.129078000">
        <ele>399.00000</ele>
        <time>2010-01-01T01:28:41Z</time>
      </trkpt>
      <trkpt lat="41.43894700" lon="2.129143000">
        <ele>397.00000</ele>
        <time>2010-01-01T01:28:50Z</time>
      </trkpt>
      <trkpt lat="41.43904800" lon="2.129121000">
        <ele>396.00000</ele>
        <time>2010-01-01T01:28:54Z</time>
      </trkpt>
      <trkpt lat="41.43934700" lon="2.129035000">
        <ele>397.00000</ele>
        <time>2010-01-01T01:29:06Z</time>
      </trkpt>
      <trkpt lat="41.43952500" lon="2.129090000">
        <ele>398.00000</ele>
        <time>2010-01-01T01:29:14Z</time>
      </trkpt>
      <trkpt lat="41.43962830" lon="2.129171540">
        <ele>398.00000</ele>
        <time>2010-01-01T01:29:18Z</time>
      </trkpt>
      <trkpt lat="41.43978100" lon="2.129292000">
        <ele>397.00000</ele>
        <time>2010-01-01T01:29:25Z</time>
      </trkpt>
      <trkpt lat="41.43982800" lon="2.129283000">
        <ele>398.00000</ele>
        <time>2010-01-01T01:29:27Z</time>
      </trkpt>
      <trkpt lat="41.43982000" lon="2.129349000">
        <ele>397.00000</ele>
        <time>2010-01-01T01:29:29Z</time>
      </trkpt>
      <trkpt lat="41.43959400" lon="2.129729000">
        <ele>391.00000</ele>
        <time>2010-01-01T01:29:44Z</time>
      </trkpt>
      <trkpt lat="41.43942400" lon="2.129843000">
        <ele>390.00000</ele>
        <time>2010-01-01T01:29:51Z</time>
      </trkpt>
      <trkpt lat="41.43894010" lon="2.129943970">
        <ele>392.00000</ele>
        <time>2010-01-01T01:30:11Z</time>
      </trkpt>
      <trkpt lat="41.43882500" lon="2.129968000">
        <ele>392.00000</ele>
        <time>2010-01-01T01:30:16Z</time>
      </trkpt>
      <trkpt lat="41.43871700" lon="2.129979000">
        <ele>392.00000</ele>
        <time>2010-01-01T01:30:20Z</time>
      </trkpt>
      <trkpt lat="41.43872800" lon="2.129976000">
        <ele>392.00000</ele>
        <time>2010-01-01T01:30:21Z</time>
      </trkpt>
      <trkpt lat="41.43895600" lon="2.130001000">
        <ele>391.00000</ele>
        <time>2010-01-01T01:30:30Z</time>
      </trkpt>
      <trkpt lat="41.43921700" lon="2.130007000">
        <ele>390.00000</ele>
        <time>2010-01-01T01:30:40Z</time>
      </trkpt>
      <trkpt lat="41.43937900" lon="2.129975000">
        <ele>388.00000</ele>
        <time>2010-01-01T01:30:47Z</time>
      </trkpt>
      <trkpt lat="41.43952900" lon="2.129896000">
        <ele>388.00000</ele>
        <time>2010-01-01T01:30:53Z</time>
      </trkpt>
      <trkpt lat="41.43960700" lon="2.129865000">
        <ele>388.00000</ele>
        <time>2010-01-01T01:30:56Z</time>
      </trkpt>
      <trkpt lat="41.43978300" lon="2.129857000">
        <ele>388.00000</ele>
        <time>2010-01-01T01:31:03Z</time>
      </trkpt>
      <trkpt lat="41.43991200" lon="2.129888000">
        <ele>389.00000</ele>
        <time>2010-01-01T01:31:09Z</time>
      </trkpt>
      <trkpt lat="41.44003000" lon="2.129937000">
        <ele>389.00000</ele>
        <time>2010-01-01T01:31:14Z</time>
      </trkpt>
      <trkpt lat="41.44014300" lon="2.130005000">
        <ele>389.00000</ele>
        <time>2010-01-01T01:31:19Z</time>
      </trkpt>
      <trkpt lat="41.44025400" lon="2.130122000">
        <ele>388.00000</ele>
        <time>2010-01-01T01:31:24Z</time>
      </trkpt>
      <trkpt lat="41.44038600" lon="2.130345000">
        <ele>385.00000</ele>
        <time>2010-01-01T01:31:33Z</time>
      </trkpt>
      <trkpt lat="41.44053500" lon="2.130558000">
        <ele>384.00000</ele>
        <time>2010-01-01T01:31:42Z</time>
      </trkpt>
      <trkpt lat="41.44063400" lon="2.130643000">
        <ele>384.00000</ele>
        <time>2010-01-01T01:31:46Z</time>
      </trkpt>
      <trkpt lat="41.44073200" lon="2.130668000">
        <ele>386.00000</ele>
        <time>2010-01-01T01:31:50Z</time>
      </trkpt>
      <trkpt lat="41.44082900" lon="2.130674000">
        <ele>389.00000</ele>
        <time>2010-01-01T01:31:54Z</time>
      </trkpt>
      <trkpt lat="41.44092900" lon="2.130651000">
        <ele>390.00000</ele>
        <time>2010-01-01T01:31:58Z</time>
      </trkpt>
      <trkpt lat="41.44102400" lon="2.130621000">
        <ele>392.00000</ele>
        <time>2010-01-01T01:32:02Z</time>
      </trkpt>
      <trkpt lat="41.44114600" lon="2.130578000">
        <ele>394.00000</ele>
        <time>2010-01-01T01:32:07Z</time>
      </trkpt>
      <trkpt lat="41.44123600" lon="2.130537000">
        <ele>395.00000</ele>
        <time>2010-01-01T01:32:11Z</time>
      </trkpt>
      <trkpt lat="41.44136300" lon="2.130521000">
        <ele>395.00000</ele>
        <time>2010-01-01T01:32:16Z</time>
      </trkpt>
      <trkpt lat="41.44152300" lon="2.130543000">
        <ele>396.00000</ele>
        <time>2010-01-01T01:32:23Z</time>
      </trkpt>
      <trkpt lat="41.44163400" lon="2.130580000">
        <ele>395.00000</ele>
        <time>2010-01-01T01:32:27Z</time>
      </trkpt>
      <trkpt lat="41.44188200" lon="2.130733000">
        <ele>394.00000</ele>
        <time>2010-01-01T01:32:38Z</time>
      </trkpt>
      <trkpt lat="41.44196400" lon="2.130781000">
        <ele>394.00000</ele>
        <time>2010-01-01T01:32:42Z</time>
      </trkpt>
      <trkpt lat="41.44217600" lon="2.130923000">
        <ele>393.00000</ele>
        <time>2010-01-01T01:32:51Z</time>
      </trkpt>
      <trkpt lat="41.44228800" lon="2.131001000">
        <ele>391.00000</ele>
        <time>2010-01-01T01:32:56Z</time>
      </trkpt>
      <trkpt lat="41.44245300" lon="2.131044000">
        <ele>389.00000</ele>
        <time>2010-01-01T01:33:03Z</time>
      </trkpt>
      <trkpt lat="41.44261900" lon="2.131094000">
        <ele>388.00000</ele>
        <time>2010-01-01T01:33:10Z</time>
      </trkpt>
      <trkpt lat="41.44277100" lon="2.131139000">
        <ele>387.00000</ele>
        <time>2010-01-01T01:33:16Z</time>
      </trkpt>
      <trkpt lat="41.44290200" lon="2.131177000">
        <ele>387.00000</ele>
        <time>2010-01-01T01:33:21Z</time>
      </trkpt>
      <trkpt lat="41.44305100" lon="2.131224000">
        <ele>386.00000</ele>
        <time>2010-01-01T01:33:27Z</time>
      </trkpt>
      <trkpt lat="41.44322800" lon="2.131278000">
        <ele>388.00000</ele>
        <time>2010-01-01T01:33:35Z</time>
      </trkpt>
      <trkpt lat="41.44332900" lon="2.131325000">
        <ele>389.00000</ele>
        <time>2010-01-01T01:33:39Z</time>
      </trkpt>
      <trkpt lat="41.44336600" lon="2.131373000">
        <ele>389.00000</ele>
        <time>2010-01-01T01:33:41Z</time>
      </trkpt>
      <trkpt lat="41.44340000" lon="2.131463000">
        <ele>389.00000</ele>
        <time>2010-01-01T01:33:44Z</time>
      </trkpt>
      <trkpt lat="41.44342200" lon="2.131617000">
        <ele>387.00000</ele>
        <time>2010-01-01T01:33:49Z</time>
      </trkpt>
      <trkpt lat="41.44343700" lon="2.131800000">
        <ele>385.00000</ele>
        <time>2010-01-01T01:33:54Z</time>
      </trkpt>
      <trkpt lat="41.44340700" lon="2.132095000">
        <ele>382.00000</ele>
        <time>2010-01-01T01:34:03Z</time>
      </trkpt>
      <trkpt lat="41.44339100" lon="2.132205000">
        <ele>381.00000</ele>
        <time>2010-01-01T01:34:07Z</time>
      </trkpt>
      <trkpt lat="41.44340500" lon="2.132365000">
        <ele>380.00000</ele>
        <time>2010-01-01T01:34:11Z</time>
      </trkpt>
      <trkpt lat="41.44344600" lon="2.132458000">
        <ele>382.00000</ele>
        <time>2010-01-01T01:34:15Z</time>
      </trkpt>
      <trkpt lat="41.44348400" lon="2.132557000">
        <ele>382.00000</ele>
        <time>2010-01-01T01:34:18Z</time>
      </trkpt>
      <trkpt lat="41.44361600" lon="2.132809000">
        <ele>383.00000</ele>
        <time>2010-01-01T01:34:27Z</time>
      </trkpt>
      <trkpt lat="41.44373900" lon="2.133021000">
        <ele>386.00000</ele>
        <time>2010-01-01T01:34:35Z</time>
      </trkpt>
      <trkpt lat="41.44379700" lon="2.133196000">
        <ele>386.00000</ele>
        <time>2010-01-01T01:34:41Z</time>
      </trkpt>
      <trkpt lat="41.44380300" lon="2.133291000">
        <ele>385.00000</ele>
        <time>2010-01-01T01:34:44Z</time>
      </trkpt>
      <trkpt lat="41.44377200" lon="2.133445000">
        <ele>382.00000</ele>
        <time>2010-01-01T01:34:49Z</time>
      </trkpt>
      <trkpt lat="41.44366900" lon="2.133758000">
        <ele>376.00000</ele>
        <time>2010-01-01T01:34:59Z</time>
      </trkpt>
      <trkpt lat="41.44360400" lon="2.133929000">
        <ele>374.00000</ele>
        <time>2010-01-01T01:35:05Z</time>
      </trkpt>
      <trkpt lat="41.44357900" lon="2.134031000">
        <ele>373.00000</ele>
        <time>2010-01-01T01:35:08Z</time>
      </trkpt>
      <trkpt lat="41.44355500" lon="2.134213000">
        <ele>373.00000</ele>
        <time>2010-01-01T01:35:13Z</time>
      </trkpt>
      <trkpt lat="41.44354100" lon="2.134321000">
        <ele>372.00000</ele>
        <time>2010-01-01T01:35:17Z</time>
      </trkpt>
      <trkpt lat="41.44350500" lon="2.134684000">
        <ele>371.00000</ele>
        <time>2010-01-01T01:35:28Z</time>
      </trkpt>
      <trkpt lat="41.44348100" lon="2.134815000">
        <ele>370.00000</ele>
        <time>2010-01-01T01:35:32Z</time>
      </trkpt>
      <trkpt lat="41.44343500" lon="2.134933000">
        <ele>369.00000</ele>
        <time>2010-01-01T01:35:36Z</time>
      </trkpt>
      <trkpt lat="41.44337300" lon="2.135006000">
        <ele>369.00000</ele>
        <time>2010-01-01T01:35:39Z</time>
      </trkpt>
      <trkpt lat="41.44329500" lon="2.135091000">
        <ele>368.00000</ele>
        <time>2010-01-01T01:35:43Z</time>
      </trkpt>
      <trkpt lat="41.44325100" lon="2.135135000">
        <ele>368.00000</ele>
        <time>2010-01-01T01:35:45Z</time>
      </trkpt>
      <trkpt lat="41.44321200" lon="2.135185000">
        <ele>368.00000</ele>
        <time>2010-01-01T01:35:47Z</time>
      </trkpt>
      <trkpt lat="41.44311900" lon="2.135264000">
        <ele>368.00000</ele>
        <time>2010-01-01T01:35:52Z</time>
      </trkpt>
      <trkpt lat="41.44307100" lon="2.135296000">
        <ele>368.00000</ele>
        <time>2010-01-01T01:35:54Z</time>
      </trkpt>
      <trkpt lat="41.44298300" lon="2.135374000">
        <ele>366.00000</ele>
        <time>2010-01-01T01:35:58Z</time>
      </trkpt>
      <trkpt lat="41.44292300" lon="2.135432000">
        <ele>365.00000</ele>
        <time>2010-01-01T01:36:01Z</time>
      </trkpt>
      <trkpt lat="41.44288000" lon="2.135546000">
        <ele>364.00000</ele>
        <time>2010-01-01T01:36:05Z</time>
      </trkpt>
      <trkpt lat="41.44285700" lon="2.135628000">
        <ele>363.00000</ele>
        <time>2010-01-01T01:36:08Z</time>
      </trkpt>
      <trkpt lat="41.44284800" lon="2.135673000">
        <ele>363.00000</ele>
        <time>2010-01-01T01:36:09Z</time>
      </trkpt>
      <trkpt lat="41.44283100" lon="2.135722000">
        <ele>363.00000</ele>
        <time>2010-01-01T01:36:11Z</time>
      </trkpt>
      <trkpt lat="41.44280600" lon="2.135818000">
        <ele>362.00000</ele>
        <time>2010-01-01T01:36:14Z</time>
      </trkpt>
      <trkpt lat="41.44275600" lon="2.135922000">
        <ele>361.00000</ele>
        <time>2010-01-01T01:36:17Z</time>
      </trkpt>
      <trkpt lat="41.44268500" lon="2.135988000">
        <ele>359.00000</ele>
        <time>2010-01-01T01:36:21Z</time>
      </trkpt>
      <trkpt lat="41.44262300" lon="2.136036000">
        <ele>358.00000</ele>
        <time>2010-01-01T01:36:24Z</time>
      </trkpt>
      <trkpt lat="41.44254900" lon="2.136082000">
        <ele>357.00000</ele>
        <time>2010-01-01T01:36:27Z</time>
      </trkpt>
      <trkpt lat="41.44248000" lon="2.136120000">
        <ele>355.00000</ele>
        <time>2010-01-01T01:36:30Z</time>
      </trkpt>
      <trkpt lat="41.44240100" lon="2.136142000">
        <ele>354.00000</ele>
        <time>2010-01-01T01:36:33Z</time>
      </trkpt>
      <trkpt lat="41.44233300" lon="2.136141000">
        <ele>353.00000</ele>
        <time>2010-01-01T01:36:36Z</time>
      </trkpt>
      <trkpt lat="41.44222500" lon="2.136151000">
        <ele>351.00000</ele>
        <time>2010-01-01T01:36:40Z</time>
      </trkpt>
      <trkpt lat="41.44213700" lon="2.136213000">
        <ele>349.00000</ele>
        <time>2010-01-01T01:36:44Z</time>
      </trkpt>
      <trkpt lat="41.44206000" lon="2.136414000">
        <ele>349.00000</ele>
        <time>2010-01-01T01:36:51Z</time>
      </trkpt>
      <trkpt lat="41.44201000" lon="2.136749000">
        <ele>349.00000</ele>
        <time>2010-01-01T01:37:01Z</time>
      </trkpt>
      <trkpt lat="41.44201400" lon="2.136802000">
        <ele>348.00000</ele>
        <time>2010-01-01T01:37:03Z</time>
      </trkpt>
      <trkpt lat="41.44201000" lon="2.136868000">
        <ele>347.00000</ele>
        <time>2010-01-01T01:37:05Z</time>
      </trkpt>
      <trkpt lat="41.44204000" lon="2.136950000">
        <ele>346.00000</ele>
        <time>2010-01-01T01:37:08Z</time>
      </trkpt>
      <trkpt lat="41.44209900" lon="2.136990000">
        <ele>346.00000</ele>
        <time>2010-01-01T01:37:10Z</time>
      </trkpt>
      <trkpt lat="41.44225300" lon="2.137034000">
        <ele>346.00000</ele>
        <time>2010-01-01T01:37:17Z</time>
      </trkpt>
      <trkpt lat="41.44230100" lon="2.137027000">
        <ele>346.00000</ele>
        <time>2010-01-01T01:37:19Z</time>
      </trkpt>
      <trkpt lat="41.44259900" lon="2.137021000">
        <ele>348.00000</ele>
        <time>2010-01-01T01:37:30Z</time>
      </trkpt>
      <trkpt lat="41.44272100" lon="2.137054000">
        <ele>348.00000</ele>
        <time>2010-01-01T01:37:35Z</time>
      </trkpt>
      <trkpt lat="41.44276600" lon="2.137109000">
        <ele>347.00000</ele>
        <time>2010-01-01T01:37:38Z</time>
      </trkpt>
      <trkpt lat="41.44287800" lon="2.137399000">
        <ele>340.00000</ele>
        <time>2010-01-01T01:37:48Z</time>
      </trkpt>
      <trkpt lat="41.44290700" lon="2.137474000">
        <ele>338.00000</ele>
        <time>2010-01-01T01:37:50Z</time>
      </trkpt>
      <trkpt lat="41.44296700" lon="2.137624000">
        <ele>336.00000</ele>
        <time>2010-01-01T01:37:55Z</time>
      </trkpt>
      <trkpt lat="41.44300050" lon="2.137757680">
        <ele>334.00000</ele>
        <time>2010-01-01T01:38:00Z</time>
      </trkpt>
      <trkpt lat="41.44302600" lon="2.137859000">
        <ele>334.00000</ele>
        <time>2010-01-01T01:38:03Z</time>
      </trkpt>
      <trkpt lat="41.44306300" lon="2.137968000">
        <ele>333.00000</ele>
        <time>2010-01-01T01:38:06Z</time>
      </trkpt>
      <trkpt lat="41.44310400" lon="2.138017000">
        <ele>333.00000</ele>
        <time>2010-01-01T01:38:09Z</time>
      </trkpt>
      <trkpt lat="41.44314800" lon="2.138035000">
        <ele>333.00000</ele>
        <time>2010-01-01T01:38:10Z</time>
      </trkpt>
      <trkpt lat="41.44317500" lon="2.138038000">
        <ele>333.00000</ele>
        <time>2010-01-01T01:38:11Z</time>
      </trkpt>
      <trkpt lat="41.44322600" lon="2.137965000">
        <ele>334.00000</ele>
        <time>2010-01-01T01:38:14Z</time>
      </trkpt>
      <trkpt lat="41.44324100" lon="2.137856000">
        <ele>335.00000</ele>
        <time>2010-01-01T01:38:18Z</time>
      </trkpt>
      <trkpt lat="41.44325500" lon="2.137672000">
        <ele>337.00000</ele>
        <time>2010-01-01T01:38:23Z</time>
      </trkpt>
      <trkpt lat="41.44329000" lon="2.137474000">
        <ele>338.00000</ele>
        <time>2010-01-01T01:38:29Z</time>
      </trkpt>
      <trkpt lat="41.44331400" lon="2.137256000">
        <ele>342.00000</ele>
        <time>2010-01-01T01:38:36Z</time>
      </trkpt>
      <trkpt lat="41.44331300" lon="2.137028000">
        <ele>347.00000</ele>
        <time>2010-01-01T01:38:43Z</time>
      </trkpt>
      <trkpt lat="41.44331100" lon="2.137002000">
        <ele>348.00000</ele>
        <time>2010-01-01T01:38:44Z</time>
      </trkpt>
      <trkpt lat="41.44331300" lon="2.136700000">
        <ele>352.00000</ele>
        <time>2010-01-01T01:38:53Z</time>
      </trkpt>
      <trkpt lat="41.44332700" lon="2.136522000">
        <ele>354.00000</ele>
        <time>2010-01-01T01:38:58Z</time>
      </trkpt>
      <trkpt lat="41.44336000" lon="2.136271000">
        <ele>355.00000</ele>
        <time>2010-01-01T01:39:06Z</time>
      </trkpt>
      <trkpt lat="41.44340000" lon="2.136194000">
        <ele>355.00000</ele>
        <time>2010-01-01T01:39:09Z</time>
      </trkpt>
      <trkpt lat="41.44353100" lon="2.136097000">
        <ele>352.00000</ele>
        <time>2010-01-01T01:39:15Z</time>
      </trkpt>
      <trkpt lat="41.44365400" lon="2.135996000">
        <ele>352.00000</ele>
        <time>2010-01-01T01:39:20Z</time>
      </trkpt>
      <trkpt lat="41.44373600" lon="2.135963000">
        <ele>351.00000</ele>
        <time>2010-01-01T01:39:24Z</time>
      </trkpt>
      <trkpt lat="41.44379700" lon="2.135899000">
        <ele>352.00000</ele>
        <time>2010-01-01T01:39:27Z</time>
      </trkpt>
      <trkpt lat="41.44384700" lon="2.135828000">
        <ele>354.00000</ele>
        <time>2010-01-01T01:39:30Z</time>
      </trkpt>
      <trkpt lat="41.44392900" lon="2.135679000">
        <ele>356.00000</ele>
        <time>2010-01-01T01:39:35Z</time>
      </trkpt>
      <trkpt lat="41.44404500" lon="2.135477000">
        <ele>357.00000</ele>
        <time>2010-01-01T01:39:43Z</time>
      </trkpt>
      <trkpt lat="41.44411800" lon="2.135344000">
        <ele>358.00000</ele>
        <time>2010-01-01T01:39:48Z</time>
      </trkpt>
      <trkpt lat="41.44424300" lon="2.135104000">
        <ele>361.00000</ele>
        <time>2010-01-01T01:39:57Z</time>
      </trkpt>
      <trkpt lat="41.44433200" lon="2.135070000">
        <ele>359.00000</ele>
        <time>2010-01-01T01:40:00Z</time>
      </trkpt>
      <trkpt lat="41.44442000" lon="2.135088000">
        <ele>357.00000</ele>
        <time>2010-01-01T01:40:04Z</time>
      </trkpt>
      <trkpt lat="41.44450000" lon="2.135131000">
        <ele>354.00000</ele>
        <time>2010-01-01T01:40:07Z</time>
      </trkpt>
      <trkpt lat="41.44456700" lon="2.135168000">
        <ele>351.00000</ele>
        <time>2010-01-01T01:40:10Z</time>
      </trkpt>
      <trkpt lat="41.44465300" lon="2.135176000">
        <ele>349.00000</ele>
        <time>2010-01-01T01:40:14Z</time>
      </trkpt>
      <trkpt lat="41.44476700" lon="2.135128000">
        <ele>349.00000</ele>
        <time>2010-01-01T01:40:19Z</time>
      </trkpt>
      <trkpt lat="41.44489300" lon="2.135070000">
        <ele>349.00000</ele>
        <time>2010-01-01T01:40:24Z</time>
      </trkpt>
      <trkpt lat="41.44501200" lon="2.134976000">
        <ele>350.00000</ele>
        <time>2010-01-01T01:40:29Z</time>
      </trkpt>
      <trkpt lat="41.44508400" lon="2.134876000">
        <ele>352.00000</ele>
        <time>2010-01-01T01:40:34Z</time>
      </trkpt>
      <trkpt lat="41.44514300" lon="2.134741000">
        <ele>354.00000</ele>
        <time>2010-01-01T01:40:38Z</time>
      </trkpt>
      <trkpt lat="41.44523000" lon="2.134550000">
        <ele>356.00000</ele>
        <time>2010-01-01T01:40:45Z</time>
      </trkpt>
      <trkpt lat="41.44526000" lon="2.134480000">
        <ele>356.00000</ele>
        <time>2010-01-01T01:40:47Z</time>
      </trkpt>
      <trkpt lat="41.44533700" lon="2.134341000">
        <ele>358.00000</ele>
        <time>2010-01-01T01:40:53Z</time>
      </trkpt>
      <trkpt lat="41.44538900" lon="2.134282000">
        <ele>359.00000</ele>
        <time>2010-01-01T01:40:55Z</time>
      </trkpt>
      <trkpt lat="41.44545600" lon="2.134257000">
        <ele>357.00000</ele>
        <time>2010-01-01T01:40:58Z</time>
      </trkpt>
      <trkpt lat="41.44552000" lon="2.134247000">
        <ele>356.00000</ele>
        <time>2010-01-01T01:41:01Z</time>
      </trkpt>
      <trkpt lat="41.44561500" lon="2.134264000">
        <ele>354.00000</ele>
        <time>2010-01-01T01:41:05Z</time>
      </trkpt>
      <trkpt lat="41.44569000" lon="2.134298000">
        <ele>354.00000</ele>
        <time>2010-01-01T01:41:08Z</time>
      </trkpt>
      <trkpt lat="41.44578000" lon="2.134357000">
        <ele>352.00000</ele>
        <time>2010-01-01T01:41:12Z</time>
      </trkpt>
      <trkpt lat="41.44585300" lon="2.134404000">
        <ele>351.00000</ele>
        <time>2010-01-01T01:41:15Z</time>
      </trkpt>
      <trkpt lat="41.44588900" lon="2.134426000">
        <ele>350.00000</ele>
        <time>2010-01-01T01:41:17Z</time>
      </trkpt>
      <trkpt lat="41.44595200" lon="2.134461000">
        <ele>349.00000</ele>
        <time>2010-01-01T01:41:19Z</time>
      </trkpt>
      <trkpt lat="41.44611100" lon="2.134505000">
        <ele>348.00000</ele>
        <time>2010-01-01T01:41:26Z</time>
      </trkpt>
      <trkpt lat="41.44618600" lon="2.134520000">
        <ele>348.00000</ele>
        <time>2010-01-01T01:41:29Z</time>
      </trkpt>
      <trkpt lat="41.44630600" lon="2.134556000">
        <ele>348.00000</ele>
        <time>2010-01-01T01:41:34Z</time>
      </trkpt>
      <trkpt lat="41.44642000" lon="2.134602000">
        <ele>348.00000</ele>
        <time>2010-01-01T01:41:39Z</time>
      </trkpt>
      <trkpt lat="41.44653200" lon="2.134649000">
        <ele>348.00000</ele>
        <time>2010-01-01T01:41:43Z</time>
      </trkpt>
      <trkpt lat="41.44663200" lon="2.134696000">
        <ele>347.00000</ele>
        <time>2010-01-01T01:41:47Z</time>
      </trkpt>
      <trkpt lat="41.44670700" lon="2.134720000">
        <ele>347.00000</ele>
        <time>2010-01-01T01:41:51Z</time>
      </trkpt>
      <trkpt lat="41.44684300" lon="2.134764000">
        <ele>347.00000</ele>
        <time>2010-01-01T01:41:56Z</time>
      </trkpt>
      <trkpt lat="41.44697500" lon="2.134804000">
        <ele>348.00000</ele>
        <time>2010-01-01T01:42:02Z</time>
      </trkpt>
      <trkpt lat="41.44703800" lon="2.134821000">
        <ele>347.00000</ele>
        <time>2010-01-01T01:42:04Z</time>
      </trkpt>
      <trkpt lat="41.44717400" lon="2.134841000">
        <ele>348.00000</ele>
        <time>2010-01-01T01:42:10Z</time>
      </trkpt>
      <trkpt lat="41.44727200" lon="2.134843000">
        <ele>348.00000</ele>
        <time>2010-01-01T01:42:14Z</time>
      </trkpt>
      <trkpt lat="41.44732500" lon="2.134833000">
        <ele>349.00000</ele>
        <time>2010-01-01T01:42:16Z</time>
      </trkpt>
      <trkpt lat="41.44738200" lon="2.134854000">
        <ele>349.00000</ele>
        <time>2010-01-01T01:42:18Z</time>
      </trkpt>
      <trkpt lat="41.44743600" lon="2.134914000">
        <ele>349.00000</ele>
        <time>2010-01-01T01:42:21Z</time>
      </trkpt>
      <trkpt lat="41.44746400" lon="2.134964000">
        <ele>349.00000</ele>
        <time>2010-01-01T01:42:23Z</time>
      </trkpt>
      <trkpt lat="41.44749200" lon="2.135058000">
        <ele>349.00000</ele>
        <time>2010-01-01T01:42:26Z</time>
      </trkpt>
      <trkpt lat="41.44747500" lon="2.135205000">
        <ele>348.00000</ele>
        <time>2010-01-01T01:42:30Z</time>
      </trkpt>
      <trkpt lat="41.44740100" lon="2.135583000">
        <ele>343.00000</ele>
        <time>2010-01-01T01:42:42Z</time>
      </trkpt>
      <trkpt lat="41.44735600" lon="2.135800000">
        <ele>341.00000</ele>
        <time>2010-01-01T01:42:49Z</time>
      </trkpt>
      <trkpt lat="41.44734400" lon="2.135900000">
        <ele>341.00000</ele>
        <time>2010-01-01T01:42:52Z</time>
      </trkpt>
      <trkpt lat="41.44735600" lon="2.136020000">
        <ele>342.00000</ele>
        <time>2010-01-01T01:42:55Z</time>
      </trkpt>
      <trkpt lat="41.44737400" lon="2.136060000">
        <ele>342.00000</ele>
        <time>2010-01-01T01:42:57Z</time>
      </trkpt>
      <trkpt lat="41.44739900" lon="2.136104000">
        <ele>343.00000</ele>
        <time>2010-01-01T01:42:58Z</time>
      </trkpt>
      <trkpt lat="41.44746900" lon="2.136194000">
        <ele>345.00000</ele>
        <time>2010-01-01T01:43:02Z</time>
      </trkpt>
      <trkpt lat="41.44758000" lon="2.136297000">
        <ele>347.00000</ele>
        <time>2010-01-01T01:43:08Z</time>
      </trkpt>
      <trkpt lat="41.44764700" lon="2.136297000">
        <ele>348.00000</ele>
        <time>2010-01-01T01:43:10Z</time>
      </trkpt>
      <trkpt lat="41.44771400" lon="2.136298000">
        <ele>349.00000</ele>
        <time>2010-01-01T01:43:13Z</time>
      </trkpt>
      <trkpt lat="41.44779200" lon="2.136295000">
        <ele>350.00000</ele>
        <time>2010-01-01T01:43:16Z</time>
      </trkpt>
      <trkpt lat="41.44785600" lon="2.136278000">
        <ele>349.00000</ele>
        <time>2010-01-01T01:43:19Z</time>
      </trkpt>
      <trkpt lat="41.44791800" lon="2.136271000">
        <ele>349.00000</ele>
        <time>2010-01-01T01:43:21Z</time>
      </trkpt>
      <trkpt lat="41.44797200" lon="2.136271000">
        <ele>348.00000</ele>
        <time>2010-01-01T01:43:24Z</time>
      </trkpt>
      <trkpt lat="41.44804500" lon="2.136289000">
        <ele>348.00000</ele>
        <time>2010-01-01T01:43:26Z</time>
      </trkpt>
      <trkpt lat="41.44810100" lon="2.136307000">
        <ele>347.00000</ele>
        <time>2010-01-01T01:43:29Z</time>
      </trkpt>
      <trkpt lat="41.44815800" lon="2.136339000">
        <ele>346.00000</ele>
        <time>2010-01-01T01:43:31Z</time>
      </trkpt>
      <trkpt lat="41.44819300" lon="2.136377000">
        <ele>345.00000</ele>
        <time>2010-01-01T01:43:33Z</time>
      </trkpt>
      <trkpt lat="41.44821100" lon="2.136415000">
        <ele>345.00000</ele>
        <time>2010-01-01T01:43:34Z</time>
      </trkpt>
      <trkpt lat="41.44821100" lon="2.136475000">
        <ele>345.00000</ele>
        <time>2010-01-01T01:43:36Z</time>
      </trkpt>
      <trkpt lat="41.44820200" lon="2.136508000">
        <ele>346.00000</ele>
        <time>2010-01-01T01:43:37Z</time>
      </trkpt>
      <trkpt lat="41.44818000" lon="2.136562000">
        <ele>347.00000</ele>
        <time>2010-01-01T01:43:39Z</time>
      </trkpt>
      <trkpt lat="41.44814300" lon="2.136641000">
        <ele>348.00000</ele>
        <time>2010-01-01T01:43:42Z</time>
      </trkpt>
      <trkpt lat="41.44810200" lon="2.136745000">
        <ele>350.00000</ele>
        <time>2010-01-01T01:43:45Z</time>
      </trkpt>
      <trkpt lat="41.44806400" lon="2.136854000">
        <ele>352.00000</ele>
        <time>2010-01-01T01:43:49Z</time>
      </trkpt>
      <trkpt lat="41.44803700" lon="2.136978000">
        <ele>353.00000</ele>
        <time>2010-01-01T01:43:53Z</time>
      </trkpt>
      <trkpt lat="41.44803100" lon="2.137081000">
        <ele>353.00000</ele>
        <time>2010-01-01T01:43:56Z</time>
      </trkpt>
      <trkpt lat="41.44803200" lon="2.137147000">
        <ele>353.00000</ele>
        <time>2010-01-01T01:43:58Z</time>
      </trkpt>
      <trkpt lat="41.44804700" lon="2.137192000">
        <ele>353.00000</ele>
        <time>2010-01-01T01:43:59Z</time>
      </trkpt>
      <trkpt lat="41.44807900" lon="2.137273000">
        <ele>353.00000</ele>
        <time>2010-01-01T01:44:02Z</time>
      </trkpt>
      <trkpt lat="41.44815000" lon="2.137401000">
        <ele>352.00000</ele>
        <time>2010-01-01T01:44:07Z</time>
      </trkpt>
      <trkpt lat="41.44824500" lon="2.137550000">
        <ele>352.00000</ele>
        <time>2010-01-01T01:44:13Z</time>
      </trkpt>
      <trkpt lat="41.44834100" lon="2.137715000">
        <ele>350.00000</ele>
        <time>2010-01-01T01:44:19Z</time>
      </trkpt>
      <trkpt lat="41.44837000" lon="2.137749000">
        <ele>349.00000</ele>
        <time>2010-01-01T01:44:21Z</time>
      </trkpt>
      <trkpt lat="41.44838600" lon="2.137795000">
        <ele>349.00000</ele>
        <time>2010-01-01T01:44:22Z</time>
      </trkpt>
      <trkpt lat="41.44839300" lon="2.137840000">
        <ele>348.00000</ele>
        <time>2010-01-01T01:44:24Z</time>
      </trkpt>
      <trkpt lat="41.44839500" lon="2.137884000">
        <ele>348.00000</ele>
        <time>2010-01-01T01:44:25Z</time>
      </trkpt>
      <trkpt lat="41.44839000" lon="2.137934000">
        <ele>348.00000</ele>
        <time>2010-01-01T01:44:26Z</time>
      </trkpt>
      <trkpt lat="41.44833700" lon="2.138028000">
        <ele>349.00000</ele>
        <time>2010-01-01T01:44:30Z</time>
      </trkpt>
      <trkpt lat="41.44826800" lon="2.138115000">
        <ele>348.00000</ele>
        <time>2010-01-01T01:44:34Z</time>
      </trkpt>
      <trkpt lat="41.44816700" lon="2.138204000">
        <ele>347.00000</ele>
        <time>2010-01-01T01:44:39Z</time>
      </trkpt>
      <trkpt lat="41.44809900" lon="2.138311000">
        <ele>346.00000</ele>
        <time>2010-01-01T01:44:43Z</time>
      </trkpt>
      <trkpt lat="41.44806800" lon="2.138397000">
        <ele>344.00000</ele>
        <time>2010-01-01T01:44:46Z</time>
      </trkpt>
      <trkpt lat="41.44802100" lon="2.138491000">
        <ele>343.00000</ele>
        <time>2010-01-01T01:44:49Z</time>
      </trkpt>
      <trkpt lat="41.44797100" lon="2.138609000">
        <ele>341.00000</ele>
        <time>2010-01-01T01:44:53Z</time>
      </trkpt>
      <trkpt lat="41.44793800" lon="2.138709000">
        <ele>340.00000</ele>
        <time>2010-01-01T01:44:56Z</time>
      </trkpt>
      <trkpt lat="41.44791400" lon="2.138817000">
        <ele>340.00000</ele>
        <time>2010-01-01T01:45:00Z</time>
      </trkpt>
      <trkpt lat="41.44789200" lon="2.138981000">
        <ele>338.00000</ele>
        <time>2010-01-01T01:45:05Z</time>
      </trkpt>
      <trkpt lat="41.44787700" lon="2.139072000">
        <ele>336.00000</ele>
        <time>2010-01-01T01:45:08Z</time>
      </trkpt>
      <trkpt lat="41.44785200" lon="2.139145000">
        <ele>335.00000</ele>
        <time>2010-01-01T01:45:10Z</time>
      </trkpt>
      <trkpt lat="41.44781100" lon="2.139226000">
        <ele>334.00000</ele>
        <time>2010-01-01T01:45:13Z</time>
      </trkpt>
      <trkpt lat="41.44773800" lon="2.139293000">
        <ele>333.00000</ele>
        <time>2010-01-01T01:45:16Z</time>
      </trkpt>
      <trkpt lat="41.44767300" lon="2.139364000">
        <ele>331.00000</ele>
        <time>2010-01-01T01:45:20Z</time>
      </trkpt>
      <trkpt lat="41.44761200" lon="2.139464000">
        <ele>329.00000</ele>
        <time>2010-01-01T01:45:24Z</time>
      </trkpt>
      <trkpt lat="41.44757600" lon="2.139583000">
        <ele>328.00000</ele>
        <time>2010-01-01T01:45:28Z</time>
      </trkpt>
      <trkpt lat="41.44754700" lon="2.139740000">
        <ele>326.00000</ele>
        <time>2010-01-01T01:45:32Z</time>
      </trkpt>
      <trkpt lat="41.44750200" lon="2.139986000">
        <ele>325.00000</ele>
        <time>2010-01-01T01:45:40Z</time>
      </trkpt>
      <trkpt lat="41.44748300" lon="2.140384000">
        <ele>322.00000</ele>
        <time>2010-01-01T01:45:52Z</time>
      </trkpt>
      <trkpt lat="41.44746300" lon="2.140576000">
        <ele>321.00000</ele>
        <time>2010-01-01T01:45:58Z</time>
      </trkpt>
      <trkpt lat="41.44741900" lon="2.140809000">
        <ele>320.00000</ele>
        <time>2010-01-01T01:46:05Z</time>
      </trkpt>
      <trkpt lat="41.44734300" lon="2.140981000">
        <ele>319.00000</ele>
        <time>2010-01-01T01:46:11Z</time>
      </trkpt>
      <trkpt lat="41.44724200" lon="2.141146000">
        <ele>318.00000</ele>
        <time>2010-01-01T01:46:17Z</time>
      </trkpt>
      <trkpt lat="41.44721300" lon="2.141256000">
        <ele>318.00000</ele>
        <time>2010-01-01T01:46:21Z</time>
      </trkpt>
      <trkpt lat="41.44716800" lon="2.141292000">
        <ele>317.00000</ele>
        <time>2010-01-01T01:46:23Z</time>
      </trkpt>
      <trkpt lat="41.44713300" lon="2.141349000">
        <ele>316.00000</ele>
        <time>2010-01-01T01:46:25Z</time>
      </trkpt>
      <trkpt lat="41.44711700" lon="2.141402000">
        <ele>316.00000</ele>
        <time>2010-01-01T01:46:27Z</time>
      </trkpt>
      <trkpt lat="41.44710800" lon="2.141497000">
        <ele>317.00000</ele>
        <time>2010-01-01T01:46:30Z</time>
      </trkpt>
      <trkpt lat="41.44709700" lon="2.141556000">
        <ele>318.00000</ele>
        <time>2010-01-01T01:46:32Z</time>
      </trkpt>
      <trkpt lat="41.44709600" lon="2.141728000">
        <ele>320.00000</ele>
        <time>2010-01-01T01:46:37Z</time>
      </trkpt>
      <trkpt lat="41.44714700" lon="2.141931000">
        <ele>323.00000</ele>
        <time>2010-01-01T01:46:43Z</time>
      </trkpt>
      <trkpt lat="41.44719500" lon="2.142115000">
        <ele>325.00000</ele>
        <time>2010-01-01T01:46:49Z</time>
      </trkpt>
      <trkpt lat="41.44724400" lon="2.142270000">
        <ele>325.00000</ele>
        <time>2010-01-01T01:46:54Z</time>
      </trkpt>
      <trkpt lat="41.44729500" lon="2.142401000">
        <ele>325.00000</ele>
        <time>2010-01-01T01:46:59Z</time>
      </trkpt>
      <trkpt lat="41.44732300" lon="2.142571000">
        <ele>325.00000</ele>
        <time>2010-01-01T01:47:04Z</time>
      </trkpt>
      <trkpt lat="41.44736500" lon="2.142737000">
        <ele>325.00000</ele>
        <time>2010-01-01T01:47:09Z</time>
      </trkpt>
      <trkpt lat="41.44738900" lon="2.142873000">
        <ele>325.00000</ele>
        <time>2010-01-01T01:47:13Z</time>
      </trkpt>
      <trkpt lat="41.44739700" lon="2.143004000">
        <ele>324.00000</ele>
        <time>2010-01-01T01:47:17Z</time>
      </trkpt>
      <trkpt lat="41.44738200" lon="2.143196000">
        <ele>323.00000</ele>
        <time>2010-01-01T01:47:23Z</time>
      </trkpt>
      <trkpt lat="41.44734200" lon="2.143495000">
        <ele>322.00000</ele>
        <time>2010-01-01T01:47:32Z</time>
      </trkpt>
      <trkpt lat="41.44730100" lon="2.143667000">
        <ele>320.00000</ele>
        <time>2010-01-01T01:47:37Z</time>
      </trkpt>
      <trkpt lat="41.44725100" lon="2.143814000">
        <ele>319.00000</ele>
        <time>2010-01-01T01:47:42Z</time>
      </trkpt>
      <trkpt lat="41.44719200" lon="2.143934000">
        <ele>316.00000</ele>
        <time>2010-01-01T01:47:47Z</time>
      </trkpt>
      <trkpt lat="41.44711500" lon="2.144049000">
        <ele>314.00000</ele>
        <time>2010-01-01T01:47:51Z</time>
      </trkpt>
      <trkpt lat="41.44706600" lon="2.144122000">
        <ele>312.00000</ele>
        <time>2010-01-01T01:47:54Z</time>
      </trkpt>
      <trkpt lat="41.44702000" lon="2.144177000">
        <ele>310.00000</ele>
        <time>2010-01-01T01:47:57Z</time>
      </trkpt>
      <trkpt lat="41.44696100" lon="2.144247000">
        <ele>308.00000</ele>
        <time>2010-01-01T01:48:00Z</time>
      </trkpt>
      <trkpt lat="41.44691500" lon="2.144331000">
        <ele>306.00000</ele>
        <time>2010-01-01T01:48:03Z</time>
      </trkpt>
      <trkpt lat="41.44689000" lon="2.144431000">
        <ele>306.00000</ele>
        <time>2010-01-01T01:48:06Z</time>
      </trkpt>
      <trkpt lat="41.44689000" lon="2.144517000">
        <ele>306.00000</ele>
        <time>2010-01-01T01:48:09Z</time>
      </trkpt>
      <trkpt lat="41.44689900" lon="2.144594000">
        <ele>307.00000</ele>
        <time>2010-01-01T01:48:11Z</time>
      </trkpt>
      <trkpt lat="41.44692400" lon="2.144662000">
        <ele>308.00000</ele>
        <time>2010-01-01T01:48:13Z</time>
      </trkpt>
      <trkpt lat="41.44695200" lon="2.144722000">
        <ele>310.00000</ele>
        <time>2010-01-01T01:48:15Z</time>
      </trkpt>
      <trkpt lat="41.44698500" lon="2.144763000">
        <ele>311.00000</ele>
        <time>2010-01-01T01:48:17Z</time>
      </trkpt>
      <trkpt lat="41.44702800" lon="2.144806000">
        <ele>312.00000</ele>
        <time>2010-01-01T01:48:19Z</time>
      </trkpt>
      <trkpt lat="41.44706400" lon="2.144855000">
        <ele>313.00000</ele>
        <time>2010-01-01T01:48:21Z</time>
      </trkpt>
      <trkpt lat="41.44710200" lon="2.144943000">
        <ele>313.00000</ele>
        <time>2010-01-01T01:48:24Z</time>
      </trkpt>
      <trkpt lat="41.44712200" lon="2.145031000">
        <ele>313.00000</ele>
        <time>2010-01-01T01:48:27Z</time>
      </trkpt>
      <trkpt lat="41.44712000" lon="2.145120000">
        <ele>312.00000</ele>
        <time>2010-01-01T01:48:30Z</time>
      </trkpt>
      <trkpt lat="41.44710000" lon="2.145205000">
        <ele>310.00000</ele>
        <time>2010-01-01T01:48:33Z</time>
      </trkpt>
      <trkpt lat="41.44707700" lon="2.145308000">
        <ele>308.00000</ele>
        <time>2010-01-01T01:48:36Z</time>
      </trkpt>
      <trkpt lat="41.44707100" lon="2.145412000">
        <ele>306.00000</ele>
        <time>2010-01-01T01:48:39Z</time>
      </trkpt>
      <trkpt lat="41.44708100" lon="2.145474000">
        <ele>306.00000</ele>
        <time>2010-01-01T01:48:41Z</time>
      </trkpt>
      <trkpt lat="41.44711500" lon="2.145595000">
        <ele>306.00000</ele>
        <time>2010-01-01T01:48:45Z</time>
      </trkpt>
      <trkpt lat="41.44718400" lon="2.145719000">
        <ele>307.00000</ele>
        <time>2010-01-01T01:48:49Z</time>
      </trkpt>
      <trkpt lat="41.44724500" lon="2.145862000">
        <ele>308.00000</ele>
        <time>2010-01-01T01:48:54Z</time>
      </trkpt>
      <trkpt lat="41.44735200" lon="2.146171000">
        <ele>305.00000</ele>
        <time>2010-01-01T01:49:04Z</time>
      </trkpt>
      <trkpt lat="41.44738800" lon="2.146327000">
        <ele>304.00000</ele>
        <time>2010-01-01T01:49:09Z</time>
      </trkpt>
      <trkpt lat="41.44741200" lon="2.146504000">
        <ele>303.00000</ele>
        <time>2010-01-01T01:49:15Z</time>
      </trkpt>
      <trkpt lat="41.44740400" lon="2.146667000">
        <ele>301.00000</ele>
        <time>2010-01-01T01:49:20Z</time>
      </trkpt>
      <trkpt lat="41.44737100" lon="2.146893000">
        <ele>297.00000</ele>
        <time>2010-01-01T01:49:27Z</time>
      </trkpt>
      <trkpt lat="41.44725200" lon="2.146990000">
        <ele>294.00000</ele>
        <time>2010-01-01T01:49:32Z</time>
      </trkpt>
      <trkpt lat="41.44717000" lon="2.147070000">
        <ele>293.00000</ele>
        <time>2010-01-01T01:49:36Z</time>
      </trkpt>
      <trkpt lat="41.44708800" lon="2.147190000">
        <ele>291.00000</ele>
        <time>2010-01-01T01:49:41Z</time>
      </trkpt>
      <trkpt lat="41.44697900" lon="2.147425000">
        <ele>292.00000</ele>
        <time>2010-01-01T01:49:49Z</time>
      </trkpt>
      <trkpt lat="41.44697000" lon="2.147510000">
        <ele>293.00000</ele>
        <time>2010-01-01T01:49:52Z</time>
      </trkpt>
      <trkpt lat="41.44695900" lon="2.147618000">
        <ele>295.00000</ele>
        <time>2010-01-01T01:49:55Z</time>
      </trkpt>
      <trkpt lat="41.44696400" lon="2.147723000">
        <ele>296.00000</ele>
        <time>2010-01-01T01:49:58Z</time>
      </trkpt>
      <trkpt lat="41.44699500" lon="2.147905000">
        <ele>298.00000</ele>
        <time>2010-01-01T01:50:04Z</time>
      </trkpt>
      <trkpt lat="41.44702600" lon="2.148106000">
        <ele>300.00000</ele>
        <time>2010-01-01T01:50:10Z</time>
      </trkpt>
      <trkpt lat="41.44705100" lon="2.148321000">
        <ele>300.00000</ele>
        <time>2010-01-01T01:50:17Z</time>
      </trkpt>
      <trkpt lat="41.44705700" lon="2.148639000">
        <ele>301.00000</ele>
        <time>2010-01-01T01:50:26Z</time>
      </trkpt>
      <trkpt lat="41.44705700" lon="2.148658000">
        <ele>301.00000</ele>
        <time>2010-01-01T01:50:27Z</time>
      </trkpt>
      <trkpt lat="41.44709500" lon="2.148799000">
        <ele>301.00000</ele>
        <time>2010-01-01T01:50:31Z</time>
      </trkpt>
      <trkpt lat="41.44715500" lon="2.148927000">
        <ele>300.00000</ele>
        <time>2010-01-01T01:50:36Z</time>
      </trkpt>
      <trkpt lat="41.44719000" lon="2.148985000">
        <ele>299.00000</ele>
        <time>2010-01-01T01:50:38Z</time>
      </trkpt>
      <trkpt lat="41.44722400" lon="2.149065000">
        <ele>298.00000</ele>
        <time>2010-01-01T01:50:41Z</time>
      </trkpt>
      <trkpt lat="41.44725000" lon="2.149160000">
        <ele>298.00000</ele>
        <time>2010-01-01T01:50:44Z</time>
      </trkpt>
      <trkpt lat="41.44726300" lon="2.149219000">
        <ele>298.00000</ele>
        <time>2010-01-01T01:50:46Z</time>
      </trkpt>
      <trkpt lat="41.44727400" lon="2.149306000">
        <ele>297.00000</ele>
        <time>2010-01-01T01:50:48Z</time>
      </trkpt>
      <trkpt lat="41.44726900" lon="2.149403000">
        <ele>296.00000</ele>
        <time>2010-01-01T01:50:51Z</time>
      </trkpt>
      <trkpt lat="41.44725200" lon="2.149519000">
        <ele>295.00000</ele>
        <time>2010-01-01T01:50:55Z</time>
      </trkpt>
      <trkpt lat="41.44723700" lon="2.149577000">
        <ele>295.00000</ele>
        <time>2010-01-01T01:50:57Z</time>
      </trkpt>
      <trkpt lat="41.44717600" lon="2.149889000">
        <ele>291.00000</ele>
        <time>2010-01-01T01:51:06Z</time>
      </trkpt>
      <trkpt lat="41.44713900" lon="2.150142000">
        <ele>291.00000</ele>
        <time>2010-01-01T01:51:14Z</time>
      </trkpt>
      <trkpt lat="41.44712900" lon="2.150227000">
        <ele>291.00000</ele>
        <time>2010-01-01T01:51:17Z</time>
      </trkpt>
      <trkpt lat="41.44711500" lon="2.150331000">
        <ele>291.00000</ele>
        <time>2010-01-01T01:51:20Z</time>
      </trkpt>
      <trkpt lat="41.44709800" lon="2.150528000">
        <ele>291.00000</ele>
        <time>2010-01-01T01:51:26Z</time>
      </trkpt>
      <trkpt lat="41.44706600" lon="2.150808000">
        <ele>288.00000</ele>
        <time>2010-01-01T01:51:34Z</time>
      </trkpt>
      <trkpt lat="41.44705700" lon="2.151046000">
        <ele>283.00000</ele>
        <time>2010-01-01T01:51:41Z</time>
      </trkpt>
      <trkpt lat="41.44705400" lon="2.151289000">
        <ele>281.00000</ele>
        <time>2010-01-01T01:51:49Z</time>
      </trkpt>
      <trkpt lat="41.44705700" lon="2.151384000">
        <ele>281.00000</ele>
        <time>2010-01-01T01:51:52Z</time>
      </trkpt>
      <trkpt lat="41.44706200" lon="2.151497000">
        <ele>281.00000</ele>
        <time>2010-01-01T01:51:55Z</time>
      </trkpt>
      <trkpt lat="41.44707400" lon="2.151671000">
        <ele>281.00000</ele>
        <time>2010-01-01T01:52:00Z</time>
      </trkpt>
      <trkpt lat="41.44709300" lon="2.151868000">
        <ele>280.00000</ele>
        <time>2010-01-01T01:52:06Z</time>
      </trkpt>
      <trkpt lat="41.44711600" lon="2.151958000">
        <ele>280.00000</ele>
        <time>2010-01-01T01:52:09Z</time>
      </trkpt>
      <trkpt lat="41.44713100" lon="2.152040000">
        <ele>279.00000</ele>
        <time>2010-01-01T01:52:12Z</time>
      </trkpt>
      <trkpt lat="41.44718400" lon="2.152244000">
        <ele>277.00000</ele>
        <time>2010-01-01T01:52:18Z</time>
      </trkpt>
      <trkpt lat="41.44719600" lon="2.152289000">
        <ele>277.00000</ele>
        <time>2010-01-01T01:52:19Z</time>
      </trkpt>
      <trkpt lat="41.44728300" lon="2.152565000">
        <ele>275.00000</ele>
        <time>2010-01-01T01:52:28Z</time>
      </trkpt>
      <trkpt lat="41.44738600" lon="2.152813000">
        <ele>275.00000</ele>
        <time>2010-01-01T01:52:37Z</time>
      </trkpt>
      <trkpt lat="41.44744600" lon="2.153045000">
        <ele>275.00000</ele>
        <time>2010-01-01T01:52:44Z</time>
      </trkpt>
      <trkpt lat="41.44750100" lon="2.153299000">
        <ele>274.00000</ele>
        <time>2010-01-01T01:52:52Z</time>
      </trkpt>
      <trkpt lat="41.44750300" lon="2.153595000">
        <ele>272.00000</ele>
        <time>2010-01-01T01:53:01Z</time>
      </trkpt>
      <trkpt lat="41.44751200" lon="2.153712000">
        <ele>270.00000</ele>
        <time>2010-01-01T01:53:05Z</time>
      </trkpt>
      <trkpt lat="41.44754600" lon="2.153746000">
        <ele>270.00000</ele>
        <time>2010-01-01T01:53:06Z</time>
      </trkpt>
      <trkpt lat="41.44765800" lon="2.153737000">
        <ele>271.00000</ele>
        <time>2010-01-01T01:53:11Z</time>
      </trkpt>
      <trkpt lat="41.44780900" lon="2.153704000">
        <ele>273.00000</ele>
        <time>2010-01-01T01:53:17Z</time>
      </trkpt>
      <trkpt lat="41.44794000" lon="2.153703000">
        <ele>272.00000</ele>
        <time>2010-01-01T01:53:22Z</time>
      </trkpt>
      <trkpt lat="41.44819100" lon="2.153698000">
        <ele>271.00000</ele>
        <time>2010-01-01T01:53:32Z</time>
      </trkpt>
      <trkpt lat="41.44842800" lon="2.153660000">
        <ele>273.00000</ele>
        <time>2010-01-01T01:53:42Z</time>
      </trkpt>
      <trkpt lat="41.44850400" lon="2.153659000">
        <ele>274.00000</ele>
        <time>2010-01-01T01:53:45Z</time>
      </trkpt>
      <trkpt lat="41.44854800" lon="2.153669000">
        <ele>274.00000</ele>
        <time>2010-01-01T01:53:47Z</time>
      </trkpt>
      <trkpt lat="41.44859200" lon="2.153693000">
        <ele>274.00000</ele>
        <time>2010-01-01T01:53:49Z</time>
      </trkpt>
      <trkpt lat="41.44864300" lon="2.153740000">
        <ele>273.00000</ele>
        <time>2010-01-01T01:53:51Z</time>
      </trkpt>
      <trkpt lat="41.44868700" lon="2.153802000">
        <ele>273.00000</ele>
        <time>2010-01-01T01:53:54Z</time>
      </trkpt>
      <trkpt lat="41.44875500" lon="2.153906000">
        <ele>271.00000</ele>
        <time>2010-01-01T01:53:58Z</time>
      </trkpt>
      <trkpt lat="41.44886600" lon="2.154084000">
        <ele>269.00000</ele>
        <time>2010-01-01T01:54:05Z</time>
      </trkpt>
      <trkpt lat="41.44890600" lon="2.154141000">
        <ele>269.00000</ele>
        <time>2010-01-01T01:54:07Z</time>
      </trkpt>
      <trkpt lat="41.44910100" lon="2.154419000">
        <ele>268.00000</ele>
        <time>2010-01-01T01:54:18Z</time>
      </trkpt>
      <trkpt lat="41.44913200" lon="2.154503000">
        <ele>268.00000</ele>
        <time>2010-01-01T01:54:21Z</time>
      </trkpt>
      <trkpt lat="41.44914100" lon="2.154563000">
        <ele>267.00000</ele>
        <time>2010-01-01T01:54:23Z</time>
      </trkpt>
      <trkpt lat="41.44911500" lon="2.154808000">
        <ele>265.00000</ele>
        <time>2010-01-01T01:54:31Z</time>
      </trkpt>
      <trkpt lat="41.44912300" lon="2.154923000">
        <ele>265.00000</ele>
        <time>2010-01-01T01:54:34Z</time>
      </trkpt>
      <trkpt lat="41.44915200" lon="2.155056000">
        <ele>266.00000</ele>
        <time>2010-01-01T01:54:38Z</time>
      </trkpt>
      <trkpt lat="41.44920100" lon="2.155182000">
        <ele>267.00000</ele>
        <time>2010-01-01T01:54:42Z</time>
      </trkpt>
      <trkpt lat="41.44940800" lon="2.155528000">
        <ele>272.00000</ele>
        <time>2010-01-01T01:54:56Z</time>
      </trkpt>
      <trkpt lat="41.44956300" lon="2.155852000">
        <ele>270.00000</ele>
        <time>2010-01-01T01:55:07Z</time>
      </trkpt>
      <trkpt lat="41.44964500" lon="2.156077000">
        <ele>268.00000</ele>
        <time>2010-01-01T01:55:15Z</time>
      </trkpt>
      <trkpt lat="41.44973400" lon="2.156326000">
        <ele>269.00000</ele>
        <time>2010-01-01T01:55:23Z</time>
      </trkpt>
      <trkpt lat="41.44981000" lon="2.156447000">
        <ele>270.00000</ele>
        <time>2010-01-01T01:55:28Z</time>
      </trkpt>
      <trkpt lat="41.44984000" lon="2.156571000">
        <ele>270.00000</ele>
        <time>2010-01-01T01:55:32Z</time>
      </trkpt>
      <trkpt lat="41.44986600" lon="2.156861000">
        <ele>270.00000</ele>
        <time>2010-01-01T01:55:40Z</time>
      </trkpt>
      <trkpt lat="41.44992600" lon="2.157160000">
        <ele>269.00000</ele>
        <time>2010-01-01T01:55:50Z</time>
      </trkpt>
      <trkpt lat="41.44993400" lon="2.157385000">
        <ele>267.00000</ele>
        <time>2010-01-01T01:55:56Z</time>
      </trkpt>
      <trkpt lat="41.44993500" lon="2.157495000">
        <ele>266.00000</ele>
        <time>2010-01-01T01:56:00Z</time>
      </trkpt>
      <trkpt lat="41.44994600" lon="2.157562000">
        <ele>265.00000</ele>
        <time>2010-01-01T01:56:02Z</time>
      </trkpt>
      <trkpt lat="41.44996700" lon="2.157627000">
        <ele>265.00000</ele>
        <time>2010-01-01T01:56:04Z</time>
      </trkpt>
      <trkpt lat="41.45001200" lon="2.157722000">
        <ele>264.00000</ele>
        <time>2010-01-01T01:56:07Z</time>
      </trkpt>
      <trkpt lat="41.45009600" lon="2.157869000">
        <ele>260.00000</ele>
        <time>2010-01-01T01:56:13Z</time>
      </trkpt>
      <trkpt lat="41.45025200" lon="2.158111000">
        <ele>255.00000</ele>
        <time>2010-01-01T01:56:22Z</time>
      </trkpt>
      <trkpt lat="41.45032000" lon="2.158240000">
        <ele>254.00000</ele>
        <time>2010-01-01T01:56:27Z</time>
      </trkpt>
      <trkpt lat="41.45034600" lon="2.158320000">
        <ele>254.00000</ele>
        <time>2010-01-01T01:56:30Z</time>
      </trkpt>
      <trkpt lat="41.45035200" lon="2.158398000">
        <ele>254.00000</ele>
        <time>2010-01-01T01:56:32Z</time>
      </trkpt>
      <trkpt lat="41.45034200" lon="2.158555000">
        <ele>256.00000</ele>
        <time>2010-01-01T01:56:37Z</time>
      </trkpt>
      <trkpt lat="41.45034100" lon="2.158629000">
        <ele>256.00000</ele>
        <time>2010-01-01T01:56:39Z</time>
      </trkpt>
      <trkpt lat="41.45036000" lon="2.158685000">
        <ele>256.00000</ele>
        <time>2010-01-01T01:56:41Z</time>
      </trkpt>
      <trkpt lat="41.45039000" lon="2.158729000">
        <ele>255.00000</ele>
        <time>2010-01-01T01:56:43Z</time>
      </trkpt>
      <trkpt lat="41.45046000" lon="2.158772000">
        <ele>253.00000</ele>
        <time>2010-01-01T01:56:46Z</time>
      </trkpt>
      <trkpt lat="41.45050600" lon="2.158818000">
        <ele>251.00000</ele>
        <time>2010-01-01T01:56:48Z</time>
      </trkpt>
      <trkpt lat="41.45052500" lon="2.158844000">
        <ele>251.00000</ele>
        <time>2010-01-01T01:56:49Z</time>
      </trkpt>
      <trkpt lat="41.45074500" lon="2.159136000">
        <ele>250.00000</ele>
        <time>2010-01-01T01:57:02Z</time>
      </trkpt>
      <trkpt lat="41.45076000" lon="2.159222000">
        <ele>252.00000</ele>
        <time>2010-01-01T01:57:04Z</time>
      </trkpt>
      <trkpt lat="41.45077400" lon="2.159347000">
        <ele>253.00000</ele>
        <time>2010-01-01T01:57:08Z</time>
      </trkpt>
      <trkpt lat="41.45083300" lon="2.159553000">
        <ele>256.00000</ele>
        <time>2010-01-01T01:57:15Z</time>
      </trkpt>
      <trkpt lat="41.45084500" lon="2.159632000">
        <ele>256.00000</ele>
        <time>2010-01-01T01:57:17Z</time>
      </trkpt>
      <trkpt lat="41.45082500" lon="2.159812000">
        <ele>258.00000</ele>
        <time>2010-01-01T01:57:23Z</time>
      </trkpt>
      <trkpt lat="41.45079800" lon="2.159912000">
        <ele>259.00000</ele>
        <time>2010-01-01T01:57:26Z</time>
      </trkpt>
      <trkpt lat="41.45076200" lon="2.160117000">
        <ele>261.00000</ele>
        <time>2010-01-01T01:57:32Z</time>
      </trkpt>
      <trkpt lat="41.45076400" lon="2.160173000">
        <ele>261.00000</ele>
        <time>2010-01-01T01:57:34Z</time>
      </trkpt>
      <trkpt lat="41.45077500" lon="2.160226000">
        <ele>261.00000</ele>
        <time>2010-01-01T01:57:35Z</time>
      </trkpt>
      <trkpt lat="41.45085500" lon="2.160370000">
        <ele>259.00000</ele>
        <time>2010-01-01T01:57:41Z</time>
      </trkpt>
      <trkpt lat="41.45095600" lon="2.160489000">
        <ele>256.00000</ele>
        <time>2010-01-01T01:57:46Z</time>
      </trkpt>
      <trkpt lat="41.45099300" lon="2.160545000">
        <ele>254.00000</ele>
        <time>2010-01-01T01:57:48Z</time>
      </trkpt>
      <trkpt lat="41.45101600" lon="2.160629000">
        <ele>254.00000</ele>
        <time>2010-01-01T01:57:51Z</time>
      </trkpt>
      <trkpt lat="41.45102000" lon="2.160691000">
        <ele>253.00000</ele>
        <time>2010-01-01T01:57:53Z</time>
      </trkpt>
      <trkpt lat="41.45100700" lon="2.160760000">
        <ele>254.00000</ele>
        <time>2010-01-01T01:57:55Z</time>
      </trkpt>
      <trkpt lat="41.45099200" lon="2.160806000">
        <ele>254.00000</ele>
        <time>2010-01-01T01:57:57Z</time>
      </trkpt>
      <trkpt lat="41.45089200" lon="2.160995000">
        <ele>259.00000</ele>
        <time>2010-01-01T01:58:04Z</time>
      </trkpt>
      <trkpt lat="41.45077800" lon="2.161339000">
        <ele>263.00000</ele>
        <time>2010-01-01T01:58:15Z</time>
      </trkpt>
      <trkpt lat="41.45075200" lon="2.161433000">
        <ele>263.00000</ele>
        <time>2010-01-01T01:58:18Z</time>
      </trkpt>
      <trkpt lat="41.45074500" lon="2.161656000">
        <ele>260.00000</ele>
        <time>2010-01-01T01:58:25Z</time>
      </trkpt>
      <trkpt lat="41.45073500" lon="2.161734000">
        <ele>260.00000</ele>
        <time>2010-01-01T01:58:27Z</time>
      </trkpt>
      <trkpt lat="41.45070400" lon="2.161835000">
        <ele>261.00000</ele>
        <time>2010-01-01T01:58:30Z</time>
      </trkpt>
      <trkpt lat="41.45067000" lon="2.161915000">
        <ele>262.00000</ele>
        <time>2010-01-01T01:58:33Z</time>
      </trkpt>
      <trkpt lat="41.45065100" lon="2.161993000">
        <ele>263.00000</ele>
        <time>2010-01-01T01:58:35Z</time>
      </trkpt>
      <trkpt lat="41.45064200" lon="2.162083000">
        <ele>263.00000</ele>
        <time>2010-01-01T01:58:38Z</time>
      </trkpt>
      <trkpt lat="41.45065000" lon="2.162216000">
        <ele>264.00000</ele>
        <time>2010-01-01T01:58:42Z</time>
      </trkpt>
      <trkpt lat="41.45067200" lon="2.162344000">
        <ele>265.00000</ele>
        <time>2010-01-01T01:58:46Z</time>
      </trkpt>
      <trkpt lat="41.45070500" lon="2.162474000">
        <ele>264.00000</ele>
        <time>2010-01-01T01:58:50Z</time>
      </trkpt>
      <trkpt lat="41.45074000" lon="2.162608000">
        <ele>265.00000</ele>
        <time>2010-01-01T01:58:54Z</time>
      </trkpt>
      <trkpt lat="41.45078500" lon="2.162694000">
        <ele>266.00000</ele>
        <time>2010-01-01T01:58:58Z</time>
      </trkpt>
      <trkpt lat="41.45084100" lon="2.162747000">
        <ele>265.00000</ele>
        <time>2010-01-01T01:59:00Z</time>
      </trkpt>
      <trkpt lat="41.45088500" lon="2.162802000">
        <ele>264.00000</ele>
        <time>2010-01-01T01:59:03Z</time>
      </trkpt>
      <trkpt lat="41.45092200" lon="2.162871000">
        <ele>263.00000</ele>
        <time>2010-01-01T01:59:05Z</time>
      </trkpt>
      <trkpt lat="41.45098000" lon="2.162986000">
        <ele>262.00000</ele>
        <time>2010-01-01T01:59:09Z</time>
      </trkpt>
      <trkpt lat="41.45101700" lon="2.163034000">
        <ele>261.00000</ele>
        <time>2010-01-01T01:59:11Z</time>
      </trkpt>
      <trkpt lat="41.45106700" lon="2.163079000">
        <ele>260.00000</ele>
        <time>2010-01-01T01:59:14Z</time>
      </trkpt>
      <trkpt lat="41.45111500" lon="2.163083000">
        <ele>258.00000</ele>
        <time>2010-01-01T01:59:16Z</time>
      </trkpt>
      <trkpt lat="41.45119500" lon="2.163077000">
        <ele>255.00000</ele>
        <time>2010-01-01T01:59:19Z</time>
      </trkpt>
      <trkpt lat="41.45126100" lon="2.163083000">
        <ele>253.00000</ele>
        <time>2010-01-01T01:59:22Z</time>
      </trkpt>
      <trkpt lat="41.45131200" lon="2.163105000">
        <ele>251.00000</ele>
        <time>2010-01-01T01:59:24Z</time>
      </trkpt>
      <trkpt lat="41.45134100" lon="2.163151000">
        <ele>251.00000</ele>
        <time>2010-01-01T01:59:26Z</time>
      </trkpt>
      <trkpt lat="41.45137100" lon="2.163206000">
        <ele>251.00000</ele>
        <time>2010-01-01T01:59:28Z</time>
      </trkpt>
      <trkpt lat="41.45140700" lon="2.163295000">
        <ele>250.00000</ele>
        <time>2010-01-01T01:59:31Z</time>
      </trkpt>
      <trkpt lat="41.45144500" lon="2.163429000">
        <ele>251.00000</ele>
        <time>2010-01-01T01:59:35Z</time>
      </trkpt>
      <trkpt lat="41.45147700" lon="2.163584000">
        <ele>252.00000</ele>
        <time>2010-01-01T01:59:40Z</time>
      </trkpt>
      <trkpt lat="41.45150500" lon="2.163665000">
        <ele>253.00000</ele>
        <time>2010-01-01T01:59:43Z</time>
      </trkpt>
      <trkpt lat="41.45153400" lon="2.163724000">
        <ele>253.00000</ele>
        <time>2010-01-01T01:59:45Z</time>
      </trkpt>
      <trkpt lat="41.45157600" lon="2.163781000">
        <ele>253.00000</ele>
        <time>2010-01-01T01:59:47Z</time>
      </trkpt>
      <trkpt lat="41.45162300" lon="2.163837000">
        <ele>253.00000</ele>
        <time>2010-01-01T01:59:50Z</time>
      </trkpt>
      <trkpt lat="41.45166800" lon="2.163915000">
        <ele>253.00000</ele>
        <time>2010-01-01T01:59:53Z</time>
      </trkpt>
      <trkpt lat="41.45170800" lon="2.163989000">
        <ele>256.00000</ele>
        <time>2010-01-01T01:59:55Z</time>
      </trkpt>
      <trkpt lat="41.45180600" lon="2.164177000">
        <ele>261.00000</ele>
        <time>2010-01-01T02:00:02Z</time>
      </trkpt>
      <trkpt lat="41.45185800" lon="2.164261000">
        <ele>264.00000</ele>
        <time>2010-01-01T02:00:05Z</time>
      </trkpt>
      <trkpt lat="41.45186900" lon="2.164273000">
        <ele>265.00000</ele>
        <time>2010-01-01T02:00:06Z</time>
      </trkpt>
      <trkpt lat="41.45189400" lon="2.164289000">
        <ele>265.00000</ele>
        <time>2010-01-01T02:00:07Z</time>
      </trkpt>
      <trkpt lat="41.45193800" lon="2.164299000">
        <ele>265.00000</ele>
        <time>2010-01-01T02:00:09Z</time>
      </trkpt>
      <trkpt lat="41.45197200" lon="2.164297000">
        <ele>265.00000</ele>
        <time>2010-01-01T02:00:10Z</time>
      </trkpt>
      <trkpt lat="41.45203300" lon="2.164287000">
        <ele>266.00000</ele>
        <time>2010-01-01T02:00:13Z</time>
      </trkpt>
      <trkpt lat="41.45211400" lon="2.164267000">
        <ele>266.00000</ele>
        <time>2010-01-01T02:00:16Z</time>
      </trkpt>
      <trkpt lat="41.45215100" lon="2.164230000">
        <ele>265.00000</ele>
        <time>2010-01-01T02:00:18Z</time>
      </trkpt>
      <trkpt lat="41.45218600" lon="2.164178000">
        <ele>263.00000</ele>
        <time>2010-01-01T02:00:20Z</time>
      </trkpt>
      <trkpt lat="41.45225900" lon="2.163960000">
        <ele>256.00000</ele>
        <time>2010-01-01T02:00:27Z</time>
      </trkpt>
      <trkpt lat="41.45231000" lon="2.163891000">
        <ele>255.00000</ele>
        <time>2010-01-01T02:00:30Z</time>
      </trkpt>
      <trkpt lat="41.45235300" lon="2.163863000">
        <ele>256.00000</ele>
        <time>2010-01-01T02:00:32Z</time>
      </trkpt>
      <trkpt lat="41.45239700" lon="2.163853000">
        <ele>257.00000</ele>
        <time>2010-01-01T02:00:34Z</time>
      </trkpt>
      <trkpt lat="41.45244900" lon="2.163866000">
        <ele>259.00000</ele>
        <time>2010-01-01T02:00:36Z</time>
      </trkpt>
      <trkpt lat="41.45253400" lon="2.163917000">
        <ele>262.00000</ele>
        <time>2010-01-01T02:00:40Z</time>
      </trkpt>
      <trkpt lat="41.45260800" lon="2.163967000">
        <ele>264.00000</ele>
        <time>2010-01-01T02:00:43Z</time>
      </trkpt>
      <trkpt lat="41.45266200" lon="2.163985000">
        <ele>264.00000</ele>
        <time>2010-01-01T02:00:45Z</time>
      </trkpt>
      <trkpt lat="41.45270600" lon="2.163985000">
        <ele>264.00000</ele>
        <time>2010-01-01T02:00:47Z</time>
      </trkpt>
      <trkpt lat="41.45274800" lon="2.163966000">
        <ele>263.00000</ele>
        <time>2010-01-01T02:00:49Z</time>
      </trkpt>
      <trkpt lat="41.45279600" lon="2.163928000">
        <ele>262.00000</ele>
        <time>2010-01-01T02:00:51Z</time>
      </trkpt>
      <trkpt lat="41.45284400" lon="2.163888000">
        <ele>261.00000</ele>
        <time>2010-01-01T02:00:53Z</time>
      </trkpt>
      <trkpt lat="41.45288500" lon="2.163872000">
        <ele>260.00000</ele>
        <time>2010-01-01T02:00:55Z</time>
      </trkpt>
      <trkpt lat="41.45293600" lon="2.163865000">
        <ele>259.00000</ele>
        <time>2010-01-01T02:00:57Z</time>
      </trkpt>
      <trkpt lat="41.45298200" lon="2.163904000">
        <ele>259.00000</ele>
        <time>2010-01-01T02:00:59Z</time>
      </trkpt>
      <trkpt lat="41.45301800" lon="2.163956000">
        <ele>259.00000</ele>
        <time>2010-01-01T02:01:01Z</time>
      </trkpt>
      <trkpt lat="41.45308700" lon="2.164124000">
        <ele>260.00000</ele>
        <time>2010-01-01T02:01:07Z</time>
      </trkpt>
      <trkpt lat="41.45314600" lon="2.164271000">
        <ele>260.00000</ele>
        <time>2010-01-01T02:01:12Z</time>
      </trkpt>
      <trkpt lat="41.45318600" lon="2.164381000">
        <ele>260.00000</ele>
        <time>2010-01-01T02:01:16Z</time>
      </trkpt>
      <trkpt lat="41.45322200" lon="2.164490000">
        <ele>260.00000</ele>
        <time>2010-01-01T02:01:19Z</time>
      </trkpt>
      <trkpt lat="41.45327400" lon="2.164590000">
        <ele>259.00000</ele>
        <time>2010-01-01T02:01:23Z</time>
      </trkpt>
      <trkpt lat="41.45332400" lon="2.164659000">
        <ele>259.00000</ele>
        <time>2010-01-01T02:01:26Z</time>
      </trkpt>
      <trkpt lat="41.45336300" lon="2.164691000">
        <ele>259.00000</ele>
        <time>2010-01-01T02:01:28Z</time>
      </trkpt>
      <trkpt lat="41.45341400" lon="2.164726000">
        <ele>259.00000</ele>
        <time>2010-01-01T02:01:30Z</time>
      </trkpt>
      <trkpt lat="41.45348000" lon="2.164764000">
        <ele>259.00000</ele>
        <time>2010-01-01T02:01:33Z</time>
      </trkpt>
      <trkpt lat="41.45353000" lon="2.164767000">
        <ele>260.00000</ele>
        <time>2010-01-01T02:01:35Z</time>
      </trkpt>
      <trkpt lat="41.45357200" lon="2.164769000">
        <ele>260.00000</ele>
        <time>2010-01-01T02:01:36Z</time>
      </trkpt>
      <trkpt lat="41.45360600" lon="2.164726000">
        <ele>260.00000</ele>
        <time>2010-01-01T02:01:38Z</time>
      </trkpt>
      <trkpt lat="41.45363300" lon="2.164610000">
        <ele>260.00000</ele>
        <time>2010-01-01T02:01:42Z</time>
      </trkpt>
      <trkpt lat="41.45365800" lon="2.164535000">
        <ele>259.00000</ele>
        <time>2010-01-01T02:01:44Z</time>
      </trkpt>
      <trkpt lat="41.45370700" lon="2.164461000">
        <ele>259.00000</ele>
        <time>2010-01-01T02:01:47Z</time>
      </trkpt>
      <trkpt lat="41.45375200" lon="2.164421000">
        <ele>258.00000</ele>
        <time>2010-01-01T02:01:50Z</time>
      </trkpt>
      <trkpt lat="41.45380400" lon="2.164389000">
        <ele>258.00000</ele>
        <time>2010-01-01T02:01:52Z</time>
      </trkpt>
      <trkpt lat="41.45385800" lon="2.164373000">
        <ele>258.00000</ele>
        <time>2010-01-01T02:01:54Z</time>
      </trkpt>
      <trkpt lat="41.45390200" lon="2.164370000">
        <ele>257.00000</ele>
        <time>2010-01-01T02:01:56Z</time>
      </trkpt>
      <trkpt lat="41.45393900" lon="2.164381000">
        <ele>257.00000</ele>
        <time>2010-01-01T02:01:57Z</time>
      </trkpt>
      <trkpt lat="41.45398100" lon="2.164408000">
        <ele>258.00000</ele>
        <time>2010-01-01T02:01:59Z</time>
      </trkpt>
      <trkpt lat="41.45407800" lon="2.164502000">
        <ele>258.00000</ele>
        <time>2010-01-01T02:02:04Z</time>
      </trkpt>
      <trkpt lat="41.45414100" lon="2.164547000">
        <ele>259.00000</ele>
        <time>2010-01-01T02:02:07Z</time>
      </trkpt>
      <trkpt lat="41.45424000" lon="2.164612000">
        <ele>259.00000</ele>
        <time>2010-01-01T02:02:11Z</time>
      </trkpt>
      <trkpt lat="41.45429400" lon="2.164641000">
        <ele>259.00000</ele>
        <time>2010-01-01T02:02:14Z</time>
      </trkpt>
      <trkpt lat="41.45436400" lon="2.164665000">
        <ele>259.00000</ele>
        <time>2010-01-01T02:02:16Z</time>
      </trkpt>
      <trkpt lat="41.45444700" lon="2.164676000">
        <ele>258.00000</ele>
        <time>2010-01-01T02:02:20Z</time>
      </trkpt>
      <trkpt lat="41.45452300" lon="2.164678000">
        <ele>259.00000</ele>
        <time>2010-01-01T02:02:23Z</time>
      </trkpt>
      <trkpt lat="41.45459300" lon="2.164681000">
        <ele>259.00000</ele>
        <time>2010-01-01T02:02:26Z</time>
      </trkpt>
      <trkpt lat="41.45461360" lon="2.164690100">
        <ele>259.00000</ele>
        <time>2010-01-01T02:02:27Z</time>
      </trkpt>
      <trkpt lat="41.45463600" lon="2.164700000">
        <ele>259.00000</ele>
        <time>2010-01-01T02:02:27Z</time>
      </trkpt>
      <trkpt lat="41.45468400" lon="2.164743000">
        <ele>259.00000</ele>
        <time>2010-01-01T02:02:30Z</time>
      </trkpt>
      <trkpt lat="41.45471200" lon="2.164790000">
        <ele>259.00000</ele>
        <time>2010-01-01T02:02:32Z</time>
      </trkpt>
      <trkpt lat="41.45473400" lon="2.164844000">
        <ele>259.00000</ele>
        <time>2010-01-01T02:02:33Z</time>
      </trkpt>
      <trkpt lat="41.45474600" lon="2.164912000">
        <ele>259.00000</ele>
        <time>2010-01-01T02:02:36Z</time>
      </trkpt>
      <trkpt lat="41.45473700" lon="2.164995000">
        <ele>258.00000</ele>
        <time>2010-01-01T02:02:38Z</time>
      </trkpt>
      <trkpt lat="41.45470900" lon="2.165060000">
        <ele>258.00000</ele>
        <time>2010-01-01T02:02:40Z</time>
      </trkpt>
      <trkpt lat="41.45466700" lon="2.165119000">
        <ele>257.00000</ele>
        <time>2010-01-01T02:02:43Z</time>
      </trkpt>
      <trkpt lat="41.45459900" lon="2.165158000">
        <ele>257.00000</ele>
        <time>2010-01-01T02:02:46Z</time>
      </trkpt>
      <trkpt lat="41.45453800" lon="2.165170000">
        <ele>257.00000</ele>
        <time>2010-01-01T02:02:48Z</time>
      </trkpt>
      <trkpt lat="41.45437500" lon="2.165182000">
        <ele>257.00000</ele>
        <time>2010-01-01T02:02:55Z</time>
      </trkpt>
      <trkpt lat="41.45425900" lon="2.165189000">
        <ele>259.00000</ele>
        <time>2010-01-01T02:02:59Z</time>
      </trkpt>
      <trkpt lat="41.45417300" lon="2.165201000">
        <ele>260.00000</ele>
        <time>2010-01-01T02:03:03Z</time>
      </trkpt>
      <trkpt lat="41.45410600" lon="2.165194000">
        <ele>259.00000</ele>
        <time>2010-01-01T02:03:05Z</time>
      </trkpt>
      <trkpt lat="41.45404700" lon="2.165187000">
        <ele>259.00000</ele>
        <time>2010-01-01T02:03:08Z</time>
      </trkpt>
      <trkpt lat="41.45398700" lon="2.165159000">
        <ele>259.00000</ele>
        <time>2010-01-01T02:03:10Z</time>
      </trkpt>
      <trkpt lat="41.45390400" lon="2.165115000">
        <ele>259.00000</ele>
        <time>2010-01-01T02:03:14Z</time>
      </trkpt>
      <trkpt lat="41.45380300" lon="2.165066000">
        <ele>259.00000</ele>
        <time>2010-01-01T02:03:18Z</time>
      </trkpt>
      <trkpt lat="41.45376100" lon="2.165045000">
        <ele>259.00000</ele>
        <time>2010-01-01T02:03:20Z</time>
      </trkpt>
      <trkpt lat="41.45371600" lon="2.165051000">
        <ele>258.00000</ele>
        <time>2010-01-01T02:03:22Z</time>
      </trkpt>
      <trkpt lat="41.45366900" lon="2.165074000">
        <ele>257.00000</ele>
        <time>2010-01-01T02:03:24Z</time>
      </trkpt>
      <trkpt lat="41.45361100" lon="2.165129000">
        <ele>256.00000</ele>
        <time>2010-01-01T02:03:27Z</time>
      </trkpt>
      <trkpt lat="41.45356200" lon="2.165210000">
        <ele>256.00000</ele>
        <time>2010-01-01T02:03:30Z</time>
      </trkpt>
      <trkpt lat="41.45352400" lon="2.165293000">
        <ele>256.00000</ele>
        <time>2010-01-01T02:03:33Z</time>
      </trkpt>
      <trkpt lat="41.45351500" lon="2.165319000">
        <ele>256.00000</ele>
        <time>2010-01-01T02:03:34Z</time>
      </trkpt>
      <trkpt lat="41.45350300" lon="2.165409000">
        <ele>254.00000</ele>
        <time>2010-01-01T02:03:36Z</time>
      </trkpt>
      <trkpt lat="41.45347600" lon="2.165534000">
        <ele>253.00000</ele>
        <time>2010-01-01T02:03:40Z</time>
      </trkpt>
      <trkpt lat="41.45344100" lon="2.165641000">
        <ele>252.00000</ele>
        <time>2010-01-01T02:03:44Z</time>
      </trkpt>
      <trkpt lat="41.45337700" lon="2.165767000">
        <ele>251.00000</ele>
        <time>2010-01-01T02:03:48Z</time>
      </trkpt>
      <trkpt lat="41.45330000" lon="2.165880000">
        <ele>251.00000</ele>
        <time>2010-01-01T02:03:53Z</time>
      </trkpt>
      <trkpt lat="41.45323400" lon="2.165966000">
        <ele>251.00000</ele>
        <time>2010-01-01T02:03:57Z</time>
      </trkpt>
      <trkpt lat="41.45316400" lon="2.166040000">
        <ele>251.00000</ele>
        <time>2010-01-01T02:04:00Z</time>
      </trkpt>
      <trkpt lat="41.45312100" lon="2.166067000">
        <ele>252.00000</ele>
        <time>2010-01-01T02:04:02Z</time>
      </trkpt>
      <trkpt lat="41.45305300" lon="2.166105000">
        <ele>252.00000</ele>
        <time>2010-01-01T02:04:05Z</time>
      </trkpt>
      <trkpt lat="41.45299400" lon="2.166128000">
        <ele>253.00000</ele>
        <time>2010-01-01T02:04:08Z</time>
      </trkpt>
      <trkpt lat="41.45288900" lon="2.166168000">
        <ele>256.00000</ele>
        <time>2010-01-01T02:04:12Z</time>
      </trkpt>
      <trkpt lat="41.45281200" lon="2.166209000">
        <ele>257.00000</ele>
        <time>2010-01-01T02:04:15Z</time>
      </trkpt>
      <trkpt lat="41.45276300" lon="2.166231000">
        <ele>258.00000</ele>
        <time>2010-01-01T02:04:17Z</time>
      </trkpt>
      <trkpt lat="41.45270800" lon="2.166311000">
        <ele>258.00000</ele>
        <time>2010-01-01T02:04:21Z</time>
      </trkpt>
      <trkpt lat="41.45265900" lon="2.166410000">
        <ele>257.00000</ele>
        <time>2010-01-01T02:04:24Z</time>
      </trkpt>
      <trkpt lat="41.45262400" lon="2.166538000">
        <ele>256.00000</ele>
        <time>2010-01-01T02:04:28Z</time>
      </trkpt>
      <trkpt lat="41.45259000" lon="2.166677000">
        <ele>254.00000</ele>
        <time>2010-01-01T02:04:33Z</time>
      </trkpt>
      <trkpt lat="41.45255200" lon="2.166779000">
        <ele>255.00000</ele>
        <time>2010-01-01T02:04:36Z</time>
      </trkpt>
      <trkpt lat="41.45248900" lon="2.166925000">
        <ele>256.00000</ele>
        <time>2010-01-01T02:04:41Z</time>
      </trkpt>
      <trkpt lat="41.45243200" lon="2.167091000">
        <ele>258.00000</ele>
        <time>2010-01-01T02:04:47Z</time>
      </trkpt>
      <trkpt lat="41.45239200" lon="2.167213000">
        <ele>259.00000</ele>
        <time>2010-01-01T02:04:51Z</time>
      </trkpt>
      <trkpt lat="41.45235400" lon="2.167351000">
        <ele>260.00000</ele>
        <time>2010-01-01T02:04:55Z</time>
      </trkpt>
      <trkpt lat="41.45234800" lon="2.167451000">
        <ele>259.00000</ele>
        <time>2010-01-01T02:04:58Z</time>
      </trkpt>
      <trkpt lat="41.45234900" lon="2.167540000">
        <ele>259.00000</ele>
        <time>2010-01-01T02:05:01Z</time>
      </trkpt>
      <trkpt lat="41.45236100" lon="2.167620000">
        <ele>257.00000</ele>
        <time>2010-01-01T02:05:03Z</time>
      </trkpt>
      <trkpt lat="41.45238500" lon="2.167722000">
        <ele>255.00000</ele>
        <time>2010-01-01T02:05:06Z</time>
      </trkpt>
      <trkpt lat="41.45242800" lon="2.167851000">
        <ele>251.00000</ele>
        <time>2010-01-01T02:05:11Z</time>
      </trkpt>
      <trkpt lat="41.45244800" lon="2.167957000">
        <ele>250.00000</ele>
        <time>2010-01-01T02:05:14Z</time>
      </trkpt>
      <trkpt lat="41.45244400" lon="2.168058000">
        <ele>251.00000</ele>
        <time>2010-01-01T02:05:17Z</time>
      </trkpt>
      <trkpt lat="41.45241500" lon="2.168219000">
        <ele>254.00000</ele>
        <time>2010-01-01T02:05:22Z</time>
      </trkpt>
      <trkpt lat="41.45240200" lon="2.168354000">
        <ele>255.00000</ele>
        <time>2010-01-01T02:05:26Z</time>
      </trkpt>
      <trkpt lat="41.45239300" lon="2.168507000">
        <ele>256.00000</ele>
        <time>2010-01-01T02:05:30Z</time>
      </trkpt>
      <trkpt lat="41.45238100" lon="2.168627000">
        <ele>258.00000</ele>
        <time>2010-01-01T02:05:34Z</time>
      </trkpt>
      <trkpt lat="41.45236200" lon="2.168710000">
        <ele>259.00000</ele>
        <time>2010-01-01T02:05:37Z</time>
      </trkpt>
      <trkpt lat="41.45233400" lon="2.168807000">
        <ele>261.00000</ele>
        <time>2010-01-01T02:05:40Z</time>
      </trkpt>
      <trkpt lat="41.45232000" lon="2.168871000">
        <ele>262.00000</ele>
        <time>2010-01-01T02:05:42Z</time>
      </trkpt>
      <trkpt lat="41.45232100" lon="2.168961000">
        <ele>263.00000</ele>
        <time>2010-01-01T02:05:45Z</time>
      </trkpt>
      <trkpt lat="41.45234200" lon="2.169020000">
        <ele>262.00000</ele>
        <time>2010-01-01T02:05:46Z</time>
      </trkpt>
      <trkpt lat="41.45238600" lon="2.169094000">
        <ele>262.00000</ele>
        <time>2010-01-01T02:05:49Z</time>
      </trkpt>
      <trkpt lat="41.45244200" lon="2.169179000">
        <ele>261.00000</ele>
        <time>2010-01-01T02:05:53Z</time>
      </trkpt>
      <trkpt lat="41.45249900" lon="2.169269000">
        <ele>260.00000</ele>
        <time>2010-01-01T02:05:56Z</time>
      </trkpt>
      <trkpt lat="41.45252800" lon="2.169322000">
        <ele>259.00000</ele>
        <time>2010-01-01T02:05:58Z</time>
      </trkpt>
      <trkpt lat="41.45255100" lon="2.169404000">
        <ele>258.00000</ele>
        <time>2010-01-01T02:06:01Z</time>
      </trkpt>
      <trkpt lat="41.45257400" lon="2.169520000">
        <ele>256.00000</ele>
        <time>2010-01-01T02:06:04Z</time>
      </trkpt>
      <trkpt lat="41.45259400" lon="2.169613000">
        <ele>254.00000</ele>
        <time>2010-01-01T02:06:07Z</time>
      </trkpt>
      <trkpt lat="41.45262500" lon="2.169693000">
        <ele>251.00000</ele>
        <time>2010-01-01T02:06:10Z</time>
      </trkpt>
      <trkpt lat="41.45265600" lon="2.169769000">
        <ele>248.00000</ele>
        <time>2010-01-01T02:06:13Z</time>
      </trkpt>
      <trkpt lat="41.45270400" lon="2.169858000">
        <ele>244.00000</ele>
        <time>2010-01-01T02:06:16Z</time>
      </trkpt>
      <trkpt lat="41.45275600" lon="2.169922000">
        <ele>241.00000</ele>
        <time>2010-01-01T02:06:19Z</time>
      </trkpt>
      <trkpt lat="41.45285300" lon="2.170040000">
        <ele>237.00000</ele>
        <time>2010-01-01T02:06:24Z</time>
      </trkpt>
      <trkpt lat="41.45290600" lon="2.170131000">
        <ele>236.00000</ele>
        <time>2010-01-01T02:06:27Z</time>
      </trkpt>
      <trkpt lat="41.45294200" lon="2.170207000">
        <ele>236.00000</ele>
        <time>2010-01-01T02:06:30Z</time>
      </trkpt>
      <trkpt lat="41.45297300" lon="2.170280000">
        <ele>236.00000</ele>
        <time>2010-01-01T02:06:33Z</time>
      </trkpt>
      <trkpt lat="41.45300600" lon="2.170333000">
        <ele>235.00000</ele>
        <time>2010-01-01T02:06:35Z</time>
      </trkpt>
      <trkpt lat="41.45304500" lon="2.170389000">
        <ele>234.00000</ele>
        <time>2010-01-01T02:06:37Z</time>
      </trkpt>
      <trkpt lat="41.45313600" lon="2.170502000">
        <ele>232.00000</ele>
        <time>2010-01-01T02:06:42Z</time>
      </trkpt>
      <trkpt lat="41.45317300" lon="2.170568000">
        <ele>232.00000</ele>
        <time>2010-01-01T02:06:45Z</time>
      </trkpt>
      <trkpt lat="41.45320400" lon="2.170634000">
        <ele>232.00000</ele>
        <time>2010-01-01T02:06:47Z</time>
      </trkpt>
      <trkpt lat="41.45322600" lon="2.170727000">
        <ele>233.00000</ele>
        <time>2010-01-01T02:06:50Z</time>
      </trkpt>
      <trkpt lat="41.45325300" lon="2.170864000">
        <ele>233.00000</ele>
        <time>2010-01-01T02:06:54Z</time>
      </trkpt>
      <trkpt lat="41.45327300" lon="2.170994000">
        <ele>232.00000</ele>
        <time>2010-01-01T02:06:58Z</time>
      </trkpt>
      <trkpt lat="41.45323500" lon="2.171010000">
        <ele>233.00000</ele>
        <time>2010-01-01T02:07:00Z</time>
      </trkpt>
      <trkpt lat="41.45319600" lon="2.171041000">
        <ele>234.00000</ele>
        <time>2010-01-01T02:07:01Z</time>
      </trkpt>
      <trkpt lat="41.45313500" lon="2.171083000">
        <ele>235.00000</ele>
        <time>2010-01-01T02:07:04Z</time>
      </trkpt>
      <trkpt lat="41.45307500" lon="2.171107000">
        <ele>237.00000</ele>
        <time>2010-01-01T02:07:07Z</time>
      </trkpt>
      <trkpt lat="41.45301800" lon="2.171115000">
        <ele>238.00000</ele>
        <time>2010-01-01T02:07:09Z</time>
      </trkpt>
      <trkpt lat="41.45295900" lon="2.171119000">
        <ele>240.00000</ele>
        <time>2010-01-01T02:07:11Z</time>
      </trkpt>
      <trkpt lat="41.45283200" lon="2.171136000">
        <ele>242.00000</ele>
        <time>2010-01-01T02:07:16Z</time>
      </trkpt>
      <trkpt lat="41.45276500" lon="2.171158000">
        <ele>243.00000</ele>
        <time>2010-01-01T02:07:19Z</time>
      </trkpt>
      <trkpt lat="41.45270600" lon="2.171189000">
        <ele>244.00000</ele>
        <time>2010-01-01T02:07:22Z</time>
      </trkpt>
      <trkpt lat="41.45266400" lon="2.171228000">
        <ele>244.00000</ele>
        <time>2010-01-01T02:07:24Z</time>
      </trkpt>
      <trkpt lat="41.45264800" lon="2.171248000">
        <ele>244.00000</ele>
        <time>2010-01-01T02:07:25Z</time>
      </trkpt>
      <trkpt lat="41.45258000" lon="2.171367000">
        <ele>242.00000</ele>
        <time>2010-01-01T02:07:29Z</time>
      </trkpt>
      <trkpt lat="41.45253400" lon="2.171466000">
        <ele>241.00000</ele>
        <time>2010-01-01T02:07:33Z</time>
      </trkpt>
      <trkpt lat="41.45250200" lon="2.171547000">
        <ele>240.00000</ele>
        <time>2010-01-01T02:07:35Z</time>
      </trkpt>
      <trkpt lat="41.45245300" lon="2.171668000">
        <ele>238.00000</ele>
        <time>2010-01-01T02:07:40Z</time>
      </trkpt>
      <trkpt lat="41.45239600" lon="2.171813000">
        <ele>235.00000</ele>
        <time>2010-01-01T02:07:44Z</time>
      </trkpt>
      <trkpt lat="41.45235500" lon="2.171905000">
        <ele>232.00000</ele>
        <time>2010-01-01T02:07:48Z</time>
      </trkpt>
      <trkpt lat="41.45233400" lon="2.171933000">
        <ele>231.00000</ele>
        <time>2010-01-01T02:07:49Z</time>
      </trkpt>
      <trkpt lat="41.45229700" lon="2.171957000">
        <ele>230.00000</ele>
        <time>2010-01-01T02:07:50Z</time>
      </trkpt>
      <trkpt lat="41.45225000" lon="2.171964000">
        <ele>231.00000</ele>
        <time>2010-01-01T02:07:52Z</time>
      </trkpt>
      <trkpt lat="41.45222100" lon="2.171963000">
        <ele>231.00000</ele>
        <time>2010-01-01T02:07:54Z</time>
      </trkpt>
      <trkpt lat="41.45218000" lon="2.171954000">
        <ele>232.00000</ele>
        <time>2010-01-01T02:07:55Z</time>
      </trkpt>
      <trkpt lat="41.45204900" lon="2.171918000">
        <ele>234.00000</ele>
        <time>2010-01-01T02:08:01Z</time>
      </trkpt>
      <trkpt lat="41.45196400" lon="2.171895000">
        <ele>236.00000</ele>
        <time>2010-01-01T02:08:04Z</time>
      </trkpt>
      <trkpt lat="41.45190100" lon="2.171878000">
        <ele>237.00000</ele>
        <time>2010-01-01T02:08:07Z</time>
      </trkpt>
      <trkpt lat="41.45186900" lon="2.171867000">
        <ele>238.00000</ele>
        <time>2010-01-01T02:08:08Z</time>
      </trkpt>
      <trkpt lat="41.45179200" lon="2.171848000">
        <ele>240.00000</ele>
        <time>2010-01-01T02:08:11Z</time>
      </trkpt>
      <trkpt lat="41.45167400" lon="2.171850000">
        <ele>242.00000</ele>
        <time>2010-01-01T02:08:16Z</time>
      </trkpt>
      <trkpt lat="41.45161100" lon="2.171868000">
        <ele>243.00000</ele>
        <time>2010-01-01T02:08:18Z</time>
      </trkpt>
      <trkpt lat="41.45157000" lon="2.171890000">
        <ele>244.00000</ele>
        <time>2010-01-01T02:08:20Z</time>
      </trkpt>
      <trkpt lat="41.45153400" lon="2.171932000">
        <ele>243.00000</ele>
        <time>2010-01-01T02:08:22Z</time>
      </trkpt>
      <trkpt lat="41.45148300" lon="2.172010000">
        <ele>241.00000</ele>
        <time>2010-01-01T02:08:25Z</time>
      </trkpt>
      <trkpt lat="41.45144200" lon="2.172067000">
        <ele>240.00000</ele>
        <time>2010-01-01T02:08:28Z</time>
      </trkpt>
      <trkpt lat="41.45140600" lon="2.172129000">
        <ele>238.00000</ele>
        <time>2010-01-01T02:08:30Z</time>
      </trkpt>
      <trkpt lat="41.45135200" lon="2.172241000">
        <ele>235.00000</ele>
        <time>2010-01-01T02:08:34Z</time>
      </trkpt>
      <trkpt lat="41.45129800" lon="2.172356000">
        <ele>233.00000</ele>
        <time>2010-01-01T02:08:38Z</time>
      </trkpt>
      <trkpt lat="41.45124400" lon="2.172463000">
        <ele>232.00000</ele>
        <time>2010-01-01T02:08:42Z</time>
      </trkpt>
      <trkpt lat="41.45120700" lon="2.172537000">
        <ele>231.00000</ele>
        <time>2010-01-01T02:08:44Z</time>
      </trkpt>
      <trkpt lat="41.45117500" lon="2.172589000">
        <ele>231.00000</ele>
        <time>2010-01-01T02:08:46Z</time>
      </trkpt>
      <trkpt lat="41.45112400" lon="2.172654000">
        <ele>231.00000</ele>
        <time>2010-01-01T02:08:49Z</time>
      </trkpt>
      <trkpt lat="41.45099700" lon="2.172785000">
        <ele>230.00000</ele>
        <time>2010-01-01T02:08:56Z</time>
      </trkpt>
      <trkpt lat="41.45085900" lon="2.172915000">
        <ele>230.00000</ele>
        <time>2010-01-01T02:09:03Z</time>
      </trkpt>
      <trkpt lat="41.45081500" lon="2.172965000">
        <ele>230.00000</ele>
        <time>2010-01-01T02:09:05Z</time>
      </trkpt>
      <trkpt lat="41.45072700" lon="2.173096000">
        <ele>231.00000</ele>
        <time>2010-01-01T02:09:10Z</time>
      </trkpt>
      <trkpt lat="41.45070600" lon="2.173159000">
        <ele>231.00000</ele>
        <time>2010-01-01T02:09:12Z</time>
      </trkpt>
      <trkpt lat="41.45069600" lon="2.173215000">
        <ele>232.00000</ele>
        <time>2010-01-01T02:09:14Z</time>
      </trkpt>
      <trkpt lat="41.45069300" lon="2.173310000">
        <ele>233.00000</ele>
        <time>2010-01-01T02:09:17Z</time>
      </trkpt>
      <trkpt lat="41.45070600" lon="2.173642000">
        <ele>230.00000</ele>
        <time>2010-01-01T02:09:27Z</time>
      </trkpt>
      <trkpt lat="41.45071400" lon="2.173737000">
        <ele>228.00000</ele>
        <time>2010-01-01T02:09:30Z</time>
      </trkpt>
      <trkpt lat="41.45072000" lon="2.173816000">
        <ele>225.00000</ele>
        <time>2010-01-01T02:09:32Z</time>
      </trkpt>
      <trkpt lat="41.45073400" lon="2.173939000">
        <ele>222.00000</ele>
        <time>2010-01-01T02:09:36Z</time>
      </trkpt>
      <trkpt lat="41.45074300" lon="2.173987000">
        <ele>220.00000</ele>
        <time>2010-01-01T02:09:37Z</time>
      </trkpt>
      <trkpt lat="41.45075100" lon="2.174037000">
        <ele>219.00000</ele>
        <time>2010-01-01T02:09:39Z</time>
      </trkpt>
      <trkpt lat="41.45076300" lon="2.174095000">
        <ele>217.00000</ele>
        <time>2010-01-01T02:09:41Z</time>
      </trkpt>
      <trkpt lat="41.45078800" lon="2.174197000">
        <ele>215.00000</ele>
        <time>2010-01-01T02:09:44Z</time>
      </trkpt>
      <trkpt lat="41.45080800" lon="2.174292000">
        <ele>213.00000</ele>
        <time>2010-01-01T02:09:47Z</time>
      </trkpt>
      <trkpt lat="41.45081800" lon="2.174354000">
        <ele>212.00000</ele>
        <time>2010-01-01T02:09:49Z</time>
      </trkpt>
      <trkpt lat="41.45082100" lon="2.174401000">
        <ele>211.00000</ele>
        <time>2010-01-01T02:09:50Z</time>
      </trkpt>
      <trkpt lat="41.45082200" lon="2.174470000">
        <ele>210.00000</ele>
        <time>2010-01-01T02:09:52Z</time>
      </trkpt>
      <trkpt lat="41.45080900" lon="2.174539000">
        <ele>209.00000</ele>
        <time>2010-01-01T02:09:54Z</time>
      </trkpt>
      <trkpt lat="41.45078600" lon="2.174598000">
        <ele>207.00000</ele>
        <time>2010-01-01T02:09:56Z</time>
      </trkpt>
      <trkpt lat="41.45075500" lon="2.174655000">
        <ele>206.00000</ele>
        <time>2010-01-01T02:09:58Z</time>
      </trkpt>
      <trkpt lat="41.45071100" lon="2.174714000">
        <ele>205.00000</ele>
        <time>2010-01-01T02:10:01Z</time>
      </trkpt>
      <trkpt lat="41.45068100" lon="2.174736000">
        <ele>205.00000</ele>
        <time>2010-01-01T02:10:02Z</time>
      </trkpt>
      <trkpt lat="41.45062000" lon="2.174753000">
        <ele>204.00000</ele>
        <time>2010-01-01T02:10:05Z</time>
      </trkpt>
      <trkpt lat="41.45057800" lon="2.174751000">
        <ele>204.00000</ele>
        <time>2010-01-01T02:10:06Z</time>
      </trkpt>
      <trkpt lat="41.45054000" lon="2.174794000">
        <ele>203.00000</ele>
        <time>2010-01-01T02:10:08Z</time>
      </trkpt>
      <trkpt lat="41.45052300" lon="2.174872000">
        <ele>202.00000</ele>
        <time>2010-01-01T02:10:11Z</time>
      </trkpt>
      <trkpt lat="41.45049900" lon="2.174940000">
        <ele>201.00000</ele>
        <time>2010-01-01T02:10:13Z</time>
      </trkpt>
      <trkpt lat="41.45047700" lon="2.175008000">
        <ele>201.00000</ele>
        <time>2010-01-01T02:10:15Z</time>
      </trkpt>
      <trkpt lat="41.45046000" lon="2.175073000">
        <ele>200.00000</ele>
        <time>2010-01-01T02:10:17Z</time>
      </trkpt>
      <trkpt lat="41.45044800" lon="2.175133000">
        <ele>200.00000</ele>
        <time>2010-01-01T02:10:19Z</time>
      </trkpt>
      <trkpt lat="41.45043800" lon="2.175208000">
        <ele>199.00000</ele>
        <time>2010-01-01T02:10:22Z</time>
      </trkpt>
      <trkpt lat="41.45042700" lon="2.175345000">
        <ele>199.00000</ele>
        <time>2010-01-01T02:10:26Z</time>
      </trkpt>
      <trkpt lat="41.45042500" lon="2.175413000">
        <ele>199.00000</ele>
        <time>2010-01-01T02:10:28Z</time>
      </trkpt>
      <trkpt lat="41.45043000" lon="2.175507000">
        <ele>199.00000</ele>
        <time>2010-01-01T02:10:31Z</time>
      </trkpt>
      <trkpt lat="41.45043900" lon="2.175603000">
        <ele>199.00000</ele>
        <time>2010-01-01T02:10:33Z</time>
      </trkpt>
      <trkpt lat="41.45046000" lon="2.175740000">
        <ele>200.00000</ele>
        <time>2010-01-01T02:10:38Z</time>
      </trkpt>
      <trkpt lat="41.45047300" lon="2.175807000">
        <ele>200.00000</ele>
        <time>2010-01-01T02:10:40Z</time>
      </trkpt>
      <trkpt lat="41.45048400" lon="2.175847000">
        <ele>200.00000</ele>
        <time>2010-01-01T02:10:41Z</time>
      </trkpt>
      <trkpt lat="41.45051600" lon="2.175922000">
        <ele>201.00000</ele>
        <time>2010-01-01T02:10:44Z</time>
      </trkpt>
      <trkpt lat="41.45054600" lon="2.175966000">
        <ele>202.00000</ele>
        <time>2010-01-01T02:10:45Z</time>
      </trkpt>
      <trkpt lat="41.45060300" lon="2.176025000">
        <ele>203.00000</ele>
        <time>2010-01-01T02:10:48Z</time>
      </trkpt>
      <trkpt lat="41.45068700" lon="2.176108000">
        <ele>205.00000</ele>
        <time>2010-01-01T02:10:52Z</time>
      </trkpt>
      <trkpt lat="41.45073600" lon="2.176157000">
        <ele>205.00000</ele>
        <time>2010-01-01T02:10:55Z</time>
      </trkpt>
      <trkpt lat="41.45082700" lon="2.176250000">
        <ele>205.00000</ele>
        <time>2010-01-01T02:10:59Z</time>
      </trkpt>
      <trkpt lat="41.45091100" lon="2.176328000">
        <ele>205.00000</ele>
        <time>2010-01-01T02:11:04Z</time>
      </trkpt>
      <trkpt lat="41.45098700" lon="2.176383000">
        <ele>206.00000</ele>
        <time>2010-01-01T02:11:07Z</time>
      </trkpt>
      <trkpt lat="41.45105600" lon="2.176436000">
        <ele>207.00000</ele>
        <time>2010-01-01T02:11:10Z</time>
      </trkpt>
      <trkpt lat="41.45109800" lon="2.176478000">
        <ele>207.00000</ele>
        <time>2010-01-01T02:11:12Z</time>
      </trkpt>
      <trkpt lat="41.45113600" lon="2.176528000">
        <ele>206.00000</ele>
        <time>2010-01-01T02:11:14Z</time>
      </trkpt>
      <trkpt lat="41.45116400" lon="2.176573000">
        <ele>205.00000</ele>
        <time>2010-01-01T02:11:16Z</time>
      </trkpt>
      <trkpt lat="41.45120200" lon="2.176645000">
        <ele>204.00000</ele>
        <time>2010-01-01T02:11:19Z</time>
      </trkpt>
      <trkpt lat="41.45123000" lon="2.176711000">
        <ele>204.00000</ele>
        <time>2010-01-01T02:11:21Z</time>
      </trkpt>
      <trkpt lat="41.45125200" lon="2.176770000">
        <ele>203.00000</ele>
        <time>2010-01-01T02:11:23Z</time>
      </trkpt>
      <trkpt lat="41.45127600" lon="2.176846000">
        <ele>202.00000</ele>
        <time>2010-01-01T02:11:26Z</time>
      </trkpt>
      <trkpt lat="41.45128600" lon="2.176882000">
        <ele>202.00000</ele>
        <time>2010-01-01T02:11:27Z</time>
      </trkpt>
      <trkpt lat="41.45129900" lon="2.176936000">
        <ele>201.00000</ele>
        <time>2010-01-01T02:11:28Z</time>
      </trkpt>
      <trkpt lat="41.45131100" lon="2.177011000">
        <ele>202.00000</ele>
        <time>2010-01-01T02:11:31Z</time>
      </trkpt>
      <trkpt lat="41.45132400" lon="2.177130000">
        <ele>202.00000</ele>
        <time>2010-01-01T02:11:34Z</time>
      </trkpt>
      <trkpt lat="41.45133500" lon="2.177260000">
        <ele>203.00000</ele>
        <time>2010-01-01T02:11:38Z</time>
      </trkpt>
      <trkpt lat="41.45137100" lon="2.177594000">
        <ele>202.00000</ele>
        <time>2010-01-01T02:11:48Z</time>
      </trkpt>
      <trkpt lat="41.45140700" lon="2.177860000">
        <ele>199.00000</ele>
        <time>2010-01-01T02:11:56Z</time>
      </trkpt>
      <trkpt lat="41.45141900" lon="2.177927000">
        <ele>198.00000</ele>
        <time>2010-01-01T02:11:59Z</time>
      </trkpt>
      <trkpt lat="41.45144400" lon="2.178030000">
        <ele>197.00000</ele>
        <time>2010-01-01T02:12:02Z</time>
      </trkpt>
      <trkpt lat="41.45147000" lon="2.178108000">
        <ele>197.00000</ele>
        <time>2010-01-01T02:12:04Z</time>
      </trkpt>
      <trkpt lat="41.45148900" lon="2.178147000">
        <ele>197.00000</ele>
        <time>2010-01-01T02:12:06Z</time>
      </trkpt>
      <trkpt lat="41.45153900" lon="2.178210000">
        <ele>198.00000</ele>
        <time>2010-01-01T02:12:09Z</time>
      </trkpt>
      <trkpt lat="41.45167500" lon="2.178362000">
        <ele>199.00000</ele>
        <time>2010-01-01T02:12:16Z</time>
      </trkpt>
      <trkpt lat="41.45184300" lon="2.178548000">
        <ele>197.00000</ele>
        <time>2010-01-01T02:12:24Z</time>
      </trkpt>
      <trkpt lat="41.45204100" lon="2.178771000">
        <ele>193.00000</ele>
        <time>2010-01-01T02:12:35Z</time>
      </trkpt>
      <trkpt lat="41.45217200" lon="2.178856000">
        <ele>191.00000</ele>
        <time>2010-01-01T02:12:41Z</time>
      </trkpt>
      <trkpt lat="41.45224000" lon="2.178911000">
        <ele>190.00000</ele>
        <time>2010-01-01T02:12:44Z</time>
      </trkpt>
      <trkpt lat="41.45238300" lon="2.179005000">
        <ele>189.00000</ele>
        <time>2010-01-01T02:12:50Z</time>
      </trkpt>
      <trkpt lat="41.45243900" lon="2.179045000">
        <ele>189.00000</ele>
        <time>2010-01-01T02:12:53Z</time>
      </trkpt>
      <trkpt lat="41.45251100" lon="2.179083000">
        <ele>190.00000</ele>
        <time>2010-01-01T02:12:56Z</time>
      </trkpt>
      <trkpt lat="41.45259500" lon="2.179115000">
        <ele>190.00000</ele>
        <time>2010-01-01T02:12:59Z</time>
      </trkpt>
      <trkpt lat="41.45267700" lon="2.179136000">
        <ele>191.00000</ele>
        <time>2010-01-01T02:13:03Z</time>
      </trkpt>
      <trkpt lat="41.45274500" lon="2.179157000">
        <ele>191.00000</ele>
        <time>2010-01-01T02:13:05Z</time>
      </trkpt>
      <trkpt lat="41.45282400" lon="2.179184000">
        <ele>192.00000</ele>
        <time>2010-01-01T02:13:09Z</time>
      </trkpt>
      <trkpt lat="41.45289100" lon="2.179208000">
        <ele>193.00000</ele>
        <time>2010-01-01T02:13:11Z</time>
      </trkpt>
      <trkpt lat="41.45293500" lon="2.179218000">
        <ele>193.00000</ele>
        <time>2010-01-01T02:13:13Z</time>
      </trkpt>
      <trkpt lat="41.45297200" lon="2.179221000">
        <ele>193.00000</ele>
        <time>2010-01-01T02:13:15Z</time>
      </trkpt>
      <trkpt lat="41.45301000" lon="2.179215000">
        <ele>193.00000</ele>
        <time>2010-01-01T02:13:16Z</time>
      </trkpt>
      <trkpt lat="41.45303700" lon="2.179207000">
        <ele>193.00000</ele>
        <time>2010-01-01T02:13:17Z</time>
      </trkpt>
      <trkpt lat="41.45308900" lon="2.179184000">
        <ele>192.00000</ele>
        <time>2010-01-01T02:13:20Z</time>
      </trkpt>
      <trkpt lat="41.45314300" lon="2.179161000">
        <ele>190.00000</ele>
        <time>2010-01-01T02:13:22Z</time>
      </trkpt>
      <trkpt lat="41.45320900" lon="2.179142000">
        <ele>188.00000</ele>
        <time>2010-01-01T02:13:25Z</time>
      </trkpt>
      <trkpt lat="41.45329300" lon="2.179150000">
        <ele>187.00000</ele>
        <time>2010-01-01T02:13:28Z</time>
      </trkpt>
      <trkpt lat="41.45332400" lon="2.179170000">
        <ele>188.00000</ele>
        <time>2010-01-01T02:13:29Z</time>
      </trkpt>
      <trkpt lat="41.45336400" lon="2.179205000">
        <ele>187.00000</ele>
        <time>2010-01-01T02:13:31Z</time>
      </trkpt>
      <trkpt lat="41.45339200" lon="2.179219000">
        <ele>187.00000</ele>
        <time>2010-01-01T02:13:32Z</time>
      </trkpt>
      <trkpt lat="41.45341100" lon="2.179242000">
        <ele>187.00000</ele>
        <time>2010-01-01T02:13:33Z</time>
      </trkpt>
      <trkpt lat="41.45345700" lon="2.179285000">
        <ele>186.00000</ele>
        <time>2010-01-01T02:13:36Z</time>
      </trkpt>
      <trkpt lat="41.45348300" lon="2.179305000">
        <ele>186.00000</ele>
        <time>2010-01-01T02:13:37Z</time>
      </trkpt>
      <trkpt lat="41.45350400" lon="2.179317000">
        <ele>186.00000</ele>
        <time>2010-01-01T02:13:38Z</time>
      </trkpt>
      <trkpt lat="41.45353000" lon="2.179328000">
        <ele>185.00000</ele>
        <time>2010-01-01T02:13:39Z</time>
      </trkpt>
      <trkpt lat="41.45366500" lon="2.179371000">
        <ele>181.00000</ele>
        <time>2010-01-01T02:13:44Z</time>
      </trkpt>
      <trkpt lat="41.45370200" lon="2.179395000">
        <ele>181.00000</ele>
        <time>2010-01-01T02:13:46Z</time>
      </trkpt>
      <trkpt lat="41.45373800" lon="2.179424000">
        <ele>180.00000</ele>
        <time>2010-01-01T02:13:48Z</time>
      </trkpt>
      <trkpt lat="41.45378700" lon="2.179485000">
        <ele>179.00000</ele>
        <time>2010-01-01T02:13:50Z</time>
      </trkpt>
      <trkpt lat="41.45381200" lon="2.179512000">
        <ele>179.00000</ele>
        <time>2010-01-01T02:13:52Z</time>
      </trkpt>
      <trkpt lat="41.45384300" lon="2.179566000">
        <ele>179.00000</ele>
        <time>2010-01-01T02:13:54Z</time>
      </trkpt>
      <trkpt lat="41.45390700" lon="2.179676000">
        <ele>179.00000</ele>
        <time>2010-01-01T02:13:58Z</time>
      </trkpt>
      <trkpt lat="41.45396000" lon="2.179750000">
        <ele>178.00000</ele>
        <time>2010-01-01T02:14:01Z</time>
      </trkpt>
      <trkpt lat="41.45399200" lon="2.179785000">
        <ele>177.00000</ele>
        <time>2010-01-01T02:14:03Z</time>
      </trkpt>
      <trkpt lat="41.45404570" lon="2.179839940">
        <ele>175.00000</ele>
        <time>2010-01-01T02:14:05Z</time>
      </trkpt>
      <trkpt lat="41.45408000" lon="2.179875000">
        <ele>174.00000</ele>
        <time>2010-01-01T02:14:07Z</time>
      </trkpt>
      <trkpt lat="41.45414100" lon="2.179924000">
        <ele>172.00000</ele>
        <time>2010-01-01T02:14:10Z</time>
      </trkpt>
      <trkpt lat="41.45418500" lon="2.179976000">
        <ele>171.00000</ele>
        <time>2010-01-01T02:14:12Z</time>
      </trkpt>
      <trkpt lat="41.45419800" lon="2.179995000">
        <ele>170.00000</ele>
        <time>2010-01-01T02:14:13Z</time>
      </trkpt>
      <trkpt lat="41.45421800" lon="2.180029000">
        <ele>169.00000</ele>
        <time>2010-01-01T02:14:14Z</time>
      </trkpt>
      <trkpt lat="41.45423900" lon="2.180078000">
        <ele>168.00000</ele>
        <time>2010-01-01T02:14:16Z</time>
      </trkpt>
      <trkpt lat="41.45424500" lon="2.180112000">
        <ele>167.00000</ele>
        <time>2010-01-01T02:14:17Z</time>
      </trkpt>
      <trkpt lat="41.45424500" lon="2.180140000">
        <ele>167.00000</ele>
        <time>2010-01-01T02:14:18Z</time>
      </trkpt>
      <trkpt lat="41.45423800" lon="2.180184000">
        <ele>166.00000</ele>
        <time>2010-01-01T02:14:19Z</time>
      </trkpt>
      <trkpt lat="41.45422600" lon="2.180220000">
        <ele>166.00000</ele>
        <time>2010-01-01T02:14:20Z</time>
      </trkpt>
      <trkpt lat="41.45420800" lon="2.180263000">
        <ele>166.00000</ele>
        <time>2010-01-01T02:14:22Z</time>
      </trkpt>
      <trkpt lat="41.45417400" lon="2.180336000">
        <ele>166.00000</ele>
        <time>2010-01-01T02:14:25Z</time>
      </trkpt>
      <trkpt lat="41.45413900" lon="2.180403000">
        <ele>166.00000</ele>
        <time>2010-01-01T02:14:27Z</time>
      </trkpt>
      <trkpt lat="41.45410400" lon="2.180452000">
        <ele>166.00000</ele>
        <time>2010-01-01T02:14:29Z</time>
      </trkpt>
      <trkpt lat="41.45404800" lon="2.180506000">
        <ele>167.00000</ele>
        <time>2010-01-01T02:14:32Z</time>
      </trkpt>
      <trkpt lat="41.45397100" lon="2.180565000">
        <ele>169.00000</ele>
        <time>2010-01-01T02:14:35Z</time>
      </trkpt>
      <trkpt lat="41.45383100" lon="2.180660000">
        <ele>171.00000</ele>
        <time>2010-01-01T02:14:42Z</time>
      </trkpt>
      <trkpt lat="41.45376900" lon="2.180689000">
        <ele>173.00000</ele>
        <time>2010-01-01T02:14:44Z</time>
      </trkpt>
      <trkpt lat="41.45362700" lon="2.180773000">
        <ele>177.00000</ele>
        <time>2010-01-01T02:14:50Z</time>
      </trkpt>
      <trkpt lat="41.45358000" lon="2.180810000">
        <ele>178.00000</ele>
        <time>2010-01-01T02:14:53Z</time>
      </trkpt>
      <trkpt lat="41.45354400" lon="2.180854000">
        <ele>179.00000</ele>
        <time>2010-01-01T02:14:55Z</time>
      </trkpt>
      <trkpt lat="41.45352100" lon="2.180915000">
        <ele>179.00000</ele>
        <time>2010-01-01T02:14:57Z</time>
      </trkpt>
      <trkpt lat="41.45351300" lon="2.180957000">
        <ele>178.00000</ele>
        <time>2010-01-01T02:14:58Z</time>
      </trkpt>
      <trkpt lat="41.45351900" lon="2.181023000">
        <ele>177.00000</ele>
        <time>2010-01-01T02:15:00Z</time>
      </trkpt>
      <trkpt lat="41.45354200" lon="2.181126000">
        <ele>174.00000</ele>
        <time>2010-01-01T02:15:03Z</time>
      </trkpt>
      <trkpt lat="41.45357200" lon="2.181254000">
        <ele>172.00000</ele>
        <time>2010-01-01T02:15:07Z</time>
      </trkpt>
      <trkpt lat="41.45359900" lon="2.181399000">
        <ele>170.00000</ele>
        <time>2010-01-01T02:15:12Z</time>
      </trkpt>
      <trkpt lat="41.45361800" lon="2.181480000">
        <ele>171.00000</ele>
        <time>2010-01-01T02:15:14Z</time>
      </trkpt>
      <trkpt lat="41.45364300" lon="2.181560000">
        <ele>170.00000</ele>
        <time>2010-01-01T02:15:17Z</time>
      </trkpt>
      <trkpt lat="41.45370000" lon="2.181675000">
        <ele>169.00000</ele>
        <time>2010-01-01T02:15:21Z</time>
      </trkpt>
      <trkpt lat="41.45375800" lon="2.181745000">
        <ele>167.00000</ele>
        <time>2010-01-01T02:15:24Z</time>
      </trkpt>
      <trkpt lat="41.45389600" lon="2.181888000">
        <ele>161.00000</ele>
        <time>2010-01-01T02:15:31Z</time>
      </trkpt>
      <trkpt lat="41.45395200" lon="2.181993000">
        <ele>160.00000</ele>
        <time>2010-01-01T02:15:35Z</time>
      </trkpt>
      <trkpt lat="41.45397500" lon="2.182060000">
        <ele>159.00000</ele>
        <time>2010-01-01T02:15:37Z</time>
      </trkpt>
      <trkpt lat="41.45399400" lon="2.182129000">
        <ele>159.00000</ele>
        <time>2010-01-01T02:15:39Z</time>
      </trkpt>
      <trkpt lat="41.45401600" lon="2.182237000">
        <ele>159.00000</ele>
        <time>2010-01-01T02:15:43Z</time>
      </trkpt>
      <trkpt lat="41.45404000" lon="2.182326000">
        <ele>159.00000</ele>
        <time>2010-01-01T02:15:46Z</time>
      </trkpt>
      <trkpt lat="41.45406900" lon="2.182401000">
        <ele>159.00000</ele>
        <time>2010-01-01T02:15:48Z</time>
      </trkpt>
      <trkpt lat="41.45410900" lon="2.182475000">
        <ele>159.00000</ele>
        <time>2010-01-01T02:15:51Z</time>
      </trkpt>
      <trkpt lat="41.45414100" lon="2.182530000">
        <ele>159.00000</ele>
        <time>2010-01-01T02:15:53Z</time>
      </trkpt>
      <trkpt lat="41.45416700" lon="2.182578000">
        <ele>158.00000</ele>
        <time>2010-01-01T02:15:55Z</time>
      </trkpt>
      <trkpt lat="41.45417600" lon="2.182598000">
        <ele>158.00000</ele>
        <time>2010-01-01T02:15:55Z</time>
      </trkpt>
      <trkpt lat="41.45419400" lon="2.182642000">
        <ele>159.00000</ele>
        <time>2010-01-01T02:15:57Z</time>
      </trkpt>
      <trkpt lat="41.45420400" lon="2.182681000">
        <ele>159.00000</ele>
        <time>2010-01-01T02:15:58Z</time>
      </trkpt>
      <trkpt lat="41.45421100" lon="2.182722000">
        <ele>159.00000</ele>
        <time>2010-01-01T02:15:59Z</time>
      </trkpt>
      <trkpt lat="41.45421500" lon="2.182788000">
        <ele>160.00000</ele>
        <time>2010-01-01T02:16:01Z</time>
      </trkpt>
      <trkpt lat="41.45421400" lon="2.182877000">
        <ele>161.00000</ele>
        <time>2010-01-01T02:16:04Z</time>
      </trkpt>
      <trkpt lat="41.45421500" lon="2.182959000">
        <ele>162.00000</ele>
        <time>2010-01-01T02:16:07Z</time>
      </trkpt>
      <trkpt lat="41.45421900" lon="2.183018000">
        <ele>162.00000</ele>
        <time>2010-01-01T02:16:08Z</time>
      </trkpt>
      <trkpt lat="41.45422200" lon="2.183047000">
        <ele>163.00000</ele>
        <time>2010-01-01T02:16:09Z</time>
      </trkpt>
      <trkpt lat="41.45423100" lon="2.183117000">
        <ele>162.00000</ele>
        <time>2010-01-01T02:16:11Z</time>
      </trkpt>
      <trkpt lat="41.45425200" lon="2.183220000">
        <ele>162.00000</ele>
        <time>2010-01-01T02:16:15Z</time>
      </trkpt>
      <trkpt lat="41.45431000" lon="2.183416000">
        <ele>158.00000</ele>
        <time>2010-01-01T02:16:21Z</time>
      </trkpt>
      <trkpt lat="41.45437400" lon="2.183630000">
        <ele>156.00000</ele>
        <time>2010-01-01T02:16:28Z</time>
      </trkpt>
      <trkpt lat="41.45438900" lon="2.183701000">
        <ele>155.00000</ele>
        <time>2010-01-01T02:16:30Z</time>
      </trkpt>
      <trkpt lat="41.45440300" lon="2.183794000">
        <ele>153.00000</ele>
        <time>2010-01-01T02:16:33Z</time>
      </trkpt>
      <trkpt lat="41.45441200" lon="2.183880000">
        <ele>151.00000</ele>
        <time>2010-01-01T02:16:35Z</time>
      </trkpt>
      <trkpt lat="41.45442400" lon="2.183962000">
        <ele>151.00000</ele>
        <time>2010-01-01T02:16:38Z</time>
      </trkpt>
      <trkpt lat="41.45444300" lon="2.184070000">
        <ele>150.00000</ele>
        <time>2010-01-01T02:16:41Z</time>
      </trkpt>
      <trkpt lat="41.45444910" lon="2.184103420">
        <ele>150.00000</ele>
        <time>2010-01-01T02:16:42Z</time>
      </trkpt>
      <trkpt lat="41.45445400" lon="2.184130000">
        <ele>150.00000</ele>
        <time>2010-01-01T02:16:43Z</time>
      </trkpt>
      <trkpt lat="41.45445100" lon="2.184209000">
        <ele>150.00000</ele>
        <time>2010-01-01T02:16:45Z</time>
      </trkpt>
      <trkpt lat="41.45447100" lon="2.184221000">
        <ele>149.00000</ele>
        <time>2010-01-01T02:16:46Z</time>
      </trkpt>
      <trkpt lat="41.45447800" lon="2.184251000">
        <ele>149.00000</ele>
        <time>2010-01-01T02:16:47Z</time>
      </trkpt>
      <trkpt lat="41.45446800" lon="2.184294000">
        <ele>148.00000</ele>
        <time>2010-01-01T02:16:49Z</time>
      </trkpt>
      <trkpt lat="41.45447000" lon="2.184349000">
        <ele>147.00000</ele>
        <time>2010-01-01T02:16:50Z</time>
      </trkpt>
      <trkpt lat="41.45449100" lon="2.184366000">
        <ele>147.00000</ele>
        <time>2010-01-01T02:16:51Z</time>
      </trkpt>
      <trkpt lat="41.45452900" lon="2.184386000">
        <ele>146.00000</ele>
        <time>2010-01-01T02:16:53Z</time>
      </trkpt>
      <trkpt lat="41.45454700" lon="2.184390000">
        <ele>146.00000</ele>
        <time>2010-01-01T02:16:54Z</time>
      </trkpt>
      <trkpt lat="41.45458700" lon="2.184392000">
        <ele>146.00000</ele>
        <time>2010-01-01T02:16:55Z</time>
      </trkpt>
      <trkpt lat="41.45460000" lon="2.184389000">
        <ele>146.00000</ele>
        <time>2010-01-01T02:16:56Z</time>
      </trkpt>
      <trkpt lat="41.45462800" lon="2.184367000">
        <ele>146.00000</ele>
        <time>2010-01-01T02:16:57Z</time>
      </trkpt>
      <trkpt lat="41.45463500" lon="2.184356000">
        <ele>146.00000</ele>
        <time>2010-01-01T02:16:58Z</time>
      </trkpt>
      <trkpt lat="41.45464100" lon="2.184340000">
        <ele>146.00000</ele>
        <time>2010-01-01T02:16:58Z</time>
      </trkpt>
      <trkpt lat="41.45464400" lon="2.184325000">
        <ele>146.00000</ele>
        <time>2010-01-01T02:16:59Z</time>
      </trkpt>
      <trkpt lat="41.45464300" lon="2.184306000">
        <ele>146.00000</ele>
        <time>2010-01-01T02:16:59Z</time>
      </trkpt>
      <trkpt lat="41.45463900" lon="2.184284000">
        <ele>146.00000</ele>
        <time>2010-01-01T02:17:00Z</time>
      </trkpt>
      <trkpt lat="41.45461900" lon="2.184209000">
        <ele>147.00000</ele>
        <time>2010-01-01T02:17:02Z</time>
      </trkpt>
      <trkpt lat="41.45460700" lon="2.184179000">
        <ele>148.00000</ele>
        <time>2010-01-01T02:17:03Z</time>
      </trkpt>
      <trkpt lat="41.45459600" lon="2.184141000">
        <ele>148.00000</ele>
        <time>2010-01-01T02:17:04Z</time>
      </trkpt>
      <trkpt lat="41.45458500" lon="2.184089000">
        <ele>148.00000</ele>
        <time>2010-01-01T02:17:06Z</time>
      </trkpt>
      <trkpt lat="41.45457800" lon="2.184042000">
        <ele>148.00000</ele>
        <time>2010-01-01T02:17:07Z</time>
      </trkpt>
      <trkpt lat="41.45457500" lon="2.184001000">
        <ele>148.00000</ele>
        <time>2010-01-01T02:17:09Z</time>
      </trkpt>
      <trkpt lat="41.45456800" lon="2.183845000">
        <ele>148.00000</ele>
        <time>2010-01-01T02:17:13Z</time>
      </trkpt>
      <trkpt lat="41.45456700" lon="2.183785000">
        <ele>149.00000</ele>
        <time>2010-01-01T02:17:15Z</time>
      </trkpt>
      <trkpt lat="41.45456400" lon="2.183697000">
        <ele>149.00000</ele>
        <time>2010-01-01T02:17:18Z</time>
      </trkpt>
      <trkpt lat="41.45455700" lon="2.183598000">
        <ele>150.00000</ele>
        <time>2010-01-01T02:17:21Z</time>
      </trkpt>
      <trkpt lat="41.45455100" lon="2.183532000">
        <ele>150.00000</ele>
        <time>2010-01-01T02:17:23Z</time>
      </trkpt>
      <trkpt lat="41.45453800" lon="2.183451000">
        <ele>150.00000</ele>
        <time>2010-01-01T02:17:25Z</time>
      </trkpt>
      <trkpt lat="41.45452900" lon="2.183410000">
        <ele>150.00000</ele>
        <time>2010-01-01T02:17:27Z</time>
      </trkpt>
      <trkpt lat="41.45451500" lon="2.183328000">
        <ele>150.00000</ele>
        <time>2010-01-01T02:17:29Z</time>
      </trkpt>
      <trkpt lat="41.45450000" lon="2.183258000">
        <ele>151.00000</ele>
        <time>2010-01-01T02:17:31Z</time>
      </trkpt>
      <trkpt lat="41.45449100" lon="2.183212000">
        <ele>152.00000</ele>
        <time>2010-01-01T02:17:33Z</time>
      </trkpt>
      <trkpt lat="41.45447800" lon="2.183158000">
        <ele>153.00000</ele>
        <time>2010-01-01T02:17:34Z</time>
      </trkpt>
      <trkpt lat="41.45447000" lon="2.183114000">
        <ele>154.00000</ele>
        <time>2010-01-01T02:17:36Z</time>
      </trkpt>
      <trkpt lat="41.45446600" lon="2.183025000">
        <ele>154.00000</ele>
        <time>2010-01-01T02:17:38Z</time>
      </trkpt>
      <trkpt lat="41.45446700" lon="2.182993000">
        <ele>154.00000</ele>
        <time>2010-01-01T02:17:39Z</time>
      </trkpt>
      <trkpt lat="41.45448000" lon="2.182910000">
        <ele>153.00000</ele>
        <time>2010-01-01T02:17:42Z</time>
      </trkpt>
      <trkpt lat="41.45449100" lon="2.182870000">
        <ele>153.00000</ele>
        <time>2010-01-01T02:17:43Z</time>
      </trkpt>
      <trkpt lat="41.45451200" lon="2.182818000">
        <ele>152.00000</ele>
        <time>2010-01-01T02:17:45Z</time>
      </trkpt>
      <trkpt lat="41.45452500" lon="2.182789000">
        <ele>151.00000</ele>
        <time>2010-01-01T02:17:46Z</time>
      </trkpt>
      <trkpt lat="41.45454600" lon="2.182743000">
        <ele>150.00000</ele>
        <time>2010-01-01T02:17:48Z</time>
      </trkpt>
      <trkpt lat="41.45457400" lon="2.182667000">
        <ele>149.00000</ele>
        <time>2010-01-01T02:17:50Z</time>
      </trkpt>
      <trkpt lat="41.45459800" lon="2.182564000">
        <ele>147.00000</ele>
        <time>2010-01-01T02:17:53Z</time>
      </trkpt>
      <trkpt lat="41.45461700" lon="2.182478000">
        <ele>145.00000</ele>
        <time>2010-01-01T02:17:56Z</time>
      </trkpt>
      <trkpt lat="41.45462200" lon="2.182464000">
        <ele>145.00000</ele>
        <time>2010-01-01T02:17:57Z</time>
      </trkpt>
      <trkpt lat="41.45462300" lon="2.182445000">
        <ele>145.00000</ele>
        <time>2010-01-01T02:17:57Z</time>
      </trkpt>
      <trkpt lat="41.45462100" lon="2.182426000">
        <ele>145.00000</ele>
        <time>2010-01-01T02:17:58Z</time>
      </trkpt>
      <trkpt lat="41.45461500" lon="2.182405000">
        <ele>144.00000</ele>
        <time>2010-01-01T02:17:58Z</time>
      </trkpt>
      <trkpt lat="41.45458300" lon="2.182337000">
        <ele>145.00000</ele>
        <time>2010-01-01T02:18:01Z</time>
      </trkpt>
      <trkpt lat="41.45455200" lon="2.182279000">
        <ele>145.00000</ele>
        <time>2010-01-01T02:18:03Z</time>
      </trkpt>
      <trkpt lat="41.45452000" lon="2.182224000">
        <ele>145.00000</ele>
        <time>2010-01-01T02:18:05Z</time>
      </trkpt>
      <trkpt lat="41.45449100" lon="2.182179000">
        <ele>145.00000</ele>
        <time>2010-01-01T02:18:07Z</time>
      </trkpt>
      <trkpt lat="41.45443300" lon="2.182100000">
        <ele>146.00000</ele>
        <time>2010-01-01T02:18:10Z</time>
      </trkpt>
      <trkpt lat="41.45442300" lon="2.182062000">
        <ele>147.00000</ele>
        <time>2010-01-01T02:18:11Z</time>
      </trkpt>
      <trkpt lat="41.45442100" lon="2.181989000">
        <ele>146.00000</ele>
        <time>2010-01-01T02:18:13Z</time>
      </trkpt>
      <trkpt lat="41.45440900" lon="2.181971000">
        <ele>147.00000</ele>
        <time>2010-01-01T02:18:14Z</time>
      </trkpt>
      <trkpt lat="41.45439600" lon="2.181920000">
        <ele>147.00000</ele>
        <time>2010-01-01T02:18:16Z</time>
      </trkpt>
      <trkpt lat="41.45438700" lon="2.181870000">
        <ele>146.00000</ele>
        <time>2010-01-01T02:18:17Z</time>
      </trkpt>
      <trkpt lat="41.45437200" lon="2.181753000">
        <ele>146.00000</ele>
        <time>2010-01-01T02:18:21Z</time>
      </trkpt>
      <trkpt lat="41.45435000" lon="2.181675000">
        <ele>146.00000</ele>
        <time>2010-01-01T02:18:23Z</time>
      </trkpt>
      <trkpt lat="41.45432000" lon="2.181611000">
        <ele>147.00000</ele>
        <time>2010-01-01T02:18:26Z</time>
      </trkpt>
      <trkpt lat="41.45427100" lon="2.181546000">
        <ele>149.00000</ele>
        <time>2010-01-01T02:18:28Z</time>
      </trkpt>
      <trkpt lat="41.45416300" lon="2.181399000">
        <ele>153.00000</ele>
        <time>2010-01-01T02:18:35Z</time>
      </trkpt>
      <trkpt lat="41.45413400" lon="2.181307000">
        <ele>154.00000</ele>
        <time>2010-01-01T02:18:38Z</time>
      </trkpt>
      <trkpt lat="41.45413500" lon="2.181246000">
        <ele>154.00000</ele>
        <time>2010-01-01T02:18:39Z</time>
      </trkpt>
      <trkpt lat="41.45413800" lon="2.181225000">
        <ele>154.00000</ele>
        <time>2010-01-01T02:18:40Z</time>
      </trkpt>
      <trkpt lat="41.45414800" lon="2.181196000">
        <ele>154.00000</ele>
        <time>2010-01-01T02:18:41Z</time>
      </trkpt>
      <trkpt lat="41.45416800" lon="2.181170000">
        <ele>154.00000</ele>
        <time>2010-01-01T02:18:42Z</time>
      </trkpt>
      <trkpt lat="41.45423400" lon="2.181125000">
        <ele>151.00000</ele>
        <time>2010-01-01T02:18:45Z</time>
      </trkpt>
      <trkpt lat="41.45435700" lon="2.181054000">
        <ele>146.00000</ele>
        <time>2010-01-01T02:18:51Z</time>
      </trkpt>
      <trkpt lat="41.45449000" lon="2.180995000">
        <ele>143.00000</ele>
        <time>2010-01-01T02:18:56Z</time>
      </trkpt>
      <trkpt lat="41.45462200" lon="2.180947000">
        <ele>139.00000</ele>
        <time>2010-01-01T02:19:02Z</time>
      </trkpt>
      <trkpt lat="41.45470800" lon="2.180927000">
        <ele>136.00000</ele>
        <time>2010-01-01T02:19:05Z</time>
      </trkpt>
      <trkpt lat="41.45479000" lon="2.180927000">
        <ele>135.00000</ele>
        <time>2010-01-01T02:19:08Z</time>
      </trkpt>
      <trkpt lat="41.45486000" lon="2.180929000">
        <ele>135.00000</ele>
        <time>2010-01-01T02:19:11Z</time>
      </trkpt>
      <trkpt lat="41.45491500" lon="2.180936000">
        <ele>135.00000</ele>
        <time>2010-01-01T02:19:13Z</time>
      </trkpt>
      <trkpt lat="41.45499000" lon="2.180951000">
        <ele>134.00000</ele>
        <time>2010-01-01T02:19:16Z</time>
      </trkpt>
      <trkpt lat="41.45506900" lon="2.180970000">
        <ele>133.00000</ele>
        <time>2010-01-01T02:19:20Z</time>
      </trkpt>
      <trkpt lat="41.45513800" lon="2.180991000">
        <ele>131.00000</ele>
        <time>2010-01-01T02:19:22Z</time>
      </trkpt>
      <trkpt lat="41.45522100" lon="2.181005000">
        <ele>130.00000</ele>
        <time>2010-01-01T02:19:26Z</time>
      </trkpt>
      <trkpt lat="41.45527900" lon="2.181006000">
        <ele>130.00000</ele>
        <time>2010-01-01T02:19:28Z</time>
      </trkpt>
      <trkpt lat="41.45534100" lon="2.180997000">
        <ele>129.00000</ele>
        <time>2010-01-01T02:19:31Z</time>
      </trkpt>
      <trkpt lat="41.45541400" lon="2.180982000">
        <ele>129.00000</ele>
        <time>2010-01-01T02:19:34Z</time>
      </trkpt>
      <trkpt lat="41.45549400" lon="2.180967000">
        <ele>128.00000</ele>
        <time>2010-01-01T02:19:37Z</time>
      </trkpt>
      <trkpt lat="41.45565800" lon="2.180935000">
        <ele>126.00000</ele>
        <time>2010-01-01T02:19:43Z</time>
      </trkpt>
      <trkpt lat="41.45580700" lon="2.180898000">
        <ele>124.00000</ele>
        <time>2010-01-01T02:19:50Z</time>
      </trkpt>
      <trkpt lat="41.45592200" lon="2.180868000">
        <ele>121.00000</ele>
        <time>2010-01-01T02:19:54Z</time>
      </trkpt>
      <trkpt lat="41.45595600" lon="2.180853000">
        <ele>121.00000</ele>
        <time>2010-01-01T02:19:56Z</time>
      </trkpt>
      <trkpt lat="41.45603900" lon="2.180808000">
        <ele>118.00000</ele>
        <time>2010-01-01T02:19:59Z</time>
      </trkpt>
      <trkpt lat="41.45605600" lon="2.180791000">
        <ele>118.00000</ele>
        <time>2010-01-01T02:20:00Z</time>
      </trkpt>
      <trkpt lat="41.45607000" lon="2.180772000">
        <ele>117.00000</ele>
        <time>2010-01-01T02:20:01Z</time>
      </trkpt>
      <trkpt lat="41.45608100" lon="2.180749000">
        <ele>117.00000</ele>
        <time>2010-01-01T02:20:02Z</time>
      </trkpt>
      <trkpt lat="41.45609400" lon="2.180700000">
        <ele>117.00000</ele>
        <time>2010-01-01T02:20:03Z</time>
      </trkpt>
      <trkpt lat="41.45609700" lon="2.180657000">
        <ele>117.00000</ele>
        <time>2010-01-01T02:20:05Z</time>
      </trkpt>
      <trkpt lat="41.45608200" lon="2.180584000">
        <ele>118.00000</ele>
        <time>2010-01-01T02:20:07Z</time>
      </trkpt>
      <trkpt lat="41.45605200" lon="2.180474000">
        <ele>120.00000</ele>
        <time>2010-01-01T02:20:10Z</time>
      </trkpt>
      <trkpt lat="41.45602000" lon="2.180365000">
        <ele>122.00000</ele>
        <time>2010-01-01T02:20:14Z</time>
      </trkpt>
      <trkpt lat="41.45600400" lon="2.180289000">
        <ele>123.00000</ele>
        <time>2010-01-01T02:20:16Z</time>
      </trkpt>
      <trkpt lat="41.45599400" lon="2.180201000">
        <ele>124.00000</ele>
        <time>2010-01-01T02:20:19Z</time>
      </trkpt>
      <trkpt lat="41.45599300" lon="2.180150000">
        <ele>124.00000</ele>
        <time>2010-01-01T02:20:20Z</time>
      </trkpt>
      <trkpt lat="41.45599700" lon="2.179998310">
        <ele>124.00000</ele>
        <time>2010-01-01T02:20:25Z</time>
      </trkpt>
      <trkpt lat="41.45599800" lon="2.179964000">
        <ele>124.00000</ele>
        <time>2010-01-01T02:20:26Z</time>
      </trkpt>
      <trkpt lat="41.45599300" lon="2.179829000">
        <ele>124.00000</ele>
        <time>2010-01-01T02:20:30Z</time>
      </trkpt>
      <trkpt lat="41.45599100" lon="2.179757000">
        <ele>124.00000</ele>
        <time>2010-01-01T02:20:32Z</time>
      </trkpt>
      <trkpt lat="41.45599400" lon="2.179745000">
        <ele>124.00000</ele>
        <time>2010-01-01T02:20:33Z</time>
      </trkpt>
      <trkpt lat="41.45602000" lon="2.179715000">
        <ele>122.00000</ele>
        <time>2010-01-01T02:20:34Z</time>
      </trkpt>
      <trkpt lat="41.45606400" lon="2.179698000">
        <ele>120.00000</ele>
        <time>2010-01-01T02:20:36Z</time>
      </trkpt>
      <trkpt lat="41.45609700" lon="2.179693000">
        <ele>119.00000</ele>
        <time>2010-01-01T02:20:37Z</time>
      </trkpt>
      <trkpt lat="41.45618900" lon="2.179689000">
        <ele>116.00000</ele>
        <time>2010-01-01T02:20:41Z</time>
      </trkpt>
      <trkpt lat="41.45625200" lon="2.179695000">
        <ele>114.00000</ele>
        <time>2010-01-01T02:20:43Z</time>
      </trkpt>
      <trkpt lat="41.45627300" lon="2.179710000">
        <ele>114.00000</ele>
        <time>2010-01-01T02:20:44Z</time>
      </trkpt>
      <trkpt lat="41.45628700" lon="2.179733000">
        <ele>113.00000</ele>
        <time>2010-01-01T02:20:45Z</time>
      </trkpt>
      <trkpt lat="41.45629600" lon="2.179764000">
        <ele>113.00000</ele>
        <time>2010-01-01T02:20:46Z</time>
      </trkpt>
      <trkpt lat="41.45629700" lon="2.179792000">
        <ele>113.00000</ele>
        <time>2010-01-01T02:20:47Z</time>
      </trkpt>
      <trkpt lat="41.45628800" lon="2.179829000">
        <ele>114.00000</ele>
        <time>2010-01-01T02:20:48Z</time>
      </trkpt>
      <trkpt lat="41.45626200" lon="2.179895000">
        <ele>114.00000</ele>
        <time>2010-01-01T02:20:50Z</time>
      </trkpt>
      <trkpt lat="41.45622900" lon="2.179983000">
        <ele>116.00000</ele>
        <time>2010-01-01T02:20:53Z</time>
      </trkpt>
      <trkpt lat="41.45620500" lon="2.180048000">
        <ele>116.00000</ele>
        <time>2010-01-01T02:20:56Z</time>
      </trkpt>
      <trkpt lat="41.45619600" lon="2.180081000">
        <ele>116.00000</ele>
        <time>2010-01-01T02:20:57Z</time>
      </trkpt>
      <trkpt lat="41.45619000" lon="2.180151000">
        <ele>116.00000</ele>
        <time>2010-01-01T02:20:59Z</time>
      </trkpt>
      <trkpt lat="41.45620400" lon="2.180236000">
        <ele>115.00000</ele>
        <time>2010-01-01T02:21:01Z</time>
      </trkpt>
      <trkpt lat="41.45622600" lon="2.180295000">
        <ele>114.00000</ele>
        <time>2010-01-01T02:21:03Z</time>
      </trkpt>
      <trkpt lat="41.45626300" lon="2.180360000">
        <ele>113.00000</ele>
        <time>2010-01-01T02:21:06Z</time>
      </trkpt>
      <trkpt lat="41.45638000" lon="2.180498000">
        <ele>108.00000</ele>
        <time>2010-01-01T02:21:12Z</time>
      </trkpt>
      <trkpt lat="41.45650300" lon="2.180623000">
        <ele>104.00000</ele>
        <time>2010-01-01T02:21:18Z</time>
      </trkpt>
      <trkpt lat="41.45656200" lon="2.180664000">
        <ele>102.00000</ele>
        <time>2010-01-01T02:21:21Z</time>
      </trkpt>
      <trkpt lat="41.45669200" lon="2.180776000">
        <ele>99.000000</ele>
        <time>2010-01-01T02:21:27Z</time>
      </trkpt>
      <trkpt lat="41.45675000" lon="2.180828000">
        <ele>97.000000</ele>
        <time>2010-01-01T02:21:30Z</time>
      </trkpt>
      <trkpt lat="41.45684000" lon="2.180909000">
        <ele>93.000000</ele>
        <time>2010-01-01T02:21:34Z</time>
      </trkpt>
      <trkpt lat="41.45686180" lon="2.180935620">
        <ele>93.000000</ele>
        <time>2010-01-01T02:21:35Z</time>
      </trkpt>
      <trkpt lat="41.45690000" lon="2.180982000">
        <ele>91.000000</ele>
        <time>2010-01-01T02:21:37Z</time>
      </trkpt>
      <trkpt lat="41.45693800" lon="2.181051000">
        <ele>90.000000</ele>
        <time>2010-01-01T02:21:40Z</time>
      </trkpt>
      <trkpt lat="41.45695300" lon="2.181102000">
        <ele>90.000000</ele>
        <time>2010-01-01T02:21:42Z</time>
      </trkpt>
      <trkpt lat="41.45695800" lon="2.181138000">
        <ele>90.000000</ele>
        <time>2010-01-01T02:21:43Z</time>
      </trkpt>
      <trkpt lat="41.45695500" lon="2.181192000">
        <ele>90.000000</ele>
        <time>2010-01-01T02:21:44Z</time>
      </trkpt>
      <trkpt lat="41.45694500" lon="2.181221000">
        <ele>90.000000</ele>
        <time>2010-01-01T02:21:45Z</time>
      </trkpt>
      <trkpt lat="41.45691300" lon="2.181268000">
        <ele>91.000000</ele>
        <time>2010-01-01T02:21:47Z</time>
      </trkpt>
      <trkpt lat="41.45687300" lon="2.181297000">
        <ele>91.000000</ele>
        <time>2010-01-01T02:21:49Z</time>
      </trkpt>
      <trkpt lat="41.45682400" lon="2.181316000">
        <ele>92.000000</ele>
        <time>2010-01-01T02:21:51Z</time>
      </trkpt>
      <trkpt lat="41.45674700" lon="2.181328000">
        <ele>94.000000</ele>
        <time>2010-01-01T02:21:54Z</time>
      </trkpt>
      <trkpt lat="41.45663400" lon="2.181329000">
        <ele>96.000000</ele>
        <time>2010-01-01T02:21:59Z</time>
      </trkpt>
      <trkpt lat="41.45650600" lon="2.181319000">
        <ele>100.00000</ele>
        <time>2010-01-01T02:22:04Z</time>
      </trkpt>
      <trkpt lat="41.45626600" lon="2.181298000">
        <ele>104.00000</ele>
        <time>2010-01-01T02:22:14Z</time>
      </trkpt>
      <trkpt lat="41.45617200" lon="2.181300000">
        <ele>106.00000</ele>
        <time>2010-01-01T02:22:17Z</time>
      </trkpt>
      <trkpt lat="41.45609700" lon="2.181318000">
        <ele>107.00000</ele>
        <time>2010-01-01T02:22:20Z</time>
      </trkpt>
      <trkpt lat="41.45592200" lon="2.181394000">
        <ele>109.00000</ele>
        <time>2010-01-01T02:22:28Z</time>
      </trkpt>
      <trkpt lat="41.45576000" lon="2.181489000">
        <ele>111.00000</ele>
        <time>2010-01-01T02:22:35Z</time>
      </trkpt>
      <trkpt lat="41.45574090" lon="2.181504680">
        <ele>111.00000</ele>
        <time>2010-01-01T02:22:36Z</time>
      </trkpt>
      <trkpt lat="41.45570400" lon="2.181535000">
        <ele>111.00000</ele>
        <time>2010-01-01T02:22:37Z</time>
      </trkpt>
      <trkpt lat="41.45568600" lon="2.181557000">
        <ele>111.00000</ele>
        <time>2010-01-01T02:22:38Z</time>
      </trkpt>
      <trkpt lat="41.45566800" lon="2.181586000">
        <ele>111.00000</ele>
        <time>2010-01-01T02:22:40Z</time>
      </trkpt>
      <trkpt lat="41.45564500" lon="2.181640000">
        <ele>111.00000</ele>
        <time>2010-01-01T02:22:41Z</time>
      </trkpt>
      <trkpt lat="41.45563900" lon="2.181684000">
        <ele>110.00000</ele>
        <time>2010-01-01T02:22:43Z</time>
      </trkpt>
      <trkpt lat="41.45564200" lon="2.181706000">
        <ele>110.00000</ele>
        <time>2010-01-01T02:22:43Z</time>
      </trkpt>
      <trkpt lat="41.45565500" lon="2.181745000">
        <ele>109.00000</ele>
        <time>2010-01-01T02:22:45Z</time>
      </trkpt>
      <trkpt lat="41.45567400" lon="2.181767000">
        <ele>109.00000</ele>
        <time>2010-01-01T02:22:46Z</time>
      </trkpt>
      <trkpt lat="41.45579500" lon="2.181831000">
        <ele>107.00000</ele>
        <time>2010-01-01T02:22:51Z</time>
      </trkpt>
      <trkpt lat="41.45595700" lon="2.181917000">
        <ele>102.00000</ele>
        <time>2010-01-01T02:22:58Z</time>
      </trkpt>
      <trkpt lat="41.45612000" lon="2.182007000">
        <ele>98.000000</ele>
        <time>2010-01-01T02:23:05Z</time>
      </trkpt>
      <trkpt lat="41.45619100" lon="2.182054000">
        <ele>97.000000</ele>
        <time>2010-01-01T02:23:08Z</time>
      </trkpt>
      <trkpt lat="41.45624600" lon="2.182086000">
        <ele>96.000000</ele>
        <time>2010-01-01T02:23:11Z</time>
      </trkpt>
      <trkpt lat="41.45634200" lon="2.182127000">
        <ele>94.000000</ele>
        <time>2010-01-01T02:23:15Z</time>
      </trkpt>
      <trkpt lat="41.45657700" lon="2.182238000">
        <ele>90.000000</ele>
        <time>2010-01-01T02:23:25Z</time>
      </trkpt>
      <trkpt lat="41.45694900" lon="2.182413000">
        <ele>87.000000</ele>
        <time>2010-01-01T02:23:40Z</time>
      </trkpt>
      <trkpt lat="41.45704100" lon="2.182453000">
        <ele>87.000000</ele>
        <time>2010-01-01T02:23:44Z</time>
      </trkpt>
      <trkpt lat="41.45712900" lon="2.182498000">
        <ele>87.000000</ele>
        <time>2010-01-01T02:23:48Z</time>
      </trkpt>
      <trkpt lat="41.45722500" lon="2.182529000">
        <ele>86.000000</ele>
        <time>2010-01-01T02:23:52Z</time>
      </trkpt>
      <trkpt lat="41.45726200" lon="2.182533000">
        <ele>85.000000</ele>
        <time>2010-01-01T02:23:53Z</time>
      </trkpt>
      <trkpt lat="41.45729300" lon="2.182530000">
        <ele>85.000000</ele>
        <time>2010-01-01T02:23:55Z</time>
      </trkpt>
      <trkpt lat="41.45733200" lon="2.182518000">
        <ele>84.000000</ele>
        <time>2010-01-01T02:23:56Z</time>
      </trkpt>
      <trkpt lat="41.45735100" lon="2.182506000">
        <ele>83.000000</ele>
        <time>2010-01-01T02:23:57Z</time>
      </trkpt>
      <trkpt lat="41.45739300" lon="2.182465000">
        <ele>81.000000</ele>
        <time>2010-01-01T02:23:59Z</time>
      </trkpt>
      <trkpt lat="41.45745800" lon="2.182367000">
        <ele>78.000000</ele>
        <time>2010-01-01T02:24:03Z</time>
      </trkpt>
      <trkpt lat="41.45751500" lon="2.182299000">
        <ele>77.000000</ele>
        <time>2010-01-01T02:24:06Z</time>
      </trkpt>
      <trkpt lat="41.45754900" lon="2.182271000">
        <ele>76.000000</ele>
        <time>2010-01-01T02:24:08Z</time>
      </trkpt>
      <trkpt lat="41.45758900" lon="2.182245000">
        <ele>76.000000</ele>
        <time>2010-01-01T02:24:10Z</time>
      </trkpt>
      <trkpt lat="41.45766600" lon="2.182202000">
        <ele>75.000000</ele>
        <time>2010-01-01T02:24:13Z</time>
      </trkpt>
      <trkpt lat="41.45776600" lon="2.182152000">
        <ele>73.000000</ele>
        <time>2010-01-01T02:24:17Z</time>
      </trkpt>
      <trkpt lat="41.45781300" lon="2.182131000">
        <ele>73.000000</ele>
        <time>2010-01-01T02:24:19Z</time>
      </trkpt>
      <trkpt lat="41.45786900" lon="2.182112000">
        <ele>73.000000</ele>
        <time>2010-01-01T02:24:21Z</time>
      </trkpt>
      <trkpt lat="41.45800500" lon="2.182063000">
        <ele>72.000000</ele>
        <time>2010-01-01T02:24:27Z</time>
      </trkpt>
      <trkpt lat="41.45815100" lon="2.181985000">
        <ele>70.000000</ele>
        <time>2010-01-01T02:24:33Z</time>
      </trkpt>
      <trkpt lat="41.45818000" lon="2.181962000">
        <ele>69.000000</ele>
        <time>2010-01-01T02:24:35Z</time>
      </trkpt>
      <trkpt lat="41.45820900" lon="2.181932000">
        <ele>68.000000</ele>
        <time>2010-01-01T02:24:36Z</time>
      </trkpt>
      <trkpt lat="41.45823900" lon="2.181892000">
        <ele>68.000000</ele>
        <time>2010-01-01T02:24:38Z</time>
      </trkpt>
      <trkpt lat="41.45826400" lon="2.181850000">
        <ele>67.000000</ele>
        <time>2010-01-01T02:24:40Z</time>
      </trkpt>
      <trkpt lat="41.45828500" lon="2.181804000">
        <ele>67.000000</ele>
        <time>2010-01-01T02:24:41Z</time>
      </trkpt>
      <trkpt lat="41.45830000" lon="2.181747000">
        <ele>66.000000</ele>
        <time>2010-01-01T02:24:43Z</time>
      </trkpt>
      <trkpt lat="41.45832800" lon="2.181641000">
        <ele>65.000000</ele>
        <time>2010-01-01T02:24:46Z</time>
      </trkpt>
      <trkpt lat="41.45841200" lon="2.181486000">
        <ele>64.000000</ele>
        <time>2010-01-01T02:24:52Z</time>
      </trkpt>
      <trkpt lat="41.45853000" lon="2.181369000">
        <ele>62.000000</ele>
        <time>2010-01-01T02:24:58Z</time>
      </trkpt>
      <trkpt lat="41.45860700" lon="2.181337000">
        <ele>62.000000</ele>
        <time>2010-01-01T02:25:01Z</time>
      </trkpt>
      <trkpt lat="41.45866900" lon="2.181323000">
        <ele>61.000000</ele>
        <time>2010-01-01T02:25:04Z</time>
      </trkpt>
      <trkpt lat="41.45876300" lon="2.181328000">
        <ele>61.000000</ele>
        <time>2010-01-01T02:25:07Z</time>
      </trkpt>
      <trkpt lat="41.45884500" lon="2.181358000">
        <ele>60.000000</ele>
        <time>2010-01-01T02:25:11Z</time>
      </trkpt>
      <trkpt lat="41.45895700" lon="2.181416000">
        <ele>60.000000</ele>
        <time>2010-01-01T02:25:16Z</time>
      </trkpt>
      <trkpt lat="41.45906500" lon="2.181459000">
        <ele>59.000000</ele>
        <time>2010-01-01T02:25:20Z</time>
      </trkpt>
      <trkpt lat="41.45911100" lon="2.181491000">
        <ele>59.000000</ele>
        <time>2010-01-01T02:25:22Z</time>
      </trkpt>
      <trkpt lat="41.45921600" lon="2.181605000">
        <ele>59.000000</ele>
        <time>2010-01-01T02:25:28Z</time>
      </trkpt>
      <trkpt lat="41.45926490" lon="2.181663230">
        <ele>59.000000</ele>
        <time>2010-01-01T02:25:30Z</time>
      </trkpt>
      <trkpt lat="41.45927400" lon="2.181674000">
        <ele>59.000000</ele>
        <time>2010-01-01T02:25:31Z</time>
      </trkpt>
      <trkpt lat="41.45932400" lon="2.181736000">
        <ele>59.000000</ele>
        <time>2010-01-01T02:25:34Z</time>
      </trkpt>
      <trkpt lat="41.45934900" lon="2.181752000">
        <ele>59.000000</ele>
        <time>2010-01-01T02:25:35Z</time>
      </trkpt>
      <trkpt lat="41.45941700" lon="2.181780000">
        <ele>58.000000</ele>
        <time>2010-01-01T02:25:37Z</time>
      </trkpt>
      <trkpt lat="41.45946000" lon="2.181760000">
        <ele>58.000000</ele>
        <time>2010-01-01T02:25:39Z</time>
      </trkpt>
      <trkpt lat="41.45949500" lon="2.181663000">
        <ele>57.000000</ele>
        <time>2010-01-01T02:25:43Z</time>
      </trkpt>
      <trkpt lat="41.45948600" lon="2.181603000">
        <ele>56.000000</ele>
        <time>2010-01-01T02:25:44Z</time>
      </trkpt>
      <trkpt lat="41.45942800" lon="2.181509000">
        <ele>55.000000</ele>
        <time>2010-01-01T02:25:48Z</time>
      </trkpt>
      <trkpt lat="41.45932500" lon="2.181358000">
        <ele>54.000000</ele>
        <time>2010-01-01T02:25:54Z</time>
      </trkpt>
      <trkpt lat="41.45921900" lon="2.181201000">
        <ele>53.000000</ele>
        <time>2010-01-01T02:26:00Z</time>
      </trkpt>
      <trkpt lat="41.45910400" lon="2.181091000">
        <ele>53.000000</ele>
        <time>2010-01-01T02:26:06Z</time>
      </trkpt>
      <trkpt lat="41.45903000" lon="2.181048000">
        <ele>54.000000</ele>
        <time>2010-01-01T02:26:09Z</time>
      </trkpt>
      <trkpt lat="41.45910500" lon="2.180843000">
        <ele>52.000000</ele>
        <time>2010-01-01T02:26:16Z</time>
      </trkpt>
      <trkpt lat="41.45925140" lon="2.180965570">
        <ele>52.000000</ele>
        <time>2010-01-01T00:00:00Z</time>
      </trkpt>
      <trkpt lat="41.45934610" lon="2.181075520">
        <ele>52.000000</ele>
        <time>2010-01-01T00:00:05Z</time>
      </trkpt>
      <trkpt lat="41.46086860" lon="2.183374970">
        <ele>40.000000</ele>
        <time>2010-01-01T00:01:37Z</time>
      </trkpt>
      <trkpt lat="41.46087040" lon="2.183418090">
        <ele>40.000000</ele>
        <time>2010-01-01T00:01:38Z</time>
      </trkpt>
      <trkpt lat="41.46165140" lon="2.184605820">
        <ele>29.000000</ele>
        <time>2010-01-01T00:02:25Z</time>
      </trkpt>
      <trkpt lat="41.46178470" lon="2.184769620">
        <ele>29.000000</ele>
        <time>2010-01-01T00:02:33Z</time>
      </trkpt>
      <trkpt lat="41.46181960" lon="2.184812430">
        <ele>29.000000</ele>
        <time>2010-01-01T00:02:34Z</time>
      </trkpt>
      <trkpt lat="41.46197870" lon="2.184917340">
        <ele>28.000000</ele>
        <time>2010-01-01T00:02:42Z</time>
      </trkpt>
      <trkpt lat="41.46207220" lon="2.184945020">
        <ele>28.000000</ele>
        <time>2010-01-01T00:02:45Z</time>
      </trkpt>
      <trkpt lat="41.46223320" lon="2.184944710">
        <ele>27.000000</ele>
        <time>2010-01-01T00:02:52Z</time>
      </trkpt>
      <trkpt lat="41.46232750" lon="2.184911290">
        <ele>27.000000</ele>
        <time>2010-01-01T00:02:56Z</time>
      </trkpt>
      <trkpt lat="41.46241460" lon="2.184857590">
        <ele>28.000000</ele>
        <time>2010-01-01T00:03:00Z</time>
      </trkpt>
      <trkpt lat="41.46247870" lon="2.184803340">
        <ele>28.000000</ele>
        <time>2010-01-01T00:03:03Z</time>
      </trkpt>
      <trkpt lat="41.46260590" lon="2.184627820">
        <ele>29.000000</ele>
        <time>2010-01-01T00:03:10Z</time>
      </trkpt>
      <trkpt lat="41.46280980" lon="2.184218540">
        <ele>30.000000</ele>
        <time>2010-01-01T00:03:25Z</time>
      </trkpt>
      <trkpt lat="41.46287390" lon="2.184236970">
        <ele>30.000000</ele>
        <time>2010-01-01T00:03:27Z</time>
      </trkpt>
      <trkpt lat="41.46309370" lon="2.184300170">
        <ele>31.000000</ele>
        <time>2010-01-01T00:03:36Z</time>
      </trkpt>
      <trkpt lat="41.46316790" lon="2.184522070">
        <ele>31.000000</ele>
        <time>2010-01-01T00:03:44Z</time>
      </trkpt>
      <trkpt lat="41.46327780" lon="2.184696930">
        <ele>33.000000</ele>
        <time>2010-01-01T00:03:50Z</time>
      </trkpt>
      <trkpt lat="41.46354670" lon="2.185031100">
        <ele>35.000000</ele>
        <time>2010-01-01T00:04:05Z</time>
      </trkpt>
      <trkpt lat="41.46432260" lon="2.185659280">
        <ele>31.000000</ele>
        <time>2010-01-01T00:04:41Z</time>
      </trkpt>
      <trkpt lat="41.46475370" lon="2.185831410">
        <ele>32.000000</ele>
        <time>2010-01-01T00:04:59Z</time>
      </trkpt>
      <trkpt lat="41.46515140" lon="2.185943950">
        <ele>32.000000</ele>
        <time>2010-01-01T00:05:16Z</time>
      </trkpt>
      <trkpt lat="41.46531550" lon="2.185876910">
        <ele>31.000000</ele>
        <time>2010-01-01T00:05:23Z</time>
      </trkpt>
      <trkpt lat="41.46539250" lon="2.185862560">
        <ele>31.000000</ele>
        <time>2010-01-01T00:05:26Z</time>
      </trkpt>
      <trkpt lat="41.46546520" lon="2.185869430">
        <ele>31.000000</ele>
        <time>2010-01-01T00:05:29Z</time>
      </trkpt>
      <trkpt lat="41.46556310" lon="2.185910080">
        <ele>31.000000</ele>
        <time>2010-01-01T00:05:33Z</time>
      </trkpt>
      <trkpt lat="41.46563190" lon="2.185975800">
        <ele>31.000000</ele>
        <time>2010-01-01T00:05:36Z</time>
      </trkpt>
      <trkpt lat="41.46576280" lon="2.186155900">
        <ele>31.000000</ele>
        <time>2010-01-01T00:05:44Z</time>
      </trkpt>
      <trkpt lat="41.46592940" lon="2.186457780">
        <ele>32.000000</ele>
        <time>2010-01-01T00:05:55Z</time>
      </trkpt>
      <trkpt lat="41.46599730" lon="2.186504820">
        <ele>32.000000</ele>
        <time>2010-01-01T00:05:58Z</time>
      </trkpt>
      <trkpt lat="41.46604670" lon="2.186402340">
        <ele>32.000000</ele>
        <time>2010-01-01T00:06:02Z</time>
      </trkpt>
      <trkpt lat="41.46610790" lon="2.186410210">
        <ele>32.000000</ele>
        <time>2010-01-01T00:06:04Z</time>
      </trkpt>
      <trkpt lat="41.46622870" lon="2.186563640">
        <ele>31.000000</ele>
        <time>2010-01-01T00:06:11Z</time>
      </trkpt>
      <trkpt lat="41.46648830" lon="2.186779750">
        <ele>29.000000</ele>
        <time>2010-01-01T00:06:23Z</time>
      </trkpt>
      <trkpt lat="41.46659190" lon="2.186838760">
        <ele>29.000000</ele>
        <time>2010-01-01T00:06:28Z</time>
      </trkpt>
      <trkpt lat="41.46679030" lon="2.186857260">
        <ele>29.000000</ele>
        <time>2010-01-01T00:06:35Z</time>
      </trkpt>
      <trkpt lat="41.46696340" lon="2.186902530">
        <ele>30.000000</ele>
        <time>2010-01-01T00:06:43Z</time>
      </trkpt>
      <trkpt lat="41.46761730" lon="2.186840760">
        <ele>32.000000</ele>
        <time>2010-01-01T00:07:09Z</time>
      </trkpt>
      <trkpt lat="41.46768080" lon="2.186799060">
        <ele>32.000000</ele>
        <time>2010-01-01T00:07:12Z</time>
      </trkpt>
      <trkpt lat="41.46774010" lon="2.186735170">
        <ele>33.000000</ele>
        <time>2010-01-01T00:07:15Z</time>
      </trkpt>
      <trkpt lat="41.46777570" lon="2.186667390">
        <ele>33.000000</ele>
        <time>2010-01-01T00:07:17Z</time>
      </trkpt>
      <trkpt lat="41.46788710" lon="2.186598800">
        <ele>34.000000</ele>
        <time>2010-01-01T00:07:22Z</time>
      </trkpt>
      <trkpt lat="41.46799120" lon="2.186469440">
        <ele>36.000000</ele>
        <time>2010-01-01T00:07:28Z</time>
      </trkpt>
      <trkpt lat="41.46806240" lon="2.186529470">
        <ele>35.000000</ele>
        <time>2010-01-01T00:07:31Z</time>
      </trkpt>
      <trkpt lat="41.46812490" lon="2.186609970">
        <ele>33.000000</ele>
        <time>2010-01-01T00:07:35Z</time>
      </trkpt>
      <trkpt lat="41.47067410" lon="2.186400330">
        <ele>33.000000</ele>
        <time>2010-01-01T00:09:17Z</time>
      </trkpt>
      <trkpt lat="41.47096060" lon="2.186385520">
        <ele>32.000000</ele>
        <time>2010-01-01T00:09:28Z</time>
      </trkpt>
      <trkpt lat="41.47118530" lon="2.186373910">
        <ele>32.000000</ele>
        <time>2010-01-01T00:09:37Z</time>
      </trkpt>
      <trkpt lat="41.47116810" lon="2.186429730">
        <ele>32.000000</ele>
        <time>2010-01-01T00:09:39Z</time>
      </trkpt>
      <trkpt lat="41.47116810" lon="2.186623350">
        <ele>32.000000</ele>
        <time>2010-01-01T00:09:45Z</time>
      </trkpt>
      <trkpt lat="41.47116810" lon="2.186626040">
        <ele>32.000000</ele>
        <time>2010-01-01T00:09:45Z</time>
      </trkpt>
      <trkpt lat="41.47113510" lon="2.186811790">
        <ele>32.000000</ele>
        <time>2010-01-01T00:09:51Z</time>
      </trkpt>
      <trkpt lat="41.47114210" lon="2.186873600">
        <ele>32.000000</ele>
        <time>2010-01-01T00:09:53Z</time>
      </trkpt>
      <trkpt lat="41.47116830" lon="2.186900250">
        <ele>32.000000</ele>
        <time>2010-01-01T00:09:54Z</time>
      </trkpt>
      <trkpt lat="41.47157360" lon="2.187014230">
        <ele>32.000000</ele>
        <time>2010-01-01T00:10:11Z</time>
      </trkpt>
      <trkpt lat="41.47188750" lon="2.187083640">
        <ele>31.000000</ele>
        <time>2010-01-01T00:10:23Z</time>
      </trkpt>
      <trkpt lat="41.47217870" lon="2.187175030">
        <ele>32.000000</ele>
        <time>2010-01-01T00:10:35Z</time>
      </trkpt>
      <trkpt lat="41.47250610" lon="2.187306350">
        <ele>33.000000</ele>
        <time>2010-01-01T00:10:49Z</time>
      </trkpt>
      <trkpt lat="41.47333000" lon="2.187740890">
        <ele>31.000000</ele>
        <time>2010-01-01T00:11:24Z</time>
      </trkpt>
      <trkpt lat="41.47336130" lon="2.187776320">
        <ele>31.000000</ele>
        <time>2010-01-01T00:11:26Z</time>
      </trkpt>
      <trkpt lat="41.47361330" lon="2.187916180">
        <ele>31.000000</ele>
        <time>2010-01-01T00:11:37Z</time>
      </trkpt>
      <trkpt lat="41.47382090" lon="2.188031400">
        <ele>31.000000</ele>
        <time>2010-01-01T00:11:46Z</time>
      </trkpt>
      <trkpt lat="41.47344190" lon="2.189248670">
        <ele>28.000000</ele>
        <time>2010-01-01T00:12:25Z</time>
      </trkpt>
      <trkpt lat="41.47335570" lon="2.189525780">
        <ele>30.000000</ele>
        <time>2010-01-01T00:12:34Z</time>
      </trkpt>
      <trkpt lat="41.47215890" lon="2.188881080">
        <ele>27.000000</ele>
        <time>2010-01-01T00:13:26Z</time>
      </trkpt>
      <trkpt lat="41.47171850" lon="2.188673920">
        <ele>28.000000</ele>
        <time>2010-01-01T00:13:45Z</time>
      </trkpt>
      <trkpt lat="41.47143640" lon="2.188580410">
        <ele>27.000000</ele>
        <time>2010-01-01T00:13:56Z</time>
      </trkpt>
      <trkpt lat="41.47103860" lon="2.188459900">
        <ele>26.000000</ele>
        <time>2010-01-01T00:14:13Z</time>
      </trkpt>
      <trkpt lat="41.47079920" lon="2.188404920">
        <ele>26.000000</ele>
        <time>2010-01-01T00:14:23Z</time>
      </trkpt>
      <trkpt lat="41.47046170" lon="2.188353050">
        <ele>26.000000</ele>
        <time>2010-01-01T00:14:36Z</time>
      </trkpt>
      <trkpt lat="41.47001300" lon="2.188310520">
        <ele>25.000000</ele>
        <time>2010-01-01T00:14:54Z</time>
      </trkpt>
      <trkpt lat="41.46959100" lon="2.188312780">
        <ele>28.000000</ele>
        <time>2010-01-01T00:15:11Z</time>
      </trkpt>
      <trkpt lat="41.46885100" lon="2.188393970">
        <ele>32.000000</ele>
        <time>2010-01-01T00:15:41Z</time>
      </trkpt>
      <trkpt lat="41.46876320" lon="2.188389080">
        <ele>33.000000</ele>
        <time>2010-01-01T00:15:44Z</time>
      </trkpt>
      <trkpt lat="41.46865500" lon="2.188413990">
        <ele>34.000000</ele>
        <time>2010-01-01T00:15:49Z</time>
      </trkpt>
      <trkpt lat="41.46813660" lon="2.188480170">
        <ele>32.000000</ele>
        <time>2010-01-01T00:16:10Z</time>
      </trkpt>
      <trkpt lat="41.46632160" lon="2.188658050">
        <ele>27.000000</ele>
        <time>2010-01-01T00:17:22Z</time>
      </trkpt>
      <trkpt lat="41.46622650" lon="2.188669410">
        <ele>27.000000</ele>
        <time>2010-01-01T00:17:26Z</time>
      </trkpt>
      <trkpt lat="41.46602640" lon="2.188742320">
        <ele>27.000000</ele>
        <time>2010-01-01T00:17:34Z</time>
      </trkpt>
      <trkpt lat="41.46566610" lon="2.188803220">
        <ele>28.000000</ele>
        <time>2010-01-01T00:17:49Z</time>
      </trkpt>
      <trkpt lat="41.46287540" lon="2.189107400">
        <ele>36.000000</ele>
        <time>2010-01-01T00:19:41Z</time>
      </trkpt>
      <trkpt lat="41.46270170" lon="2.189310460">
        <ele>34.000000</ele>
        <time>2010-01-01T00:19:50Z</time>
      </trkpt>
      <trkpt lat="41.46187280" lon="2.189375700">
        <ele>24.000000</ele>
        <time>2010-01-01T00:20:24Z</time>
      </trkpt>
      <trkpt lat="41.46134020" lon="2.189458040">
        <ele>21.000000</ele>
        <time>2010-01-01T00:20:45Z</time>
      </trkpt>
      <trkpt lat="41.46120800" lon="2.189490220">
        <ele>22.000000</ele>
        <time>2010-01-01T00:20:50Z</time>
      </trkpt>
      <trkpt lat="41.46092960" lon="2.189588270">
        <ele>24.000000</ele>
        <time>2010-01-01T00:21:02Z</time>
      </trkpt>
      <trkpt lat="41.46074250" lon="2.189670760">
        <ele>25.000000</ele>
        <time>2010-01-01T00:21:10Z</time>
      </trkpt>
      <trkpt lat="41.46029590" lon="2.189910860">
        <ele>24.000000</ele>
        <time>2010-01-01T00:21:29Z</time>
      </trkpt>
      <trkpt lat="41.46004100" lon="2.190082840">
        <ele>24.000000</ele>
        <time>2010-01-01T00:21:41Z</time>
      </trkpt>
      <trkpt lat="41.45982830" lon="2.190252960">
        <ele>25.000000</ele>
        <time>2010-01-01T00:21:50Z</time>
      </trkpt>
      <trkpt lat="41.45936020" lon="2.190770930">
        <ele>27.000000</ele>
        <time>2010-01-01T00:22:15Z</time>
      </trkpt>
      <trkpt lat="41.45889050" lon="2.191057330">
        <ele>27.000000</ele>
        <time>2010-01-01T00:22:35Z</time>
      </trkpt>
      <trkpt lat="41.45823960" lon="2.191698710">
        <ele>24.000000</ele>
        <time>2010-01-01T00:23:08Z</time>
      </trkpt>
      <trkpt lat="41.45790790" lon="2.192066730">
        <ele>25.000000</ele>
        <time>2010-01-01T00:23:25Z</time>
      </trkpt>
      <trkpt lat="41.45744780" lon="2.192665380">
        <ele>23.000000</ele>
        <time>2010-01-01T00:23:51Z</time>
      </trkpt>
      <trkpt lat="41.45602900" lon="2.194679730">
        <ele>18.000000</ele>
        <time>2010-01-01T00:25:14Z</time>
      </trkpt>
      <trkpt lat="41.45592630" lon="2.194545040">
        <ele>17.000000</ele>
        <time>2010-01-01T00:25:20Z</time>
      </trkpt>
      <trkpt lat="41.45551730" lon="2.194995610">
        <ele>32.000000</ele>
        <time>2010-01-01T00:25:41Z</time>
      </trkpt>
      <trkpt lat="41.45557200" lon="2.195063900">
        <ele>32.000000</ele>
        <time>2010-01-01T00:25:44Z</time>
      </trkpt>
      <trkpt lat="41.45393340" lon="2.197380230">
        <ele>20.000000</ele>
        <time>2010-01-01T00:27:19Z</time>
      </trkpt>
      <trkpt lat="41.45348750" lon="2.197867120">
        <ele>16.000000</ele>
        <time>2010-01-01T00:27:42Z</time>
      </trkpt>
      <trkpt lat="41.45353650" lon="2.197944670">
        <ele>15.000000</ele>
        <time>2010-01-01T00:27:45Z</time>
      </trkpt>
      <trkpt lat="41.45280640" lon="2.198939050">
        <ele>22.000000</ele>
        <time>2010-01-01T00:28:27Z</time>
      </trkpt>
      <trkpt lat="41.45198090" lon="2.199970290">
        <ele>21.000000</ele>
        <time>2010-01-01T00:29:13Z</time>
      </trkpt>
      <trkpt lat="41.45158250" lon="2.200446260">
        <ele>22.000000</ele>
        <time>2010-01-01T00:29:34Z</time>
      </trkpt>
      <trkpt lat="41.45112090" lon="2.200966890">
        <ele>18.000000</ele>
        <time>2010-01-01T00:29:58Z</time>
      </trkpt>
      <trkpt lat="41.45061430" lon="2.201359280">
        <ele>20.000000</ele>
        <time>2010-01-01T00:30:22Z</time>
      </trkpt>
      <trkpt lat="41.45065930" lon="2.201463720">
        <ele>20.000000</ele>
        <time>2010-01-01T00:30:25Z</time>
      </trkpt>
      <trkpt lat="41.45005460" lon="2.202087760">
        <ele>20.000000</ele>
        <time>2010-01-01T00:30:56Z</time>
      </trkpt>
      <trkpt lat="41.44921240" lon="2.202904460">
        <ele>19.000000</ele>
        <time>2010-01-01T00:31:37Z</time>
      </trkpt>
      <trkpt lat="41.44796960" lon="2.204073920">
        <ele>18.000000</ele>
        <time>2010-01-01T00:32:38Z</time>
      </trkpt>
      <trkpt lat="41.44741360" lon="2.204442930">
        <ele>13.000000</ele>
        <time>2010-01-01T00:33:03Z</time>
      </trkpt>
      <trkpt lat="41.44745580" lon="2.204555620">
        <ele>14.000000</ele>
        <time>2010-01-01T00:33:07Z</time>
      </trkpt>
      <trkpt lat="41.44517210" lon="2.206724390">
        <ele>17.000000</ele>
        <time>2010-01-01T00:34:59Z</time>
      </trkpt>
      <trkpt lat="41.44461360" lon="2.207084190">
        <ele>18.000000</ele>
        <time>2010-01-01T00:35:24Z</time>
      </trkpt>
      <trkpt lat="41.44465500" lon="2.207197840">
        <ele>18.000000</ele>
        <time>2010-01-01T00:35:28Z</time>
      </trkpt>
      <trkpt lat="41.44442020" lon="2.207398100">
        <ele>18.000000</ele>
        <time>2010-01-01T00:35:39Z</time>
      </trkpt>
      <trkpt lat="41.44383230" lon="2.207872040">
        <ele>17.000000</ele>
        <time>2010-01-01T00:36:06Z</time>
      </trkpt>
      <trkpt lat="41.44332920" lon="2.208231530">
        <ele>21.000000</ele>
        <time>2010-01-01T00:36:29Z</time>
      </trkpt>
      <trkpt lat="41.44276900" lon="2.208594460">
        <ele>17.000000</ele>
        <time>2010-01-01T00:36:54Z</time>
      </trkpt>
      <trkpt lat="41.44223590" lon="2.208896820">
        <ele>19.000000</ele>
        <time>2010-01-01T00:37:17Z</time>
      </trkpt>
      <trkpt lat="41.44161770" lon="2.209210600">
        <ele>18.000000</ele>
        <time>2010-01-01T00:37:44Z</time>
      </trkpt>
      <trkpt lat="41.44100980" lon="2.209347470">
        <ele>17.000000</ele>
        <time>2010-01-01T00:38:09Z</time>
      </trkpt>
      <trkpt lat="41.44102670" lon="2.209470580">
        <ele>19.000000</ele>
        <time>2010-01-01T00:38:12Z</time>
      </trkpt>
      <trkpt lat="41.44040420" lon="2.209698000">
        <ele>16.000000</ele>
        <time>2010-01-01T00:38:38Z</time>
      </trkpt>
      <trkpt lat="41.43939560" lon="2.209987140">
        <ele>19.000000</ele>
        <time>2010-01-01T00:39:19Z</time>
      </trkpt>
      <trkpt lat="41.43836570" lon="2.210219140">
        <ele>18.000000</ele>
        <time>2010-01-01T00:40:01Z</time>
      </trkpt>
      <trkpt lat="41.43713460" lon="2.210467660">
        <ele>14.000000</ele>
        <time>2010-01-01T00:40:51Z</time>
      </trkpt>
      <trkpt lat="41.43705080" lon="2.210590830">
        <ele>15.000000</ele>
        <time>2010-01-01T00:40:56Z</time>
      </trkpt>
      <trkpt lat="41.43695260" lon="2.210639240">
        <ele>16.000000</ele>
        <time>2010-01-01T00:41:00Z</time>
      </trkpt>
      <trkpt lat="41.43666670" lon="2.210719350">
        <ele>20.000000</ele>
        <time>2010-01-01T00:41:12Z</time>
      </trkpt>
      <trkpt lat="41.43621870" lon="2.210876450">
        <ele>22.000000</ele>
        <time>2010-01-01T00:41:31Z</time>
      </trkpt>
      <trkpt lat="41.43534280" lon="2.211227080">
        <ele>13.000000</ele>
        <time>2010-01-01T00:42:07Z</time>
      </trkpt>
      <trkpt lat="41.43498610" lon="2.211396560">
        <ele>13.000000</ele>
        <time>2010-01-01T00:42:22Z</time>
      </trkpt>
      <trkpt lat="41.43451340" lon="2.211647180">
        <ele>14.000000</ele>
        <time>2010-01-01T00:42:43Z</time>
      </trkpt>
      <trkpt lat="41.43348980" lon="2.212229600">
        <ele>13.000000</ele>
        <time>2010-01-01T00:43:27Z</time>
      </trkpt>
      <trkpt lat="41.43285490" lon="2.212445430">
        <ele>8.0000000</ele>
        <time>2010-01-01T00:43:53Z</time>
      </trkpt>
      <trkpt lat="41.43287970" lon="2.212573480">
        <ele>9.0000000</ele>
        <time>2010-01-01T00:43:57Z</time>
      </trkpt>
      <trkpt lat="41.43254300" lon="2.212788780">
        <ele>11.000000</ele>
        <time>2010-01-01T00:44:12Z</time>
      </trkpt>
      <trkpt lat="41.43208470" lon="2.213133930">
        <ele>9.0000000</ele>
        <time>2010-01-01T00:44:33Z</time>
      </trkpt>
      <trkpt lat="41.43187830" lon="2.213311970">
        <ele>10.000000</ele>
        <time>2010-01-01T00:44:43Z</time>
      </trkpt>
      <trkpt lat="41.43166060" lon="2.213522760">
        <ele>10.000000</ele>
        <time>2010-01-01T00:44:54Z</time>
      </trkpt>
      <trkpt lat="41.43136610" lon="2.213842520">
        <ele>11.000000</ele>
        <time>2010-01-01T00:45:09Z</time>
      </trkpt>
      <trkpt lat="41.43115090" lon="2.214104830">
        <ele>13.000000</ele>
        <time>2010-01-01T00:45:21Z</time>
      </trkpt>
      <trkpt lat="41.43012350" lon="2.215492850">
        <ele>12.000000</ele>
        <time>2010-01-01T00:46:19Z</time>
      </trkpt>
      <trkpt lat="41.42961180" lon="2.216029230">
        <ele>12.000000</ele>
        <time>2010-01-01T00:46:45Z</time>
      </trkpt>
      <trkpt lat="41.42966150" lon="2.216109350">
        <ele>13.000000</ele>
        <time>2010-01-01T00:46:49Z</time>
      </trkpt>
      <trkpt lat="41.42686070" lon="2.219885310">
        <ele>11.000000</ele>
        <time>2010-01-01T00:49:28Z</time>
      </trkpt>
      <trkpt lat="41.42634870" lon="2.220477700">
        <ele>17.000000</ele>
        <time>2010-01-01T00:49:55Z</time>
      </trkpt>
      <trkpt lat="41.42640200" lon="2.220560900">
        <ele>17.000000</ele>
        <time>2010-01-01T00:49:58Z</time>
      </trkpt>
      <trkpt lat="41.42599390" lon="2.221205050">
        <ele>10.000000</ele>
        <time>2010-01-01T00:50:24Z</time>
      </trkpt>
      <trkpt lat="41.42559490" lon="2.221887270">
        <ele>11.000000</ele>
        <time>2010-01-01T00:50:50Z</time>
      </trkpt>
      <trkpt lat="41.42471030" lon="2.223611810">
        <ele>2.0000000</ele>
        <time>2010-01-01T00:51:52Z</time>
      </trkpt>
      <trkpt lat="41.42415940" lon="2.224578390">
        <ele>3.0000000</ele>
        <time>2010-01-01T00:52:29Z</time>
      </trkpt>
      <trkpt lat="41.42422100" lon="2.224644860">
        <ele>4.0000000</ele>
        <time>2010-01-01T00:52:32Z</time>
      </trkpt>
      <trkpt lat="41.42382880" lon="2.225498980">
        <ele>6.0000000</ele>
        <time>2010-01-01T00:53:02Z</time>
      </trkpt>
      <trkpt lat="41.42292910" lon="2.227439070">
        <ele>7.0000000</ele>
        <time>2010-01-01T00:54:11Z</time>
      </trkpt>
      <trkpt lat="41.42251030" lon="2.228168750">
        <ele>8.0000000</ele>
        <time>2010-01-01T00:54:38Z</time>
      </trkpt>
      <trkpt lat="41.42257300" lon="2.228239340">
        <ele>7.0000000</ele>
        <time>2010-01-01T00:54:41Z</time>
      </trkpt>
      <trkpt lat="41.42275450" lon="2.227878360">
        <ele>7.0000000</ele>
        <time>2010-01-01T00:54:55Z</time>
      </trkpt>
      <trkpt lat="41.42288430" lon="2.227705530">
        <ele>7.0000000</ele>
        <time>2010-01-01T00:55:02Z</time>
      </trkpt>
      <trkpt lat="41.42299320" lon="2.227508460">
        <ele>7.0000000</ele>
        <time>2010-01-01T00:55:09Z</time>
      </trkpt>
      <trkpt lat="41.42303460" lon="2.227493300">
        <ele>7.0000000</ele>
        <time>2010-01-01T00:55:11Z</time>
      </trkpt>
      <trkpt lat="41.42312460" lon="2.227527090">
        <ele>8.0000000</ele>
        <time>2010-01-01T00:55:15Z</time>
      </trkpt>
      <trkpt lat="41.42319980" lon="2.227385550">
        <ele>8.0000000</ele>
        <time>2010-01-01T00:55:20Z</time>
      </trkpt>
      <trkpt lat="41.42324800" lon="2.227359650">
        <ele>9.0000000</ele>
        <time>2010-01-01T00:55:22Z</time>
      </trkpt>
      <trkpt lat="41.42331510" lon="2.227414770">
        <ele>10.000000</ele>
        <time>2010-01-01T00:55:25Z</time>
      </trkpt>
      <trkpt lat="41.42330360" lon="2.227433800">
        <ele>10.000000</ele>
        <time>2010-01-01T00:55:26Z</time>
      </trkpt>
      <trkpt lat="41.42332230" lon="2.227449690">
        <ele>10.000000</ele>
        <time>2010-01-01T00:55:27Z</time>
      </trkpt>
      <trkpt lat="41.42275200" lon="2.228598770">
        <ele>6.0000000</ele>
        <time>2010-01-01T00:56:08Z</time>
      </trkpt>
      <trkpt lat="41.42211240" lon="2.229994770">
        <ele>11.000000</ele>
        <time>2010-01-01T00:56:57Z</time>
      </trkpt>
      <trkpt lat="41.42199520" lon="2.230250630">
        <ele>14.000000</ele>
        <time>2010-01-01T00:57:06Z</time>
      </trkpt>
      <trkpt lat="41.42198030" lon="2.230357630">
        <ele>15.000000</ele>
        <time>2010-01-01T00:57:09Z</time>
      </trkpt>
      <trkpt lat="41.42200230" lon="2.230501220">
        <ele>16.000000</ele>
        <time>2010-01-01T00:57:14Z</time>
      </trkpt>
      <trkpt lat="41.42203160" lon="2.230586870">
        <ele>16.000000</ele>
        <time>2010-01-01T00:57:17Z</time>
      </trkpt>
      <trkpt lat="41.42207730" lon="2.230646890">
        <ele>15.000000</ele>
        <time>2010-01-01T00:57:19Z</time>
      </trkpt>
      <trkpt lat="41.42269800" lon="2.231195370">
        <ele>15.000000</ele>
        <time>2010-01-01T00:57:49Z</time>
      </trkpt>
      <trkpt lat="41.42288550" lon="2.231360980">
        <ele>12.000000</ele>
        <time>2010-01-01T00:57:58Z</time>
      </trkpt>
      <trkpt lat="41.42294950" lon="2.231283520">
        <ele>11.000000</ele>
        <time>2010-01-01T00:58:02Z</time>
      </trkpt>
      <trkpt lat="41.42328350" lon="2.230669190">
        <ele>8.0000000</ele>
        <time>2010-01-01T00:58:24Z</time>
      </trkpt>
      <trkpt lat="41.42341560" lon="2.230426480">
        <ele>7.0000000</ele>
        <time>2010-01-01T00:58:33Z</time>
      </trkpt>
      <trkpt lat="41.41868430" lon="2.226191370">
        <ele>3.0000000</ele>
        <time>2010-01-01T01:02:21Z</time>
      </trkpt>
      <trkpt lat="41.41849770" lon="2.226024270">
        <ele>6.0000000</ele>
        <time>2010-01-01T01:02:30Z</time>
      </trkpt>
      <trkpt lat="41.41651560" lon="2.227433520">
        <ele>16.000000</ele>
        <time>2010-01-01T01:04:00Z</time>
      </trkpt>
      <trkpt lat="41.41631730" lon="2.227574580">
        <ele>15.000000</ele>
        <time>2010-01-01T01:04:09Z</time>
      </trkpt>
      <trkpt lat="41.41406850" lon="2.225745320">
        <ele>8.0000000</ele>
        <time>2010-01-01T01:05:55Z</time>
      </trkpt>
      <trkpt lat="41.40993270" lon="2.221679090">
        <ele>12.000000</ele>
        <time>2010-01-01T01:09:20Z</time>
      </trkpt>
      <trkpt lat="41.40934530" lon="2.221968770">
        <ele>9.0000000</ele>
        <time>2010-01-01T01:09:46Z</time>
      </trkpt>
      <trkpt lat="41.40834660" lon="2.221594000">
        <ele>11.000000</ele>
        <time>2010-01-01T01:10:27Z</time>
      </trkpt>
      <trkpt lat="41.40813020" lon="2.221512790">
        <ele>13.000000</ele>
        <time>2010-01-01T01:10:36Z</time>
      </trkpt>
      <trkpt lat="41.40679850" lon="2.219796180">
        <ele>7.0000000</ele>
        <time>2010-01-01T01:11:50Z</time>
      </trkpt>
      <trkpt lat="41.40645290" lon="2.219438260">
        <ele>9.0000000</ele>
        <time>2010-01-01T01:12:08Z</time>
      </trkpt>
      <trkpt lat="41.40627540" lon="2.219254370">
        <ele>12.000000</ele>
        <time>2010-01-01T01:12:17Z</time>
      </trkpt>
      <trkpt lat="41.40608330" lon="2.219365610">
        <ele>12.000000</ele>
        <time>2010-01-01T01:12:25Z</time>
      </trkpt>
      <trkpt lat="41.40587710" lon="2.219485040">
        <ele>5.0000000</ele>
        <time>2010-01-01T01:12:34Z</time>
      </trkpt>
      <trkpt lat="41.40374460" lon="2.216529250">
        <ele>8.0000000</ele>
        <time>2010-01-01T01:14:37Z</time>
      </trkpt>
      <trkpt lat="41.40273460" lon="2.215263240">
        <ele>9.0000000</ele>
        <time>2010-01-01T01:15:33Z</time>
      </trkpt>
      <trkpt lat="41.40136250" lon="2.214270830">
        <ele>9.0000000</ele>
        <time>2010-01-01T01:16:35Z</time>
      </trkpt>
      <trkpt lat="41.40063820" lon="2.213332050">
        <ele>7.0000000</ele>
        <time>2010-01-01T01:17:16Z</time>
      </trkpt>
      <trkpt lat="41.39995420" lon="2.212575670">
        <ele>10.000000</ele>
        <time>2010-01-01T01:17:51Z</time>
      </trkpt>
      <trkpt lat="41.39767260" lon="2.210762500">
        <ele>2.0000000</ele>
        <time>2010-01-01T01:19:38Z</time>
      </trkpt>
      <trkpt lat="41.39708100" lon="2.210247510">
        <ele>5.0000000</ele>
        <time>2010-01-01T01:20:06Z</time>
      </trkpt>
      <trkpt lat="41.39673090" lon="2.209303370">
        <ele>4.0000000</ele>
        <time>2010-01-01T01:20:37Z</time>
      </trkpt>
      <trkpt lat="41.39418360" lon="2.206068630">
        <ele>8.0000000</ele>
        <time>2010-01-01T01:22:58Z</time>
      </trkpt>
      <trkpt lat="41.39198630" lon="2.204491490">
        <ele>8.0000000</ele>
        <time>2010-01-01T01:24:38Z</time>
      </trkpt>
      <trkpt lat="41.39108890" lon="2.202753420">
        <ele>1.0000000</ele>
        <time>2010-01-01T01:25:42Z</time>
      </trkpt>
      <trkpt lat="41.39065830" lon="2.201626890">
        <ele>1.0000000</ele>
        <time>2010-01-01T01:26:20Z</time>
      </trkpt>
      <trkpt lat="41.38982520" lon="2.200548640">
        <ele>11.000000</ele>
        <time>2010-01-01T01:27:06Z</time>
      </trkpt>
      <trkpt lat="41.38953140" lon="2.200570100">
        <ele>8.0000000</ele>
        <time>2010-01-01T01:27:18Z</time>
      </trkpt>
      <trkpt lat="41.38931410" lon="2.200317970">
        <ele>9.0000000</ele>
        <time>2010-01-01T01:27:29Z</time>
      </trkpt>
      <trkpt lat="41.38738150" lon="2.197786790">
        <ele>10.000000</ele>
        <time>2010-01-01T01:29:18Z</time>
      </trkpt>
      <trkpt lat="41.38722120" lon="2.197576760">
        <ele>13.000000</ele>
        <time>2010-01-01T01:29:27Z</time>
      </trkpt>
      <trkpt lat="41.38657890" lon="2.198110270">
        <ele>7.0000000</ele>
        <time>2010-01-01T01:29:57Z</time>
      </trkpt>
      <trkpt lat="41.38638810" lon="2.198268770">
        <ele>10.000000</ele>
        <time>2010-01-01T01:30:06Z</time>
      </trkpt>
      <trkpt lat="41.38459710" lon="2.195929880">
        <ele>10.000000</ele>
        <time>2010-01-01T01:31:46Z</time>
      </trkpt>
      <trkpt lat="41.38454480" lon="2.195656290">
        <ele>10.000000</ele>
        <time>2010-01-01T01:31:55Z</time>
      </trkpt>
      <trkpt lat="41.37913810" lon="2.192342880">
        <ele>6.0000000</ele>
        <time>2010-01-01T01:35:53Z</time>
      </trkpt>
      <trkpt lat="41.37893390" lon="2.192217700">
        <ele>2.0000000</ele>
        <time>2010-01-01T01:36:02Z</time>
      </trkpt>
      <trkpt lat="41.37874070" lon="2.190994620">
        <ele>10.000000</ele>
        <time>2010-01-01T01:36:40Z</time>
      </trkpt>
      <trkpt lat="41.37811740" lon="2.188425830">
        <ele>12.000000</ele>
        <time>2010-01-01T01:38:01Z</time>
      </trkpt>
      <trkpt lat="41.37804830" lon="2.188140740">
        <ele>11.000000</ele>
        <time>2010-01-01T01:38:10Z</time>
      </trkpt>
      <trkpt lat="41.37840660" lon="2.187775960">
        <ele>11.000000</ele>
        <time>2010-01-01T01:38:28Z</time>
      </trkpt>
      <trkpt lat="41.38071700" lon="2.186847920">
        <ele>7.0000000</ele>
        <time>2010-01-01T01:40:04Z</time>
      </trkpt>
      <trkpt lat="41.38134030" lon="2.185610730">
        <ele>6.0000000</ele>
        <time>2010-01-01T01:40:49Z</time>
      </trkpt>
      <trkpt lat="41.38146570" lon="2.185361980">
        <ele>7.0000000</ele>
        <time>2010-01-01T01:40:58Z</time>
      </trkpt>
      <trkpt lat="41.38075730" lon="2.183302040">
        <ele>5.0000000</ele>
        <time>2010-01-01T01:42:06Z</time>
      </trkpt>
      <trkpt lat="41.38066870" lon="2.182931900">
        <ele>5.0000000</ele>
        <time>2010-01-01T01:42:18Z</time>
      </trkpt>
      <trkpt lat="41.37994420" lon="2.181848280">
        <ele>-4.000000</ele>
        <time>2010-01-01T01:43:02Z</time>
      </trkpt>
      <trkpt lat="41.37606380" lon="2.178570620">
        <ele>10.000000</ele>
        <time>2010-01-01T01:46:05Z</time>
      </trkpt>
      <trkpt lat="41.37504140" lon="2.178109280">
        <ele>7.0000000</ele>
        <time>2010-01-01T01:46:49Z</time>
      </trkpt>
      <trkpt lat="41.37414770" lon="2.177428000">
        <ele>9.0000000</ele>
        <time>2010-01-01T01:47:30Z</time>
      </trkpt>
      <trkpt lat="41.37384580" lon="2.177084680">
        <ele>5.0000000</ele>
        <time>2010-01-01T01:47:46Z</time>
      </trkpt>
      <trkpt lat="41.37385380" lon="2.176843280">
        <ele>6.0000000</ele>
        <time>2010-01-01T01:47:53Z</time>
      </trkpt>
      <trkpt lat="41.37358010" lon="2.176650160">
        <ele>6.0000000</ele>
        <time>2010-01-01T01:48:05Z</time>
      </trkpt>
      <trkpt lat="41.37353810" lon="2.176530140">
        <ele>6.0000000</ele>
        <time>2010-01-01T01:48:09Z</time>
      </trkpt>
      <trkpt lat="41.37344320" lon="2.176258560">
        <ele>7.0000000</ele>
        <time>2010-01-01T01:48:18Z</time>
      </trkpt>
      <trkpt lat="41.37367270" lon="2.175636290">
        <ele>7.0000000</ele>
        <time>2010-01-01T01:48:39Z</time>
      </trkpt>
      <trkpt lat="41.37395450" lon="2.175593370">
        <ele>5.0000000</ele>
        <time>2010-01-01T01:48:51Z</time>
      </trkpt>
      <trkpt lat="41.37410750" lon="2.175657740">
        <ele>5.0000000</ele>
        <time>2010-01-01T01:48:57Z</time>
      </trkpt>
      <trkpt lat="41.37420000" lon="2.175791850">
        <ele>4.0000000</ele>
        <time>2010-01-01T01:49:02Z</time>
      </trkpt>
      <trkpt lat="41.37432080" lon="2.175679200">
        <ele>7.0000000</ele>
        <time>2010-01-01T01:49:08Z</time>
      </trkpt>
      <trkpt lat="41.37446450" lon="2.175495160">
        <ele>10.000000</ele>
        <time>2010-01-01T01:49:16Z</time>
      </trkpt>
      <trkpt lat="41.37462670" lon="2.175287600">
        <ele>13.000000</ele>
        <time>2010-01-01T01:49:25Z</time>
      </trkpt>
      <trkpt lat="41.37502120" lon="2.166157360">
        <ele>24.000000</ele>
        <time>2010-01-01T01:54:00Z</time>
      </trkpt>
      <trkpt lat="41.37500110" lon="2.157649390">
        <ele>37.000000</ele>
        <time>2010-01-01T01:58:16Z</time>
      </trkpt>
      <trkpt lat="41.37508970" lon="2.149989000">
        <ele>28.000000</ele>
        <time>2010-01-01T02:02:06Z</time>
      </trkpt>
      <trkpt lat="41.37523860" lon="2.149640320">
        <ele>28.000000</ele>
        <time>2010-01-01T02:02:18Z</time>
      </trkpt>
      <trkpt lat="41.37545600" lon="2.149350640">
        <ele>31.000000</ele>
        <time>2010-01-01T02:02:30Z</time>
      </trkpt>
      <trkpt lat="41.37539160" lon="2.148894660">
        <ele>40.000000</ele>
        <time>2010-01-01T02:02:44Z</time>
      </trkpt>
      <trkpt lat="41.37516210" lon="2.148368950">
        <ele>47.000000</ele>
        <time>2010-01-01T02:03:02Z</time>
      </trkpt>
      <trkpt lat="41.37539160" lon="2.137967340">
        <ele>41.000000</ele>
        <time>2010-01-01T02:08:15Z</time>
      </trkpt>
      <trkpt lat="41.37566400" lon="2.122565220">
        <ele>54.000000</ele>
        <time>2010-01-01T02:15:58Z</time>
      </trkpt>
      <trkpt lat="41.37566930" lon="2.122265690">
        <ele>57.000000</ele>
        <time>2010-01-01T02:16:07Z</time>
      </trkpt>
      <trkpt lat="41.37783500" lon="2.121514670">
        <ele>51.000000</ele>
        <time>2010-01-01T02:17:36Z</time>
      </trkpt>
      <trkpt lat="41.37902800" lon="2.119594330">
        <ele>51.000000</ele>
        <time>2010-01-01T02:18:51Z</time>
      </trkpt>
      <trkpt lat="41.37917140" lon="2.119363540">
        <ele>53.000000</ele>
        <time>2010-01-01T02:19:00Z</time>
      </trkpt>
      <trkpt lat="41.37819050" lon="2.116661370">
        <ele>55.000000</ele>
        <time>2010-01-01T02:20:30Z</time>
      </trkpt>
      <trkpt lat="41.37809260" lon="2.116391650">
        <ele>55.000000</ele>
        <time>2010-01-01T02:20:39Z</time>
      </trkpt>
      <trkpt lat="41.37857160" lon="2.115286580">
        <ele>63.000000</ele>
        <time>2010-01-01T02:21:18Z</time>
      </trkpt>
      <trkpt lat="41.37880910" lon="2.114111780">
        <ele>66.000000</ele>
        <time>2010-01-01T02:21:54Z</time>
      </trkpt>
      <trkpt lat="41.37906300" lon="2.113668630">
        <ele>66.000000</ele>
        <time>2010-01-01T02:22:11Z</time>
      </trkpt>
      <trkpt lat="41.37919950" lon="2.113430500">
        <ele>66.000000</ele>
        <time>2010-01-01T02:22:20Z</time>
      </trkpt>
      <trkpt lat="41.37822540" lon="2.112362980">
        <ele>68.000000</ele>
        <time>2010-01-01T02:23:10Z</time>
      </trkpt>
    </trkseg>
  </trk>
</gpx>
